<?xml version="1.0" encoding="UTF-8" standalone="no" ?>
<gpx xmlns="http://www.topografix.com/GPX/1/1" xmlns:xsi="http://www.w3.org/2001/XMLSchema-instance" xsi:schemaLocation="http://www.topografix.com/GPX/1/1 http://www.topografix.com/GPX/1/1/gpx.xsd" version="1.1" creator="VisuGPX - https://www.visugpx.com">
  <metadata>
    <name>Les calanques: départ Luminy</name>
    <desc><![CDATA[Passage par Calanques Morgiou, Sugiton et son  cap, Le Torpilleur, col de la Candelle, col Ricard.]]></desc>
  </metadata>
  <trk>
    <name><![CDATA[J2 21-AVR-19 06:43:00 PM]]></name>
    <trkseg>
      <trkpt lat="43.2319" lon="5.43614">
        <ele>149.14</ele>
        <time>2019-04-21T08:01:56Z</time>
      </trkpt>
      <trkpt lat="43.23191" lon="5.43617">
        <ele>148.66</ele>
        <time>2019-04-21T08:02:07Z</time>
      </trkpt>
      <trkpt lat="43.23177" lon="5.4363">
        <ele>148.66</ele>
        <time>2019-04-21T08:02:19Z</time>
      </trkpt>
      <trkpt lat="43.23176" lon="5.43632">
        <ele>148.66</ele>
        <time>2019-04-21T08:02:20Z</time>
      </trkpt>
      <trkpt lat="43.23174" lon="5.43633">
        <ele>148.66</ele>
        <time>2019-04-21T08:02:21Z</time>
      </trkpt>
      <trkpt lat="43.23173" lon="5.43634">
        <ele>148.66</ele>
        <time>2019-04-21T08:02:22Z</time>
      </trkpt>
      <trkpt lat="43.23172" lon="5.43636">
        <ele>149.14</ele>
        <time>2019-04-21T08:02:23Z</time>
      </trkpt>
      <trkpt lat="43.23165" lon="5.43642">
        <ele>148.66</ele>
        <time>2019-04-21T08:02:39Z</time>
      </trkpt>
      <trkpt lat="43.23166" lon="5.43644">
        <ele>148.66</ele>
        <time>2019-04-21T08:02:55Z</time>
      </trkpt>
      <trkpt lat="43.23165" lon="5.43647">
        <ele>148.18</ele>
        <time>2019-04-21T08:03:18Z</time>
      </trkpt>
      <trkpt lat="43.23161" lon="5.43654">
        <ele>149.14</ele>
        <time>2019-04-21T08:03:25Z</time>
      </trkpt>
      <trkpt lat="43.23157" lon="5.43655">
        <ele>148.66</ele>
        <time>2019-04-21T08:03:27Z</time>
      </trkpt>
      <trkpt lat="43.23155" lon="5.43655">
        <ele>149.14</ele>
        <time>2019-04-21T08:03:28Z</time>
      </trkpt>
      <trkpt lat="43.23143" lon="5.43659">
        <ele>149.14</ele>
        <time>2019-04-21T08:03:41Z</time>
      </trkpt>
      <trkpt lat="43.23134" lon="5.43661">
        <ele>149.62</ele>
        <time>2019-04-21T08:03:49Z</time>
      </trkpt>
      <trkpt lat="43.23132" lon="5.43661">
        <ele>149.14</ele>
        <time>2019-04-21T08:03:50Z</time>
      </trkpt>
      <trkpt lat="43.2312" lon="5.43665">
        <ele>149.62</ele>
        <time>2019-04-21T08:04:02Z</time>
      </trkpt>
      <trkpt lat="43.23122" lon="5.43665">
        <ele>150.1</ele>
        <time>2019-04-21T08:04:21Z</time>
      </trkpt>
      <trkpt lat="43.23126" lon="5.43665">
        <ele>150.1</ele>
        <time>2019-04-21T08:04:42Z</time>
      </trkpt>
      <trkpt lat="43.23123" lon="5.43669">
        <ele>150.1</ele>
        <time>2019-04-21T08:05:03Z</time>
      </trkpt>
      <trkpt lat="43.23121" lon="5.43668">
        <ele>149.62</ele>
        <time>2019-04-21T08:05:26Z</time>
      </trkpt>
      <trkpt lat="43.2312" lon="5.43668">
        <ele>149.62</ele>
        <time>2019-04-21T08:05:57Z</time>
      </trkpt>
      <trkpt lat="43.23119" lon="5.43668">
        <ele>149.14</ele>
        <time>2019-04-21T08:06:28Z</time>
      </trkpt>
      <trkpt lat="43.2312" lon="5.43668">
        <ele>149.14</ele>
        <time>2019-04-21T08:07:03Z</time>
      </trkpt>
      <trkpt lat="43.23125" lon="5.43672">
        <ele>149.14</ele>
        <time>2019-04-21T08:07:32Z</time>
      </trkpt>
      <trkpt lat="43.23121" lon="5.43667">
        <ele>149.14</ele>
        <time>2019-04-21T08:07:58Z</time>
      </trkpt>
      <trkpt lat="43.23122" lon="5.43667">
        <ele>149.62</ele>
        <time>2019-04-21T08:08:14Z</time>
      </trkpt>
      <trkpt lat="43.23122" lon="5.43668">
        <ele>148.66</ele>
        <time>2019-04-21T08:08:29Z</time>
      </trkpt>
      <trkpt lat="43.23121" lon="5.43667">
        <ele>148.66</ele>
        <time>2019-04-21T08:08:44Z</time>
      </trkpt>
      <trkpt lat="43.23123" lon="5.43668">
        <ele>148.18</ele>
        <time>2019-04-21T08:09:08Z</time>
      </trkpt>
      <trkpt lat="43.23123" lon="5.43669">
        <ele>147.22</ele>
        <time>2019-04-21T08:09:40Z</time>
      </trkpt>
      <trkpt lat="43.23123" lon="5.43669">
        <ele>146.26</ele>
        <time>2019-04-21T08:10:11Z</time>
      </trkpt>
      <trkpt lat="43.2312" lon="5.43666">
        <ele>145.78</ele>
        <time>2019-04-21T08:10:44Z</time>
      </trkpt>
      <trkpt lat="43.23117" lon="5.43673">
        <ele>147.22</ele>
        <time>2019-04-21T08:11:15Z</time>
      </trkpt>
      <trkpt lat="43.23109" lon="5.43673">
        <ele>147.22</ele>
        <time>2019-04-21T08:11:24Z</time>
      </trkpt>
      <trkpt lat="43.23101" lon="5.4367">
        <ele>147.7</ele>
        <time>2019-04-21T08:11:39Z</time>
      </trkpt>
      <trkpt lat="43.23089" lon="5.43671">
        <ele>148.66</ele>
        <time>2019-04-21T08:11:51Z</time>
      </trkpt>
      <trkpt lat="43.2308" lon="5.43675">
        <ele>149.14</ele>
        <time>2019-04-21T08:12:02Z</time>
      </trkpt>
      <trkpt lat="43.23077" lon="5.43676">
        <ele>149.14</ele>
        <time>2019-04-21T08:12:06Z</time>
      </trkpt>
      <trkpt lat="43.23072" lon="5.43675">
        <ele>149.14</ele>
        <time>2019-04-21T08:12:11Z</time>
      </trkpt>
      <trkpt lat="43.23068" lon="5.43678">
        <ele>149.62</ele>
        <time>2019-04-21T08:12:17Z</time>
      </trkpt>
      <trkpt lat="43.23065" lon="5.4368">
        <ele>149.62</ele>
        <time>2019-04-21T08:12:19Z</time>
      </trkpt>
      <trkpt lat="43.23052" lon="5.43678">
        <ele>150.58</ele>
        <time>2019-04-21T08:12:34Z</time>
      </trkpt>
      <trkpt lat="43.23047" lon="5.4368">
        <ele>150.58</ele>
        <time>2019-04-21T08:12:41Z</time>
      </trkpt>
      <trkpt lat="43.23046" lon="5.4368">
        <ele>150.1</ele>
        <time>2019-04-21T08:12:42Z</time>
      </trkpt>
      <trkpt lat="43.23037" lon="5.43683">
        <ele>151.06</ele>
        <time>2019-04-21T08:12:53Z</time>
      </trkpt>
      <trkpt lat="43.23033" lon="5.43682">
        <ele>151.54</ele>
        <time>2019-04-21T08:12:58Z</time>
      </trkpt>
      <trkpt lat="43.23019" lon="5.43685">
        <ele>152.03</ele>
        <time>2019-04-21T08:13:12Z</time>
      </trkpt>
      <trkpt lat="43.23011" lon="5.43687">
        <ele>153.47</ele>
        <time>2019-04-21T08:13:22Z</time>
      </trkpt>
      <trkpt lat="43.23007" lon="5.43688">
        <ele>153.47</ele>
        <time>2019-04-21T08:13:27Z</time>
      </trkpt>
      <trkpt lat="43.23006" lon="5.4369">
        <ele>153.47</ele>
        <time>2019-04-21T08:13:28Z</time>
      </trkpt>
      <trkpt lat="43.23001" lon="5.43692">
        <ele>153.47</ele>
        <time>2019-04-21T08:13:34Z</time>
      </trkpt>
      <trkpt lat="43.22993" lon="5.43694">
        <ele>153.95</ele>
        <time>2019-04-21T08:13:44Z</time>
      </trkpt>
      <trkpt lat="43.22992" lon="5.43694">
        <ele>153.95</ele>
        <time>2019-04-21T08:13:49Z</time>
      </trkpt>
      <trkpt lat="43.22986" lon="5.43698">
        <ele>154.43</ele>
        <time>2019-04-21T08:13:58Z</time>
      </trkpt>
      <trkpt lat="43.22979" lon="5.43707">
        <ele>154.91</ele>
        <time>2019-04-21T08:14:10Z</time>
      </trkpt>
      <trkpt lat="43.22968" lon="5.43708">
        <ele>155.87</ele>
        <time>2019-04-21T08:14:22Z</time>
      </trkpt>
      <trkpt lat="43.22964" lon="5.43708">
        <ele>155.87</ele>
        <time>2019-04-21T08:14:26Z</time>
      </trkpt>
      <trkpt lat="43.22958" lon="5.43712">
        <ele>157.31</ele>
        <time>2019-04-21T08:14:41Z</time>
      </trkpt>
      <trkpt lat="43.22961" lon="5.43707">
        <ele>156.83</ele>
        <time>2019-04-21T08:14:59Z</time>
      </trkpt>
      <trkpt lat="43.22956" lon="5.43709">
        <ele>157.31</ele>
        <time>2019-04-21T08:15:25Z</time>
      </trkpt>
      <trkpt lat="43.22954" lon="5.4371">
        <ele>156.83</ele>
        <time>2019-04-21T08:15:36Z</time>
      </trkpt>
      <trkpt lat="43.22953" lon="5.43711">
        <ele>157.31</ele>
        <time>2019-04-21T08:15:42Z</time>
      </trkpt>
      <trkpt lat="43.22937" lon="5.4371">
        <ele>157.79</ele>
        <time>2019-04-21T08:15:55Z</time>
      </trkpt>
      <trkpt lat="43.22924" lon="5.43715">
        <ele>158.75</ele>
        <time>2019-04-21T08:16:09Z</time>
      </trkpt>
      <trkpt lat="43.22916" lon="5.43713">
        <ele>159.24</ele>
        <time>2019-04-21T08:16:23Z</time>
      </trkpt>
      <trkpt lat="43.22912" lon="5.43713">
        <ele>159.24</ele>
        <time>2019-04-21T08:16:47Z</time>
      </trkpt>
      <trkpt lat="43.22907" lon="5.4371">
        <ele>159.72</ele>
        <time>2019-04-21T08:17:12Z</time>
      </trkpt>
      <trkpt lat="43.22915" lon="5.43708">
        <ele>159.24</ele>
        <time>2019-04-21T08:17:35Z</time>
      </trkpt>
      <trkpt lat="43.22911" lon="5.43714">
        <ele>160.2</ele>
        <time>2019-04-21T08:17:59Z</time>
      </trkpt>
      <trkpt lat="43.229" lon="5.43718">
        <ele>160.68</ele>
        <time>2019-04-21T08:18:15Z</time>
      </trkpt>
      <trkpt lat="43.22889" lon="5.43718">
        <ele>162.6</ele>
        <time>2019-04-21T08:18:28Z</time>
      </trkpt>
      <trkpt lat="43.22873" lon="5.43717">
        <ele>163.08</ele>
        <time>2019-04-21T08:18:41Z</time>
      </trkpt>
      <trkpt lat="43.22868" lon="5.43716">
        <ele>163.56</ele>
        <time>2019-04-21T08:18:46Z</time>
      </trkpt>
      <trkpt lat="43.22867" lon="5.43716">
        <ele>163.08</ele>
        <time>2019-04-21T08:18:47Z</time>
      </trkpt>
      <trkpt lat="43.22854" lon="5.43723">
        <ele>163.56</ele>
        <time>2019-04-21T08:19:03Z</time>
      </trkpt>
      <trkpt lat="43.22843" lon="5.43723">
        <ele>164.52</ele>
        <time>2019-04-21T08:19:16Z</time>
      </trkpt>
      <trkpt lat="43.2283" lon="5.43724">
        <ele>165.48</ele>
        <time>2019-04-21T08:19:29Z</time>
      </trkpt>
      <trkpt lat="43.22813" lon="5.43727">
        <ele>166.45</ele>
        <time>2019-04-21T08:19:41Z</time>
      </trkpt>
      <trkpt lat="43.22801" lon="5.4373">
        <ele>165.96</ele>
        <time>2019-04-21T08:19:53Z</time>
      </trkpt>
      <trkpt lat="43.22798" lon="5.4373">
        <ele>166.45</ele>
        <time>2019-04-21T08:19:58Z</time>
      </trkpt>
      <trkpt lat="43.22797" lon="5.4373">
        <ele>166.45</ele>
        <time>2019-04-21T08:19:59Z</time>
      </trkpt>
      <trkpt lat="43.22793" lon="5.43728">
        <ele>166.93</ele>
        <time>2019-04-21T08:20:07Z</time>
      </trkpt>
      <trkpt lat="43.22787" lon="5.43724">
        <ele>167.41</ele>
        <time>2019-04-21T08:20:14Z</time>
      </trkpt>
      <trkpt lat="43.2278" lon="5.43723">
        <ele>168.37</ele>
        <time>2019-04-21T08:20:24Z</time>
      </trkpt>
      <trkpt lat="43.22771" lon="5.43725">
        <ele>168.37</ele>
        <time>2019-04-21T08:20:35Z</time>
      </trkpt>
      <trkpt lat="43.2276" lon="5.43727">
        <ele>168.85</ele>
        <time>2019-04-21T08:20:45Z</time>
      </trkpt>
      <trkpt lat="43.22749" lon="5.43729">
        <ele>169.81</ele>
        <time>2019-04-21T08:20:57Z</time>
      </trkpt>
      <trkpt lat="43.22748" lon="5.43729">
        <ele>169.81</ele>
        <time>2019-04-21T08:20:58Z</time>
      </trkpt>
      <trkpt lat="43.22747" lon="5.4373">
        <ele>169.81</ele>
        <time>2019-04-21T08:20:59Z</time>
      </trkpt>
      <trkpt lat="43.22735" lon="5.43732">
        <ele>170.29</ele>
        <time>2019-04-21T08:21:12Z</time>
      </trkpt>
      <trkpt lat="43.22729" lon="5.43732">
        <ele>171.25</ele>
        <time>2019-04-21T08:21:19Z</time>
      </trkpt>
      <trkpt lat="43.22728" lon="5.43732">
        <ele>171.25</ele>
        <time>2019-04-21T08:21:20Z</time>
      </trkpt>
      <trkpt lat="43.22717" lon="5.43737">
        <ele>172.21</ele>
        <time>2019-04-21T08:21:32Z</time>
      </trkpt>
      <trkpt lat="43.22706" lon="5.43743">
        <ele>172.21</ele>
        <time>2019-04-21T08:21:44Z</time>
      </trkpt>
      <trkpt lat="43.22693" lon="5.4375">
        <ele>172.69</ele>
        <time>2019-04-21T08:21:57Z</time>
      </trkpt>
      <trkpt lat="43.22686" lon="5.43759">
        <ele>173.66</ele>
        <time>2019-04-21T08:22:07Z</time>
      </trkpt>
      <trkpt lat="43.22673" lon="5.43769">
        <ele>174.62</ele>
        <time>2019-04-21T08:22:21Z</time>
      </trkpt>
      <trkpt lat="43.22661" lon="5.43779">
        <ele>174.62</ele>
        <time>2019-04-21T08:22:32Z</time>
      </trkpt>
      <trkpt lat="43.22653" lon="5.43787">
        <ele>175.58</ele>
        <time>2019-04-21T08:22:42Z</time>
      </trkpt>
      <trkpt lat="43.2265" lon="5.43789">
        <ele>175.1</ele>
        <time>2019-04-21T08:22:45Z</time>
      </trkpt>
      <trkpt lat="43.22644" lon="5.43791">
        <ele>177.02</ele>
        <time>2019-04-21T08:22:59Z</time>
      </trkpt>
      <trkpt lat="43.22628" lon="5.43799">
        <ele>176.06</ele>
        <time>2019-04-21T08:23:09Z</time>
      </trkpt>
      <trkpt lat="43.22617" lon="5.43802">
        <ele>175.58</ele>
        <time>2019-04-21T08:23:19Z</time>
      </trkpt>
      <trkpt lat="43.22606" lon="5.43804">
        <ele>176.06</ele>
        <time>2019-04-21T08:23:30Z</time>
      </trkpt>
      <trkpt lat="43.22598" lon="5.43806">
        <ele>175.58</ele>
        <time>2019-04-21T08:23:39Z</time>
      </trkpt>
      <trkpt lat="43.2259" lon="5.43808">
        <ele>175.1</ele>
        <time>2019-04-21T08:23:49Z</time>
      </trkpt>
      <trkpt lat="43.22589" lon="5.43808">
        <ele>175.1</ele>
        <time>2019-04-21T08:23:50Z</time>
      </trkpt>
      <trkpt lat="43.22588" lon="5.43808">
        <ele>174.62</ele>
        <time>2019-04-21T08:23:51Z</time>
      </trkpt>
      <trkpt lat="43.2257" lon="5.43807">
        <ele>175.1</ele>
        <time>2019-04-21T08:24:05Z</time>
      </trkpt>
      <trkpt lat="43.22568" lon="5.4381">
        <ele>174.62</ele>
        <time>2019-04-21T08:24:10Z</time>
      </trkpt>
      <trkpt lat="43.22566" lon="5.43809">
        <ele>174.62</ele>
        <time>2019-04-21T08:24:11Z</time>
      </trkpt>
      <trkpt lat="43.22565" lon="5.43809">
        <ele>174.14</ele>
        <time>2019-04-21T08:24:12Z</time>
      </trkpt>
      <trkpt lat="43.22548" lon="5.43813">
        <ele>174.14</ele>
        <time>2019-04-21T08:24:30Z</time>
      </trkpt>
      <trkpt lat="43.22525" lon="5.43816">
        <ele>174.14</ele>
        <time>2019-04-21T08:24:49Z</time>
      </trkpt>
      <trkpt lat="43.22507" lon="5.43814">
        <ele>174.14</ele>
        <time>2019-04-21T08:25:02Z</time>
      </trkpt>
      <trkpt lat="43.22492" lon="5.43812">
        <ele>173.66</ele>
        <time>2019-04-21T08:25:15Z</time>
      </trkpt>
      <trkpt lat="43.22481" lon="5.4381">
        <ele>173.66</ele>
        <time>2019-04-21T08:25:26Z</time>
      </trkpt>
      <trkpt lat="43.22463" lon="5.43812">
        <ele>173.17</ele>
        <time>2019-04-21T08:25:42Z</time>
      </trkpt>
      <trkpt lat="43.22452" lon="5.43817">
        <ele>173.66</ele>
        <time>2019-04-21T08:25:51Z</time>
      </trkpt>
      <trkpt lat="43.2245" lon="5.43818">
        <ele>173.17</ele>
        <time>2019-04-21T08:25:52Z</time>
      </trkpt>
      <trkpt lat="43.22449" lon="5.43819">
        <ele>173.17</ele>
        <time>2019-04-21T08:25:53Z</time>
      </trkpt>
      <trkpt lat="43.22441" lon="5.43828">
        <ele>173.17</ele>
        <time>2019-04-21T08:26:00Z</time>
      </trkpt>
      <trkpt lat="43.2244" lon="5.43831">
        <ele>172.69</ele>
        <time>2019-04-21T08:26:02Z</time>
      </trkpt>
      <trkpt lat="43.22438" lon="5.43833">
        <ele>173.17</ele>
        <time>2019-04-21T08:26:04Z</time>
      </trkpt>
      <trkpt lat="43.22429" lon="5.43843">
        <ele>172.69</ele>
        <time>2019-04-21T08:26:18Z</time>
      </trkpt>
      <trkpt lat="43.22421" lon="5.43846">
        <ele>173.17</ele>
        <time>2019-04-21T08:26:28Z</time>
      </trkpt>
      <trkpt lat="43.22414" lon="5.4385">
        <ele>173.17</ele>
        <time>2019-04-21T08:26:33Z</time>
      </trkpt>
      <trkpt lat="43.22411" lon="5.43852">
        <ele>173.17</ele>
        <time>2019-04-21T08:26:34Z</time>
      </trkpt>
      <trkpt lat="43.22409" lon="5.43853">
        <ele>173.17</ele>
        <time>2019-04-21T08:26:35Z</time>
      </trkpt>
      <trkpt lat="43.22403" lon="5.43857">
        <ele>173.17</ele>
        <time>2019-04-21T08:26:42Z</time>
      </trkpt>
      <trkpt lat="43.22395" lon="5.4386">
        <ele>173.17</ele>
        <time>2019-04-21T08:26:55Z</time>
      </trkpt>
      <trkpt lat="43.22387" lon="5.43868">
        <ele>173.17</ele>
        <time>2019-04-21T08:27:04Z</time>
      </trkpt>
      <trkpt lat="43.22385" lon="5.43868">
        <ele>173.66</ele>
        <time>2019-04-21T08:27:05Z</time>
      </trkpt>
      <trkpt lat="43.22382" lon="5.4387">
        <ele>173.66</ele>
        <time>2019-04-21T08:27:09Z</time>
      </trkpt>
      <trkpt lat="43.22381" lon="5.43871">
        <ele>173.66</ele>
        <time>2019-04-21T08:27:10Z</time>
      </trkpt>
      <trkpt lat="43.22369" lon="5.43881">
        <ele>174.14</ele>
        <time>2019-04-21T08:27:24Z</time>
      </trkpt>
      <trkpt lat="43.22358" lon="5.43889">
        <ele>175.58</ele>
        <time>2019-04-21T08:27:38Z</time>
      </trkpt>
      <trkpt lat="43.22353" lon="5.43891">
        <ele>175.58</ele>
        <time>2019-04-21T08:27:41Z</time>
      </trkpt>
      <trkpt lat="43.22348" lon="5.43894">
        <ele>175.58</ele>
        <time>2019-04-21T08:27:47Z</time>
      </trkpt>
      <trkpt lat="43.2234" lon="5.43907">
        <ele>175.58</ele>
        <time>2019-04-21T08:27:58Z</time>
      </trkpt>
      <trkpt lat="43.22329" lon="5.43918">
        <ele>176.06</ele>
        <time>2019-04-21T08:28:09Z</time>
      </trkpt>
      <trkpt lat="43.22323" lon="5.43922">
        <ele>176.54</ele>
        <time>2019-04-21T08:28:15Z</time>
      </trkpt>
      <trkpt lat="43.22313" lon="5.43934">
        <ele>177.5</ele>
        <time>2019-04-21T08:28:27Z</time>
      </trkpt>
      <trkpt lat="43.22302" lon="5.43949">
        <ele>178.46</ele>
        <time>2019-04-21T08:28:40Z</time>
      </trkpt>
      <trkpt lat="43.22289" lon="5.43962">
        <ele>178.94</ele>
        <time>2019-04-21T08:28:55Z</time>
      </trkpt>
      <trkpt lat="43.22279" lon="5.43972">
        <ele>179.42</ele>
        <time>2019-04-21T08:29:09Z</time>
      </trkpt>
      <trkpt lat="43.22266" lon="5.43986">
        <ele>180.38</ele>
        <time>2019-04-21T08:29:22Z</time>
      </trkpt>
      <trkpt lat="43.22265" lon="5.43988">
        <ele>178.94</ele>
        <time>2019-04-21T08:29:24Z</time>
      </trkpt>
      <trkpt lat="43.22263" lon="5.4399">
        <ele>179.9</ele>
        <time>2019-04-21T08:29:26Z</time>
      </trkpt>
      <trkpt lat="43.22261" lon="5.43991">
        <ele>179.42</ele>
        <time>2019-04-21T08:29:27Z</time>
      </trkpt>
      <trkpt lat="43.2226" lon="5.4399">
        <ele>179.42</ele>
        <time>2019-04-21T08:29:28Z</time>
      </trkpt>
      <trkpt lat="43.22258" lon="5.4399">
        <ele>179.9</ele>
        <time>2019-04-21T08:29:30Z</time>
      </trkpt>
      <trkpt lat="43.22257" lon="5.43991">
        <ele>180.38</ele>
        <time>2019-04-21T08:29:31Z</time>
      </trkpt>
      <trkpt lat="43.22248" lon="5.43993">
        <ele>180.38</ele>
        <time>2019-04-21T08:29:41Z</time>
      </trkpt>
      <trkpt lat="43.22234" lon="5.43997">
        <ele>180.38</ele>
        <time>2019-04-21T08:29:54Z</time>
      </trkpt>
      <trkpt lat="43.22223" lon="5.44002">
        <ele>181.35</ele>
        <time>2019-04-21T08:30:05Z</time>
      </trkpt>
      <trkpt lat="43.22215" lon="5.44006">
        <ele>181.35</ele>
        <time>2019-04-21T08:30:13Z</time>
      </trkpt>
      <trkpt lat="43.22212" lon="5.44007">
        <ele>182.79</ele>
        <time>2019-04-21T08:30:16Z</time>
      </trkpt>
      <trkpt lat="43.22196" lon="5.4401">
        <ele>182.31</ele>
        <time>2019-04-21T08:30:29Z</time>
      </trkpt>
      <trkpt lat="43.22186" lon="5.44015">
        <ele>182.79</ele>
        <time>2019-04-21T08:30:39Z</time>
      </trkpt>
      <trkpt lat="43.22184" lon="5.44016">
        <ele>183.27</ele>
        <time>2019-04-21T08:30:40Z</time>
      </trkpt>
      <trkpt lat="43.22169" lon="5.44022">
        <ele>183.27</ele>
        <time>2019-04-21T08:30:53Z</time>
      </trkpt>
      <trkpt lat="43.22155" lon="5.44032">
        <ele>184.71</ele>
        <time>2019-04-21T08:31:08Z</time>
      </trkpt>
      <trkpt lat="43.22142" lon="5.4404">
        <ele>184.71</ele>
        <time>2019-04-21T08:31:20Z</time>
      </trkpt>
      <trkpt lat="43.2213" lon="5.44053">
        <ele>185.67</ele>
        <time>2019-04-21T08:31:33Z</time>
      </trkpt>
      <trkpt lat="43.22119" lon="5.44067">
        <ele>186.63</ele>
        <time>2019-04-21T08:31:46Z</time>
      </trkpt>
      <trkpt lat="43.22112" lon="5.44073">
        <ele>186.63</ele>
        <time>2019-04-21T08:31:55Z</time>
      </trkpt>
      <trkpt lat="43.22111" lon="5.44074">
        <ele>186.63</ele>
        <time>2019-04-21T08:31:56Z</time>
      </trkpt>
      <trkpt lat="43.2211" lon="5.44075">
        <ele>186.63</ele>
        <time>2019-04-21T08:31:57Z</time>
      </trkpt>
      <trkpt lat="43.22107" lon="5.4408">
        <ele>187.59</ele>
        <time>2019-04-21T08:32:02Z</time>
      </trkpt>
      <trkpt lat="43.22106" lon="5.44081">
        <ele>187.59</ele>
        <time>2019-04-21T08:32:03Z</time>
      </trkpt>
      <trkpt lat="43.22104" lon="5.44082">
        <ele>187.11</ele>
        <time>2019-04-21T08:32:04Z</time>
      </trkpt>
      <trkpt lat="43.22094" lon="5.44094">
        <ele>188.56</ele>
        <time>2019-04-21T08:32:16Z</time>
      </trkpt>
      <trkpt lat="43.22093" lon="5.44095">
        <ele>188.08</ele>
        <time>2019-04-21T08:32:17Z</time>
      </trkpt>
      <trkpt lat="43.22092" lon="5.44096">
        <ele>188.56</ele>
        <time>2019-04-21T08:32:18Z</time>
      </trkpt>
      <trkpt lat="43.2209" lon="5.44097">
        <ele>188.08</ele>
        <time>2019-04-21T08:32:19Z</time>
      </trkpt>
      <trkpt lat="43.22087" lon="5.44102">
        <ele>188.08</ele>
        <time>2019-04-21T08:32:25Z</time>
      </trkpt>
      <trkpt lat="43.22087" lon="5.44103">
        <ele>189.04</ele>
        <time>2019-04-21T08:32:26Z</time>
      </trkpt>
      <trkpt lat="43.22086" lon="5.44105">
        <ele>189.04</ele>
        <time>2019-04-21T08:32:27Z</time>
      </trkpt>
      <trkpt lat="43.22085" lon="5.44106">
        <ele>189.52</ele>
        <time>2019-04-21T08:32:28Z</time>
      </trkpt>
      <trkpt lat="43.22076" lon="5.44116">
        <ele>190</ele>
        <time>2019-04-21T08:32:39Z</time>
      </trkpt>
      <trkpt lat="43.22075" lon="5.44116">
        <ele>190</ele>
        <time>2019-04-21T08:32:40Z</time>
      </trkpt>
      <trkpt lat="43.2207" lon="5.44115">
        <ele>190.96</ele>
        <time>2019-04-21T08:32:46Z</time>
      </trkpt>
      <trkpt lat="43.22059" lon="5.44105">
        <ele>191.44</ele>
        <time>2019-04-21T08:32:58Z</time>
      </trkpt>
      <trkpt lat="43.22048" lon="5.44103">
        <ele>192.4</ele>
        <time>2019-04-21T08:33:09Z</time>
      </trkpt>
      <trkpt lat="43.22035" lon="5.44097">
        <ele>192.88</ele>
        <time>2019-04-21T08:33:22Z</time>
      </trkpt>
      <trkpt lat="43.22029" lon="5.44095">
        <ele>192.4</ele>
        <time>2019-04-21T08:33:28Z</time>
      </trkpt>
      <trkpt lat="43.22028" lon="5.44095">
        <ele>192.4</ele>
        <time>2019-04-21T08:33:29Z</time>
      </trkpt>
      <trkpt lat="43.22022" lon="5.44094">
        <ele>192.4</ele>
        <time>2019-04-21T08:33:41Z</time>
      </trkpt>
      <trkpt lat="43.22014" lon="5.44092">
        <ele>190.96</ele>
        <time>2019-04-21T08:33:50Z</time>
      </trkpt>
      <trkpt lat="43.22012" lon="5.44088">
        <ele>190.96</ele>
        <time>2019-04-21T08:34:02Z</time>
      </trkpt>
      <trkpt lat="43.22006" lon="5.44085">
        <ele>190.48</ele>
        <time>2019-04-21T08:34:14Z</time>
      </trkpt>
      <trkpt lat="43.22003" lon="5.44084">
        <ele>188.08</ele>
        <time>2019-04-21T08:34:26Z</time>
      </trkpt>
      <trkpt lat="43.22003" lon="5.44082">
        <ele>188.56</ele>
        <time>2019-04-21T08:34:27Z</time>
      </trkpt>
      <trkpt lat="43.22002" lon="5.44078">
        <ele>187.59</ele>
        <time>2019-04-21T08:34:30Z</time>
      </trkpt>
      <trkpt lat="43.22001" lon="5.44077">
        <ele>187.59</ele>
        <time>2019-04-21T08:34:31Z</time>
      </trkpt>
      <trkpt lat="43.21998" lon="5.44078">
        <ele>185.19</ele>
        <time>2019-04-21T08:34:39Z</time>
      </trkpt>
      <trkpt lat="43.21994" lon="5.44078">
        <ele>183.27</ele>
        <time>2019-04-21T08:34:45Z</time>
      </trkpt>
      <trkpt lat="43.21993" lon="5.4408">
        <ele>182.79</ele>
        <time>2019-04-21T08:34:46Z</time>
      </trkpt>
      <trkpt lat="43.21989" lon="5.44082">
        <ele>179.42</ele>
        <time>2019-04-21T08:34:55Z</time>
      </trkpt>
      <trkpt lat="43.21985" lon="5.4408">
        <ele>177.5</ele>
        <time>2019-04-21T08:35:02Z</time>
      </trkpt>
      <trkpt lat="43.21984" lon="5.44083">
        <ele>178.46</ele>
        <time>2019-04-21T08:35:16Z</time>
      </trkpt>
      <trkpt lat="43.2198" lon="5.44078">
        <ele>175.1</ele>
        <time>2019-04-21T08:35:28Z</time>
      </trkpt>
      <trkpt lat="43.21964" lon="5.44073">
        <ele>171.25</ele>
        <time>2019-04-21T08:35:45Z</time>
      </trkpt>
      <trkpt lat="43.21964" lon="5.44073">
        <ele>171.25</ele>
        <time>2019-04-21T08:35:46Z</time>
      </trkpt>
      <trkpt lat="43.21962" lon="5.44082">
        <ele>169.81</ele>
        <time>2019-04-21T08:36:02Z</time>
      </trkpt>
      <trkpt lat="43.21959" lon="5.4408">
        <ele>165.96</ele>
        <time>2019-04-21T08:36:24Z</time>
      </trkpt>
      <trkpt lat="43.21953" lon="5.44073">
        <ele>164.04</ele>
        <time>2019-04-21T08:36:38Z</time>
      </trkpt>
      <trkpt lat="43.21953" lon="5.44065">
        <ele>164.52</ele>
        <time>2019-04-21T08:36:56Z</time>
      </trkpt>
      <trkpt lat="43.21948" lon="5.44063">
        <ele>162.12</ele>
        <time>2019-04-21T08:37:14Z</time>
      </trkpt>
      <trkpt lat="43.21946" lon="5.44059">
        <ele>160.2</ele>
        <time>2019-04-21T08:37:30Z</time>
      </trkpt>
      <trkpt lat="43.2195" lon="5.44057">
        <ele>159.72</ele>
        <time>2019-04-21T08:37:51Z</time>
      </trkpt>
      <trkpt lat="43.2195" lon="5.44055">
        <ele>160.2</ele>
        <time>2019-04-21T08:38:18Z</time>
      </trkpt>
      <trkpt lat="43.21948" lon="5.44056">
        <ele>159.72</ele>
        <time>2019-04-21T08:38:48Z</time>
      </trkpt>
      <trkpt lat="43.21944" lon="5.44053">
        <ele>156.35</ele>
        <time>2019-04-21T08:39:00Z</time>
      </trkpt>
      <trkpt lat="43.21941" lon="5.44047">
        <ele>153.47</ele>
        <time>2019-04-21T08:39:17Z</time>
      </trkpt>
      <trkpt lat="43.21935" lon="5.44048">
        <ele>150.1</ele>
        <time>2019-04-21T08:39:33Z</time>
      </trkpt>
      <trkpt lat="43.2193" lon="5.44057">
        <ele>149.14</ele>
        <time>2019-04-21T08:39:48Z</time>
      </trkpt>
      <trkpt lat="43.21929" lon="5.44058">
        <ele>149.62</ele>
        <time>2019-04-21T08:40:06Z</time>
      </trkpt>
      <trkpt lat="43.21925" lon="5.44064">
        <ele>149.14</ele>
        <time>2019-04-21T08:40:19Z</time>
      </trkpt>
      <trkpt lat="43.21909" lon="5.4407">
        <ele>147.7</ele>
        <time>2019-04-21T08:40:34Z</time>
      </trkpt>
      <trkpt lat="43.21906" lon="5.44068">
        <ele>147.22</ele>
        <time>2019-04-21T08:40:48Z</time>
      </trkpt>
      <trkpt lat="43.21902" lon="5.44077">
        <ele>147.7</ele>
        <time>2019-04-21T08:41:09Z</time>
      </trkpt>
      <trkpt lat="43.219" lon="5.4409">
        <ele>150.58</ele>
        <time>2019-04-21T08:41:23Z</time>
      </trkpt>
      <trkpt lat="43.21888" lon="5.44091">
        <ele>152.03</ele>
        <time>2019-04-21T08:41:37Z</time>
      </trkpt>
      <trkpt lat="43.21879" lon="5.44095">
        <ele>154.91</ele>
        <time>2019-04-21T08:41:49Z</time>
      </trkpt>
      <trkpt lat="43.21872" lon="5.44098">
        <ele>155.87</ele>
        <time>2019-04-21T08:42:04Z</time>
      </trkpt>
      <trkpt lat="43.21863" lon="5.44102">
        <ele>157.79</ele>
        <time>2019-04-21T08:42:17Z</time>
      </trkpt>
      <trkpt lat="43.21852" lon="5.44106">
        <ele>158.27</ele>
        <time>2019-04-21T08:42:30Z</time>
      </trkpt>
      <trkpt lat="43.21851" lon="5.44106">
        <ele>157.79</ele>
        <time>2019-04-21T08:42:31Z</time>
      </trkpt>
      <trkpt lat="43.21845" lon="5.44107">
        <ele>157.31</ele>
        <time>2019-04-21T08:42:36Z</time>
      </trkpt>
      <trkpt lat="43.21844" lon="5.44108">
        <ele>157.31</ele>
        <time>2019-04-21T08:42:37Z</time>
      </trkpt>
      <trkpt lat="43.21836" lon="5.44114">
        <ele>156.83</ele>
        <time>2019-04-21T08:42:45Z</time>
      </trkpt>
      <trkpt lat="43.21834" lon="5.44123">
        <ele>157.31</ele>
        <time>2019-04-21T08:42:59Z</time>
      </trkpt>
      <trkpt lat="43.21836" lon="5.44113">
        <ele>157.79</ele>
        <time>2019-04-21T08:43:12Z</time>
      </trkpt>
      <trkpt lat="43.21851" lon="5.44104">
        <ele>157.79</ele>
        <time>2019-04-21T08:43:30Z</time>
      </trkpt>
      <trkpt lat="43.21855" lon="5.44118">
        <ele>160.68</ele>
        <time>2019-04-21T08:43:48Z</time>
      </trkpt>
      <trkpt lat="43.21858" lon="5.4413">
        <ele>163.56</ele>
        <time>2019-04-21T08:44:04Z</time>
      </trkpt>
      <trkpt lat="43.21854" lon="5.44133">
        <ele>163.56</ele>
        <time>2019-04-21T08:44:18Z</time>
      </trkpt>
      <trkpt lat="43.21843" lon="5.44142">
        <ele>162.6</ele>
        <time>2019-04-21T08:44:35Z</time>
      </trkpt>
      <trkpt lat="43.21833" lon="5.44156">
        <ele>159.72</ele>
        <time>2019-04-21T08:44:53Z</time>
      </trkpt>
      <trkpt lat="43.21819" lon="5.4416">
        <ele>157.31</ele>
        <time>2019-04-21T08:45:13Z</time>
      </trkpt>
      <trkpt lat="43.21817" lon="5.44159">
        <ele>156.35</ele>
        <time>2019-04-21T08:45:15Z</time>
      </trkpt>
      <trkpt lat="43.21799" lon="5.44148">
        <ele>155.87</ele>
        <time>2019-04-21T08:45:36Z</time>
      </trkpt>
      <trkpt lat="43.21787" lon="5.44128">
        <ele>155.87</ele>
        <time>2019-04-21T08:45:56Z</time>
      </trkpt>
      <trkpt lat="43.21774" lon="5.44107">
        <ele>156.35</ele>
        <time>2019-04-21T08:46:16Z</time>
      </trkpt>
      <trkpt lat="43.21755" lon="5.44097">
        <ele>154.91</ele>
        <time>2019-04-21T08:46:37Z</time>
      </trkpt>
      <trkpt lat="43.21735" lon="5.441">
        <ele>152.99</ele>
        <time>2019-04-21T08:46:57Z</time>
      </trkpt>
      <trkpt lat="43.21722" lon="5.44111">
        <ele>151.06</ele>
        <time>2019-04-21T08:47:16Z</time>
      </trkpt>
      <trkpt lat="43.21706" lon="5.44115">
        <ele>151.06</ele>
        <time>2019-04-21T08:47:32Z</time>
      </trkpt>
      <trkpt lat="43.21686" lon="5.44096">
        <ele>152.03</ele>
        <time>2019-04-21T08:47:52Z</time>
      </trkpt>
      <trkpt lat="43.2167" lon="5.44074">
        <ele>153.47</ele>
        <time>2019-04-21T08:48:14Z</time>
      </trkpt>
      <trkpt lat="43.21654" lon="5.44062">
        <ele>155.87</ele>
        <time>2019-04-21T08:48:33Z</time>
      </trkpt>
      <trkpt lat="43.21644" lon="5.44058">
        <ele>152.99</ele>
        <time>2019-04-21T08:48:50Z</time>
      </trkpt>
      <trkpt lat="43.21643" lon="5.4406">
        <ele>152.03</ele>
        <time>2019-04-21T08:49:11Z</time>
      </trkpt>
      <trkpt lat="43.21632" lon="5.44067">
        <ele>149.62</ele>
        <time>2019-04-21T08:49:28Z</time>
      </trkpt>
      <trkpt lat="43.21626" lon="5.44069">
        <ele>146.74</ele>
        <time>2019-04-21T08:49:37Z</time>
      </trkpt>
      <trkpt lat="43.21619" lon="5.44082">
        <ele>144.34</ele>
        <time>2019-04-21T08:49:51Z</time>
      </trkpt>
      <trkpt lat="43.21614" lon="5.4409">
        <ele>142.89</ele>
        <time>2019-04-21T08:50:10Z</time>
      </trkpt>
      <trkpt lat="43.21614" lon="5.44092">
        <ele>142.89</ele>
        <time>2019-04-21T08:50:35Z</time>
      </trkpt>
      <trkpt lat="43.21616" lon="5.44091">
        <ele>143.37</ele>
        <time>2019-04-21T08:50:57Z</time>
      </trkpt>
      <trkpt lat="43.21615" lon="5.44096">
        <ele>143.85</ele>
        <time>2019-04-21T08:51:10Z</time>
      </trkpt>
      <trkpt lat="43.21613" lon="5.44106">
        <ele>140.49</ele>
        <time>2019-04-21T08:51:23Z</time>
      </trkpt>
      <trkpt lat="43.21612" lon="5.44114">
        <ele>139.53</ele>
        <time>2019-04-21T08:51:30Z</time>
      </trkpt>
      <trkpt lat="43.21605" lon="5.44145">
        <ele>139.05</ele>
        <time>2019-04-21T08:51:53Z</time>
      </trkpt>
      <trkpt lat="43.21598" lon="5.4416">
        <ele>135.68</ele>
        <time>2019-04-21T08:52:10Z</time>
      </trkpt>
      <trkpt lat="43.21583" lon="5.44174">
        <ele>133.76</ele>
        <time>2019-04-21T08:52:31Z</time>
      </trkpt>
      <trkpt lat="43.21572" lon="5.44185">
        <ele>131.84</ele>
        <time>2019-04-21T08:52:50Z</time>
      </trkpt>
      <trkpt lat="43.21562" lon="5.44198">
        <ele>129.43</ele>
        <time>2019-04-21T08:53:06Z</time>
      </trkpt>
      <trkpt lat="43.21557" lon="5.44205">
        <ele>128.95</ele>
        <time>2019-04-21T08:53:17Z</time>
      </trkpt>
      <trkpt lat="43.21548" lon="5.44213">
        <ele>125.11</ele>
        <time>2019-04-21T08:53:25Z</time>
      </trkpt>
      <trkpt lat="43.21547" lon="5.44214">
        <ele>126.07</ele>
        <time>2019-04-21T08:53:26Z</time>
      </trkpt>
      <trkpt lat="43.21538" lon="5.44209">
        <ele>122.71</ele>
        <time>2019-04-21T08:53:42Z</time>
      </trkpt>
      <trkpt lat="43.21531" lon="5.44212">
        <ele>118.86</ele>
        <time>2019-04-21T08:53:53Z</time>
      </trkpt>
      <trkpt lat="43.21522" lon="5.4422">
        <ele>115.98</ele>
        <time>2019-04-21T08:54:06Z</time>
      </trkpt>
      <trkpt lat="43.21517" lon="5.4422">
        <ele>114.53</ele>
        <time>2019-04-21T08:54:25Z</time>
      </trkpt>
      <trkpt lat="43.21517" lon="5.44223">
        <ele>115.5</ele>
        <time>2019-04-21T08:54:49Z</time>
      </trkpt>
      <trkpt lat="43.21517" lon="5.44224">
        <ele>116.94</ele>
        <time>2019-04-21T08:55:03Z</time>
      </trkpt>
      <trkpt lat="43.21516" lon="5.44223">
        <ele>116.94</ele>
        <time>2019-04-21T08:55:09Z</time>
      </trkpt>
      <trkpt lat="43.21515" lon="5.44223">
        <ele>114.53</ele>
        <time>2019-04-21T08:55:16Z</time>
      </trkpt>
      <trkpt lat="43.21517" lon="5.4422">
        <ele>113.57</ele>
        <time>2019-04-21T08:55:41Z</time>
      </trkpt>
      <trkpt lat="43.21517" lon="5.44222">
        <ele>115.5</ele>
        <time>2019-04-21T08:55:58Z</time>
      </trkpt>
      <trkpt lat="43.21518" lon="5.44229">
        <ele>114.05</ele>
        <time>2019-04-21T08:56:23Z</time>
      </trkpt>
      <trkpt lat="43.21518" lon="5.44228">
        <ele>114.53</ele>
        <time>2019-04-21T08:56:29Z</time>
      </trkpt>
      <trkpt lat="43.21521" lon="5.44234">
        <ele>113.09</ele>
        <time>2019-04-21T08:56:50Z</time>
      </trkpt>
      <trkpt lat="43.21523" lon="5.44243">
        <ele>112.13</ele>
        <time>2019-04-21T08:56:55Z</time>
      </trkpt>
      <trkpt lat="43.21529" lon="5.44252">
        <ele>108.77</ele>
        <time>2019-04-21T08:57:06Z</time>
      </trkpt>
      <trkpt lat="43.21531" lon="5.44257">
        <ele>106.36</ele>
        <time>2019-04-21T08:57:19Z</time>
      </trkpt>
      <trkpt lat="43.21539" lon="5.44265">
        <ele>106.36</ele>
        <time>2019-04-21T08:57:35Z</time>
      </trkpt>
      <trkpt lat="43.2154" lon="5.44265">
        <ele>107.32</ele>
        <time>2019-04-21T08:57:41Z</time>
      </trkpt>
      <trkpt lat="43.21542" lon="5.4428">
        <ele>103.96</ele>
        <time>2019-04-21T08:57:56Z</time>
      </trkpt>
      <trkpt lat="43.21537" lon="5.44292">
        <ele>101.56</ele>
        <time>2019-04-21T08:58:11Z</time>
      </trkpt>
      <trkpt lat="43.21536" lon="5.44293">
        <ele>99.63</ele>
        <time>2019-04-21T08:58:16Z</time>
      </trkpt>
      <trkpt lat="43.21531" lon="5.44291">
        <ele>96.27</ele>
        <time>2019-04-21T08:58:27Z</time>
      </trkpt>
      <trkpt lat="43.21524" lon="5.44294">
        <ele>93.39</ele>
        <time>2019-04-21T08:58:38Z</time>
      </trkpt>
      <trkpt lat="43.21518" lon="5.44314">
        <ele>90.5</ele>
        <time>2019-04-21T08:58:58Z</time>
      </trkpt>
      <trkpt lat="43.21512" lon="5.44332">
        <ele>88.1</ele>
        <time>2019-04-21T08:59:15Z</time>
      </trkpt>
      <trkpt lat="43.21496" lon="5.44343">
        <ele>86.66</ele>
        <time>2019-04-21T08:59:34Z</time>
      </trkpt>
      <trkpt lat="43.21482" lon="5.44343">
        <ele>88.58</ele>
        <time>2019-04-21T08:59:56Z</time>
      </trkpt>
      <trkpt lat="43.21484" lon="5.44341">
        <ele>88.1</ele>
        <time>2019-04-21T09:00:04Z</time>
      </trkpt>
      <trkpt lat="43.21502" lon="5.44329">
        <ele>87.14</ele>
        <time>2019-04-21T09:00:24Z</time>
      </trkpt>
      <trkpt lat="43.21501" lon="5.4433">
        <ele>86.18</ele>
        <time>2019-04-21T09:00:46Z</time>
      </trkpt>
      <trkpt lat="43.21501" lon="5.44328">
        <ele>85.21</ele>
        <time>2019-04-21T09:00:48Z</time>
      </trkpt>
      <trkpt lat="43.21501" lon="5.44322">
        <ele>83.77</ele>
        <time>2019-04-21T09:01:06Z</time>
      </trkpt>
      <trkpt lat="43.215" lon="5.44321">
        <ele>85.69</ele>
        <time>2019-04-21T09:01:09Z</time>
      </trkpt>
      <trkpt lat="43.215" lon="5.4432">
        <ele>81.85</ele>
        <time>2019-04-21T09:01:18Z</time>
      </trkpt>
      <trkpt lat="43.21495" lon="5.44316">
        <ele>79.93</ele>
        <time>2019-04-21T09:01:35Z</time>
      </trkpt>
      <trkpt lat="43.2149" lon="5.44314">
        <ele>76.56</ele>
        <time>2019-04-21T09:01:48Z</time>
      </trkpt>
      <trkpt lat="43.21485" lon="5.44303">
        <ele>73.2</ele>
        <time>2019-04-21T09:02:02Z</time>
      </trkpt>
      <trkpt lat="43.21484" lon="5.44302">
        <ele>72.72</ele>
        <time>2019-04-21T09:02:03Z</time>
      </trkpt>
      <trkpt lat="43.21479" lon="5.44301">
        <ele>71.27</ele>
        <time>2019-04-21T09:02:25Z</time>
      </trkpt>
      <trkpt lat="43.21475" lon="5.44294">
        <ele>68.39</ele>
        <time>2019-04-21T09:02:46Z</time>
      </trkpt>
      <trkpt lat="43.21475" lon="5.44291">
        <ele>67.91</ele>
        <time>2019-04-21T09:03:06Z</time>
      </trkpt>
      <trkpt lat="43.21472" lon="5.44287">
        <ele>64.55</ele>
        <time>2019-04-21T09:03:16Z</time>
      </trkpt>
      <trkpt lat="43.21475" lon="5.44289">
        <ele>64.07</ele>
        <time>2019-04-21T09:03:38Z</time>
      </trkpt>
      <trkpt lat="43.2148" lon="5.44288">
        <ele>64.07</ele>
        <time>2019-04-21T09:04:10Z</time>
      </trkpt>
      <trkpt lat="43.21481" lon="5.44285">
        <ele>65.51</ele>
        <time>2019-04-21T09:04:18Z</time>
      </trkpt>
      <trkpt lat="43.21477" lon="5.44301">
        <ele>64.55</ele>
        <time>2019-04-21T09:04:48Z</time>
      </trkpt>
      <trkpt lat="43.21476" lon="5.443">
        <ele>65.51</ele>
        <time>2019-04-21T09:05:14Z</time>
      </trkpt>
      <trkpt lat="43.21474" lon="5.44298">
        <ele>64.07</ele>
        <time>2019-04-21T09:05:48Z</time>
      </trkpt>
      <trkpt lat="43.2147" lon="5.44288">
        <ele>64.55</ele>
        <time>2019-04-21T09:06:18Z</time>
      </trkpt>
      <trkpt lat="43.21463" lon="5.44288">
        <ele>61.66</ele>
        <time>2019-04-21T09:06:34Z</time>
      </trkpt>
      <trkpt lat="43.21462" lon="5.44284">
        <ele>58.3</ele>
        <time>2019-04-21T09:06:47Z</time>
      </trkpt>
      <trkpt lat="43.21458" lon="5.44284">
        <ele>58.3</ele>
        <time>2019-04-21T09:07:02Z</time>
      </trkpt>
      <trkpt lat="43.21454" lon="5.44284">
        <ele>54.93</ele>
        <time>2019-04-21T09:07:11Z</time>
      </trkpt>
      <trkpt lat="43.21445" lon="5.4428">
        <ele>51.57</ele>
        <time>2019-04-21T09:07:27Z</time>
      </trkpt>
      <trkpt lat="43.21443" lon="5.44283">
        <ele>50.13</ele>
        <time>2019-04-21T09:07:32Z</time>
      </trkpt>
      <trkpt lat="43.21436" lon="5.44281">
        <ele>48.2</ele>
        <time>2019-04-21T09:07:52Z</time>
      </trkpt>
      <trkpt lat="43.2143" lon="5.44282">
        <ele>45.8</ele>
        <time>2019-04-21T09:08:11Z</time>
      </trkpt>
      <trkpt lat="43.21428" lon="5.44281">
        <ele>43.4</ele>
        <time>2019-04-21T09:08:17Z</time>
      </trkpt>
      <trkpt lat="43.21427" lon="5.44273">
        <ele>40.51</ele>
        <time>2019-04-21T09:08:32Z</time>
      </trkpt>
      <trkpt lat="43.21424" lon="5.44272">
        <ele>37.63</ele>
        <time>2019-04-21T09:08:43Z</time>
      </trkpt>
      <trkpt lat="43.21412" lon="5.44271">
        <ele>36.19</ele>
        <time>2019-04-21T09:09:01Z</time>
      </trkpt>
      <trkpt lat="43.21406" lon="5.44265">
        <ele>32.34</ele>
        <time>2019-04-21T09:09:13Z</time>
      </trkpt>
      <trkpt lat="43.21399" lon="5.44259">
        <ele>31.38</ele>
        <time>2019-04-21T09:09:30Z</time>
      </trkpt>
      <trkpt lat="43.21401" lon="5.44258">
        <ele>30.42</ele>
        <time>2019-04-21T09:09:51Z</time>
      </trkpt>
      <trkpt lat="43.21399" lon="5.44255">
        <ele>30.42</ele>
        <time>2019-04-21T09:09:57Z</time>
      </trkpt>
      <trkpt lat="43.21392" lon="5.44251">
        <ele>27.05</ele>
        <time>2019-04-21T09:10:08Z</time>
      </trkpt>
      <trkpt lat="43.21385" lon="5.44241">
        <ele>23.21</ele>
        <time>2019-04-21T09:10:25Z</time>
      </trkpt>
      <trkpt lat="43.21385" lon="5.44239">
        <ele>22.73</ele>
        <time>2019-04-21T09:10:27Z</time>
      </trkpt>
      <trkpt lat="43.21382" lon="5.44236">
        <ele>21.29</ele>
        <time>2019-04-21T09:10:35Z</time>
      </trkpt>
      <trkpt lat="43.21379" lon="5.44233">
        <ele>21.77</ele>
        <time>2019-04-21T09:10:39Z</time>
      </trkpt>
      <trkpt lat="43.21377" lon="5.4423">
        <ele>20.81</ele>
        <time>2019-04-21T09:10:41Z</time>
      </trkpt>
      <trkpt lat="43.21371" lon="5.44227">
        <ele>18.4</ele>
        <time>2019-04-21T09:10:46Z</time>
      </trkpt>
      <trkpt lat="43.21369" lon="5.44233">
        <ele>16.96</ele>
        <time>2019-04-21T09:11:03Z</time>
      </trkpt>
      <trkpt lat="43.21363" lon="5.44225">
        <ele>13.6</ele>
        <time>2019-04-21T09:11:17Z</time>
      </trkpt>
      <trkpt lat="43.21359" lon="5.44222">
        <ele>12.63</ele>
        <time>2019-04-21T09:11:35Z</time>
      </trkpt>
      <trkpt lat="43.21357" lon="5.44221">
        <ele>11.19</ele>
        <time>2019-04-21T09:11:56Z</time>
      </trkpt>
      <trkpt lat="43.21353" lon="5.4422">
        <ele>10.71</ele>
        <time>2019-04-21T09:12:14Z</time>
      </trkpt>
      <trkpt lat="43.21355" lon="5.44218">
        <ele>10.71</ele>
        <time>2019-04-21T09:12:22Z</time>
      </trkpt>
      <trkpt lat="43.21361" lon="5.44217">
        <ele>10.71</ele>
        <time>2019-04-21T09:12:40Z</time>
      </trkpt>
      <trkpt lat="43.21353" lon="5.44218">
        <ele>9.75</ele>
        <time>2019-04-21T09:13:02Z</time>
      </trkpt>
      <trkpt lat="43.21351" lon="5.44211">
        <ele>8.79</ele>
        <time>2019-04-21T09:13:33Z</time>
      </trkpt>
      <trkpt lat="43.21339" lon="5.44203">
        <ele>6.39</ele>
        <time>2019-04-21T09:13:53Z</time>
      </trkpt>
      <trkpt lat="43.21344" lon="5.44199">
        <ele>6.87</ele>
        <time>2019-04-21T09:14:12Z</time>
      </trkpt>
      <trkpt lat="43.2133" lon="5.44201">
        <ele>6.87</ele>
        <time>2019-04-21T09:14:34Z</time>
      </trkpt>
      <trkpt lat="43.21338" lon="5.44204">
        <ele>7.35</ele>
        <time>2019-04-21T09:14:58Z</time>
      </trkpt>
      <trkpt lat="43.21337" lon="5.44207">
        <ele>5.91</ele>
        <time>2019-04-21T09:15:04Z</time>
      </trkpt>
      <trkpt lat="43.21327" lon="5.44212">
        <ele>4.94</ele>
        <time>2019-04-21T09:15:28Z</time>
      </trkpt>
      <trkpt lat="43.21333" lon="5.44211">
        <ele>5.42</ele>
        <time>2019-04-21T09:15:46Z</time>
      </trkpt>
      <trkpt lat="43.21328" lon="5.4421">
        <ele>3.98</ele>
        <time>2019-04-21T09:16:21Z</time>
      </trkpt>
      <trkpt lat="43.21329" lon="5.44216">
        <ele>3.98</ele>
        <time>2019-04-21T09:16:50Z</time>
      </trkpt>
      <trkpt lat="43.21321" lon="5.44215">
        <ele>3.02</ele>
        <time>2019-04-21T09:17:08Z</time>
      </trkpt>
      <trkpt lat="43.2132" lon="5.44217">
        <ele>4.46</ele>
        <time>2019-04-21T09:17:14Z</time>
      </trkpt>
      <trkpt lat="43.21321" lon="5.44218">
        <ele>3.02</ele>
        <time>2019-04-21T09:17:31Z</time>
      </trkpt>
      <trkpt lat="43.21321" lon="5.4422">
        <ele>4.46</ele>
        <time>2019-04-21T09:17:34Z</time>
      </trkpt>
      <trkpt lat="43.21317" lon="5.44231">
        <ele>3.5</ele>
        <time>2019-04-21T09:17:46Z</time>
      </trkpt>
      <trkpt lat="43.21315" lon="5.44236">
        <ele>3.98</ele>
        <time>2019-04-21T09:17:50Z</time>
      </trkpt>
      <trkpt lat="43.21314" lon="5.44241">
        <ele>4.46</ele>
        <time>2019-04-21T09:17:56Z</time>
      </trkpt>
      <trkpt lat="43.21311" lon="5.44253">
        <ele>4.46</ele>
        <time>2019-04-21T09:18:09Z</time>
      </trkpt>
      <trkpt lat="43.2131" lon="5.44256">
        <ele>4.94</ele>
        <time>2019-04-21T09:18:12Z</time>
      </trkpt>
      <trkpt lat="43.21305" lon="5.44266">
        <ele>5.42</ele>
        <time>2019-04-21T09:18:22Z</time>
      </trkpt>
      <trkpt lat="43.213" lon="5.44273">
        <ele>4.94</ele>
        <time>2019-04-21T09:18:28Z</time>
      </trkpt>
      <trkpt lat="43.21299" lon="5.44274">
        <ele>4.94</ele>
        <time>2019-04-21T09:18:29Z</time>
      </trkpt>
      <trkpt lat="43.21297" lon="5.44283">
        <ele>4.94</ele>
        <time>2019-04-21T09:18:42Z</time>
      </trkpt>
      <trkpt lat="43.21297" lon="5.44282">
        <ele>4.94</ele>
        <time>2019-04-21T09:18:43Z</time>
      </trkpt>
      <trkpt lat="43.21298" lon="5.44281">
        <ele>5.42</ele>
        <time>2019-04-21T09:18:52Z</time>
      </trkpt>
      <trkpt lat="43.21305" lon="5.4428">
        <ele>4.46</ele>
        <time>2019-04-21T09:18:57Z</time>
      </trkpt>
      <trkpt lat="43.21308" lon="5.44281">
        <ele>5.91</ele>
        <time>2019-04-21T09:19:00Z</time>
      </trkpt>
      <trkpt lat="43.21314" lon="5.44286">
        <ele>6.87</ele>
        <time>2019-04-21T09:19:10Z</time>
      </trkpt>
      <trkpt lat="43.21314" lon="5.44285">
        <ele>5.42</ele>
        <time>2019-04-21T09:19:13Z</time>
      </trkpt>
      <trkpt lat="43.21312" lon="5.44286">
        <ele>5.42</ele>
        <time>2019-04-21T09:19:17Z</time>
      </trkpt>
      <trkpt lat="43.21303" lon="5.44282">
        <ele>4.94</ele>
        <time>2019-04-21T09:19:27Z</time>
      </trkpt>
      <trkpt lat="43.21292" lon="5.44302">
        <ele>5.42</ele>
        <time>2019-04-21T09:19:42Z</time>
      </trkpt>
      <trkpt lat="43.21286" lon="5.44315">
        <ele>4.94</ele>
        <time>2019-04-21T09:19:51Z</time>
      </trkpt>
      <trkpt lat="43.21283" lon="5.44322">
        <ele>5.91</ele>
        <time>2019-04-21T09:20:00Z</time>
      </trkpt>
      <trkpt lat="43.2128" lon="5.44322">
        <ele>4.46</ele>
        <time>2019-04-21T09:20:08Z</time>
      </trkpt>
      <trkpt lat="43.21279" lon="5.44323">
        <ele>5.42</ele>
        <time>2019-04-21T09:20:13Z</time>
      </trkpt>
      <trkpt lat="43.2128" lon="5.44324">
        <ele>3.5</ele>
        <time>2019-04-21T09:20:18Z</time>
      </trkpt>
      <trkpt lat="43.21278" lon="5.44324">
        <ele>3.5</ele>
        <time>2019-04-21T09:20:31Z</time>
      </trkpt>
      <trkpt lat="43.2128" lon="5.44326">
        <ele>3.02</ele>
        <time>2019-04-21T09:20:44Z</time>
      </trkpt>
      <trkpt lat="43.21279" lon="5.44326">
        <ele>3.02</ele>
        <time>2019-04-21T09:21:02Z</time>
      </trkpt>
      <trkpt lat="43.21282" lon="5.44322">
        <ele>3.5</ele>
        <time>2019-04-21T09:21:18Z</time>
      </trkpt>
      <trkpt lat="43.21271" lon="5.4433">
        <ele>3.02</ele>
        <time>2019-04-21T09:21:37Z</time>
      </trkpt>
      <trkpt lat="43.2127" lon="5.44337">
        <ele>3.98</ele>
        <time>2019-04-21T09:21:49Z</time>
      </trkpt>
      <trkpt lat="43.21271" lon="5.44338">
        <ele>3.5</ele>
        <time>2019-04-21T09:21:50Z</time>
      </trkpt>
      <trkpt lat="43.21272" lon="5.4434">
        <ele>4.94</ele>
        <time>2019-04-21T09:21:57Z</time>
      </trkpt>
      <trkpt lat="43.21272" lon="5.44346">
        <ele>3.5</ele>
        <time>2019-04-21T09:22:00Z</time>
      </trkpt>
      <trkpt lat="43.21272" lon="5.44349">
        <ele>3.98</ele>
        <time>2019-04-21T09:22:01Z</time>
      </trkpt>
      <trkpt lat="43.21271" lon="5.44351">
        <ele>3.98</ele>
        <time>2019-04-21T09:22:02Z</time>
      </trkpt>
      <trkpt lat="43.21269" lon="5.44355">
        <ele>4.46</ele>
        <time>2019-04-21T09:22:15Z</time>
      </trkpt>
      <trkpt lat="43.21266" lon="5.44354">
        <ele>3.98</ele>
        <time>2019-04-21T09:22:35Z</time>
      </trkpt>
      <trkpt lat="43.21265" lon="5.44353">
        <ele>4.46</ele>
        <time>2019-04-21T09:22:37Z</time>
      </trkpt>
      <trkpt lat="43.21265" lon="5.44351">
        <ele>4.46</ele>
        <time>2019-04-21T09:22:38Z</time>
      </trkpt>
      <trkpt lat="43.21261" lon="5.4435">
        <ele>5.42</ele>
        <time>2019-04-21T09:22:42Z</time>
      </trkpt>
      <trkpt lat="43.21259" lon="5.4435">
        <ele>5.42</ele>
        <time>2019-04-21T09:22:46Z</time>
      </trkpt>
      <trkpt lat="43.21258" lon="5.44351">
        <ele>4.94</ele>
        <time>2019-04-21T09:22:47Z</time>
      </trkpt>
      <trkpt lat="43.21256" lon="5.44354">
        <ele>5.42</ele>
        <time>2019-04-21T09:22:51Z</time>
      </trkpt>
      <trkpt lat="43.21255" lon="5.44355">
        <ele>4.94</ele>
        <time>2019-04-21T09:22:52Z</time>
      </trkpt>
      <trkpt lat="43.21254" lon="5.44357">
        <ele>4.94</ele>
        <time>2019-04-21T09:22:53Z</time>
      </trkpt>
      <trkpt lat="43.21252" lon="5.44358">
        <ele>4.94</ele>
        <time>2019-04-21T09:22:54Z</time>
      </trkpt>
      <trkpt lat="43.21245" lon="5.44367">
        <ele>4.94</ele>
        <time>2019-04-21T09:23:06Z</time>
      </trkpt>
      <trkpt lat="43.21244" lon="5.44371">
        <ele>4.46</ele>
        <time>2019-04-21T09:23:17Z</time>
      </trkpt>
      <trkpt lat="43.2124" lon="5.44376">
        <ele>5.42</ele>
        <time>2019-04-21T09:23:32Z</time>
      </trkpt>
      <trkpt lat="43.21234" lon="5.44382">
        <ele>5.42</ele>
        <time>2019-04-21T09:23:45Z</time>
      </trkpt>
      <trkpt lat="43.2123" lon="5.44384">
        <ele>5.42</ele>
        <time>2019-04-21T09:23:53Z</time>
      </trkpt>
      <trkpt lat="43.21227" lon="5.44393">
        <ele>5.42</ele>
        <time>2019-04-21T09:24:01Z</time>
      </trkpt>
      <trkpt lat="43.21221" lon="5.44403">
        <ele>5.42</ele>
        <time>2019-04-21T09:24:11Z</time>
      </trkpt>
      <trkpt lat="43.21217" lon="5.444">
        <ele>4.94</ele>
        <time>2019-04-21T09:24:23Z</time>
      </trkpt>
      <trkpt lat="43.2122" lon="5.44403">
        <ele>5.91</ele>
        <time>2019-04-21T09:24:38Z</time>
      </trkpt>
      <trkpt lat="43.2122" lon="5.44404">
        <ele>5.91</ele>
        <time>2019-04-21T09:24:51Z</time>
      </trkpt>
      <trkpt lat="43.21218" lon="5.44404">
        <ele>6.39</ele>
        <time>2019-04-21T09:25:03Z</time>
      </trkpt>
      <trkpt lat="43.21217" lon="5.44403">
        <ele>4.94</ele>
        <time>2019-04-21T09:25:20Z</time>
      </trkpt>
      <trkpt lat="43.21219" lon="5.44404">
        <ele>3.98</ele>
        <time>2019-04-21T09:25:33Z</time>
      </trkpt>
      <trkpt lat="43.21221" lon="5.44407">
        <ele>4.94</ele>
        <time>2019-04-21T09:25:47Z</time>
      </trkpt>
      <trkpt lat="43.21222" lon="5.44404">
        <ele>5.42</ele>
        <time>2019-04-21T09:26:10Z</time>
      </trkpt>
      <trkpt lat="43.21219" lon="5.44401">
        <ele>4.94</ele>
        <time>2019-04-21T09:26:25Z</time>
      </trkpt>
      <trkpt lat="43.21221" lon="5.44406">
        <ele>5.42</ele>
        <time>2019-04-21T09:26:41Z</time>
      </trkpt>
      <trkpt lat="43.21221" lon="5.44407">
        <ele>4.94</ele>
        <time>2019-04-21T09:26:54Z</time>
      </trkpt>
      <trkpt lat="43.2122" lon="5.44403">
        <ele>4.46</ele>
        <time>2019-04-21T09:27:11Z</time>
      </trkpt>
      <trkpt lat="43.21219" lon="5.44402">
        <ele>3.98</ele>
        <time>2019-04-21T09:27:31Z</time>
      </trkpt>
      <trkpt lat="43.21218" lon="5.44406">
        <ele>4.46</ele>
        <time>2019-04-21T09:27:43Z</time>
      </trkpt>
      <trkpt lat="43.21218" lon="5.44407">
        <ele>4.94</ele>
        <time>2019-04-21T09:28:00Z</time>
      </trkpt>
      <trkpt lat="43.21217" lon="5.44404">
        <ele>4.94</ele>
        <time>2019-04-21T09:28:13Z</time>
      </trkpt>
      <trkpt lat="43.21219" lon="5.44402">
        <ele>4.46</ele>
        <time>2019-04-21T09:28:25Z</time>
      </trkpt>
      <trkpt lat="43.21221" lon="5.44399">
        <ele>5.42</ele>
        <time>2019-04-21T09:28:38Z</time>
      </trkpt>
      <trkpt lat="43.21222" lon="5.44395">
        <ele>4.46</ele>
        <time>2019-04-21T09:28:44Z</time>
      </trkpt>
      <trkpt lat="43.21227" lon="5.44384">
        <ele>5.42</ele>
        <time>2019-04-21T09:28:57Z</time>
      </trkpt>
      <trkpt lat="43.21228" lon="5.44383">
        <ele>4.94</ele>
        <time>2019-04-21T09:29:02Z</time>
      </trkpt>
      <trkpt lat="43.2123" lon="5.44382">
        <ele>4.46</ele>
        <time>2019-04-21T09:29:15Z</time>
      </trkpt>
      <trkpt lat="43.21232" lon="5.4438">
        <ele>4.46</ele>
        <time>2019-04-21T09:29:30Z</time>
      </trkpt>
      <trkpt lat="43.21233" lon="5.4438">
        <ele>3.98</ele>
        <time>2019-04-21T09:29:46Z</time>
      </trkpt>
      <trkpt lat="43.21236" lon="5.44376">
        <ele>3.98</ele>
        <time>2019-04-21T09:29:56Z</time>
      </trkpt>
      <trkpt lat="43.21239" lon="5.4437">
        <ele>4.46</ele>
        <time>2019-04-21T09:30:10Z</time>
      </trkpt>
      <trkpt lat="43.21244" lon="5.44365">
        <ele>3.98</ele>
        <time>2019-04-21T09:30:24Z</time>
      </trkpt>
      <trkpt lat="43.21245" lon="5.44364">
        <ele>4.46</ele>
        <time>2019-04-21T09:30:25Z</time>
      </trkpt>
      <trkpt lat="43.21246" lon="5.44363">
        <ele>4.46</ele>
        <time>2019-04-21T09:30:26Z</time>
      </trkpt>
      <trkpt lat="43.21248" lon="5.44362">
        <ele>4.94</ele>
        <time>2019-04-21T09:30:27Z</time>
      </trkpt>
      <trkpt lat="43.21252" lon="5.4436">
        <ele>3.02</ele>
        <time>2019-04-21T09:30:31Z</time>
      </trkpt>
      <trkpt lat="43.21253" lon="5.44358">
        <ele>4.94</ele>
        <time>2019-04-21T09:30:35Z</time>
      </trkpt>
      <trkpt lat="43.21242" lon="5.44367">
        <ele>16</ele>
        <time>2019-04-21T09:30:50Z</time>
      </trkpt>
      <trkpt lat="43.21267" lon="5.44333">
        <ele>16</ele>
        <time>2019-04-21T09:31:06Z</time>
      </trkpt>
      <trkpt lat="43.21271" lon="5.44327">
        <ele>16.48</ele>
        <time>2019-04-21T09:31:16Z</time>
      </trkpt>
      <trkpt lat="43.21272" lon="5.44323">
        <ele>16.96</ele>
        <time>2019-04-21T09:31:20Z</time>
      </trkpt>
      <trkpt lat="43.21277" lon="5.44321">
        <ele>16.96</ele>
        <time>2019-04-21T09:31:24Z</time>
      </trkpt>
      <trkpt lat="43.2128" lon="5.44323">
        <ele>17.44</ele>
        <time>2019-04-21T09:31:27Z</time>
      </trkpt>
      <trkpt lat="43.21284" lon="5.44324">
        <ele>16.96</ele>
        <time>2019-04-21T09:31:31Z</time>
      </trkpt>
      <trkpt lat="43.21289" lon="5.44326">
        <ele>16.96</ele>
        <time>2019-04-21T09:31:43Z</time>
      </trkpt>
      <trkpt lat="43.21291" lon="5.44328">
        <ele>16.48</ele>
        <time>2019-04-21T09:31:46Z</time>
      </trkpt>
      <trkpt lat="43.21301" lon="5.44335">
        <ele>16</ele>
        <time>2019-04-21T09:31:56Z</time>
      </trkpt>
      <trkpt lat="43.21307" lon="5.44342">
        <ele>16.48</ele>
        <time>2019-04-21T09:32:04Z</time>
      </trkpt>
      <trkpt lat="43.2131" lon="5.44348">
        <ele>15.52</ele>
        <time>2019-04-21T09:32:13Z</time>
      </trkpt>
      <trkpt lat="43.21307" lon="5.44361">
        <ele>14.56</ele>
        <time>2019-04-21T09:32:25Z</time>
      </trkpt>
      <trkpt lat="43.21306" lon="5.44366">
        <ele>14.56</ele>
        <time>2019-04-21T09:32:38Z</time>
      </trkpt>
      <trkpt lat="43.21307" lon="5.44368">
        <ele>15.04</ele>
        <time>2019-04-21T09:32:40Z</time>
      </trkpt>
      <trkpt lat="43.21308" lon="5.44369">
        <ele>16.96</ele>
        <time>2019-04-21T09:32:44Z</time>
      </trkpt>
      <trkpt lat="43.21308" lon="5.44368">
        <ele>16</ele>
        <time>2019-04-21T09:32:45Z</time>
      </trkpt>
      <trkpt lat="43.21308" lon="5.44372">
        <ele>16.96</ele>
        <time>2019-04-21T09:32:53Z</time>
      </trkpt>
      <trkpt lat="43.21306" lon="5.44373">
        <ele>15.52</ele>
        <time>2019-04-21T09:33:00Z</time>
      </trkpt>
      <trkpt lat="43.21302" lon="5.44365">
        <ele>15.04</ele>
        <time>2019-04-21T09:33:04Z</time>
      </trkpt>
      <trkpt lat="43.213" lon="5.44364">
        <ele>15.04</ele>
        <time>2019-04-21T09:33:05Z</time>
      </trkpt>
      <trkpt lat="43.21301" lon="5.44367">
        <ele>15.52</ele>
        <time>2019-04-21T09:33:12Z</time>
      </trkpt>
      <trkpt lat="43.21301" lon="5.4437">
        <ele>15.04</ele>
        <time>2019-04-21T09:33:13Z</time>
      </trkpt>
      <trkpt lat="43.213" lon="5.44376">
        <ele>15.04</ele>
        <time>2019-04-21T09:33:21Z</time>
      </trkpt>
      <trkpt lat="43.21297" lon="5.44383">
        <ele>14.56</ele>
        <time>2019-04-21T09:33:33Z</time>
      </trkpt>
      <trkpt lat="43.21294" lon="5.44387">
        <ele>16.48</ele>
        <time>2019-04-21T09:33:45Z</time>
      </trkpt>
      <trkpt lat="43.21292" lon="5.44395">
        <ele>17.92</ele>
        <time>2019-04-21T09:33:54Z</time>
      </trkpt>
      <trkpt lat="43.21292" lon="5.44398">
        <ele>17.44</ele>
        <time>2019-04-21T09:33:58Z</time>
      </trkpt>
      <trkpt lat="43.21289" lon="5.44401">
        <ele>18.4</ele>
        <time>2019-04-21T09:34:06Z</time>
      </trkpt>
      <trkpt lat="43.21293" lon="5.44408">
        <ele>18.88</ele>
        <time>2019-04-21T09:34:23Z</time>
      </trkpt>
      <trkpt lat="43.21292" lon="5.44418">
        <ele>21.29</ele>
        <time>2019-04-21T09:34:34Z</time>
      </trkpt>
      <trkpt lat="43.21292" lon="5.44421">
        <ele>21.29</ele>
        <time>2019-04-21T09:34:36Z</time>
      </trkpt>
      <trkpt lat="43.21292" lon="5.44423">
        <ele>21.29</ele>
        <time>2019-04-21T09:34:38Z</time>
      </trkpt>
      <trkpt lat="43.2129" lon="5.44431">
        <ele>24.17</ele>
        <time>2019-04-21T09:34:49Z</time>
      </trkpt>
      <trkpt lat="43.21285" lon="5.44437">
        <ele>24.65</ele>
        <time>2019-04-21T09:34:57Z</time>
      </trkpt>
      <trkpt lat="43.21284" lon="5.44438">
        <ele>24.17</ele>
        <time>2019-04-21T09:34:58Z</time>
      </trkpt>
      <trkpt lat="43.21282" lon="5.4444">
        <ele>24.65</ele>
        <time>2019-04-21T09:35:01Z</time>
      </trkpt>
      <trkpt lat="43.21281" lon="5.44442">
        <ele>25.61</ele>
        <time>2019-04-21T09:35:02Z</time>
      </trkpt>
      <trkpt lat="43.2128" lon="5.44445">
        <ele>25.61</ele>
        <time>2019-04-21T09:35:06Z</time>
      </trkpt>
      <trkpt lat="43.21277" lon="5.44453">
        <ele>26.57</ele>
        <time>2019-04-21T09:35:18Z</time>
      </trkpt>
      <trkpt lat="43.21277" lon="5.44463">
        <ele>26.57</ele>
        <time>2019-04-21T09:35:25Z</time>
      </trkpt>
      <trkpt lat="43.21278" lon="5.44465">
        <ele>26.57</ele>
        <time>2019-04-21T09:35:36Z</time>
      </trkpt>
      <trkpt lat="43.21279" lon="5.44468">
        <ele>26.09</ele>
        <time>2019-04-21T09:35:38Z</time>
      </trkpt>
      <trkpt lat="43.21281" lon="5.44469">
        <ele>26.09</ele>
        <time>2019-04-21T09:35:39Z</time>
      </trkpt>
      <trkpt lat="43.21282" lon="5.4447">
        <ele>25.61</ele>
        <time>2019-04-21T09:35:40Z</time>
      </trkpt>
      <trkpt lat="43.21284" lon="5.44478">
        <ele>22.73</ele>
        <time>2019-04-21T09:35:49Z</time>
      </trkpt>
      <trkpt lat="43.21284" lon="5.4448">
        <ele>22.25</ele>
        <time>2019-04-21T09:35:50Z</time>
      </trkpt>
      <trkpt lat="43.21285" lon="5.44483">
        <ele>21.77</ele>
        <time>2019-04-21T09:35:51Z</time>
      </trkpt>
      <trkpt lat="43.21285" lon="5.44486">
        <ele>22.25</ele>
        <time>2019-04-21T09:35:52Z</time>
      </trkpt>
      <trkpt lat="43.21286" lon="5.44491">
        <ele>22.25</ele>
        <time>2019-04-21T09:35:55Z</time>
      </trkpt>
      <trkpt lat="43.21288" lon="5.44498">
        <ele>24.17</ele>
        <time>2019-04-21T09:36:06Z</time>
      </trkpt>
      <trkpt lat="43.21289" lon="5.44484">
        <ele>26.09</ele>
        <time>2019-04-21T09:36:24Z</time>
      </trkpt>
      <trkpt lat="43.21288" lon="5.44493">
        <ele>26.09</ele>
        <time>2019-04-21T09:36:42Z</time>
      </trkpt>
      <trkpt lat="43.21289" lon="5.445">
        <ele>27.53</ele>
        <time>2019-04-21T09:37:02Z</time>
      </trkpt>
      <trkpt lat="43.21285" lon="5.44506">
        <ele>29.46</ele>
        <time>2019-04-21T09:37:20Z</time>
      </trkpt>
      <trkpt lat="43.21284" lon="5.445">
        <ele>28.5</ele>
        <time>2019-04-21T09:37:46Z</time>
      </trkpt>
      <trkpt lat="43.21284" lon="5.445">
        <ele>28.98</ele>
        <time>2019-04-21T09:38:04Z</time>
      </trkpt>
      <trkpt lat="43.21278" lon="5.44494">
        <ele>28.02</ele>
        <time>2019-04-21T09:38:32Z</time>
      </trkpt>
      <trkpt lat="43.21277" lon="5.44502">
        <ele>30.9</ele>
        <time>2019-04-21T09:38:50Z</time>
      </trkpt>
      <trkpt lat="43.21283" lon="5.44514">
        <ele>33.78</ele>
        <time>2019-04-21T09:39:09Z</time>
      </trkpt>
      <trkpt lat="43.21284" lon="5.44521">
        <ele>37.15</ele>
        <time>2019-04-21T09:39:23Z</time>
      </trkpt>
      <trkpt lat="43.21288" lon="5.44521">
        <ele>40.03</ele>
        <time>2019-04-21T09:39:31Z</time>
      </trkpt>
      <trkpt lat="43.21294" lon="5.44533">
        <ele>40.99</ele>
        <time>2019-04-21T09:39:52Z</time>
      </trkpt>
      <trkpt lat="43.21294" lon="5.44534">
        <ele>40.51</ele>
        <time>2019-04-21T09:40:21Z</time>
      </trkpt>
      <trkpt lat="43.21294" lon="5.44534">
        <ele>42.44</ele>
        <time>2019-04-21T09:40:25Z</time>
      </trkpt>
      <trkpt lat="43.21294" lon="5.44539">
        <ele>43.4</ele>
        <time>2019-04-21T09:40:35Z</time>
      </trkpt>
      <trkpt lat="43.21298" lon="5.44548">
        <ele>45.32</ele>
        <time>2019-04-21T09:40:51Z</time>
      </trkpt>
      <trkpt lat="43.21299" lon="5.44554">
        <ele>49.16</ele>
        <time>2019-04-21T09:41:01Z</time>
      </trkpt>
      <trkpt lat="43.21298" lon="5.44555">
        <ele>48.2</ele>
        <time>2019-04-21T09:41:02Z</time>
      </trkpt>
      <trkpt lat="43.21297" lon="5.44565">
        <ele>52.05</ele>
        <time>2019-04-21T09:41:14Z</time>
      </trkpt>
      <trkpt lat="43.21298" lon="5.44565">
        <ele>52.05</ele>
        <time>2019-04-21T09:41:15Z</time>
      </trkpt>
      <trkpt lat="43.21297" lon="5.44571">
        <ele>52.53</ele>
        <time>2019-04-21T09:41:33Z</time>
      </trkpt>
      <trkpt lat="43.21297" lon="5.44576">
        <ele>53.97</ele>
        <time>2019-04-21T09:41:35Z</time>
      </trkpt>
      <trkpt lat="43.21288" lon="5.4459">
        <ele>54.45</ele>
        <time>2019-04-21T09:41:57Z</time>
      </trkpt>
      <trkpt lat="43.21289" lon="5.44604">
        <ele>54.93</ele>
        <time>2019-04-21T09:42:27Z</time>
      </trkpt>
      <trkpt lat="43.21279" lon="5.44596">
        <ele>53.01</ele>
        <time>2019-04-21T09:42:57Z</time>
      </trkpt>
      <trkpt lat="43.21281" lon="5.44595">
        <ele>53.01</ele>
        <time>2019-04-21T09:43:28Z</time>
      </trkpt>
      <trkpt lat="43.21281" lon="5.446">
        <ele>54.93</ele>
        <time>2019-04-21T09:43:48Z</time>
      </trkpt>
      <trkpt lat="43.21284" lon="5.44601">
        <ele>54.45</ele>
        <time>2019-04-21T09:44:19Z</time>
      </trkpt>
      <trkpt lat="43.21276" lon="5.44623">
        <ele>56.37</ele>
        <time>2019-04-21T09:44:34Z</time>
      </trkpt>
      <trkpt lat="43.21274" lon="5.44624">
        <ele>57.34</ele>
        <time>2019-04-21T09:44:39Z</time>
      </trkpt>
      <trkpt lat="43.21264" lon="5.44618">
        <ele>59.74</ele>
        <time>2019-04-21T09:44:57Z</time>
      </trkpt>
      <trkpt lat="43.21254" lon="5.44622">
        <ele>60.22</ele>
        <time>2019-04-21T09:45:16Z</time>
      </trkpt>
      <trkpt lat="43.21249" lon="5.44618">
        <ele>59.74</ele>
        <time>2019-04-21T09:45:31Z</time>
      </trkpt>
      <trkpt lat="43.21248" lon="5.44618">
        <ele>63.58</ele>
        <time>2019-04-21T09:45:43Z</time>
      </trkpt>
      <trkpt lat="43.21248" lon="5.44617">
        <ele>63.58</ele>
        <time>2019-04-21T09:45:44Z</time>
      </trkpt>
      <trkpt lat="43.21253" lon="5.44627">
        <ele>61.18</ele>
        <time>2019-04-21T09:46:04Z</time>
      </trkpt>
      <trkpt lat="43.21247" lon="5.44628">
        <ele>57.82</ele>
        <time>2019-04-21T09:46:25Z</time>
      </trkpt>
      <trkpt lat="43.21244" lon="5.44639">
        <ele>56.86</ele>
        <time>2019-04-21T09:46:45Z</time>
      </trkpt>
      <trkpt lat="43.21245" lon="5.4465">
        <ele>56.37</ele>
        <time>2019-04-21T09:46:53Z</time>
      </trkpt>
      <trkpt lat="43.21242" lon="5.44655">
        <ele>55.89</ele>
        <time>2019-04-21T09:46:58Z</time>
      </trkpt>
      <trkpt lat="43.21222" lon="5.44666">
        <ele>55.41</ele>
        <time>2019-04-21T09:47:20Z</time>
      </trkpt>
      <trkpt lat="43.21223" lon="5.44674">
        <ele>54.93</ele>
        <time>2019-04-21T09:47:44Z</time>
      </trkpt>
      <trkpt lat="43.21214" lon="5.44686">
        <ele>52.53</ele>
        <time>2019-04-21T09:48:05Z</time>
      </trkpt>
      <trkpt lat="43.21215" lon="5.44688">
        <ele>53.97</ele>
        <time>2019-04-21T09:48:07Z</time>
      </trkpt>
      <trkpt lat="43.2121" lon="5.44701">
        <ele>52.53</ele>
        <time>2019-04-21T09:48:33Z</time>
      </trkpt>
      <trkpt lat="43.21207" lon="5.44716">
        <ele>49.16</ele>
        <time>2019-04-21T09:48:51Z</time>
      </trkpt>
      <trkpt lat="43.21205" lon="5.44722">
        <ele>49.16</ele>
        <time>2019-04-21T09:49:09Z</time>
      </trkpt>
      <trkpt lat="43.21203" lon="5.44729">
        <ele>47.72</ele>
        <time>2019-04-21T09:49:15Z</time>
      </trkpt>
      <trkpt lat="43.21191" lon="5.44753">
        <ele>45.32</ele>
        <time>2019-04-21T09:49:37Z</time>
      </trkpt>
      <trkpt lat="43.2119" lon="5.44754">
        <ele>45.32</ele>
        <time>2019-04-21T09:49:38Z</time>
      </trkpt>
      <trkpt lat="43.21175" lon="5.44764">
        <ele>45.32</ele>
        <time>2019-04-21T09:49:58Z</time>
      </trkpt>
      <trkpt lat="43.21169" lon="5.44764">
        <ele>44.84</ele>
        <time>2019-04-21T09:50:16Z</time>
      </trkpt>
      <trkpt lat="43.21164" lon="5.44769">
        <ele>43.4</ele>
        <time>2019-04-21T09:50:28Z</time>
      </trkpt>
      <trkpt lat="43.21153" lon="5.44757">
        <ele>42.92</ele>
        <time>2019-04-21T09:50:50Z</time>
      </trkpt>
      <trkpt lat="43.21146" lon="5.44754">
        <ele>42.92</ele>
        <time>2019-04-21T09:51:12Z</time>
      </trkpt>
      <trkpt lat="43.21145" lon="5.44786">
        <ele>43.88</ele>
        <time>2019-04-21T09:51:35Z</time>
      </trkpt>
      <trkpt lat="43.21135" lon="5.44794">
        <ele>43.4</ele>
        <time>2019-04-21T09:51:49Z</time>
      </trkpt>
      <trkpt lat="43.21131" lon="5.44802">
        <ele>44.36</ele>
        <time>2019-04-21T09:52:08Z</time>
      </trkpt>
      <trkpt lat="43.21116" lon="5.44817">
        <ele>42.92</ele>
        <time>2019-04-21T09:52:27Z</time>
      </trkpt>
      <trkpt lat="43.21111" lon="5.44824">
        <ele>45.8</ele>
        <time>2019-04-21T09:52:47Z</time>
      </trkpt>
      <trkpt lat="43.21111" lon="5.44825">
        <ele>46.76</ele>
        <time>2019-04-21T09:53:05Z</time>
      </trkpt>
      <trkpt lat="43.21112" lon="5.44829">
        <ele>50.13</ele>
        <time>2019-04-21T09:53:16Z</time>
      </trkpt>
      <trkpt lat="43.21104" lon="5.44835">
        <ele>52.53</ele>
        <time>2019-04-21T09:53:36Z</time>
      </trkpt>
      <trkpt lat="43.21111" lon="5.44835">
        <ele>53.97</ele>
        <time>2019-04-21T09:53:43Z</time>
      </trkpt>
      <trkpt lat="43.21109" lon="5.44838">
        <ele>53.97</ele>
        <time>2019-04-21T09:53:50Z</time>
      </trkpt>
      <trkpt lat="43.21103" lon="5.44838">
        <ele>55.41</ele>
        <time>2019-04-21T09:54:09Z</time>
      </trkpt>
      <trkpt lat="43.21103" lon="5.44838">
        <ele>56.86</ele>
        <time>2019-04-21T09:54:17Z</time>
      </trkpt>
      <trkpt lat="43.21101" lon="5.4484">
        <ele>55.89</ele>
        <time>2019-04-21T09:54:39Z</time>
      </trkpt>
      <trkpt lat="43.21097" lon="5.44843">
        <ele>54.93</ele>
        <time>2019-04-21T09:54:54Z</time>
      </trkpt>
      <trkpt lat="43.21099" lon="5.44844">
        <ele>53.97</ele>
        <time>2019-04-21T09:55:23Z</time>
      </trkpt>
      <trkpt lat="43.21099" lon="5.44854">
        <ele>54.45</ele>
        <time>2019-04-21T09:55:40Z</time>
      </trkpt>
      <trkpt lat="43.21096" lon="5.44872">
        <ele>55.41</ele>
        <time>2019-04-21T09:55:56Z</time>
      </trkpt>
      <trkpt lat="43.21093" lon="5.44881">
        <ele>58.78</ele>
        <time>2019-04-21T09:56:08Z</time>
      </trkpt>
      <trkpt lat="43.21093" lon="5.44881">
        <ele>58.3</ele>
        <time>2019-04-21T09:56:09Z</time>
      </trkpt>
      <trkpt lat="43.21087" lon="5.4489">
        <ele>60.22</ele>
        <time>2019-04-21T09:56:21Z</time>
      </trkpt>
      <trkpt lat="43.21086" lon="5.44899">
        <ele>56.86</ele>
        <time>2019-04-21T09:56:32Z</time>
      </trkpt>
      <trkpt lat="43.21093" lon="5.44907">
        <ele>53.01</ele>
        <time>2019-04-21T09:56:45Z</time>
      </trkpt>
      <trkpt lat="43.21094" lon="5.44907">
        <ele>53.49</ele>
        <time>2019-04-21T09:56:46Z</time>
      </trkpt>
      <trkpt lat="43.21093" lon="5.44909">
        <ele>55.41</ele>
        <time>2019-04-21T09:56:52Z</time>
      </trkpt>
      <trkpt lat="43.21094" lon="5.44907">
        <ele>55.41</ele>
        <time>2019-04-21T09:57:10Z</time>
      </trkpt>
      <trkpt lat="43.21091" lon="5.4491">
        <ele>54.45</ele>
        <time>2019-04-21T09:57:29Z</time>
      </trkpt>
      <trkpt lat="43.21089" lon="5.44912">
        <ele>52.53</ele>
        <time>2019-04-21T09:57:32Z</time>
      </trkpt>
      <trkpt lat="43.21094" lon="5.44915">
        <ele>52.53</ele>
        <time>2019-04-21T09:57:53Z</time>
      </trkpt>
      <trkpt lat="43.21099" lon="5.44921">
        <ele>53.49</ele>
        <time>2019-04-21T09:58:02Z</time>
      </trkpt>
      <trkpt lat="43.21103" lon="5.44926">
        <ele>52.53</ele>
        <time>2019-04-21T09:58:10Z</time>
      </trkpt>
      <trkpt lat="43.21115" lon="5.44934">
        <ele>54.45</ele>
        <time>2019-04-21T09:58:28Z</time>
      </trkpt>
      <trkpt lat="43.21113" lon="5.44945">
        <ele>57.82</ele>
        <time>2019-04-21T09:58:44Z</time>
      </trkpt>
      <trkpt lat="43.21112" lon="5.44946">
        <ele>58.3</ele>
        <time>2019-04-21T09:58:45Z</time>
      </trkpt>
      <trkpt lat="43.21109" lon="5.44956">
        <ele>56.37</ele>
        <time>2019-04-21T09:59:01Z</time>
      </trkpt>
      <trkpt lat="43.21106" lon="5.44959">
        <ele>56.86</ele>
        <time>2019-04-21T09:59:17Z</time>
      </trkpt>
      <trkpt lat="43.21107" lon="5.44978">
        <ele>58.3</ele>
        <time>2019-04-21T09:59:35Z</time>
      </trkpt>
      <trkpt lat="43.21108" lon="5.44983">
        <ele>57.34</ele>
        <time>2019-04-21T09:59:39Z</time>
      </trkpt>
      <trkpt lat="43.21108" lon="5.44984">
        <ele>56.86</ele>
        <time>2019-04-21T09:59:40Z</time>
      </trkpt>
      <trkpt lat="43.21111" lon="5.44996">
        <ele>56.37</ele>
        <time>2019-04-21T09:59:48Z</time>
      </trkpt>
      <trkpt lat="43.21119" lon="5.45016">
        <ele>55.89</ele>
        <time>2019-04-21T10:00:06Z</time>
      </trkpt>
      <trkpt lat="43.21125" lon="5.45043">
        <ele>56.86</ele>
        <time>2019-04-21T10:00:27Z</time>
      </trkpt>
      <trkpt lat="43.21121" lon="5.45034">
        <ele>58.3</ele>
        <time>2019-04-21T10:00:54Z</time>
      </trkpt>
      <trkpt lat="43.21125" lon="5.45035">
        <ele>56.37</ele>
        <time>2019-04-21T10:01:09Z</time>
      </trkpt>
      <trkpt lat="43.21124" lon="5.45046">
        <ele>59.74</ele>
        <time>2019-04-21T10:01:18Z</time>
      </trkpt>
      <trkpt lat="43.21122" lon="5.45062">
        <ele>58.78</ele>
        <time>2019-04-21T10:01:34Z</time>
      </trkpt>
      <trkpt lat="43.21113" lon="5.45068">
        <ele>60.7</ele>
        <time>2019-04-21T10:01:54Z</time>
      </trkpt>
      <trkpt lat="43.21105" lon="5.45074">
        <ele>60.7</ele>
        <time>2019-04-21T10:02:09Z</time>
      </trkpt>
      <trkpt lat="43.21099" lon="5.45081">
        <ele>58.78</ele>
        <time>2019-04-21T10:02:29Z</time>
      </trkpt>
      <trkpt lat="43.21098" lon="5.4508">
        <ele>61.18</ele>
        <time>2019-04-21T10:03:04Z</time>
      </trkpt>
      <trkpt lat="43.21101" lon="5.45084">
        <ele>60.7</ele>
        <time>2019-04-21T10:03:24Z</time>
      </trkpt>
      <trkpt lat="43.21101" lon="5.45088">
        <ele>59.26</ele>
        <time>2019-04-21T10:03:36Z</time>
      </trkpt>
      <trkpt lat="43.21086" lon="5.45108">
        <ele>59.26</ele>
        <time>2019-04-21T10:03:57Z</time>
      </trkpt>
      <trkpt lat="43.21074" lon="5.45117">
        <ele>59.26</ele>
        <time>2019-04-21T10:04:18Z</time>
      </trkpt>
      <trkpt lat="43.2107" lon="5.45111">
        <ele>58.3</ele>
        <time>2019-04-21T10:04:45Z</time>
      </trkpt>
      <trkpt lat="43.2107" lon="5.45115">
        <ele>58.3</ele>
        <time>2019-04-21T10:05:17Z</time>
      </trkpt>
      <trkpt lat="43.2107" lon="5.45124">
        <ele>58.78</ele>
        <time>2019-04-21T10:05:46Z</time>
      </trkpt>
      <trkpt lat="43.21071" lon="5.45126">
        <ele>55.41</ele>
        <time>2019-04-21T10:05:48Z</time>
      </trkpt>
      <trkpt lat="43.2107" lon="5.45128">
        <ele>53.97</ele>
        <time>2019-04-21T10:05:50Z</time>
      </trkpt>
      <trkpt lat="43.21069" lon="5.45132">
        <ele>57.82</ele>
        <time>2019-04-21T10:05:54Z</time>
      </trkpt>
      <trkpt lat="43.2107" lon="5.45139">
        <ele>54.93</ele>
        <time>2019-04-21T10:06:13Z</time>
      </trkpt>
      <trkpt lat="43.21069" lon="5.45138">
        <ele>56.37</ele>
        <time>2019-04-21T10:06:18Z</time>
      </trkpt>
      <trkpt lat="43.21069" lon="5.45139">
        <ele>54.45</ele>
        <time>2019-04-21T10:06:21Z</time>
      </trkpt>
      <trkpt lat="43.21065" lon="5.45145">
        <ele>53.49</ele>
        <time>2019-04-21T10:06:40Z</time>
      </trkpt>
      <trkpt lat="43.21066" lon="5.45145">
        <ele>49.65</ele>
        <time>2019-04-21T10:06:49Z</time>
      </trkpt>
      <trkpt lat="43.21066" lon="5.4516">
        <ele>48.2</ele>
        <time>2019-04-21T10:07:10Z</time>
      </trkpt>
      <trkpt lat="43.21065" lon="5.45167">
        <ele>49.16</ele>
        <time>2019-04-21T10:07:36Z</time>
      </trkpt>
      <trkpt lat="43.2106" lon="5.45186">
        <ele>48.2</ele>
        <time>2019-04-21T10:07:55Z</time>
      </trkpt>
      <trkpt lat="43.21054" lon="5.45197">
        <ele>47.72</ele>
        <time>2019-04-21T10:08:16Z</time>
      </trkpt>
      <trkpt lat="43.21038" lon="5.45208">
        <ele>44.36</ele>
        <time>2019-04-21T10:08:33Z</time>
      </trkpt>
      <trkpt lat="43.21039" lon="5.45206">
        <ele>43.4</ele>
        <time>2019-04-21T10:08:35Z</time>
      </trkpt>
      <trkpt lat="43.21035" lon="5.45206">
        <ele>41.95</ele>
        <time>2019-04-21T10:08:38Z</time>
      </trkpt>
      <trkpt lat="43.21035" lon="5.45208">
        <ele>43.4</ele>
        <time>2019-04-21T10:08:42Z</time>
      </trkpt>
      <trkpt lat="43.21031" lon="5.45213">
        <ele>43.4</ele>
        <time>2019-04-21T10:08:50Z</time>
      </trkpt>
      <trkpt lat="43.2103" lon="5.45218">
        <ele>47.72</ele>
        <time>2019-04-21T10:16:52Z</time>
      </trkpt>
      <trkpt lat="43.20982" lon="5.45391">
        <ele>47.72</ele>
        <time>2019-04-21T10:16:53Z</time>
      </trkpt>
      <trkpt lat="43.20979" lon="5.45391">
        <ele>43.88</ele>
        <time>2019-04-21T10:17:05Z</time>
      </trkpt>
      <trkpt lat="43.20977" lon="5.45392">
        <ele>40.99</ele>
        <time>2019-04-21T10:17:15Z</time>
      </trkpt>
      <trkpt lat="43.20978" lon="5.45394">
        <ele>40.03</ele>
        <time>2019-04-21T10:17:20Z</time>
      </trkpt>
      <trkpt lat="43.20982" lon="5.45396">
        <ele>37.63</ele>
        <time>2019-04-21T10:17:27Z</time>
      </trkpt>
      <trkpt lat="43.20983" lon="5.45396">
        <ele>34.26</ele>
        <time>2019-04-21T10:17:38Z</time>
      </trkpt>
      <trkpt lat="43.20983" lon="5.45395">
        <ele>33.3</ele>
        <time>2019-04-21T10:17:40Z</time>
      </trkpt>
      <trkpt lat="43.20982" lon="5.4539">
        <ele>31.86</ele>
        <time>2019-04-21T10:18:00Z</time>
      </trkpt>
      <trkpt lat="43.20982" lon="5.45385">
        <ele>30.42</ele>
        <time>2019-04-21T10:18:18Z</time>
      </trkpt>
      <trkpt lat="43.20985" lon="5.45383">
        <ele>30.42</ele>
        <time>2019-04-21T10:18:37Z</time>
      </trkpt>
      <trkpt lat="43.20994" lon="5.4538">
        <ele>33.3</ele>
        <time>2019-04-21T10:18:58Z</time>
      </trkpt>
      <trkpt lat="43.20999" lon="5.45376">
        <ele>34.26</ele>
        <time>2019-04-21T10:19:16Z</time>
      </trkpt>
      <trkpt lat="43.21005" lon="5.45369">
        <ele>36.67</ele>
        <time>2019-04-21T10:19:34Z</time>
      </trkpt>
      <trkpt lat="43.21011" lon="5.45362">
        <ele>39.07</ele>
        <time>2019-04-21T10:19:54Z</time>
      </trkpt>
      <trkpt lat="43.21013" lon="5.4536">
        <ele>42.44</ele>
        <time>2019-04-21T10:20:06Z</time>
      </trkpt>
      <trkpt lat="43.21012" lon="5.45359">
        <ele>42.44</ele>
        <time>2019-04-21T10:20:07Z</time>
      </trkpt>
      <trkpt lat="43.21012" lon="5.45357">
        <ele>42.92</ele>
        <time>2019-04-21T10:20:11Z</time>
      </trkpt>
      <trkpt lat="43.21015" lon="5.45354">
        <ele>44.36</ele>
        <time>2019-04-21T10:20:15Z</time>
      </trkpt>
      <trkpt lat="43.21014" lon="5.4535">
        <ele>44.36</ele>
        <time>2019-04-21T10:20:31Z</time>
      </trkpt>
      <trkpt lat="43.21016" lon="5.45349">
        <ele>45.32</ele>
        <time>2019-04-21T10:20:46Z</time>
      </trkpt>
      <trkpt lat="43.21025" lon="5.45347">
        <ele>43.88</ele>
        <time>2019-04-21T10:21:10Z</time>
      </trkpt>
      <trkpt lat="43.21025" lon="5.45348">
        <ele>47.24</ele>
        <time>2019-04-21T10:21:11Z</time>
      </trkpt>
      <trkpt lat="43.21022" lon="5.45352">
        <ele>48.2</ele>
        <time>2019-04-21T10:21:25Z</time>
      </trkpt>
      <trkpt lat="43.21023" lon="5.45353">
        <ele>46.76</ele>
        <time>2019-04-21T10:21:47Z</time>
      </trkpt>
      <trkpt lat="43.21033" lon="5.45355">
        <ele>49.16</ele>
        <time>2019-04-21T10:22:07Z</time>
      </trkpt>
      <trkpt lat="43.21036" lon="5.45358">
        <ele>47.72</ele>
        <time>2019-04-21T10:22:32Z</time>
      </trkpt>
      <trkpt lat="43.21041" lon="5.45354">
        <ele>47.72</ele>
        <time>2019-04-21T10:22:56Z</time>
      </trkpt>
      <trkpt lat="43.21048" lon="5.45355">
        <ele>48.68</ele>
        <time>2019-04-21T10:23:16Z</time>
      </trkpt>
      <trkpt lat="43.21054" lon="5.45354">
        <ele>49.65</ele>
        <time>2019-04-21T10:23:33Z</time>
      </trkpt>
      <trkpt lat="43.2106" lon="5.45352">
        <ele>51.09</ele>
        <time>2019-04-21T10:23:46Z</time>
      </trkpt>
      <trkpt lat="43.21066" lon="5.45355">
        <ele>51.09</ele>
        <time>2019-04-21T10:24:06Z</time>
      </trkpt>
      <trkpt lat="43.21074" lon="5.45357">
        <ele>52.05</ele>
        <time>2019-04-21T10:24:14Z</time>
      </trkpt>
      <trkpt lat="43.21089" lon="5.4536">
        <ele>54.45</ele>
        <time>2019-04-21T10:24:32Z</time>
      </trkpt>
      <trkpt lat="43.21099" lon="5.45359">
        <ele>56.37</ele>
        <time>2019-04-21T10:24:46Z</time>
      </trkpt>
      <trkpt lat="43.21102" lon="5.45367">
        <ele>56.86</ele>
        <time>2019-04-21T10:25:03Z</time>
      </trkpt>
      <trkpt lat="43.21107" lon="5.45369">
        <ele>57.82</ele>
        <time>2019-04-21T10:25:22Z</time>
      </trkpt>
      <trkpt lat="43.21115" lon="5.45366">
        <ele>59.26</ele>
        <time>2019-04-21T10:25:36Z</time>
      </trkpt>
      <trkpt lat="43.21122" lon="5.45361">
        <ele>57.82</ele>
        <time>2019-04-21T10:25:49Z</time>
      </trkpt>
      <trkpt lat="43.21131" lon="5.45365">
        <ele>55.89</ele>
        <time>2019-04-21T10:26:03Z</time>
      </trkpt>
      <trkpt lat="43.21138" lon="5.4537">
        <ele>52.53</ele>
        <time>2019-04-21T10:26:21Z</time>
      </trkpt>
      <trkpt lat="43.21132" lon="5.45376">
        <ele>49.65</ele>
        <time>2019-04-21T10:26:42Z</time>
      </trkpt>
      <trkpt lat="43.21133" lon="5.45377">
        <ele>49.16</ele>
        <time>2019-04-21T10:27:05Z</time>
      </trkpt>
      <trkpt lat="43.21135" lon="5.45377">
        <ele>48.2</ele>
        <time>2019-04-21T10:27:07Z</time>
      </trkpt>
      <trkpt lat="43.21147" lon="5.45376">
        <ele>46.76</ele>
        <time>2019-04-21T10:27:26Z</time>
      </trkpt>
      <trkpt lat="43.21155" lon="5.45382">
        <ele>45.32</ele>
        <time>2019-04-21T10:27:47Z</time>
      </trkpt>
      <trkpt lat="43.21159" lon="5.45384">
        <ele>44.36</ele>
        <time>2019-04-21T10:28:09Z</time>
      </trkpt>
      <trkpt lat="43.2116" lon="5.45385">
        <ele>44.84</ele>
        <time>2019-04-21T10:28:37Z</time>
      </trkpt>
      <trkpt lat="43.21157" lon="5.45379">
        <ele>43.88</ele>
        <time>2019-04-21T10:29:05Z</time>
      </trkpt>
      <trkpt lat="43.21153" lon="5.45375">
        <ele>43.88</ele>
        <time>2019-04-21T10:29:31Z</time>
      </trkpt>
      <trkpt lat="43.21157" lon="5.45375">
        <ele>43.88</ele>
        <time>2019-04-21T10:29:53Z</time>
      </trkpt>
      <trkpt lat="43.21166" lon="5.45375">
        <ele>41.95</ele>
        <time>2019-04-21T10:30:14Z</time>
      </trkpt>
      <trkpt lat="43.21173" lon="5.45369">
        <ele>39.55</ele>
        <time>2019-04-21T10:30:37Z</time>
      </trkpt>
      <trkpt lat="43.21178" lon="5.45372">
        <ele>37.15</ele>
        <time>2019-04-21T10:30:52Z</time>
      </trkpt>
      <trkpt lat="43.21181" lon="5.45373">
        <ele>36.19</ele>
        <time>2019-04-21T10:30:58Z</time>
      </trkpt>
      <trkpt lat="43.21186" lon="5.45373">
        <ele>35.23</ele>
        <time>2019-04-21T10:31:11Z</time>
      </trkpt>
      <trkpt lat="43.21182" lon="5.45368">
        <ele>35.23</ele>
        <time>2019-04-21T10:31:37Z</time>
      </trkpt>
      <trkpt lat="43.21183" lon="5.45364">
        <ele>36.19</ele>
        <time>2019-04-21T10:32:00Z</time>
      </trkpt>
      <trkpt lat="43.21182" lon="5.4536">
        <ele>35.23</ele>
        <time>2019-04-21T10:32:26Z</time>
      </trkpt>
      <trkpt lat="43.21169" lon="5.45358">
        <ele>35.71</ele>
        <time>2019-04-21T10:32:53Z</time>
      </trkpt>
      <trkpt lat="43.2118" lon="5.45365">
        <ele>36.19</ele>
        <time>2019-04-21T10:33:26Z</time>
      </trkpt>
      <trkpt lat="43.21184" lon="5.45365">
        <ele>36.67</ele>
        <time>2019-04-21T10:33:56Z</time>
      </trkpt>
      <trkpt lat="43.21184" lon="5.4536">
        <ele>36.67</ele>
        <time>2019-04-21T10:34:29Z</time>
      </trkpt>
      <trkpt lat="43.21181" lon="5.45359">
        <ele>35.71</ele>
        <time>2019-04-21T10:34:50Z</time>
      </trkpt>
      <trkpt lat="43.21188" lon="5.45361">
        <ele>35.71</ele>
        <time>2019-04-21T10:35:10Z</time>
      </trkpt>
      <trkpt lat="43.21184" lon="5.45373">
        <ele>35.71</ele>
        <time>2019-04-21T10:35:39Z</time>
      </trkpt>
      <trkpt lat="43.21187" lon="5.45368">
        <ele>33.78</ele>
        <time>2019-04-21T10:36:02Z</time>
      </trkpt>
      <trkpt lat="43.21218" lon="5.45356">
        <ele>32.82</ele>
        <time>2019-04-21T10:36:24Z</time>
      </trkpt>
      <trkpt lat="43.21216" lon="5.45358">
        <ele>32.34</ele>
        <time>2019-04-21T10:36:35Z</time>
      </trkpt>
      <trkpt lat="43.21219" lon="5.4536">
        <ele>29.94</ele>
        <time>2019-04-21T10:36:46Z</time>
      </trkpt>
      <trkpt lat="43.21214" lon="5.45367">
        <ele>30.42</ele>
        <time>2019-04-21T10:37:00Z</time>
      </trkpt>
      <trkpt lat="43.21224" lon="5.45366">
        <ele>28.5</ele>
        <time>2019-04-21T10:37:15Z</time>
      </trkpt>
      <trkpt lat="43.21222" lon="5.45367">
        <ele>28.98</ele>
        <time>2019-04-21T10:37:18Z</time>
      </trkpt>
      <trkpt lat="43.2122" lon="5.45372">
        <ele>27.05</ele>
        <time>2019-04-21T10:37:40Z</time>
      </trkpt>
      <trkpt lat="43.21227" lon="5.45367">
        <ele>23.69</ele>
        <time>2019-04-21T10:37:51Z</time>
      </trkpt>
      <trkpt lat="43.2122" lon="5.45378">
        <ele>22.73</ele>
        <time>2019-04-21T10:38:09Z</time>
      </trkpt>
      <trkpt lat="43.21211" lon="5.45387">
        <ele>20.81</ele>
        <time>2019-04-21T10:38:29Z</time>
      </trkpt>
      <trkpt lat="43.2121" lon="5.45395">
        <ele>19.84</ele>
        <time>2019-04-21T10:38:44Z</time>
      </trkpt>
      <trkpt lat="43.21202" lon="5.4541">
        <ele>17.44</ele>
        <time>2019-04-21T10:39:03Z</time>
      </trkpt>
      <trkpt lat="43.212" lon="5.45416">
        <ele>14.08</ele>
        <time>2019-04-21T10:39:11Z</time>
      </trkpt>
      <trkpt lat="43.21201" lon="5.45426">
        <ele>10.71</ele>
        <time>2019-04-21T10:39:22Z</time>
      </trkpt>
      <trkpt lat="43.21204" lon="5.45432">
        <ele>11.19</ele>
        <time>2019-04-21T10:39:43Z</time>
      </trkpt>
      <trkpt lat="43.21205" lon="5.45433">
        <ele>12.63</ele>
        <time>2019-04-21T10:39:57Z</time>
      </trkpt>
      <trkpt lat="43.21213" lon="5.45432">
        <ele>12.63</ele>
        <time>2019-04-21T10:40:14Z</time>
      </trkpt>
      <trkpt lat="43.21219" lon="5.45424">
        <ele>11.67</ele>
        <time>2019-04-21T10:40:41Z</time>
      </trkpt>
      <trkpt lat="43.21218" lon="5.45418">
        <ele>11.19</ele>
        <time>2019-04-21T10:40:52Z</time>
      </trkpt>
      <trkpt lat="43.21224" lon="5.45413">
        <ele>12.15</ele>
        <time>2019-04-21T10:41:18Z</time>
      </trkpt>
      <trkpt lat="43.21211" lon="5.4541">
        <ele>12.15</ele>
        <time>2019-04-21T10:41:39Z</time>
      </trkpt>
      <trkpt lat="43.21223" lon="5.45419">
        <ele>12.15</ele>
        <time>2019-04-21T10:42:04Z</time>
      </trkpt>
      <trkpt lat="43.21208" lon="5.45404">
        <ele>13.12</ele>
        <time>2019-04-21T10:42:34Z</time>
      </trkpt>
      <trkpt lat="43.21191" lon="5.45397">
        <ele>12.15</ele>
        <time>2019-04-21T10:43:02Z</time>
      </trkpt>
      <trkpt lat="43.21188" lon="5.45393">
        <ele>12.63</ele>
        <time>2019-04-21T10:43:09Z</time>
      </trkpt>
      <trkpt lat="43.21209" lon="5.45402">
        <ele>12.15</ele>
        <time>2019-04-21T10:43:28Z</time>
      </trkpt>
      <trkpt lat="43.21205" lon="5.45398">
        <ele>12.15</ele>
        <time>2019-04-21T10:43:38Z</time>
      </trkpt>
      <trkpt lat="43.21202" lon="5.45396">
        <ele>12.15</ele>
        <time>2019-04-21T10:43:58Z</time>
      </trkpt>
      <trkpt lat="43.21203" lon="5.4542">
        <ele>12.63</ele>
        <time>2019-04-21T10:44:22Z</time>
      </trkpt>
      <trkpt lat="43.21211" lon="5.45416">
        <ele>11.19</ele>
        <time>2019-04-21T10:44:36Z</time>
      </trkpt>
      <trkpt lat="43.21213" lon="5.45421">
        <ele>12.63</ele>
        <time>2019-04-21T10:44:43Z</time>
      </trkpt>
      <trkpt lat="43.2122" lon="5.45398">
        <ele>14.56</ele>
        <time>2019-04-21T10:45:03Z</time>
      </trkpt>
      <trkpt lat="43.21222" lon="5.454">
        <ele>14.08</ele>
        <time>2019-04-21T10:45:29Z</time>
      </trkpt>
      <trkpt lat="43.21218" lon="5.45388">
        <ele>17.44</ele>
        <time>2019-04-21T10:45:39Z</time>
      </trkpt>
      <trkpt lat="43.21218" lon="5.45387">
        <ele>17.44</ele>
        <time>2019-04-21T10:45:40Z</time>
      </trkpt>
      <trkpt lat="43.21214" lon="5.45383">
        <ele>18.88</ele>
        <time>2019-04-21T10:45:48Z</time>
      </trkpt>
      <trkpt lat="43.21214" lon="5.45379">
        <ele>20.81</ele>
        <time>2019-04-21T10:46:05Z</time>
      </trkpt>
      <trkpt lat="43.21218" lon="5.45383">
        <ele>22.25</ele>
        <time>2019-04-21T10:46:18Z</time>
      </trkpt>
      <trkpt lat="43.21219" lon="5.45381">
        <ele>22.73</ele>
        <time>2019-04-21T10:46:22Z</time>
      </trkpt>
      <trkpt lat="43.21225" lon="5.45384">
        <ele>24.17</ele>
        <time>2019-04-21T10:46:30Z</time>
      </trkpt>
      <trkpt lat="43.21232" lon="5.45393">
        <ele>26.57</ele>
        <time>2019-04-21T10:46:45Z</time>
      </trkpt>
      <trkpt lat="43.21236" lon="5.45407">
        <ele>29.46</ele>
        <time>2019-04-21T10:47:05Z</time>
      </trkpt>
      <trkpt lat="43.21238" lon="5.45417">
        <ele>33.3</ele>
        <time>2019-04-21T10:47:18Z</time>
      </trkpt>
      <trkpt lat="43.21239" lon="5.45435">
        <ele>34.74</ele>
        <time>2019-04-21T10:47:39Z</time>
      </trkpt>
      <trkpt lat="43.21246" lon="5.45444">
        <ele>32.82</ele>
        <time>2019-04-21T10:47:51Z</time>
      </trkpt>
      <trkpt lat="43.21245" lon="5.45447">
        <ele>32.82</ele>
        <time>2019-04-21T10:47:54Z</time>
      </trkpt>
      <trkpt lat="43.2123" lon="5.45464">
        <ele>31.86</ele>
        <time>2019-04-21T10:48:09Z</time>
      </trkpt>
      <trkpt lat="43.21219" lon="5.45477">
        <ele>30.9</ele>
        <time>2019-04-21T10:48:23Z</time>
      </trkpt>
      <trkpt lat="43.21217" lon="5.45479">
        <ele>29.94</ele>
        <time>2019-04-21T10:48:26Z</time>
      </trkpt>
      <trkpt lat="43.21211" lon="5.45494">
        <ele>29.46</ele>
        <time>2019-04-21T10:48:43Z</time>
      </trkpt>
      <trkpt lat="43.21209" lon="5.45498">
        <ele>26.57</ele>
        <time>2019-04-21T10:48:57Z</time>
      </trkpt>
      <trkpt lat="43.21209" lon="5.45509">
        <ele>25.13</ele>
        <time>2019-04-21T10:49:13Z</time>
      </trkpt>
      <trkpt lat="43.21212" lon="5.45518">
        <ele>23.21</ele>
        <time>2019-04-21T10:49:29Z</time>
      </trkpt>
      <trkpt lat="43.21208" lon="5.45534">
        <ele>21.77</ele>
        <time>2019-04-21T10:49:49Z</time>
      </trkpt>
      <trkpt lat="43.21209" lon="5.45547">
        <ele>24.65</ele>
        <time>2019-04-21T10:50:05Z</time>
      </trkpt>
      <trkpt lat="43.21208" lon="5.45562">
        <ele>25.61</ele>
        <time>2019-04-21T10:50:26Z</time>
      </trkpt>
      <trkpt lat="43.21206" lon="5.45571">
        <ele>23.21</ele>
        <time>2019-04-21T10:50:44Z</time>
      </trkpt>
      <trkpt lat="43.21197" lon="5.45569">
        <ele>21.77</ele>
        <time>2019-04-21T10:50:59Z</time>
      </trkpt>
      <trkpt lat="43.21189" lon="5.45572">
        <ele>19.84</ele>
        <time>2019-04-21T10:51:12Z</time>
      </trkpt>
      <trkpt lat="43.21181" lon="5.45584">
        <ele>17.92</ele>
        <time>2019-04-21T10:51:27Z</time>
      </trkpt>
      <trkpt lat="43.21177" lon="5.45586">
        <ele>18.4</ele>
        <time>2019-04-21T10:51:45Z</time>
      </trkpt>
      <trkpt lat="43.21165" lon="5.45585">
        <ele>20.81</ele>
        <time>2019-04-21T10:52:15Z</time>
      </trkpt>
      <trkpt lat="43.21159" lon="5.45583">
        <ele>17.44</ele>
        <time>2019-04-21T10:52:26Z</time>
      </trkpt>
      <trkpt lat="43.21159" lon="5.45584">
        <ele>17.44</ele>
        <time>2019-04-21T10:52:27Z</time>
      </trkpt>
      <trkpt lat="43.21158" lon="5.45585">
        <ele>18.88</ele>
        <time>2019-04-21T10:52:29Z</time>
      </trkpt>
      <trkpt lat="43.21156" lon="5.45581">
        <ele>18.4</ele>
        <time>2019-04-21T10:52:37Z</time>
      </trkpt>
      <trkpt lat="43.21152" lon="5.45585">
        <ele>18.88</ele>
        <time>2019-04-21T10:52:51Z</time>
      </trkpt>
      <trkpt lat="43.21148" lon="5.45582">
        <ele>18.88</ele>
        <time>2019-04-21T10:53:14Z</time>
      </trkpt>
      <trkpt lat="43.2115" lon="5.45574">
        <ele>19.84</ele>
        <time>2019-04-21T10:53:36Z</time>
      </trkpt>
      <trkpt lat="43.21148" lon="5.45575">
        <ele>19.36</ele>
        <time>2019-04-21T10:54:04Z</time>
      </trkpt>
      <trkpt lat="43.21139" lon="5.45577">
        <ele>20.32</ele>
        <time>2019-04-21T10:54:30Z</time>
      </trkpt>
      <trkpt lat="43.21143" lon="5.45566">
        <ele>19.84</ele>
        <time>2019-04-21T10:54:53Z</time>
      </trkpt>
      <trkpt lat="43.21153" lon="5.45573">
        <ele>20.32</ele>
        <time>2019-04-21T10:55:22Z</time>
      </trkpt>
      <trkpt lat="43.21162" lon="5.45572">
        <ele>20.32</ele>
        <time>2019-04-21T10:55:45Z</time>
      </trkpt>
      <trkpt lat="43.21165" lon="5.45573">
        <ele>19.84</ele>
        <time>2019-04-21T10:56:05Z</time>
      </trkpt>
      <trkpt lat="43.21162" lon="5.45562">
        <ele>19.84</ele>
        <time>2019-04-21T10:56:31Z</time>
      </trkpt>
      <trkpt lat="43.21148" lon="5.45574">
        <ele>20.81</ele>
        <time>2019-04-21T10:56:45Z</time>
      </trkpt>
      <trkpt lat="43.21139" lon="5.45574">
        <ele>20.81</ele>
        <time>2019-04-21T10:57:02Z</time>
      </trkpt>
      <trkpt lat="43.21141" lon="5.45575">
        <ele>21.77</ele>
        <time>2019-04-21T10:57:16Z</time>
      </trkpt>
      <trkpt lat="43.21135" lon="5.45588">
        <ele>18.88</ele>
        <time>2019-04-21T10:57:32Z</time>
      </trkpt>
      <trkpt lat="43.21137" lon="5.45587">
        <ele>18.88</ele>
        <time>2019-04-21T10:57:48Z</time>
      </trkpt>
      <trkpt lat="43.21141" lon="5.45582">
        <ele>21.29</ele>
        <time>2019-04-21T10:57:54Z</time>
      </trkpt>
      <trkpt lat="43.21144" lon="5.45582">
        <ele>21.29</ele>
        <time>2019-04-21T10:58:09Z</time>
      </trkpt>
      <trkpt lat="43.21146" lon="5.4558">
        <ele>20.32</ele>
        <time>2019-04-21T10:58:41Z</time>
      </trkpt>
      <trkpt lat="43.21148" lon="5.45592">
        <ele>21.77</ele>
        <time>2019-04-21T10:58:59Z</time>
      </trkpt>
      <trkpt lat="43.21151" lon="5.45593">
        <ele>25.13</ele>
        <time>2019-04-21T10:59:12Z</time>
      </trkpt>
      <trkpt lat="43.21151" lon="5.45593">
        <ele>25.61</ele>
        <time>2019-04-21T10:59:13Z</time>
      </trkpt>
      <trkpt lat="43.21151" lon="5.45604">
        <ele>28.02</ele>
        <time>2019-04-21T10:59:33Z</time>
      </trkpt>
      <trkpt lat="43.21153" lon="5.45614">
        <ele>29.94</ele>
        <time>2019-04-21T10:59:53Z</time>
      </trkpt>
      <trkpt lat="43.21152" lon="5.45621">
        <ele>29.94</ele>
        <time>2019-04-21T11:00:15Z</time>
      </trkpt>
      <trkpt lat="43.21151" lon="5.4562">
        <ele>33.3</ele>
        <time>2019-04-21T11:00:27Z</time>
      </trkpt>
      <trkpt lat="43.21152" lon="5.45623">
        <ele>32.82</ele>
        <time>2019-04-21T11:00:55Z</time>
      </trkpt>
      <trkpt lat="43.21152" lon="5.45628">
        <ele>33.78</ele>
        <time>2019-04-21T11:01:18Z</time>
      </trkpt>
      <trkpt lat="43.21147" lon="5.45626">
        <ele>33.78</ele>
        <time>2019-04-21T11:01:39Z</time>
      </trkpt>
      <trkpt lat="43.2115" lon="5.45627">
        <ele>34.74</ele>
        <time>2019-04-21T11:01:44Z</time>
      </trkpt>
      <trkpt lat="43.21164" lon="5.45625">
        <ele>34.26</ele>
        <time>2019-04-21T11:02:00Z</time>
      </trkpt>
      <trkpt lat="43.21169" lon="5.45625">
        <ele>33.78</ele>
        <time>2019-04-21T11:02:21Z</time>
      </trkpt>
      <trkpt lat="43.21178" lon="5.45624">
        <ele>33.78</ele>
        <time>2019-04-21T11:02:39Z</time>
      </trkpt>
      <trkpt lat="43.21181" lon="5.45626">
        <ele>32.34</ele>
        <time>2019-04-21T11:02:51Z</time>
      </trkpt>
      <trkpt lat="43.21194" lon="5.45622">
        <ele>33.3</ele>
        <time>2019-04-21T11:03:05Z</time>
      </trkpt>
      <trkpt lat="43.21196" lon="5.45625">
        <ele>31.86</ele>
        <time>2019-04-21T11:03:21Z</time>
      </trkpt>
      <trkpt lat="43.21197" lon="5.45625">
        <ele>31.38</ele>
        <time>2019-04-21T11:03:47Z</time>
      </trkpt>
      <trkpt lat="43.21213" lon="5.45624">
        <ele>32.82</ele>
        <time>2019-04-21T11:04:06Z</time>
      </trkpt>
      <trkpt lat="43.21209" lon="5.45625">
        <ele>32.34</ele>
        <time>2019-04-21T11:04:09Z</time>
      </trkpt>
      <trkpt lat="43.21199" lon="5.45635">
        <ele>31.38</ele>
        <time>2019-04-21T11:04:29Z</time>
      </trkpt>
      <trkpt lat="43.21193" lon="5.45629">
        <ele>30.9</ele>
        <time>2019-04-21T11:04:56Z</time>
      </trkpt>
      <trkpt lat="43.21172" lon="5.45628">
        <ele>32.34</ele>
        <time>2019-04-21T11:05:15Z</time>
      </trkpt>
      <trkpt lat="43.21164" lon="5.45632">
        <ele>33.78</ele>
        <time>2019-04-21T11:05:33Z</time>
      </trkpt>
      <trkpt lat="43.21174" lon="5.45635">
        <ele>36.19</ele>
        <time>2019-04-21T11:05:53Z</time>
      </trkpt>
      <trkpt lat="43.21171" lon="5.45642">
        <ele>37.15</ele>
        <time>2019-04-21T11:06:00Z</time>
      </trkpt>
      <trkpt lat="43.21161" lon="5.45649">
        <ele>40.03</ele>
        <time>2019-04-21T11:06:12Z</time>
      </trkpt>
      <trkpt lat="43.2117" lon="5.4565">
        <ele>40.99</ele>
        <time>2019-04-21T11:06:30Z</time>
      </trkpt>
      <trkpt lat="43.21181" lon="5.45655">
        <ele>44.84</ele>
        <time>2019-04-21T11:06:49Z</time>
      </trkpt>
      <trkpt lat="43.2118" lon="5.45655">
        <ele>44.84</ele>
        <time>2019-04-21T11:06:50Z</time>
      </trkpt>
      <trkpt lat="43.21179" lon="5.4566">
        <ele>47.72</ele>
        <time>2019-04-21T11:07:10Z</time>
      </trkpt>
      <trkpt lat="43.21176" lon="5.45654">
        <ele>47.24</ele>
        <time>2019-04-21T11:07:21Z</time>
      </trkpt>
      <trkpt lat="43.21175" lon="5.45652">
        <ele>45.8</ele>
        <time>2019-04-21T11:07:41Z</time>
      </trkpt>
      <trkpt lat="43.21175" lon="5.45651">
        <ele>44.36</ele>
        <time>2019-04-21T11:07:45Z</time>
      </trkpt>
      <trkpt lat="43.21175" lon="5.45649">
        <ele>54.93</ele>
        <time>2019-04-21T11:37:21Z</time>
      </trkpt>
      <trkpt lat="43.21277" lon="5.45682">
        <ele>54.45</ele>
        <time>2019-04-21T11:37:45Z</time>
      </trkpt>
      <trkpt lat="43.21193" lon="5.45646">
        <ele>54.45</ele>
        <time>2019-04-21T11:38:05Z</time>
      </trkpt>
      <trkpt lat="43.21175" lon="5.45654">
        <ele>56.37</ele>
        <time>2019-04-21T11:38:24Z</time>
      </trkpt>
      <trkpt lat="43.21176" lon="5.45652">
        <ele>55.89</ele>
        <time>2019-04-21T11:38:48Z</time>
      </trkpt>
      <trkpt lat="43.21172" lon="5.45657">
        <ele>56.37</ele>
        <time>2019-04-21T11:39:05Z</time>
      </trkpt>
      <trkpt lat="43.21175" lon="5.45653">
        <ele>53.49</ele>
        <time>2019-04-21T11:48:22Z</time>
      </trkpt>
      <trkpt lat="43.21189" lon="5.45637">
        <ele>53.01</ele>
        <time>2019-04-21T11:48:23Z</time>
      </trkpt>
      <trkpt lat="43.21197" lon="5.45623">
        <ele>52.53</ele>
        <time>2019-04-21T11:48:39Z</time>
      </trkpt>
      <trkpt lat="43.21198" lon="5.4562">
        <ele>55.41</ele>
        <time>2019-04-21T11:48:41Z</time>
      </trkpt>
      <trkpt lat="43.21208" lon="5.45634">
        <ele>55.41</ele>
        <time>2019-04-21T11:48:55Z</time>
      </trkpt>
      <trkpt lat="43.21214" lon="5.45633">
        <ele>57.34</ele>
        <time>2019-04-21T11:49:07Z</time>
      </trkpt>
      <trkpt lat="43.21217" lon="5.45635">
        <ele>58.3</ele>
        <time>2019-04-21T11:49:12Z</time>
      </trkpt>
      <trkpt lat="43.21221" lon="5.4564">
        <ele>59.74</ele>
        <time>2019-04-21T11:49:27Z</time>
      </trkpt>
      <trkpt lat="43.21226" lon="5.45644">
        <ele>63.1</ele>
        <time>2019-04-21T11:49:43Z</time>
      </trkpt>
      <trkpt lat="43.21228" lon="5.45646">
        <ele>65.99</ele>
        <time>2019-04-21T11:50:04Z</time>
      </trkpt>
      <trkpt lat="43.21234" lon="5.45654">
        <ele>67.91</ele>
        <time>2019-04-21T11:50:22Z</time>
      </trkpt>
      <trkpt lat="43.21245" lon="5.45664">
        <ele>71.27</ele>
        <time>2019-04-21T11:50:38Z</time>
      </trkpt>
      <trkpt lat="43.21271" lon="5.45664">
        <ele>71.76</ele>
        <time>2019-04-21T11:50:54Z</time>
      </trkpt>
      <trkpt lat="43.21271" lon="5.45656">
        <ele>71.76</ele>
        <time>2019-04-21T11:51:03Z</time>
      </trkpt>
      <trkpt lat="43.21266" lon="5.45644">
        <ele>69.83</ele>
        <time>2019-04-21T11:51:15Z</time>
      </trkpt>
      <trkpt lat="43.21269" lon="5.45643">
        <ele>69.83</ele>
        <time>2019-04-21T11:51:26Z</time>
      </trkpt>
      <trkpt lat="43.21269" lon="5.45639">
        <ele>70.31</ele>
        <time>2019-04-21T11:51:38Z</time>
      </trkpt>
      <trkpt lat="43.21264" lon="5.45624">
        <ele>69.83</ele>
        <time>2019-04-21T11:51:50Z</time>
      </trkpt>
      <trkpt lat="43.21264" lon="5.45624">
        <ele>70.31</ele>
        <time>2019-04-21T11:51:51Z</time>
      </trkpt>
      <trkpt lat="43.21259" lon="5.45619">
        <ele>69.83</ele>
        <time>2019-04-21T11:51:55Z</time>
      </trkpt>
      <trkpt lat="43.21263" lon="5.45638">
        <ele>69.35</ele>
        <time>2019-04-21T11:52:07Z</time>
      </trkpt>
      <trkpt lat="43.21266" lon="5.45627">
        <ele>70.79</ele>
        <time>2019-04-21T11:52:26Z</time>
      </trkpt>
      <trkpt lat="43.21267" lon="5.45624">
        <ele>67.43</ele>
        <time>2019-04-21T11:52:36Z</time>
      </trkpt>
      <trkpt lat="43.21266" lon="5.45623">
        <ele>72.72</ele>
        <time>2019-04-21T11:52:37Z</time>
      </trkpt>
      <trkpt lat="43.21264" lon="5.45623">
        <ele>69.83</ele>
        <time>2019-04-21T11:52:53Z</time>
      </trkpt>
      <trkpt lat="43.21263" lon="5.45627">
        <ele>69.83</ele>
        <time>2019-04-21T11:53:05Z</time>
      </trkpt>
      <trkpt lat="43.21265" lon="5.45633">
        <ele>69.35</ele>
        <time>2019-04-21T11:53:19Z</time>
      </trkpt>
      <trkpt lat="43.21267" lon="5.45634">
        <ele>69.83</ele>
        <time>2019-04-21T11:53:38Z</time>
      </trkpt>
      <trkpt lat="43.21269" lon="5.45633">
        <ele>70.79</ele>
        <time>2019-04-21T11:54:00Z</time>
      </trkpt>
      <trkpt lat="43.21276" lon="5.45631">
        <ele>71.27</ele>
        <time>2019-04-21T11:54:07Z</time>
      </trkpt>
      <trkpt lat="43.21282" lon="5.45626">
        <ele>72.24</ele>
        <time>2019-04-21T11:54:15Z</time>
      </trkpt>
      <trkpt lat="43.21285" lon="5.45613">
        <ele>73.68</ele>
        <time>2019-04-21T11:54:25Z</time>
      </trkpt>
      <trkpt lat="43.21288" lon="5.45606">
        <ele>73.2</ele>
        <time>2019-04-21T11:54:31Z</time>
      </trkpt>
      <trkpt lat="43.21292" lon="5.456">
        <ele>74.16</ele>
        <time>2019-04-21T11:54:36Z</time>
      </trkpt>
      <trkpt lat="43.21294" lon="5.45594">
        <ele>74.64</ele>
        <time>2019-04-21T11:54:41Z</time>
      </trkpt>
      <trkpt lat="43.21296" lon="5.45583">
        <ele>75.12</ele>
        <time>2019-04-21T11:54:51Z</time>
      </trkpt>
      <trkpt lat="43.213" lon="5.4557">
        <ele>76.56</ele>
        <time>2019-04-21T11:55:01Z</time>
      </trkpt>
      <trkpt lat="43.213" lon="5.45559">
        <ele>78</ele>
        <time>2019-04-21T11:55:11Z</time>
      </trkpt>
      <trkpt lat="43.213" lon="5.45555">
        <ele>77.52</ele>
        <time>2019-04-21T11:55:14Z</time>
      </trkpt>
      <trkpt lat="43.21301" lon="5.45541">
        <ele>78.48</ele>
        <time>2019-04-21T11:55:23Z</time>
      </trkpt>
      <trkpt lat="43.21305" lon="5.4552">
        <ele>79.45</ele>
        <time>2019-04-21T11:55:39Z</time>
      </trkpt>
      <trkpt lat="43.21309" lon="5.45523">
        <ele>79.45</ele>
        <time>2019-04-21T11:55:53Z</time>
      </trkpt>
      <trkpt lat="43.21307" lon="5.45521">
        <ele>79.45</ele>
        <time>2019-04-21T11:56:02Z</time>
      </trkpt>
      <trkpt lat="43.21311" lon="5.45507">
        <ele>78.97</ele>
        <time>2019-04-21T11:56:17Z</time>
      </trkpt>
      <trkpt lat="43.21311" lon="5.45498">
        <ele>79.93</ele>
        <time>2019-04-21T11:56:33Z</time>
      </trkpt>
      <trkpt lat="43.21311" lon="5.45487">
        <ele>80.89</ele>
        <time>2019-04-21T11:56:49Z</time>
      </trkpt>
      <trkpt lat="43.21311" lon="5.45481">
        <ele>81.37</ele>
        <time>2019-04-21T11:56:54Z</time>
      </trkpt>
      <trkpt lat="43.21311" lon="5.45476">
        <ele>83.29</ele>
        <time>2019-04-21T11:56:58Z</time>
      </trkpt>
      <trkpt lat="43.21312" lon="5.45474">
        <ele>81.85</ele>
        <time>2019-04-21T11:57:00Z</time>
      </trkpt>
      <trkpt lat="43.21314" lon="5.45456">
        <ele>82.33</ele>
        <time>2019-04-21T11:57:16Z</time>
      </trkpt>
      <trkpt lat="43.21317" lon="5.45441">
        <ele>84.25</ele>
        <time>2019-04-21T11:57:31Z</time>
      </trkpt>
      <trkpt lat="43.21318" lon="5.45438">
        <ele>84.73</ele>
        <time>2019-04-21T11:57:41Z</time>
      </trkpt>
      <trkpt lat="43.2132" lon="5.45425">
        <ele>85.21</ele>
        <time>2019-04-21T11:57:53Z</time>
      </trkpt>
      <trkpt lat="43.21323" lon="5.45414">
        <ele>86.66</ele>
        <time>2019-04-21T11:58:02Z</time>
      </trkpt>
      <trkpt lat="43.21324" lon="5.45412">
        <ele>86.66</ele>
        <time>2019-04-21T11:58:03Z</time>
      </trkpt>
      <trkpt lat="43.21324" lon="5.45411">
        <ele>86.66</ele>
        <time>2019-04-21T11:58:04Z</time>
      </trkpt>
      <trkpt lat="43.21326" lon="5.45398">
        <ele>87.62</ele>
        <time>2019-04-21T11:58:14Z</time>
      </trkpt>
      <trkpt lat="43.21328" lon="5.45388">
        <ele>89.06</ele>
        <time>2019-04-21T11:58:21Z</time>
      </trkpt>
      <trkpt lat="43.21328" lon="5.45386">
        <ele>89.06</ele>
        <time>2019-04-21T11:58:22Z</time>
      </trkpt>
      <trkpt lat="43.21329" lon="5.45384">
        <ele>89.06</ele>
        <time>2019-04-21T11:58:23Z</time>
      </trkpt>
      <trkpt lat="43.21329" lon="5.45382">
        <ele>88.58</ele>
        <time>2019-04-21T11:58:24Z</time>
      </trkpt>
      <trkpt lat="43.21332" lon="5.45368">
        <ele>90.5</ele>
        <time>2019-04-21T11:58:35Z</time>
      </trkpt>
      <trkpt lat="43.21334" lon="5.45354">
        <ele>90.98</ele>
        <time>2019-04-21T11:58:46Z</time>
      </trkpt>
      <trkpt lat="43.21334" lon="5.45352">
        <ele>91.46</ele>
        <time>2019-04-21T11:58:47Z</time>
      </trkpt>
      <trkpt lat="43.21334" lon="5.4535">
        <ele>90.98</ele>
        <time>2019-04-21T11:58:48Z</time>
      </trkpt>
      <trkpt lat="43.21334" lon="5.45348">
        <ele>91.94</ele>
        <time>2019-04-21T11:58:49Z</time>
      </trkpt>
      <trkpt lat="43.21336" lon="5.45335">
        <ele>92.9</ele>
        <time>2019-04-21T11:58:58Z</time>
      </trkpt>
      <trkpt lat="43.2134" lon="5.45323">
        <ele>94.83</ele>
        <time>2019-04-21T11:59:07Z</time>
      </trkpt>
      <trkpt lat="43.21343" lon="5.45312">
        <ele>94.83</ele>
        <time>2019-04-21T11:59:17Z</time>
      </trkpt>
      <trkpt lat="43.21342" lon="5.45295">
        <ele>96.75</ele>
        <time>2019-04-21T11:59:30Z</time>
      </trkpt>
      <trkpt lat="43.2134" lon="5.45281">
        <ele>97.71</ele>
        <time>2019-04-21T11:59:43Z</time>
      </trkpt>
      <trkpt lat="43.2134" lon="5.45279">
        <ele>97.71</ele>
        <time>2019-04-21T11:59:45Z</time>
      </trkpt>
      <trkpt lat="43.21338" lon="5.45265">
        <ele>98.67</ele>
        <time>2019-04-21T11:59:56Z</time>
      </trkpt>
      <trkpt lat="43.21335" lon="5.45252">
        <ele>99.15</ele>
        <time>2019-04-21T12:00:10Z</time>
      </trkpt>
      <trkpt lat="43.21334" lon="5.45249">
        <ele>99.15</ele>
        <time>2019-04-21T12:00:13Z</time>
      </trkpt>
      <trkpt lat="43.21334" lon="5.45247">
        <ele>99.15</ele>
        <time>2019-04-21T12:00:14Z</time>
      </trkpt>
      <trkpt lat="43.21333" lon="5.45244">
        <ele>99.63</ele>
        <time>2019-04-21T12:00:15Z</time>
      </trkpt>
      <trkpt lat="43.21331" lon="5.45242">
        <ele>99.63</ele>
        <time>2019-04-21T12:00:16Z</time>
      </trkpt>
      <trkpt lat="43.21329" lon="5.45238">
        <ele>100.6</ele>
        <time>2019-04-21T12:00:21Z</time>
      </trkpt>
      <trkpt lat="43.21329" lon="5.45237">
        <ele>100.11</ele>
        <time>2019-04-21T12:00:22Z</time>
      </trkpt>
      <trkpt lat="43.21327" lon="5.45234">
        <ele>100.6</ele>
        <time>2019-04-21T12:00:26Z</time>
      </trkpt>
      <trkpt lat="43.21328" lon="5.45233">
        <ele>100.6</ele>
        <time>2019-04-21T12:00:27Z</time>
      </trkpt>
      <trkpt lat="43.21327" lon="5.45229">
        <ele>100.6</ele>
        <time>2019-04-21T12:00:31Z</time>
      </trkpt>
      <trkpt lat="43.21327" lon="5.45227">
        <ele>101.08</ele>
        <time>2019-04-21T12:00:32Z</time>
      </trkpt>
      <trkpt lat="43.21327" lon="5.45222">
        <ele>101.56</ele>
        <time>2019-04-21T12:00:36Z</time>
      </trkpt>
      <trkpt lat="43.21327" lon="5.4522">
        <ele>102.04</ele>
        <time>2019-04-21T12:00:37Z</time>
      </trkpt>
      <trkpt lat="43.21326" lon="5.45216">
        <ele>103</ele>
        <time>2019-04-21T12:00:42Z</time>
      </trkpt>
      <trkpt lat="43.21326" lon="5.45214">
        <ele>103</ele>
        <time>2019-04-21T12:00:43Z</time>
      </trkpt>
      <trkpt lat="43.21325" lon="5.45204">
        <ele>103.48</ele>
        <time>2019-04-21T12:00:53Z</time>
      </trkpt>
      <trkpt lat="43.21325" lon="5.45204">
        <ele>104.44</ele>
        <time>2019-04-21T12:01:00Z</time>
      </trkpt>
      <trkpt lat="43.21323" lon="5.452">
        <ele>103.96</ele>
        <time>2019-04-21T12:01:09Z</time>
      </trkpt>
      <trkpt lat="43.2132" lon="5.45192">
        <ele>105.88</ele>
        <time>2019-04-21T12:01:14Z</time>
      </trkpt>
      <trkpt lat="43.21318" lon="5.45179">
        <ele>105.88</ele>
        <time>2019-04-21T12:01:24Z</time>
      </trkpt>
      <trkpt lat="43.21323" lon="5.45164">
        <ele>106.84</ele>
        <time>2019-04-21T12:01:34Z</time>
      </trkpt>
      <trkpt lat="43.21326" lon="5.45154">
        <ele>107.81</ele>
        <time>2019-04-21T12:01:44Z</time>
      </trkpt>
      <trkpt lat="43.21327" lon="5.45149">
        <ele>108.29</ele>
        <time>2019-04-21T12:01:48Z</time>
      </trkpt>
      <trkpt lat="43.21322" lon="5.4514">
        <ele>110.21</ele>
        <time>2019-04-21T12:02:00Z</time>
      </trkpt>
      <trkpt lat="43.21324" lon="5.45128">
        <ele>111.65</ele>
        <time>2019-04-21T12:02:06Z</time>
      </trkpt>
      <trkpt lat="43.21324" lon="5.45121">
        <ele>113.09</ele>
        <time>2019-04-21T12:02:10Z</time>
      </trkpt>
      <trkpt lat="43.21321" lon="5.45115">
        <ele>113.09</ele>
        <time>2019-04-21T12:02:20Z</time>
      </trkpt>
      <trkpt lat="43.21324" lon="5.45105">
        <ele>113.57</ele>
        <time>2019-04-21T12:02:30Z</time>
      </trkpt>
      <trkpt lat="43.21326" lon="5.45095">
        <ele>114.53</ele>
        <time>2019-04-21T12:02:40Z</time>
      </trkpt>
      <trkpt lat="43.2133" lon="5.45083">
        <ele>116.46</ele>
        <time>2019-04-21T12:02:51Z</time>
      </trkpt>
      <trkpt lat="43.2133" lon="5.45082">
        <ele>115.98</ele>
        <time>2019-04-21T12:02:52Z</time>
      </trkpt>
      <trkpt lat="43.21336" lon="5.45079">
        <ele>117.42</ele>
        <time>2019-04-21T12:03:00Z</time>
      </trkpt>
      <trkpt lat="43.21343" lon="5.4508">
        <ele>118.86</ele>
        <time>2019-04-21T12:03:09Z</time>
      </trkpt>
      <trkpt lat="43.21349" lon="5.45081">
        <ele>119.34</ele>
        <time>2019-04-21T12:03:17Z</time>
      </trkpt>
      <trkpt lat="43.21357" lon="5.45078">
        <ele>120.3</ele>
        <time>2019-04-21T12:03:28Z</time>
      </trkpt>
      <trkpt lat="43.21358" lon="5.45076">
        <ele>121.26</ele>
        <time>2019-04-21T12:03:31Z</time>
      </trkpt>
      <trkpt lat="43.21366" lon="5.45064">
        <ele>122.71</ele>
        <time>2019-04-21T12:03:39Z</time>
      </trkpt>
      <trkpt lat="43.21379" lon="5.45051">
        <ele>125.59</ele>
        <time>2019-04-21T12:03:55Z</time>
      </trkpt>
      <trkpt lat="43.21388" lon="5.45037">
        <ele>127.03</ele>
        <time>2019-04-21T12:04:11Z</time>
      </trkpt>
      <trkpt lat="43.2139" lon="5.45032">
        <ele>126.55</ele>
        <time>2019-04-21T12:04:17Z</time>
      </trkpt>
      <trkpt lat="43.21393" lon="5.45024">
        <ele>128.47</ele>
        <time>2019-04-21T12:04:28Z</time>
      </trkpt>
      <trkpt lat="43.21394" lon="5.45023">
        <ele>128.47</ele>
        <time>2019-04-21T12:04:30Z</time>
      </trkpt>
      <trkpt lat="43.21396" lon="5.45017">
        <ele>129.43</ele>
        <time>2019-04-21T12:04:34Z</time>
      </trkpt>
      <trkpt lat="43.21397" lon="5.45012">
        <ele>129.92</ele>
        <time>2019-04-21T12:04:39Z</time>
      </trkpt>
      <trkpt lat="43.21397" lon="5.44996">
        <ele>132.32</ele>
        <time>2019-04-21T12:04:50Z</time>
      </trkpt>
      <trkpt lat="43.21395" lon="5.4499">
        <ele>132.8</ele>
        <time>2019-04-21T12:04:54Z</time>
      </trkpt>
      <trkpt lat="43.21393" lon="5.44984">
        <ele>133.28</ele>
        <time>2019-04-21T12:04:59Z</time>
      </trkpt>
      <trkpt lat="43.2139" lon="5.44971">
        <ele>134.24</ele>
        <time>2019-04-21T12:05:09Z</time>
      </trkpt>
      <trkpt lat="43.21394" lon="5.44958">
        <ele>135.2</ele>
        <time>2019-04-21T12:05:20Z</time>
      </trkpt>
      <trkpt lat="43.21394" lon="5.44957">
        <ele>136.64</ele>
        <time>2019-04-21T12:05:32Z</time>
      </trkpt>
      <trkpt lat="43.21396" lon="5.44954">
        <ele>135.68</ele>
        <time>2019-04-21T12:05:36Z</time>
      </trkpt>
      <trkpt lat="43.21399" lon="5.44956">
        <ele>136.64</ele>
        <time>2019-04-21T12:05:43Z</time>
      </trkpt>
      <trkpt lat="43.214" lon="5.4496">
        <ele>136.16</ele>
        <time>2019-04-21T12:05:52Z</time>
      </trkpt>
      <trkpt lat="43.21409" lon="5.44962">
        <ele>136.64</ele>
        <time>2019-04-21T12:06:05Z</time>
      </trkpt>
      <trkpt lat="43.21411" lon="5.44962">
        <ele>137.13</ele>
        <time>2019-04-21T12:06:08Z</time>
      </trkpt>
      <trkpt lat="43.21416" lon="5.44962">
        <ele>138.09</ele>
        <time>2019-04-21T12:06:15Z</time>
      </trkpt>
      <trkpt lat="43.21418" lon="5.44964">
        <ele>138.09</ele>
        <time>2019-04-21T12:06:16Z</time>
      </trkpt>
      <trkpt lat="43.21422" lon="5.44965">
        <ele>138.57</ele>
        <time>2019-04-21T12:06:21Z</time>
      </trkpt>
      <trkpt lat="43.21427" lon="5.44966">
        <ele>139.05</ele>
        <time>2019-04-21T12:06:26Z</time>
      </trkpt>
      <trkpt lat="43.2143" lon="5.44964">
        <ele>139.05</ele>
        <time>2019-04-21T12:06:31Z</time>
      </trkpt>
      <trkpt lat="43.21431" lon="5.44962">
        <ele>139.05</ele>
        <time>2019-04-21T12:06:32Z</time>
      </trkpt>
      <trkpt lat="43.21435" lon="5.4496">
        <ele>140.01</ele>
        <time>2019-04-21T12:06:36Z</time>
      </trkpt>
      <trkpt lat="43.21436" lon="5.44959">
        <ele>140.01</ele>
        <time>2019-04-21T12:06:37Z</time>
      </trkpt>
      <trkpt lat="43.21447" lon="5.44952">
        <ele>140.49</ele>
        <time>2019-04-21T12:06:47Z</time>
      </trkpt>
      <trkpt lat="43.21449" lon="5.4495">
        <ele>140.97</ele>
        <time>2019-04-21T12:06:50Z</time>
      </trkpt>
      <trkpt lat="43.21456" lon="5.44944">
        <ele>141.93</ele>
        <time>2019-04-21T12:06:58Z</time>
      </trkpt>
      <trkpt lat="43.21458" lon="5.44939">
        <ele>141.93</ele>
        <time>2019-04-21T12:07:03Z</time>
      </trkpt>
      <trkpt lat="43.21463" lon="5.44933">
        <ele>142.89</ele>
        <time>2019-04-21T12:07:10Z</time>
      </trkpt>
      <trkpt lat="43.21464" lon="5.44931">
        <ele>142.89</ele>
        <time>2019-04-21T12:07:11Z</time>
      </trkpt>
      <trkpt lat="43.21473" lon="5.44925">
        <ele>143.85</ele>
        <time>2019-04-21T12:07:20Z</time>
      </trkpt>
      <trkpt lat="43.21474" lon="5.44924">
        <ele>143.85</ele>
        <time>2019-04-21T12:07:21Z</time>
      </trkpt>
      <trkpt lat="43.21476" lon="5.44923">
        <ele>144.82</ele>
        <time>2019-04-21T12:07:24Z</time>
      </trkpt>
      <trkpt lat="43.21477" lon="5.44922">
        <ele>144.82</ele>
        <time>2019-04-21T12:07:25Z</time>
      </trkpt>
      <trkpt lat="43.21481" lon="5.44922">
        <ele>144.82</ele>
        <time>2019-04-21T12:07:30Z</time>
      </trkpt>
      <trkpt lat="43.21485" lon="5.44924">
        <ele>145.3</ele>
        <time>2019-04-21T12:07:34Z</time>
      </trkpt>
      <trkpt lat="43.21486" lon="5.44925">
        <ele>145.78</ele>
        <time>2019-04-21T12:07:35Z</time>
      </trkpt>
      <trkpt lat="43.21489" lon="5.44926">
        <ele>146.74</ele>
        <time>2019-04-21T12:07:39Z</time>
      </trkpt>
      <trkpt lat="43.2149" lon="5.44927">
        <ele>146.26</ele>
        <time>2019-04-21T12:07:40Z</time>
      </trkpt>
      <trkpt lat="43.21493" lon="5.4493">
        <ele>146.74</ele>
        <time>2019-04-21T12:07:44Z</time>
      </trkpt>
      <trkpt lat="43.21494" lon="5.44931">
        <ele>146.74</ele>
        <time>2019-04-21T12:07:45Z</time>
      </trkpt>
      <trkpt lat="43.21505" lon="5.44938">
        <ele>148.18</ele>
        <time>2019-04-21T12:07:55Z</time>
      </trkpt>
      <trkpt lat="43.21507" lon="5.44938">
        <ele>148.18</ele>
        <time>2019-04-21T12:07:58Z</time>
      </trkpt>
      <trkpt lat="43.21509" lon="5.4494">
        <ele>148.66</ele>
        <time>2019-04-21T12:08:08Z</time>
      </trkpt>
      <trkpt lat="43.2151" lon="5.44942">
        <ele>148.66</ele>
        <time>2019-04-21T12:08:27Z</time>
      </trkpt>
      <trkpt lat="43.21511" lon="5.44938">
        <ele>148.66</ele>
        <time>2019-04-21T12:08:32Z</time>
      </trkpt>
      <trkpt lat="43.21516" lon="5.44923">
        <ele>149.14</ele>
        <time>2019-04-21T12:08:43Z</time>
      </trkpt>
      <trkpt lat="43.21516" lon="5.44919">
        <ele>149.62</ele>
        <time>2019-04-21T12:08:47Z</time>
      </trkpt>
      <trkpt lat="43.21517" lon="5.44918">
        <ele>149.62</ele>
        <time>2019-04-21T12:08:48Z</time>
      </trkpt>
      <trkpt lat="43.21519" lon="5.44913">
        <ele>150.58</ele>
        <time>2019-04-21T12:08:52Z</time>
      </trkpt>
      <trkpt lat="43.2152" lon="5.44912">
        <ele>150.1</ele>
        <time>2019-04-21T12:08:53Z</time>
      </trkpt>
      <trkpt lat="43.21526" lon="5.44908">
        <ele>150.58</ele>
        <time>2019-04-21T12:09:01Z</time>
      </trkpt>
      <trkpt lat="43.21528" lon="5.44908">
        <ele>151.06</ele>
        <time>2019-04-21T12:09:02Z</time>
      </trkpt>
      <trkpt lat="43.21529" lon="5.44907">
        <ele>151.54</ele>
        <time>2019-04-21T12:09:03Z</time>
      </trkpt>
      <trkpt lat="43.21537" lon="5.44903">
        <ele>152.99</ele>
        <time>2019-04-21T12:09:13Z</time>
      </trkpt>
      <trkpt lat="43.21545" lon="5.44891">
        <ele>153.47</ele>
        <time>2019-04-21T12:09:24Z</time>
      </trkpt>
      <trkpt lat="43.21547" lon="5.44889">
        <ele>153.95</ele>
        <time>2019-04-21T12:09:26Z</time>
      </trkpt>
      <trkpt lat="43.21548" lon="5.44888">
        <ele>153.47</ele>
        <time>2019-04-21T12:09:27Z</time>
      </trkpt>
      <trkpt lat="43.21554" lon="5.44878">
        <ele>155.39</ele>
        <time>2019-04-21T12:09:38Z</time>
      </trkpt>
      <trkpt lat="43.21561" lon="5.44868">
        <ele>157.31</ele>
        <time>2019-04-21T12:09:50Z</time>
      </trkpt>
      <trkpt lat="43.21568" lon="5.44859">
        <ele>157.31</ele>
        <time>2019-04-21T12:09:59Z</time>
      </trkpt>
      <trkpt lat="43.21569" lon="5.44859">
        <ele>157.79</ele>
        <time>2019-04-21T12:10:00Z</time>
      </trkpt>
      <trkpt lat="43.2157" lon="5.44858">
        <ele>158.27</ele>
        <time>2019-04-21T12:10:01Z</time>
      </trkpt>
      <trkpt lat="43.21571" lon="5.44858">
        <ele>158.27</ele>
        <time>2019-04-21T12:10:02Z</time>
      </trkpt>
      <trkpt lat="43.21578" lon="5.44851">
        <ele>158.75</ele>
        <time>2019-04-21T12:10:11Z</time>
      </trkpt>
      <trkpt lat="43.21585" lon="5.44841">
        <ele>160.2</ele>
        <time>2019-04-21T12:10:22Z</time>
      </trkpt>
      <trkpt lat="43.2158" lon="5.4483">
        <ele>160.68</ele>
        <time>2019-04-21T12:10:33Z</time>
      </trkpt>
      <trkpt lat="43.21578" lon="5.44829">
        <ele>160.2</ele>
        <time>2019-04-21T12:10:34Z</time>
      </trkpt>
      <trkpt lat="43.21569" lon="5.44814">
        <ele>161.64</ele>
        <time>2019-04-21T12:10:47Z</time>
      </trkpt>
      <trkpt lat="43.21568" lon="5.44809">
        <ele>162.12</ele>
        <time>2019-04-21T12:10:51Z</time>
      </trkpt>
      <trkpt lat="43.2157" lon="5.44794">
        <ele>163.08</ele>
        <time>2019-04-21T12:11:01Z</time>
      </trkpt>
      <trkpt lat="43.21572" lon="5.4479">
        <ele>163.08</ele>
        <time>2019-04-21T12:11:04Z</time>
      </trkpt>
      <trkpt lat="43.21582" lon="5.44774">
        <ele>165</ele>
        <time>2019-04-21T12:11:18Z</time>
      </trkpt>
      <trkpt lat="43.21589" lon="5.44763">
        <ele>165.96</ele>
        <time>2019-04-21T12:11:28Z</time>
      </trkpt>
      <trkpt lat="43.21598" lon="5.44752">
        <ele>168.37</ele>
        <time>2019-04-21T12:11:40Z</time>
      </trkpt>
      <trkpt lat="43.21607" lon="5.4474">
        <ele>169.81</ele>
        <time>2019-04-21T12:11:52Z</time>
      </trkpt>
      <trkpt lat="43.2161" lon="5.44737">
        <ele>170.77</ele>
        <time>2019-04-21T12:11:57Z</time>
      </trkpt>
      <trkpt lat="43.21611" lon="5.44737">
        <ele>170.77</ele>
        <time>2019-04-21T12:11:58Z</time>
      </trkpt>
      <trkpt lat="43.21613" lon="5.44738">
        <ele>171.25</ele>
        <time>2019-04-21T12:11:59Z</time>
      </trkpt>
      <trkpt lat="43.21626" lon="5.44746">
        <ele>172.21</ele>
        <time>2019-04-21T12:12:12Z</time>
      </trkpt>
      <trkpt lat="43.21641" lon="5.44763">
        <ele>173.17</ele>
        <time>2019-04-21T12:12:28Z</time>
      </trkpt>
      <trkpt lat="43.21654" lon="5.4477">
        <ele>173.66</ele>
        <time>2019-04-21T12:12:41Z</time>
      </trkpt>
      <trkpt lat="43.21661" lon="5.44768">
        <ele>174.62</ele>
        <time>2019-04-21T12:12:47Z</time>
      </trkpt>
      <trkpt lat="43.21668" lon="5.44767">
        <ele>174.62</ele>
        <time>2019-04-21T12:12:55Z</time>
      </trkpt>
      <trkpt lat="43.21672" lon="5.44768">
        <ele>174.62</ele>
        <time>2019-04-21T12:13:00Z</time>
      </trkpt>
      <trkpt lat="43.21674" lon="5.44769">
        <ele>174.14</ele>
        <time>2019-04-21T12:13:01Z</time>
      </trkpt>
      <trkpt lat="43.21682" lon="5.44775">
        <ele>176.06</ele>
        <time>2019-04-21T12:13:09Z</time>
      </trkpt>
      <trkpt lat="43.21694" lon="5.44779">
        <ele>177.98</ele>
        <time>2019-04-21T12:13:24Z</time>
      </trkpt>
      <trkpt lat="43.217" lon="5.44775">
        <ele>178.46</ele>
        <time>2019-04-21T12:13:30Z</time>
      </trkpt>
      <trkpt lat="43.21701" lon="5.44774">
        <ele>178.94</ele>
        <time>2019-04-21T12:13:31Z</time>
      </trkpt>
      <trkpt lat="43.21709" lon="5.44772">
        <ele>178.94</ele>
        <time>2019-04-21T12:13:40Z</time>
      </trkpt>
      <trkpt lat="43.21722" lon="5.44773">
        <ele>180.87</ele>
        <time>2019-04-21T12:13:54Z</time>
      </trkpt>
      <trkpt lat="43.21735" lon="5.44772">
        <ele>182.79</ele>
        <time>2019-04-21T12:14:10Z</time>
      </trkpt>
      <trkpt lat="43.21743" lon="5.44775">
        <ele>183.75</ele>
        <time>2019-04-21T12:14:19Z</time>
      </trkpt>
      <trkpt lat="43.21746" lon="5.44777">
        <ele>184.71</ele>
        <time>2019-04-21T12:14:23Z</time>
      </trkpt>
      <trkpt lat="43.21751" lon="5.4478">
        <ele>185.19</ele>
        <time>2019-04-21T12:14:28Z</time>
      </trkpt>
      <trkpt lat="43.21752" lon="5.4478">
        <ele>185.19</ele>
        <time>2019-04-21T12:14:29Z</time>
      </trkpt>
      <trkpt lat="43.21755" lon="5.44771">
        <ele>186.15</ele>
        <time>2019-04-21T12:14:40Z</time>
      </trkpt>
      <trkpt lat="43.21756" lon="5.44768">
        <ele>186.63</ele>
        <time>2019-04-21T12:14:55Z</time>
      </trkpt>
      <trkpt lat="43.21758" lon="5.44768">
        <ele>185.67</ele>
        <time>2019-04-21T12:14:56Z</time>
      </trkpt>
      <trkpt lat="43.21759" lon="5.44767">
        <ele>186.63</ele>
        <time>2019-04-21T12:14:58Z</time>
      </trkpt>
      <trkpt lat="43.21761" lon="5.44767">
        <ele>187.11</ele>
        <time>2019-04-21T12:15:01Z</time>
      </trkpt>
      <trkpt lat="43.21762" lon="5.44767">
        <ele>188.08</ele>
        <time>2019-04-21T12:15:04Z</time>
      </trkpt>
      <trkpt lat="43.21765" lon="5.44765">
        <ele>190</ele>
        <time>2019-04-21T12:15:13Z</time>
      </trkpt>
      <trkpt lat="43.21765" lon="5.44765">
        <ele>190</ele>
        <time>2019-04-21T12:15:15Z</time>
      </trkpt>
      <trkpt lat="43.21769" lon="5.44765">
        <ele>191.92</ele>
        <time>2019-04-21T12:15:24Z</time>
      </trkpt>
      <trkpt lat="43.21769" lon="5.44759">
        <ele>193.36</ele>
        <time>2019-04-21T12:15:31Z</time>
      </trkpt>
      <trkpt lat="43.21775" lon="5.44759">
        <ele>195.77</ele>
        <time>2019-04-21T12:15:40Z</time>
      </trkpt>
      <trkpt lat="43.21778" lon="5.44768">
        <ele>195.28</ele>
        <time>2019-04-21T12:15:50Z</time>
      </trkpt>
      <trkpt lat="43.21779" lon="5.4478">
        <ele>197.21</ele>
        <time>2019-04-21T12:15:59Z</time>
      </trkpt>
      <trkpt lat="43.2178" lon="5.44786">
        <ele>197.21</ele>
        <time>2019-04-21T12:16:03Z</time>
      </trkpt>
      <trkpt lat="43.2178" lon="5.44787">
        <ele>197.21</ele>
        <time>2019-04-21T12:16:04Z</time>
      </trkpt>
      <trkpt lat="43.21782" lon="5.44795">
        <ele>198.17</ele>
        <time>2019-04-21T12:16:13Z</time>
      </trkpt>
      <trkpt lat="43.21781" lon="5.448">
        <ele>198.17</ele>
        <time>2019-04-21T12:16:17Z</time>
      </trkpt>
      <trkpt lat="43.21781" lon="5.44801">
        <ele>198.17</ele>
        <time>2019-04-21T12:16:18Z</time>
      </trkpt>
      <trkpt lat="43.21777" lon="5.44812">
        <ele>199.61</ele>
        <time>2019-04-21T12:16:30Z</time>
      </trkpt>
      <trkpt lat="43.21775" lon="5.44814">
        <ele>199.13</ele>
        <time>2019-04-21T12:16:32Z</time>
      </trkpt>
      <trkpt lat="43.21774" lon="5.44814">
        <ele>199.13</ele>
        <time>2019-04-21T12:16:33Z</time>
      </trkpt>
      <trkpt lat="43.21766" lon="5.44818">
        <ele>199.61</ele>
        <time>2019-04-21T12:16:42Z</time>
      </trkpt>
      <trkpt lat="43.21765" lon="5.44818">
        <ele>200.09</ele>
        <time>2019-04-21T12:16:43Z</time>
      </trkpt>
      <trkpt lat="43.21753" lon="5.44822">
        <ele>199.61</ele>
        <time>2019-04-21T12:16:56Z</time>
      </trkpt>
      <trkpt lat="43.2175" lon="5.44831">
        <ele>199.61</ele>
        <time>2019-04-21T12:17:03Z</time>
      </trkpt>
      <trkpt lat="43.21751" lon="5.44833">
        <ele>199.61</ele>
        <time>2019-04-21T12:17:04Z</time>
      </trkpt>
      <trkpt lat="43.21751" lon="5.44836">
        <ele>199.13</ele>
        <time>2019-04-21T12:17:05Z</time>
      </trkpt>
      <trkpt lat="43.21752" lon="5.44838">
        <ele>199.61</ele>
        <time>2019-04-21T12:17:06Z</time>
      </trkpt>
      <trkpt lat="43.21752" lon="5.4484">
        <ele>199.13</ele>
        <time>2019-04-21T12:17:07Z</time>
      </trkpt>
      <trkpt lat="43.21753" lon="5.44842">
        <ele>199.61</ele>
        <time>2019-04-21T12:17:08Z</time>
      </trkpt>
      <trkpt lat="43.21753" lon="5.44843">
        <ele>200.09</ele>
        <time>2019-04-21T12:17:09Z</time>
      </trkpt>
      <trkpt lat="43.21752" lon="5.44852">
        <ele>198.65</ele>
        <time>2019-04-21T12:17:16Z</time>
      </trkpt>
      <trkpt lat="43.21751" lon="5.44854">
        <ele>199.13</ele>
        <time>2019-04-21T12:17:17Z</time>
      </trkpt>
      <trkpt lat="43.21749" lon="5.44858">
        <ele>199.61</ele>
        <time>2019-04-21T12:17:20Z</time>
      </trkpt>
      <trkpt lat="43.21747" lon="5.44859">
        <ele>199.13</ele>
        <time>2019-04-21T12:17:21Z</time>
      </trkpt>
      <trkpt lat="43.21746" lon="5.4486">
        <ele>198.65</ele>
        <time>2019-04-21T12:17:22Z</time>
      </trkpt>
      <trkpt lat="43.21744" lon="5.4486">
        <ele>199.13</ele>
        <time>2019-04-21T12:17:23Z</time>
      </trkpt>
      <trkpt lat="43.21738" lon="5.44858">
        <ele>199.13</ele>
        <time>2019-04-21T12:17:31Z</time>
      </trkpt>
      <trkpt lat="43.21734" lon="5.44859">
        <ele>199.61</ele>
        <time>2019-04-21T12:17:34Z</time>
      </trkpt>
      <trkpt lat="43.21733" lon="5.44859">
        <ele>199.61</ele>
        <time>2019-04-21T12:17:35Z</time>
      </trkpt>
      <trkpt lat="43.21718" lon="5.44864">
        <ele>200.09</ele>
        <time>2019-04-21T12:17:48Z</time>
      </trkpt>
      <trkpt lat="43.2171" lon="5.44874">
        <ele>201.53</ele>
        <time>2019-04-21T12:18:02Z</time>
      </trkpt>
      <trkpt lat="43.21713" lon="5.4488">
        <ele>202.98</ele>
        <time>2019-04-21T12:18:11Z</time>
      </trkpt>
      <trkpt lat="43.21713" lon="5.4488">
        <ele>203.46</ele>
        <time>2019-04-21T12:18:22Z</time>
      </trkpt>
      <trkpt lat="43.21716" lon="5.44882">
        <ele>203.94</ele>
        <time>2019-04-21T12:18:38Z</time>
      </trkpt>
      <trkpt lat="43.21721" lon="5.44895">
        <ele>204.9</ele>
        <time>2019-04-21T12:18:49Z</time>
      </trkpt>
      <trkpt lat="43.21722" lon="5.449">
        <ele>207.78</ele>
        <time>2019-04-21T12:18:59Z</time>
      </trkpt>
      <trkpt lat="43.21726" lon="5.44906">
        <ele>209.7</ele>
        <time>2019-04-21T12:19:10Z</time>
      </trkpt>
      <trkpt lat="43.21729" lon="5.44914">
        <ele>211.63</ele>
        <time>2019-04-21T12:19:20Z</time>
      </trkpt>
      <trkpt lat="43.21732" lon="5.44921">
        <ele>214.03</ele>
        <time>2019-04-21T12:19:34Z</time>
      </trkpt>
      <trkpt lat="43.21734" lon="5.44923">
        <ele>215.47</ele>
        <time>2019-04-21T12:19:38Z</time>
      </trkpt>
      <trkpt lat="43.21732" lon="5.44928">
        <ele>217.4</ele>
        <time>2019-04-21T12:19:47Z</time>
      </trkpt>
      <trkpt lat="43.21727" lon="5.44931">
        <ele>216.43</ele>
        <time>2019-04-21T12:19:56Z</time>
      </trkpt>
      <trkpt lat="43.21726" lon="5.44931">
        <ele>216.91</ele>
        <time>2019-04-21T12:19:58Z</time>
      </trkpt>
      <trkpt lat="43.21723" lon="5.44935">
        <ele>216.91</ele>
        <time>2019-04-21T12:20:04Z</time>
      </trkpt>
      <trkpt lat="43.21718" lon="5.44937">
        <ele>217.4</ele>
        <time>2019-04-21T12:20:08Z</time>
      </trkpt>
      <trkpt lat="43.21713" lon="5.44938">
        <ele>217.4</ele>
        <time>2019-04-21T12:20:12Z</time>
      </trkpt>
      <trkpt lat="43.21711" lon="5.4494">
        <ele>216.43</ele>
        <time>2019-04-21T12:20:25Z</time>
      </trkpt>
      <trkpt lat="43.21712" lon="5.4494">
        <ele>216.43</ele>
        <time>2019-04-21T12:20:26Z</time>
      </trkpt>
      <trkpt lat="43.21709" lon="5.44943">
        <ele>216.43</ele>
        <time>2019-04-21T12:20:30Z</time>
      </trkpt>
      <trkpt lat="43.21701" lon="5.44951">
        <ele>216.91</ele>
        <time>2019-04-21T12:20:39Z</time>
      </trkpt>
      <trkpt lat="43.21699" lon="5.44953">
        <ele>215.95</ele>
        <time>2019-04-21T12:20:43Z</time>
      </trkpt>
      <trkpt lat="43.21696" lon="5.44955">
        <ele>216.43</ele>
        <time>2019-04-21T12:20:45Z</time>
      </trkpt>
      <trkpt lat="43.21695" lon="5.44956">
        <ele>215.47</ele>
        <time>2019-04-21T12:20:46Z</time>
      </trkpt>
      <trkpt lat="43.21694" lon="5.44958">
        <ele>215.95</ele>
        <time>2019-04-21T12:20:47Z</time>
      </trkpt>
      <trkpt lat="43.21689" lon="5.44968">
        <ele>215.95</ele>
        <time>2019-04-21T12:20:55Z</time>
      </trkpt>
      <trkpt lat="43.21687" lon="5.44974">
        <ele>215.95</ele>
        <time>2019-04-21T12:21:00Z</time>
      </trkpt>
      <trkpt lat="43.21681" lon="5.44993">
        <ele>215.95</ele>
        <time>2019-04-21T12:21:12Z</time>
      </trkpt>
      <trkpt lat="43.2168" lon="5.44999">
        <ele>215.95</ele>
        <time>2019-04-21T12:21:17Z</time>
      </trkpt>
      <trkpt lat="43.21679" lon="5.45">
        <ele>215.95</ele>
        <time>2019-04-21T12:21:18Z</time>
      </trkpt>
      <trkpt lat="43.21679" lon="5.45002">
        <ele>215.95</ele>
        <time>2019-04-21T12:21:19Z</time>
      </trkpt>
      <trkpt lat="43.21678" lon="5.45004">
        <ele>215.95</ele>
        <time>2019-04-21T12:21:20Z</time>
      </trkpt>
      <trkpt lat="43.21678" lon="5.45006">
        <ele>214.99</ele>
        <time>2019-04-21T12:21:21Z</time>
      </trkpt>
      <trkpt lat="43.21677" lon="5.45008">
        <ele>215.47</ele>
        <time>2019-04-21T12:21:22Z</time>
      </trkpt>
      <trkpt lat="43.21674" lon="5.45022">
        <ele>215.47</ele>
        <time>2019-04-21T12:21:32Z</time>
      </trkpt>
      <trkpt lat="43.2167" lon="5.45035">
        <ele>214.99</ele>
        <time>2019-04-21T12:21:46Z</time>
      </trkpt>
      <trkpt lat="43.21679" lon="5.45035">
        <ele>215.47</ele>
        <time>2019-04-21T12:22:00Z</time>
      </trkpt>
      <trkpt lat="43.21679" lon="5.45036">
        <ele>215.47</ele>
        <time>2019-04-21T12:22:01Z</time>
      </trkpt>
      <trkpt lat="43.21681" lon="5.45039">
        <ele>215.47</ele>
        <time>2019-04-21T12:22:03Z</time>
      </trkpt>
      <trkpt lat="43.21695" lon="5.45053">
        <ele>214.99</ele>
        <time>2019-04-21T12:22:20Z</time>
      </trkpt>
      <trkpt lat="43.21703" lon="5.45075">
        <ele>214.99</ele>
        <time>2019-04-21T12:22:38Z</time>
      </trkpt>
      <trkpt lat="43.21712" lon="5.45093">
        <ele>214.99</ele>
        <time>2019-04-21T12:22:53Z</time>
      </trkpt>
      <trkpt lat="43.21717" lon="5.45123">
        <ele>215.47</ele>
        <time>2019-04-21T12:23:13Z</time>
      </trkpt>
      <trkpt lat="43.21717" lon="5.45145">
        <ele>215.95</ele>
        <time>2019-04-21T12:23:30Z</time>
      </trkpt>
      <trkpt lat="43.2172" lon="5.45169">
        <ele>216.91</ele>
        <time>2019-04-21T12:23:47Z</time>
      </trkpt>
      <trkpt lat="43.21721" lon="5.45175">
        <ele>216.91</ele>
        <time>2019-04-21T12:23:52Z</time>
      </trkpt>
      <trkpt lat="43.21722" lon="5.45203">
        <ele>217.88</ele>
        <time>2019-04-21T12:24:10Z</time>
      </trkpt>
      <trkpt lat="43.21729" lon="5.45229">
        <ele>218.84</ele>
        <time>2019-04-21T12:24:29Z</time>
      </trkpt>
      <trkpt lat="43.21732" lon="5.45265">
        <ele>219.32</ele>
        <time>2019-04-21T12:24:48Z</time>
      </trkpt>
      <trkpt lat="43.21726" lon="5.45295">
        <ele>219.8</ele>
        <time>2019-04-21T12:25:05Z</time>
      </trkpt>
      <trkpt lat="43.21729" lon="5.45282">
        <ele>219.32</ele>
        <time>2019-04-21T12:25:13Z</time>
      </trkpt>
      <trkpt lat="43.21728" lon="5.45284">
        <ele>220.28</ele>
        <time>2019-04-21T12:25:27Z</time>
      </trkpt>
      <trkpt lat="43.2171" lon="5.45284">
        <ele>220.76</ele>
        <time>2019-04-21T12:25:45Z</time>
      </trkpt>
      <trkpt lat="43.21698" lon="5.45278">
        <ele>221.72</ele>
        <time>2019-04-21T12:25:56Z</time>
      </trkpt>
      <trkpt lat="43.21679" lon="5.45264">
        <ele>223.16</ele>
        <time>2019-04-21T12:26:16Z</time>
      </trkpt>
      <trkpt lat="43.21659" lon="5.45246">
        <ele>223.64</ele>
        <time>2019-04-21T12:26:37Z</time>
      </trkpt>
      <trkpt lat="43.21652" lon="5.45239">
        <ele>224.61</ele>
        <time>2019-04-21T12:26:45Z</time>
      </trkpt>
      <trkpt lat="43.21635" lon="5.45225">
        <ele>224.61</ele>
        <time>2019-04-21T12:27:02Z</time>
      </trkpt>
      <trkpt lat="43.21617" lon="5.45215">
        <ele>225.09</ele>
        <time>2019-04-21T12:27:20Z</time>
      </trkpt>
      <trkpt lat="43.21599" lon="5.45197">
        <ele>225.57</ele>
        <time>2019-04-21T12:27:43Z</time>
      </trkpt>
      <trkpt lat="43.21599" lon="5.45202">
        <ele>226.05</ele>
        <time>2019-04-21T12:27:55Z</time>
      </trkpt>
      <trkpt lat="43.21593" lon="5.45215">
        <ele>228.93</ele>
        <time>2019-04-21T12:28:12Z</time>
      </trkpt>
      <trkpt lat="43.21585" lon="5.45229">
        <ele>231.33</ele>
        <time>2019-04-21T12:28:28Z</time>
      </trkpt>
      <trkpt lat="43.21582" lon="5.45235">
        <ele>232.3</ele>
        <time>2019-04-21T12:28:36Z</time>
      </trkpt>
      <trkpt lat="43.21576" lon="5.45249">
        <ele>235.18</ele>
        <time>2019-04-21T12:28:53Z</time>
      </trkpt>
      <trkpt lat="43.21569" lon="5.45261">
        <ele>238.54</ele>
        <time>2019-04-21T12:29:10Z</time>
      </trkpt>
      <trkpt lat="43.21562" lon="5.45273">
        <ele>240.95</ele>
        <time>2019-04-21T12:29:26Z</time>
      </trkpt>
      <trkpt lat="43.21551" lon="5.45283">
        <ele>243.83</ele>
        <time>2019-04-21T12:29:45Z</time>
      </trkpt>
      <trkpt lat="43.2155" lon="5.45297">
        <ele>246.72</ele>
        <time>2019-04-21T12:29:59Z</time>
      </trkpt>
      <trkpt lat="43.21554" lon="5.45308">
        <ele>248.16</ele>
        <time>2019-04-21T12:30:16Z</time>
      </trkpt>
      <trkpt lat="43.21561" lon="5.45314">
        <ele>249.12</ele>
        <time>2019-04-21T12:30:34Z</time>
      </trkpt>
      <trkpt lat="43.21566" lon="5.4531">
        <ele>252.48</ele>
        <time>2019-04-21T12:30:46Z</time>
      </trkpt>
      <trkpt lat="43.21574" lon="5.45306">
        <ele>255.37</ele>
        <time>2019-04-21T12:31:00Z</time>
      </trkpt>
      <trkpt lat="43.21582" lon="5.45303">
        <ele>258.25</ele>
        <time>2019-04-21T12:31:16Z</time>
      </trkpt>
      <trkpt lat="43.21592" lon="5.45302">
        <ele>261.14</ele>
        <time>2019-04-21T12:31:30Z</time>
      </trkpt>
      <trkpt lat="43.21601" lon="5.45304">
        <ele>261.62</ele>
        <time>2019-04-21T12:31:45Z</time>
      </trkpt>
      <trkpt lat="43.216" lon="5.45311">
        <ele>264.5</ele>
        <time>2019-04-21T12:31:56Z</time>
      </trkpt>
      <trkpt lat="43.21595" lon="5.45318">
        <ele>267.38</ele>
        <time>2019-04-21T12:32:09Z</time>
      </trkpt>
      <trkpt lat="43.21591" lon="5.45324">
        <ele>268.35</ele>
        <time>2019-04-21T12:32:23Z</time>
      </trkpt>
      <trkpt lat="43.21587" lon="5.45331">
        <ele>269.79</ele>
        <time>2019-04-21T12:32:36Z</time>
      </trkpt>
      <trkpt lat="43.21583" lon="5.45338">
        <ele>272.67</ele>
        <time>2019-04-21T12:32:49Z</time>
      </trkpt>
      <trkpt lat="43.21581" lon="5.45352">
        <ele>275.07</ele>
        <time>2019-04-21T12:33:07Z</time>
      </trkpt>
      <trkpt lat="43.21581" lon="5.45365">
        <ele>274.59</ele>
        <time>2019-04-21T12:33:24Z</time>
      </trkpt>
      <trkpt lat="43.2158" lon="5.45384">
        <ele>273.63</ele>
        <time>2019-04-21T12:33:39Z</time>
      </trkpt>
      <trkpt lat="43.21578" lon="5.45403">
        <ele>274.11</ele>
        <time>2019-04-21T12:33:56Z</time>
      </trkpt>
      <trkpt lat="43.21574" lon="5.45419">
        <ele>275.56</ele>
        <time>2019-04-21T12:34:12Z</time>
      </trkpt>
      <trkpt lat="43.21572" lon="5.45434">
        <ele>277</ele>
        <time>2019-04-21T12:34:27Z</time>
      </trkpt>
      <trkpt lat="43.21572" lon="5.45438">
        <ele>278.44</ele>
        <time>2019-04-21T12:34:41Z</time>
      </trkpt>
      <trkpt lat="43.21571" lon="5.45438">
        <ele>277.48</ele>
        <time>2019-04-21T12:35:11Z</time>
      </trkpt>
      <trkpt lat="43.21573" lon="5.45438">
        <ele>276.52</ele>
        <time>2019-04-21T12:35:37Z</time>
      </trkpt>
      <trkpt lat="43.21574" lon="5.45435">
        <ele>276.52</ele>
        <time>2019-04-21T12:36:03Z</time>
      </trkpt>
      <trkpt lat="43.21573" lon="5.45436">
        <ele>276.52</ele>
        <time>2019-04-21T12:36:32Z</time>
      </trkpt>
      <trkpt lat="43.2157" lon="5.45443">
        <ele>277</ele>
        <time>2019-04-21T12:36:45Z</time>
      </trkpt>
      <trkpt lat="43.21572" lon="5.45445">
        <ele>277.48</ele>
        <time>2019-04-21T12:37:04Z</time>
      </trkpt>
      <trkpt lat="43.21568" lon="5.45453">
        <ele>276.52</ele>
        <time>2019-04-21T12:37:26Z</time>
      </trkpt>
      <trkpt lat="43.21569" lon="5.45465">
        <ele>277</ele>
        <time>2019-04-21T12:37:44Z</time>
      </trkpt>
      <trkpt lat="43.21568" lon="5.45467">
        <ele>276.52</ele>
        <time>2019-04-21T12:38:05Z</time>
      </trkpt>
      <trkpt lat="43.21569" lon="5.45477">
        <ele>277</ele>
        <time>2019-04-21T12:38:21Z</time>
      </trkpt>
      <trkpt lat="43.21571" lon="5.45495">
        <ele>276.52</ele>
        <time>2019-04-21T12:38:37Z</time>
      </trkpt>
      <trkpt lat="43.21571" lon="5.45497">
        <ele>276.04</ele>
        <time>2019-04-21T12:38:39Z</time>
      </trkpt>
      <trkpt lat="43.21575" lon="5.45521">
        <ele>275.56</ele>
        <time>2019-04-21T12:38:57Z</time>
      </trkpt>
      <trkpt lat="43.21574" lon="5.45541">
        <ele>272.67</ele>
        <time>2019-04-21T12:39:13Z</time>
      </trkpt>
      <trkpt lat="43.21573" lon="5.45566">
        <ele>270.75</ele>
        <time>2019-04-21T12:39:32Z</time>
      </trkpt>
      <trkpt lat="43.21571" lon="5.4558">
        <ele>269.79</ele>
        <time>2019-04-21T12:39:48Z</time>
      </trkpt>
      <trkpt lat="43.2157" lon="5.4558">
        <ele>269.31</ele>
        <time>2019-04-21T12:40:11Z</time>
      </trkpt>
      <trkpt lat="43.21566" lon="5.45589">
        <ele>268.83</ele>
        <time>2019-04-21T12:40:27Z</time>
      </trkpt>
      <trkpt lat="43.21557" lon="5.45603">
        <ele>265.46</ele>
        <time>2019-04-21T12:40:42Z</time>
      </trkpt>
      <trkpt lat="43.21556" lon="5.45604">
        <ele>265.46</ele>
        <time>2019-04-21T12:40:43Z</time>
      </trkpt>
      <trkpt lat="43.21552" lon="5.45609">
        <ele>264.02</ele>
        <time>2019-04-21T12:40:47Z</time>
      </trkpt>
      <trkpt lat="43.21546" lon="5.45631">
        <ele>262.58</ele>
        <time>2019-04-21T12:41:06Z</time>
      </trkpt>
      <trkpt lat="43.21549" lon="5.45664">
        <ele>260.65</ele>
        <time>2019-04-21T12:41:26Z</time>
      </trkpt>
      <trkpt lat="43.21549" lon="5.45682">
        <ele>257.77</ele>
        <time>2019-04-21T12:41:37Z</time>
      </trkpt>
      <trkpt lat="43.2155" lon="5.45683">
        <ele>257.29</ele>
        <time>2019-04-21T12:41:38Z</time>
      </trkpt>
      <trkpt lat="43.21555" lon="5.45706">
        <ele>256.81</ele>
        <time>2019-04-21T12:41:55Z</time>
      </trkpt>
      <trkpt lat="43.21558" lon="5.45735">
        <ele>253.44</ele>
        <time>2019-04-21T12:42:14Z</time>
      </trkpt>
      <trkpt lat="43.21555" lon="5.45744">
        <ele>252.48</ele>
        <time>2019-04-21T12:42:29Z</time>
      </trkpt>
      <trkpt lat="43.21554" lon="5.45757">
        <ele>252.48</ele>
        <time>2019-04-21T12:42:40Z</time>
      </trkpt>
      <trkpt lat="43.2154" lon="5.45763">
        <ele>251.04</ele>
        <time>2019-04-21T12:42:51Z</time>
      </trkpt>
      <trkpt lat="43.21525" lon="5.45775">
        <ele>249.12</ele>
        <time>2019-04-21T12:43:06Z</time>
      </trkpt>
      <trkpt lat="43.21522" lon="5.45777">
        <ele>247.2</ele>
        <time>2019-04-21T12:43:09Z</time>
      </trkpt>
      <trkpt lat="43.21521" lon="5.45778">
        <ele>248.64</ele>
        <time>2019-04-21T12:43:11Z</time>
      </trkpt>
      <trkpt lat="43.21516" lon="5.45783">
        <ele>247.2</ele>
        <time>2019-04-21T12:43:24Z</time>
      </trkpt>
      <trkpt lat="43.21513" lon="5.45783">
        <ele>246.72</ele>
        <time>2019-04-21T12:43:41Z</time>
      </trkpt>
      <trkpt lat="43.21512" lon="5.45785">
        <ele>246.72</ele>
        <time>2019-04-21T12:44:17Z</time>
      </trkpt>
      <trkpt lat="43.21513" lon="5.45783">
        <ele>247.2</ele>
        <time>2019-04-21T12:44:50Z</time>
      </trkpt>
      <trkpt lat="43.21514" lon="5.45785">
        <ele>246.72</ele>
        <time>2019-04-21T12:45:23Z</time>
      </trkpt>
      <trkpt lat="43.21514" lon="5.45784">
        <ele>246.72</ele>
        <time>2019-04-21T12:45:59Z</time>
      </trkpt>
      <trkpt lat="43.2151" lon="5.4579">
        <ele>245.75</ele>
        <time>2019-04-21T12:46:18Z</time>
      </trkpt>
      <trkpt lat="43.21499" lon="5.45799">
        <ele>241.91</ele>
        <time>2019-04-21T12:46:30Z</time>
      </trkpt>
      <trkpt lat="43.21493" lon="5.45829">
        <ele>239.51</ele>
        <time>2019-04-21T12:46:47Z</time>
      </trkpt>
      <trkpt lat="43.21494" lon="5.45855">
        <ele>238.06</ele>
        <time>2019-04-21T12:47:03Z</time>
      </trkpt>
      <trkpt lat="43.21497" lon="5.4587">
        <ele>235.66</ele>
        <time>2019-04-21T12:47:16Z</time>
      </trkpt>
      <trkpt lat="43.21484" lon="5.45874">
        <ele>232.78</ele>
        <time>2019-04-21T12:47:30Z</time>
      </trkpt>
      <trkpt lat="43.21475" lon="5.45875">
        <ele>233.74</ele>
        <time>2019-04-21T12:47:41Z</time>
      </trkpt>
      <trkpt lat="43.21468" lon="5.45879">
        <ele>231.81</ele>
        <time>2019-04-21T12:47:56Z</time>
      </trkpt>
      <trkpt lat="43.21449" lon="5.45885">
        <ele>230.37</ele>
        <time>2019-04-21T12:48:16Z</time>
      </trkpt>
      <trkpt lat="43.21442" lon="5.45898">
        <ele>228.93</ele>
        <time>2019-04-21T12:48:32Z</time>
      </trkpt>
      <trkpt lat="43.21434" lon="5.45912">
        <ele>226.05</ele>
        <time>2019-04-21T12:48:45Z</time>
      </trkpt>
      <trkpt lat="43.21422" lon="5.45928">
        <ele>223.64</ele>
        <time>2019-04-21T12:49:03Z</time>
      </trkpt>
      <trkpt lat="43.21417" lon="5.45938">
        <ele>222.68</ele>
        <time>2019-04-21T12:49:11Z</time>
      </trkpt>
      <trkpt lat="43.21417" lon="5.45939">
        <ele>222.2</ele>
        <time>2019-04-21T12:49:12Z</time>
      </trkpt>
      <trkpt lat="43.21399" lon="5.45961">
        <ele>220.28</ele>
        <time>2019-04-21T12:49:33Z</time>
      </trkpt>
      <trkpt lat="43.21384" lon="5.45984">
        <ele>219.32</ele>
        <time>2019-04-21T12:49:52Z</time>
      </trkpt>
      <trkpt lat="43.21379" lon="5.46007">
        <ele>219.8</ele>
        <time>2019-04-21T12:50:06Z</time>
      </trkpt>
      <trkpt lat="43.21375" lon="5.46043">
        <ele>220.28</ele>
        <time>2019-04-21T12:50:28Z</time>
      </trkpt>
      <trkpt lat="43.2137" lon="5.46052">
        <ele>220.76</ele>
        <time>2019-04-21T12:50:47Z</time>
      </trkpt>
      <trkpt lat="43.21372" lon="5.4605">
        <ele>220.28</ele>
        <time>2019-04-21T12:51:14Z</time>
      </trkpt>
      <trkpt lat="43.21373" lon="5.46051">
        <ele>220.76</ele>
        <time>2019-04-21T12:51:44Z</time>
      </trkpt>
      <trkpt lat="43.21364" lon="5.46054">
        <ele>220.28</ele>
        <time>2019-04-21T12:51:58Z</time>
      </trkpt>
      <trkpt lat="43.21354" lon="5.46073">
        <ele>221.24</ele>
        <time>2019-04-21T12:52:15Z</time>
      </trkpt>
      <trkpt lat="43.21348" lon="5.46101">
        <ele>221.72</ele>
        <time>2019-04-21T12:52:34Z</time>
      </trkpt>
      <trkpt lat="43.21344" lon="5.46116">
        <ele>221.24</ele>
        <time>2019-04-21T12:52:47Z</time>
      </trkpt>
      <trkpt lat="43.21343" lon="5.46143">
        <ele>221.72</ele>
        <time>2019-04-21T12:53:04Z</time>
      </trkpt>
      <trkpt lat="43.21343" lon="5.46146">
        <ele>221.24</ele>
        <time>2019-04-21T12:53:06Z</time>
      </trkpt>
      <trkpt lat="43.21341" lon="5.46149">
        <ele>221.24</ele>
        <time>2019-04-21T12:53:09Z</time>
      </trkpt>
      <trkpt lat="43.21338" lon="5.46167">
        <ele>221.72</ele>
        <time>2019-04-21T12:53:20Z</time>
      </trkpt>
      <trkpt lat="43.2133" lon="5.46181">
        <ele>221.24</ele>
        <time>2019-04-21T12:53:30Z</time>
      </trkpt>
      <trkpt lat="43.21328" lon="5.46177">
        <ele>221.24</ele>
        <time>2019-04-21T12:53:33Z</time>
      </trkpt>
      <trkpt lat="43.21327" lon="5.46176">
        <ele>221.24</ele>
        <time>2019-04-21T12:53:34Z</time>
      </trkpt>
      <trkpt lat="43.21319" lon="5.46166">
        <ele>221.72</ele>
        <time>2019-04-21T12:53:44Z</time>
      </trkpt>
      <trkpt lat="43.21307" lon="5.46165">
        <ele>221.24</ele>
        <time>2019-04-21T12:53:54Z</time>
      </trkpt>
      <trkpt lat="43.21295" lon="5.46167">
        <ele>221.24</ele>
        <time>2019-04-21T12:54:05Z</time>
      </trkpt>
      <trkpt lat="43.21281" lon="5.46178">
        <ele>221.72</ele>
        <time>2019-04-21T12:54:18Z</time>
      </trkpt>
      <trkpt lat="43.21276" lon="5.46192">
        <ele>220.76</ele>
        <time>2019-04-21T12:54:34Z</time>
      </trkpt>
      <trkpt lat="43.21274" lon="5.46202">
        <ele>222.2</ele>
        <time>2019-04-21T12:54:48Z</time>
      </trkpt>
      <trkpt lat="43.2127" lon="5.46209">
        <ele>221.72</ele>
        <time>2019-04-21T12:54:55Z</time>
      </trkpt>
      <trkpt lat="43.21266" lon="5.46217">
        <ele>222.2</ele>
        <time>2019-04-21T12:55:05Z</time>
      </trkpt>
      <trkpt lat="43.21261" lon="5.46225">
        <ele>223.16</ele>
        <time>2019-04-21T12:55:16Z</time>
      </trkpt>
      <trkpt lat="43.21256" lon="5.46231">
        <ele>223.64</ele>
        <time>2019-04-21T12:55:30Z</time>
      </trkpt>
      <trkpt lat="43.21251" lon="5.46244">
        <ele>225.57</ele>
        <time>2019-04-21T12:55:42Z</time>
      </trkpt>
      <trkpt lat="43.21252" lon="5.46254">
        <ele>226.05</ele>
        <time>2019-04-21T12:55:55Z</time>
      </trkpt>
      <trkpt lat="43.21251" lon="5.46259">
        <ele>227.01</ele>
        <time>2019-04-21T12:56:12Z</time>
      </trkpt>
      <trkpt lat="43.21251" lon="5.4626">
        <ele>228.45</ele>
        <time>2019-04-21T12:56:15Z</time>
      </trkpt>
      <trkpt lat="43.21251" lon="5.46262">
        <ele>229.89</ele>
        <time>2019-04-21T12:56:20Z</time>
      </trkpt>
      <trkpt lat="43.21252" lon="5.46265">
        <ele>232.3</ele>
        <time>2019-04-21T12:56:25Z</time>
      </trkpt>
      <trkpt lat="43.21253" lon="5.46269">
        <ele>233.74</ele>
        <time>2019-04-21T12:56:32Z</time>
      </trkpt>
      <trkpt lat="43.21256" lon="5.46277">
        <ele>237.1</ele>
        <time>2019-04-21T12:56:47Z</time>
      </trkpt>
      <trkpt lat="43.21278" lon="5.46277">
        <ele>239.51</ele>
        <time>2019-04-21T12:57:05Z</time>
      </trkpt>
      <trkpt lat="43.21287" lon="5.46275">
        <ele>237.1</ele>
        <time>2019-04-21T12:57:25Z</time>
      </trkpt>
      <trkpt lat="43.21291" lon="5.46273">
        <ele>236.62</ele>
        <time>2019-04-21T12:57:50Z</time>
      </trkpt>
      <trkpt lat="43.21282" lon="5.46286">
        <ele>236.62</ele>
        <time>2019-04-21T12:58:18Z</time>
      </trkpt>
      <trkpt lat="43.21268" lon="5.46299">
        <ele>233.74</ele>
        <time>2019-04-21T12:58:32Z</time>
      </trkpt>
      <trkpt lat="43.2126" lon="5.4631">
        <ele>233.26</ele>
        <time>2019-04-21T12:58:51Z</time>
      </trkpt>
      <trkpt lat="43.21262" lon="5.46315">
        <ele>229.89</ele>
        <time>2019-04-21T12:59:03Z</time>
      </trkpt>
      <trkpt lat="43.21262" lon="5.46315">
        <ele>229.89</ele>
        <time>2019-04-21T12:59:04Z</time>
      </trkpt>
      <trkpt lat="43.21252" lon="5.46318">
        <ele>230.85</ele>
        <time>2019-04-21T12:59:21Z</time>
      </trkpt>
      <trkpt lat="43.21252" lon="5.46322">
        <ele>233.74</ele>
        <time>2019-04-21T12:59:42Z</time>
      </trkpt>
      <trkpt lat="43.21253" lon="5.46329">
        <ele>236.14</ele>
        <time>2019-04-21T12:59:56Z</time>
      </trkpt>
      <trkpt lat="43.2125" lon="5.46338">
        <ele>239.02</ele>
        <time>2019-04-21T13:00:08Z</time>
      </trkpt>
      <trkpt lat="43.21242" lon="5.46345">
        <ele>239.02</ele>
        <time>2019-04-21T13:00:33Z</time>
      </trkpt>
      <trkpt lat="43.21247" lon="5.46351">
        <ele>241.91</ele>
        <time>2019-04-21T13:00:48Z</time>
      </trkpt>
      <trkpt lat="43.2125" lon="5.46354">
        <ele>245.27</ele>
        <time>2019-04-21T13:01:02Z</time>
      </trkpt>
      <trkpt lat="43.21258" lon="5.46355">
        <ele>248.64</ele>
        <time>2019-04-21T13:01:16Z</time>
      </trkpt>
      <trkpt lat="43.21249" lon="5.46325">
        <ele>247.68</ele>
        <time>2019-04-21T13:01:38Z</time>
      </trkpt>
      <trkpt lat="43.21249" lon="5.46369">
        <ele>247.2</ele>
        <time>2019-04-21T13:02:01Z</time>
      </trkpt>
      <trkpt lat="43.21244" lon="5.46366">
        <ele>246.23</ele>
        <time>2019-04-21T13:02:13Z</time>
      </trkpt>
      <trkpt lat="43.21245" lon="5.46365">
        <ele>246.72</ele>
        <time>2019-04-21T13:02:14Z</time>
      </trkpt>
      <trkpt lat="43.2126" lon="5.46361">
        <ele>246.23</ele>
        <time>2019-04-21T13:02:28Z</time>
      </trkpt>
      <trkpt lat="43.21263" lon="5.46353">
        <ele>245.75</ele>
        <time>2019-04-21T13:02:56Z</time>
      </trkpt>
      <trkpt lat="43.21261" lon="5.46355">
        <ele>245.75</ele>
        <time>2019-04-21T13:03:20Z</time>
      </trkpt>
      <trkpt lat="43.21251" lon="5.46361">
        <ele>245.75</ele>
        <time>2019-04-21T13:03:47Z</time>
      </trkpt>
      <trkpt lat="43.21242" lon="5.4636">
        <ele>244.79</ele>
        <time>2019-04-21T13:04:09Z</time>
      </trkpt>
      <trkpt lat="43.21242" lon="5.4636">
        <ele>245.75</ele>
        <time>2019-04-21T13:04:40Z</time>
      </trkpt>
      <trkpt lat="43.21244" lon="5.46356">
        <ele>245.27</ele>
        <time>2019-04-21T13:05:04Z</time>
      </trkpt>
      <trkpt lat="43.21236" lon="5.46359">
        <ele>245.27</ele>
        <time>2019-04-21T13:05:33Z</time>
      </trkpt>
      <trkpt lat="43.21244" lon="5.46348">
        <ele>244.79</ele>
        <time>2019-04-21T13:05:55Z</time>
      </trkpt>
      <trkpt lat="43.21247" lon="5.46339">
        <ele>241.43</ele>
        <time>2019-04-21T13:06:14Z</time>
      </trkpt>
      <trkpt lat="43.21247" lon="5.46332">
        <ele>238.54</ele>
        <time>2019-04-21T13:06:25Z</time>
      </trkpt>
      <trkpt lat="43.21247" lon="5.46326">
        <ele>235.66</ele>
        <time>2019-04-21T13:06:37Z</time>
      </trkpt>
      <trkpt lat="43.21247" lon="5.46319">
        <ele>232.3</ele>
        <time>2019-04-21T13:06:46Z</time>
      </trkpt>
      <trkpt lat="43.21248" lon="5.4631">
        <ele>231.33</ele>
        <time>2019-04-21T13:07:05Z</time>
      </trkpt>
      <trkpt lat="43.21253" lon="5.46303">
        <ele>233.26</ele>
        <time>2019-04-21T13:07:31Z</time>
      </trkpt>
      <trkpt lat="43.21253" lon="5.46301">
        <ele>232.78</ele>
        <time>2019-04-21T13:07:33Z</time>
      </trkpt>
      <trkpt lat="43.21247" lon="5.46295">
        <ele>235.18</ele>
        <time>2019-04-21T13:07:52Z</time>
      </trkpt>
      <trkpt lat="43.21251" lon="5.46296">
        <ele>238.54</ele>
        <time>2019-04-21T13:08:07Z</time>
      </trkpt>
      <trkpt lat="43.21264" lon="5.46269">
        <ele>235.18</ele>
        <time>2019-04-21T13:08:28Z</time>
      </trkpt>
      <trkpt lat="43.21251" lon="5.46264">
        <ele>232.3</ele>
        <time>2019-04-21T13:08:42Z</time>
      </trkpt>
      <trkpt lat="43.21249" lon="5.46255">
        <ele>228.93</ele>
        <time>2019-04-21T13:08:57Z</time>
      </trkpt>
      <trkpt lat="43.2125" lon="5.46251">
        <ele>227.97</ele>
        <time>2019-04-21T13:09:15Z</time>
      </trkpt>
      <trkpt lat="43.21253" lon="5.46249">
        <ele>227.97</ele>
        <time>2019-04-21T13:09:33Z</time>
      </trkpt>
      <trkpt lat="43.21257" lon="5.46252">
        <ele>228.45</ele>
        <time>2019-04-21T13:10:05Z</time>
      </trkpt>
      <trkpt lat="43.2125" lon="5.4624">
        <ele>227.49</ele>
        <time>2019-04-21T13:10:28Z</time>
      </trkpt>
      <trkpt lat="43.21251" lon="5.46237">
        <ele>227.01</ele>
        <time>2019-04-21T13:10:31Z</time>
      </trkpt>
      <trkpt lat="43.21257" lon="5.46225">
        <ele>224.61</ele>
        <time>2019-04-21T13:10:46Z</time>
      </trkpt>
      <trkpt lat="43.21263" lon="5.46217">
        <ele>224.61</ele>
        <time>2019-04-21T13:10:54Z</time>
      </trkpt>
      <trkpt lat="43.21267" lon="5.46216">
        <ele>224.12</ele>
        <time>2019-04-21T13:11:09Z</time>
      </trkpt>
      <trkpt lat="43.21267" lon="5.4621">
        <ele>224.12</ele>
        <time>2019-04-21T13:11:13Z</time>
      </trkpt>
      <trkpt lat="43.21272" lon="5.46194">
        <ele>223.16</ele>
        <time>2019-04-21T13:11:27Z</time>
      </trkpt>
      <trkpt lat="43.21279" lon="5.46179">
        <ele>222.68</ele>
        <time>2019-04-21T13:11:42Z</time>
      </trkpt>
      <trkpt lat="43.21285" lon="5.4617">
        <ele>223.16</ele>
        <time>2019-04-21T13:11:54Z</time>
      </trkpt>
      <trkpt lat="43.21302" lon="5.46158">
        <ele>223.16</ele>
        <time>2019-04-21T13:12:12Z</time>
      </trkpt>
      <trkpt lat="43.21312" lon="5.46165">
        <ele>222.68</ele>
        <time>2019-04-21T13:12:23Z</time>
      </trkpt>
      <trkpt lat="43.21314" lon="5.46165">
        <ele>222.2</ele>
        <time>2019-04-21T13:12:24Z</time>
      </trkpt>
      <trkpt lat="43.21333" lon="5.4617">
        <ele>222.68</ele>
        <time>2019-04-21T13:12:42Z</time>
      </trkpt>
      <trkpt lat="43.21335" lon="5.46168">
        <ele>222.68</ele>
        <time>2019-04-21T13:12:59Z</time>
      </trkpt>
      <trkpt lat="43.21336" lon="5.4616">
        <ele>222.2</ele>
        <time>2019-04-21T13:13:16Z</time>
      </trkpt>
      <trkpt lat="43.21339" lon="5.46149">
        <ele>223.64</ele>
        <time>2019-04-21T13:13:32Z</time>
      </trkpt>
      <trkpt lat="43.21339" lon="5.46145">
        <ele>222.68</ele>
        <time>2019-04-21T13:13:39Z</time>
      </trkpt>
      <trkpt lat="43.21342" lon="5.46133">
        <ele>222.68</ele>
        <time>2019-04-21T13:13:48Z</time>
      </trkpt>
      <trkpt lat="43.21345" lon="5.46108">
        <ele>221.72</ele>
        <time>2019-04-21T13:14:07Z</time>
      </trkpt>
      <trkpt lat="43.21349" lon="5.46094">
        <ele>222.2</ele>
        <time>2019-04-21T13:14:24Z</time>
      </trkpt>
      <trkpt lat="43.21351" lon="5.46082">
        <ele>221.72</ele>
        <time>2019-04-21T13:14:46Z</time>
      </trkpt>
      <trkpt lat="43.21363" lon="5.46055">
        <ele>221.24</ele>
        <time>2019-04-21T13:15:06Z</time>
      </trkpt>
      <trkpt lat="43.21367" lon="5.46051">
        <ele>221.72</ele>
        <time>2019-04-21T13:15:11Z</time>
      </trkpt>
      <trkpt lat="43.21376" lon="5.46036">
        <ele>221.72</ele>
        <time>2019-04-21T13:15:24Z</time>
      </trkpt>
      <trkpt lat="43.21378" lon="5.46011">
        <ele>220.76</ele>
        <time>2019-04-21T13:15:42Z</time>
      </trkpt>
      <trkpt lat="43.21379" lon="5.46004">
        <ele>220.28</ele>
        <time>2019-04-21T13:15:46Z</time>
      </trkpt>
      <trkpt lat="43.21385" lon="5.4598">
        <ele>221.24</ele>
        <time>2019-04-21T13:16:02Z</time>
      </trkpt>
      <trkpt lat="43.21398" lon="5.45963">
        <ele>222.2</ele>
        <time>2019-04-21T13:16:19Z</time>
      </trkpt>
      <trkpt lat="43.21412" lon="5.45942">
        <ele>222.68</ele>
        <time>2019-04-21T13:16:38Z</time>
      </trkpt>
      <trkpt lat="43.21424" lon="5.45918">
        <ele>225.09</ele>
        <time>2019-04-21T13:16:59Z</time>
      </trkpt>
      <trkpt lat="43.21433" lon="5.45909">
        <ele>227.01</ele>
        <time>2019-04-21T13:17:11Z</time>
      </trkpt>
      <trkpt lat="43.21442" lon="5.45894">
        <ele>229.41</ele>
        <time>2019-04-21T13:17:28Z</time>
      </trkpt>
      <trkpt lat="43.21456" lon="5.45877">
        <ele>231.33</ele>
        <time>2019-04-21T13:17:48Z</time>
      </trkpt>
      <trkpt lat="43.21457" lon="5.45877">
        <ele>231.33</ele>
        <time>2019-04-21T13:17:49Z</time>
      </trkpt>
      <trkpt lat="43.21475" lon="5.45875">
        <ele>232.78</ele>
        <time>2019-04-21T13:18:08Z</time>
      </trkpt>
      <trkpt lat="43.21491" lon="5.45872">
        <ele>235.18</ele>
        <time>2019-04-21T13:18:25Z</time>
      </trkpt>
      <trkpt lat="43.21495" lon="5.45857">
        <ele>238.54</ele>
        <time>2019-04-21T13:18:40Z</time>
      </trkpt>
      <trkpt lat="43.21498" lon="5.45854">
        <ele>238.54</ele>
        <time>2019-04-21T13:19:01Z</time>
      </trkpt>
      <trkpt lat="43.21504" lon="5.45859">
        <ele>239.51</ele>
        <time>2019-04-21T13:19:18Z</time>
      </trkpt>
      <trkpt lat="43.2151" lon="5.45862">
        <ele>240.95</ele>
        <time>2019-04-21T13:19:33Z</time>
      </trkpt>
      <trkpt lat="43.21512" lon="5.45857">
        <ele>241.43</ele>
        <time>2019-04-21T13:20:02Z</time>
      </trkpt>
      <trkpt lat="43.21509" lon="5.45857">
        <ele>239.99</ele>
        <time>2019-04-21T13:20:23Z</time>
      </trkpt>
      <trkpt lat="43.21501" lon="5.45858">
        <ele>238.54</ele>
        <time>2019-04-21T13:20:35Z</time>
      </trkpt>
      <trkpt lat="43.21496" lon="5.45854">
        <ele>237.58</ele>
        <time>2019-04-21T13:20:46Z</time>
      </trkpt>
      <trkpt lat="43.21495" lon="5.45853">
        <ele>237.58</ele>
        <time>2019-04-21T13:20:47Z</time>
      </trkpt>
      <trkpt lat="43.21493" lon="5.4584">
        <ele>238.54</ele>
        <time>2019-04-21T13:20:57Z</time>
      </trkpt>
      <trkpt lat="43.21492" lon="5.45839">
        <ele>238.06</ele>
        <time>2019-04-21T13:20:58Z</time>
      </trkpt>
      <trkpt lat="43.21492" lon="5.4582">
        <ele>239.99</ele>
        <time>2019-04-21T13:21:13Z</time>
      </trkpt>
      <trkpt lat="43.21494" lon="5.4581">
        <ele>240.95</ele>
        <time>2019-04-21T13:21:25Z</time>
      </trkpt>
      <trkpt lat="43.21494" lon="5.45809">
        <ele>240.95</ele>
        <time>2019-04-21T13:21:26Z</time>
      </trkpt>
      <trkpt lat="43.21498" lon="5.45794">
        <ele>242.87</ele>
        <time>2019-04-21T13:21:39Z</time>
      </trkpt>
      <trkpt lat="43.21506" lon="5.4579">
        <ele>243.83</ele>
        <time>2019-04-21T13:21:52Z</time>
      </trkpt>
      <trkpt lat="43.21515" lon="5.45779">
        <ele>246.72</ele>
        <time>2019-04-21T13:22:09Z</time>
      </trkpt>
      <trkpt lat="43.21521" lon="5.45774">
        <ele>248.16</ele>
        <time>2019-04-21T13:22:20Z</time>
      </trkpt>
      <trkpt lat="43.21533" lon="5.45765">
        <ele>251.04</ele>
        <time>2019-04-21T13:22:36Z</time>
      </trkpt>
      <trkpt lat="43.21545" lon="5.45758">
        <ele>252</ele>
        <time>2019-04-21T13:22:51Z</time>
      </trkpt>
      <trkpt lat="43.21553" lon="5.45754">
        <ele>252.96</ele>
        <time>2019-04-21T13:23:07Z</time>
      </trkpt>
      <trkpt lat="43.21554" lon="5.45751">
        <ele>252.96</ele>
        <time>2019-04-21T13:23:27Z</time>
      </trkpt>
      <trkpt lat="43.21554" lon="5.45746">
        <ele>253.44</ele>
        <time>2019-04-21T13:23:31Z</time>
      </trkpt>
      <trkpt lat="43.21554" lon="5.45744">
        <ele>252.96</ele>
        <time>2019-04-21T13:23:32Z</time>
      </trkpt>
      <trkpt lat="43.21559" lon="5.4573">
        <ele>254.41</ele>
        <time>2019-04-21T13:23:46Z</time>
      </trkpt>
      <trkpt lat="43.21559" lon="5.45728">
        <ele>255.37</ele>
        <time>2019-04-21T13:23:47Z</time>
      </trkpt>
      <trkpt lat="43.21555" lon="5.45705">
        <ele>257.29</ele>
        <time>2019-04-21T13:24:04Z</time>
      </trkpt>
      <trkpt lat="43.21549" lon="5.45671">
        <ele>260.17</ele>
        <time>2019-04-21T13:24:28Z</time>
      </trkpt>
      <trkpt lat="43.21545" lon="5.45646">
        <ele>263.06</ele>
        <time>2019-04-21T13:24:47Z</time>
      </trkpt>
      <trkpt lat="43.21547" lon="5.45617">
        <ele>264.5</ele>
        <time>2019-04-21T13:25:09Z</time>
      </trkpt>
      <trkpt lat="43.21559" lon="5.45599">
        <ele>266.42</ele>
        <time>2019-04-21T13:25:28Z</time>
      </trkpt>
      <trkpt lat="43.21563" lon="5.45594">
        <ele>267.86</ele>
        <time>2019-04-21T13:25:34Z</time>
      </trkpt>
      <trkpt lat="43.2157" lon="5.45579">
        <ele>269.79</ele>
        <time>2019-04-21T13:25:50Z</time>
      </trkpt>
      <trkpt lat="43.21574" lon="5.45571">
        <ele>270.27</ele>
        <time>2019-04-21T13:26:08Z</time>
      </trkpt>
      <trkpt lat="43.21575" lon="5.45573">
        <ele>270.27</ele>
        <time>2019-04-21T13:26:27Z</time>
      </trkpt>
      <trkpt lat="43.21573" lon="5.45558">
        <ele>271.71</ele>
        <time>2019-04-21T13:26:46Z</time>
      </trkpt>
      <trkpt lat="43.21573" lon="5.45556">
        <ele>271.71</ele>
        <time>2019-04-21T13:26:47Z</time>
      </trkpt>
      <trkpt lat="43.21572" lon="5.45551">
        <ele>272.19</ele>
        <time>2019-04-21T13:26:51Z</time>
      </trkpt>
      <trkpt lat="43.21575" lon="5.45531">
        <ele>273.63</ele>
        <time>2019-04-21T13:27:06Z</time>
      </trkpt>
      <trkpt lat="43.21577" lon="5.45516">
        <ele>274.59</ele>
        <time>2019-04-21T13:27:17Z</time>
      </trkpt>
      <trkpt lat="43.21579" lon="5.45508">
        <ele>276.04</ele>
        <time>2019-04-21T13:27:23Z</time>
      </trkpt>
      <trkpt lat="43.21581" lon="5.45506">
        <ele>277</ele>
        <time>2019-04-21T13:27:24Z</time>
      </trkpt>
      <trkpt lat="43.21581" lon="5.45505">
        <ele>276.04</ele>
        <time>2019-04-21T13:27:26Z</time>
      </trkpt>
      <trkpt lat="43.21582" lon="5.45503">
        <ele>276.52</ele>
        <time>2019-04-21T13:27:28Z</time>
      </trkpt>
      <trkpt lat="43.21583" lon="5.45502">
        <ele>277</ele>
        <time>2019-04-21T13:27:29Z</time>
      </trkpt>
      <trkpt lat="43.21583" lon="5.455">
        <ele>277.48</ele>
        <time>2019-04-21T13:27:30Z</time>
      </trkpt>
      <trkpt lat="43.21585" lon="5.45497">
        <ele>277.96</ele>
        <time>2019-04-21T13:27:32Z</time>
      </trkpt>
      <trkpt lat="43.21589" lon="5.45481">
        <ele>280.84</ele>
        <time>2019-04-21T13:27:47Z</time>
      </trkpt>
      <trkpt lat="43.21597" lon="5.45472">
        <ele>282.28</ele>
        <time>2019-04-21T13:28:01Z</time>
      </trkpt>
      <trkpt lat="43.21604" lon="5.45476">
        <ele>282.77</ele>
        <time>2019-04-21T13:28:10Z</time>
      </trkpt>
      <trkpt lat="43.21612" lon="5.45483">
        <ele>285.17</ele>
        <time>2019-04-21T13:28:23Z</time>
      </trkpt>
      <trkpt lat="43.21612" lon="5.45488">
        <ele>285.17</ele>
        <time>2019-04-21T13:28:38Z</time>
      </trkpt>
      <trkpt lat="43.21616" lon="5.4549">
        <ele>287.57</ele>
        <time>2019-04-21T13:28:43Z</time>
      </trkpt>
      <trkpt lat="43.21622" lon="5.45504">
        <ele>287.57</ele>
        <time>2019-04-21T13:28:58Z</time>
      </trkpt>
      <trkpt lat="43.21622" lon="5.45507">
        <ele>287.09</ele>
        <time>2019-04-21T13:29:16Z</time>
      </trkpt>
      <trkpt lat="43.21621" lon="5.45507">
        <ele>287.09</ele>
        <time>2019-04-21T13:29:51Z</time>
      </trkpt>
      <trkpt lat="43.21618" lon="5.45506">
        <ele>287.57</ele>
        <time>2019-04-21T13:30:27Z</time>
      </trkpt>
      <trkpt lat="43.21619" lon="5.45506">
        <ele>287.57</ele>
        <time>2019-04-21T13:30:38Z</time>
      </trkpt>
      <trkpt lat="43.21619" lon="5.45509">
        <ele>288.05</ele>
        <time>2019-04-21T13:30:41Z</time>
      </trkpt>
      <trkpt lat="43.2162" lon="5.4551">
        <ele>288.05</ele>
        <time>2019-04-21T13:30:42Z</time>
      </trkpt>
      <trkpt lat="43.2162" lon="5.45515">
        <ele>288.05</ele>
        <time>2019-04-21T13:30:45Z</time>
      </trkpt>
      <trkpt lat="43.21622" lon="5.4552">
        <ele>288.53</ele>
        <time>2019-04-21T13:30:50Z</time>
      </trkpt>
      <trkpt lat="43.21622" lon="5.45522">
        <ele>288.53</ele>
        <time>2019-04-21T13:30:51Z</time>
      </trkpt>
      <trkpt lat="43.21627" lon="5.45532">
        <ele>289.49</ele>
        <time>2019-04-21T13:31:00Z</time>
      </trkpt>
      <trkpt lat="43.21628" lon="5.45533">
        <ele>288.53</ele>
        <time>2019-04-21T13:31:01Z</time>
      </trkpt>
      <trkpt lat="43.21628" lon="5.45535">
        <ele>289.49</ele>
        <time>2019-04-21T13:31:02Z</time>
      </trkpt>
      <trkpt lat="43.21628" lon="5.45537">
        <ele>289.97</ele>
        <time>2019-04-21T13:31:03Z</time>
      </trkpt>
      <trkpt lat="43.21632" lon="5.4555">
        <ele>291.42</ele>
        <time>2019-04-21T13:31:15Z</time>
      </trkpt>
      <trkpt lat="43.21637" lon="5.45558">
        <ele>292.38</ele>
        <time>2019-04-21T13:31:25Z</time>
      </trkpt>
      <trkpt lat="43.21637" lon="5.4556">
        <ele>292.86</ele>
        <time>2019-04-21T13:31:26Z</time>
      </trkpt>
      <trkpt lat="43.21639" lon="5.45565">
        <ele>292.86</ele>
        <time>2019-04-21T13:31:29Z</time>
      </trkpt>
      <trkpt lat="43.21639" lon="5.45567">
        <ele>293.82</ele>
        <time>2019-04-21T13:31:30Z</time>
      </trkpt>
      <trkpt lat="43.21639" lon="5.45569">
        <ele>293.82</ele>
        <time>2019-04-21T13:31:31Z</time>
      </trkpt>
      <trkpt lat="43.2164" lon="5.4557">
        <ele>293.82</ele>
        <time>2019-04-21T13:31:32Z</time>
      </trkpt>
      <trkpt lat="43.21641" lon="5.45572">
        <ele>294.3</ele>
        <time>2019-04-21T13:31:35Z</time>
      </trkpt>
      <trkpt lat="43.21641" lon="5.45574">
        <ele>294.3</ele>
        <time>2019-04-21T13:31:36Z</time>
      </trkpt>
      <trkpt lat="43.21642" lon="5.45575">
        <ele>294.78</ele>
        <time>2019-04-21T13:31:37Z</time>
      </trkpt>
      <trkpt lat="43.21643" lon="5.45585">
        <ele>296.22</ele>
        <time>2019-04-21T13:31:47Z</time>
      </trkpt>
      <trkpt lat="43.21643" lon="5.45587">
        <ele>296.7</ele>
        <time>2019-04-21T13:31:48Z</time>
      </trkpt>
      <trkpt lat="43.21644" lon="5.45601">
        <ele>298.15</ele>
        <time>2019-04-21T13:31:59Z</time>
      </trkpt>
      <trkpt lat="43.21648" lon="5.45616">
        <ele>298.63</ele>
        <time>2019-04-21T13:32:11Z</time>
      </trkpt>
      <trkpt lat="43.21649" lon="5.45621">
        <ele>298.63</ele>
        <time>2019-04-21T13:32:15Z</time>
      </trkpt>
      <trkpt lat="43.21651" lon="5.45637">
        <ele>300.55</ele>
        <time>2019-04-21T13:32:26Z</time>
      </trkpt>
      <trkpt lat="43.21652" lon="5.45641">
        <ele>301.03</ele>
        <time>2019-04-21T13:32:29Z</time>
      </trkpt>
      <trkpt lat="43.21653" lon="5.45647">
        <ele>301.03</ele>
        <time>2019-04-21T13:32:33Z</time>
      </trkpt>
      <trkpt lat="43.21653" lon="5.45649">
        <ele>301.51</ele>
        <time>2019-04-21T13:32:34Z</time>
      </trkpt>
      <trkpt lat="43.21655" lon="5.45653">
        <ele>302.47</ele>
        <time>2019-04-21T13:32:38Z</time>
      </trkpt>
      <trkpt lat="43.21656" lon="5.45655">
        <ele>302.47</ele>
        <time>2019-04-21T13:32:39Z</time>
      </trkpt>
      <trkpt lat="43.21656" lon="5.45656">
        <ele>301.99</ele>
        <time>2019-04-21T13:32:40Z</time>
      </trkpt>
      <trkpt lat="43.21658" lon="5.4566">
        <ele>302.95</ele>
        <time>2019-04-21T13:32:44Z</time>
      </trkpt>
      <trkpt lat="43.21659" lon="5.45661">
        <ele>302.95</ele>
        <time>2019-04-21T13:32:45Z</time>
      </trkpt>
      <trkpt lat="43.21663" lon="5.45669">
        <ele>304.39</ele>
        <time>2019-04-21T13:32:55Z</time>
      </trkpt>
      <trkpt lat="43.21666" lon="5.45676">
        <ele>304.88</ele>
        <time>2019-04-21T13:33:05Z</time>
      </trkpt>
      <trkpt lat="43.21673" lon="5.45686">
        <ele>306.32</ele>
        <time>2019-04-21T13:33:18Z</time>
      </trkpt>
      <trkpt lat="43.21673" lon="5.45689">
        <ele>306.8</ele>
        <time>2019-04-21T13:33:31Z</time>
      </trkpt>
      <trkpt lat="43.21674" lon="5.4569">
        <ele>306.8</ele>
        <time>2019-04-21T13:33:33Z</time>
      </trkpt>
      <trkpt lat="43.21675" lon="5.45692">
        <ele>306.8</ele>
        <time>2019-04-21T13:33:34Z</time>
      </trkpt>
      <trkpt lat="43.21676" lon="5.45693">
        <ele>306.8</ele>
        <time>2019-04-21T13:33:35Z</time>
      </trkpt>
      <trkpt lat="43.21686" lon="5.45702">
        <ele>308.24</ele>
        <time>2019-04-21T13:33:46Z</time>
      </trkpt>
      <trkpt lat="43.21687" lon="5.45704">
        <ele>309.2</ele>
        <time>2019-04-21T13:33:49Z</time>
      </trkpt>
      <trkpt lat="43.21693" lon="5.45713">
        <ele>310.16</ele>
        <time>2019-04-21T13:33:59Z</time>
      </trkpt>
      <trkpt lat="43.21697" lon="5.45719">
        <ele>310.16</ele>
        <time>2019-04-21T13:34:06Z</time>
      </trkpt>
      <trkpt lat="43.21699" lon="5.4572">
        <ele>310.16</ele>
        <time>2019-04-21T13:34:07Z</time>
      </trkpt>
      <trkpt lat="43.2171" lon="5.4573">
        <ele>311.6</ele>
        <time>2019-04-21T13:34:20Z</time>
      </trkpt>
      <trkpt lat="43.21713" lon="5.45731">
        <ele>314.01</ele>
        <time>2019-04-21T13:34:33Z</time>
      </trkpt>
      <trkpt lat="43.21714" lon="5.45738">
        <ele>316.41</ele>
        <time>2019-04-21T13:34:46Z</time>
      </trkpt>
      <trkpt lat="43.21711" lon="5.45745">
        <ele>316.89</ele>
        <time>2019-04-21T13:34:53Z</time>
      </trkpt>
      <trkpt lat="43.21717" lon="5.45749">
        <ele>318.81</ele>
        <time>2019-04-21T13:35:04Z</time>
      </trkpt>
      <trkpt lat="43.21721" lon="5.45754">
        <ele>319.78</ele>
        <time>2019-04-21T13:35:18Z</time>
      </trkpt>
      <trkpt lat="43.2172" lon="5.45763">
        <ele>322.66</ele>
        <time>2019-04-21T13:35:28Z</time>
      </trkpt>
      <trkpt lat="43.21719" lon="5.4577">
        <ele>325.06</ele>
        <time>2019-04-21T13:35:37Z</time>
      </trkpt>
      <trkpt lat="43.21722" lon="5.45769">
        <ele>325.54</ele>
        <time>2019-04-21T13:35:42Z</time>
      </trkpt>
      <trkpt lat="43.21726" lon="5.4577">
        <ele>326.02</ele>
        <time>2019-04-21T13:35:45Z</time>
      </trkpt>
      <trkpt lat="43.21731" lon="5.45771">
        <ele>328.43</ele>
        <time>2019-04-21T13:35:53Z</time>
      </trkpt>
      <trkpt lat="43.21732" lon="5.45775">
        <ele>330.83</ele>
        <time>2019-04-21T13:36:05Z</time>
      </trkpt>
      <trkpt lat="43.21733" lon="5.45775">
        <ele>331.31</ele>
        <time>2019-04-21T13:36:06Z</time>
      </trkpt>
      <trkpt lat="43.21735" lon="5.45772">
        <ele>332.75</ele>
        <time>2019-04-21T13:36:12Z</time>
      </trkpt>
      <trkpt lat="43.21738" lon="5.45773">
        <ele>334.68</ele>
        <time>2019-04-21T13:36:17Z</time>
      </trkpt>
      <trkpt lat="43.21741" lon="5.45772">
        <ele>335.64</ele>
        <time>2019-04-21T13:36:20Z</time>
      </trkpt>
      <trkpt lat="43.21743" lon="5.45774">
        <ele>336.12</ele>
        <time>2019-04-21T13:36:25Z</time>
      </trkpt>
      <trkpt lat="43.21747" lon="5.45774">
        <ele>338.52</ele>
        <time>2019-04-21T13:36:33Z</time>
      </trkpt>
      <trkpt lat="43.21747" lon="5.45776">
        <ele>340.44</ele>
        <time>2019-04-21T13:36:42Z</time>
      </trkpt>
      <trkpt lat="43.21751" lon="5.45774">
        <ele>340.92</ele>
        <time>2019-04-21T13:36:51Z</time>
      </trkpt>
      <trkpt lat="43.21757" lon="5.45776">
        <ele>342.37</ele>
        <time>2019-04-21T13:37:02Z</time>
      </trkpt>
      <trkpt lat="43.21759" lon="5.45774">
        <ele>344.29</ele>
        <time>2019-04-21T13:37:12Z</time>
      </trkpt>
      <trkpt lat="43.21763" lon="5.45772">
        <ele>346.21</ele>
        <time>2019-04-21T13:37:20Z</time>
      </trkpt>
      <trkpt lat="43.21767" lon="5.45773">
        <ele>348.13</ele>
        <time>2019-04-21T13:37:30Z</time>
      </trkpt>
      <trkpt lat="43.21771" lon="5.45776">
        <ele>350.06</ele>
        <time>2019-04-21T13:37:39Z</time>
      </trkpt>
      <trkpt lat="43.21773" lon="5.45777">
        <ele>350.54</ele>
        <time>2019-04-21T13:37:40Z</time>
      </trkpt>
      <trkpt lat="43.21777" lon="5.45773">
        <ele>353.9</ele>
        <time>2019-04-21T13:37:53Z</time>
      </trkpt>
      <trkpt lat="43.21784" lon="5.45774">
        <ele>357.27</ele>
        <time>2019-04-21T13:38:04Z</time>
      </trkpt>
      <trkpt lat="43.21784" lon="5.45777">
        <ele>358.71</ele>
        <time>2019-04-21T13:38:15Z</time>
      </trkpt>
      <trkpt lat="43.21781" lon="5.45776">
        <ele>359.67</ele>
        <time>2019-04-21T13:38:25Z</time>
      </trkpt>
      <trkpt lat="43.21784" lon="5.45774">
        <ele>361.59</ele>
        <time>2019-04-21T13:38:37Z</time>
      </trkpt>
      <trkpt lat="43.21786" lon="5.45773">
        <ele>363.04</ele>
        <time>2019-04-21T13:38:46Z</time>
      </trkpt>
      <trkpt lat="43.21783" lon="5.45773">
        <ele>364</ele>
        <time>2019-04-21T13:39:00Z</time>
      </trkpt>
      <trkpt lat="43.21785" lon="5.45775">
        <ele>367.36</ele>
        <time>2019-04-21T13:39:12Z</time>
      </trkpt>
      <trkpt lat="43.21786" lon="5.45774">
        <ele>368.8</ele>
        <time>2019-04-21T13:39:16Z</time>
      </trkpt>
      <trkpt lat="43.21788" lon="5.45774">
        <ele>371.69</ele>
        <time>2019-04-21T13:39:24Z</time>
      </trkpt>
      <trkpt lat="43.21789" lon="5.45774">
        <ele>370.73</ele>
        <time>2019-04-21T13:39:39Z</time>
      </trkpt>
      <trkpt lat="43.21792" lon="5.45772">
        <ele>370.24</ele>
        <time>2019-04-21T13:40:00Z</time>
      </trkpt>
      <trkpt lat="43.21796" lon="5.4577">
        <ele>371.69</ele>
        <time>2019-04-21T13:40:07Z</time>
      </trkpt>
      <trkpt lat="43.21798" lon="5.45771">
        <ele>372.65</ele>
        <time>2019-04-21T13:40:09Z</time>
      </trkpt>
      <trkpt lat="43.21799" lon="5.45777">
        <ele>375.05</ele>
        <time>2019-04-21T13:40:20Z</time>
      </trkpt>
      <trkpt lat="43.21803" lon="5.4578">
        <ele>376.97</ele>
        <time>2019-04-21T13:40:31Z</time>
      </trkpt>
      <trkpt lat="43.21806" lon="5.45781">
        <ele>378.42</ele>
        <time>2019-04-21T13:40:42Z</time>
      </trkpt>
      <trkpt lat="43.2181" lon="5.45777">
        <ele>380.34</ele>
        <time>2019-04-21T13:40:53Z</time>
      </trkpt>
      <trkpt lat="43.21814" lon="5.45786">
        <ele>382.26</ele>
        <time>2019-04-21T13:41:07Z</time>
      </trkpt>
      <trkpt lat="43.21815" lon="5.45792">
        <ele>384.18</ele>
        <time>2019-04-21T13:41:17Z</time>
      </trkpt>
      <trkpt lat="43.21809" lon="5.45792">
        <ele>384.18</ele>
        <time>2019-04-21T13:41:43Z</time>
      </trkpt>
      <trkpt lat="43.21811" lon="5.45793">
        <ele>383.7</ele>
        <time>2019-04-21T13:42:00Z</time>
      </trkpt>
      <trkpt lat="43.21811" lon="5.45792">
        <ele>383.7</ele>
        <time>2019-04-21T13:42:16Z</time>
      </trkpt>
      <trkpt lat="43.21812" lon="5.45792">
        <ele>384.66</ele>
        <time>2019-04-21T13:42:24Z</time>
      </trkpt>
      <trkpt lat="43.21813" lon="5.45792">
        <ele>385.15</ele>
        <time>2019-04-21T13:42:25Z</time>
      </trkpt>
      <trkpt lat="43.21814" lon="5.45793">
        <ele>386.11</ele>
        <time>2019-04-21T13:42:27Z</time>
      </trkpt>
      <trkpt lat="43.21816" lon="5.45796">
        <ele>387.07</ele>
        <time>2019-04-21T13:42:36Z</time>
      </trkpt>
      <trkpt lat="43.21817" lon="5.45797">
        <ele>387.55</ele>
        <time>2019-04-21T13:42:38Z</time>
      </trkpt>
      <trkpt lat="43.21819" lon="5.45798">
        <ele>389.47</ele>
        <time>2019-04-21T13:42:50Z</time>
      </trkpt>
      <trkpt lat="43.2182" lon="5.45798">
        <ele>390.43</ele>
        <time>2019-04-21T13:43:03Z</time>
      </trkpt>
      <trkpt lat="43.21822" lon="5.45799">
        <ele>394.28</ele>
        <time>2019-04-21T13:43:18Z</time>
      </trkpt>
      <trkpt lat="43.21822" lon="5.458">
        <ele>394.28</ele>
        <time>2019-04-21T13:43:19Z</time>
      </trkpt>
      <trkpt lat="43.21827" lon="5.45797">
        <ele>396.68</ele>
        <time>2019-04-21T13:43:38Z</time>
      </trkpt>
      <trkpt lat="43.21828" lon="5.45797">
        <ele>396.2</ele>
        <time>2019-04-21T13:43:46Z</time>
      </trkpt>
      <trkpt lat="43.21829" lon="5.45795">
        <ele>397.16</ele>
        <time>2019-04-21T13:43:56Z</time>
      </trkpt>
      <trkpt lat="43.2183" lon="5.45797">
        <ele>395.72</ele>
        <time>2019-04-21T13:43:59Z</time>
      </trkpt>
      <trkpt lat="43.21831" lon="5.45797">
        <ele>396.68</ele>
        <time>2019-04-21T13:44:01Z</time>
      </trkpt>
      <trkpt lat="43.21823" lon="5.45802">
        <ele>394.76</ele>
        <time>2019-04-21T13:44:22Z</time>
      </trkpt>
      <trkpt lat="43.21823" lon="5.45803">
        <ele>393.8</ele>
        <time>2019-04-21T13:44:24Z</time>
      </trkpt>
      <trkpt lat="43.21818" lon="5.45807">
        <ele>390.91</ele>
        <time>2019-04-21T13:44:36Z</time>
      </trkpt>
      <trkpt lat="43.21802" lon="5.45807">
        <ele>392.36</ele>
        <time>2019-04-21T13:44:58Z</time>
      </trkpt>
      <trkpt lat="43.21804" lon="5.45801">
        <ele>392.84</ele>
        <time>2019-04-21T13:45:21Z</time>
      </trkpt>
      <trkpt lat="43.21803" lon="5.45801">
        <ele>392.36</ele>
        <time>2019-04-21T13:45:42Z</time>
      </trkpt>
      <trkpt lat="43.2179" lon="5.45809">
        <ele>391.87</ele>
        <time>2019-04-21T13:46:04Z</time>
      </trkpt>
      <trkpt lat="43.2179" lon="5.45817">
        <ele>392.84</ele>
        <time>2019-04-21T13:46:23Z</time>
      </trkpt>
      <trkpt lat="43.21794" lon="5.45815">
        <ele>391.87</ele>
        <time>2019-04-21T13:46:50Z</time>
      </trkpt>
      <trkpt lat="43.21789" lon="5.45819">
        <ele>392.36</ele>
        <time>2019-04-21T13:47:20Z</time>
      </trkpt>
      <trkpt lat="43.21789" lon="5.45822">
        <ele>391.87</ele>
        <time>2019-04-21T13:47:49Z</time>
      </trkpt>
      <trkpt lat="43.21787" lon="5.45838">
        <ele>388.51</ele>
        <time>2019-04-21T13:48:08Z</time>
      </trkpt>
      <trkpt lat="43.21793" lon="5.45855">
        <ele>385.63</ele>
        <time>2019-04-21T13:48:30Z</time>
      </trkpt>
      <trkpt lat="43.21794" lon="5.45863">
        <ele>382.26</ele>
        <time>2019-04-21T13:48:43Z</time>
      </trkpt>
      <trkpt lat="43.21782" lon="5.45872">
        <ele>381.78</ele>
        <time>2019-04-21T13:49:03Z</time>
      </trkpt>
      <trkpt lat="43.21774" lon="5.45876">
        <ele>380.34</ele>
        <time>2019-04-21T13:49:19Z</time>
      </trkpt>
      <trkpt lat="43.2176" lon="5.45874">
        <ele>379.86</ele>
        <time>2019-04-21T13:49:33Z</time>
      </trkpt>
      <trkpt lat="43.21753" lon="5.45876">
        <ele>378.9</ele>
        <time>2019-04-21T13:49:44Z</time>
      </trkpt>
      <trkpt lat="43.21751" lon="5.45877">
        <ele>377.45</ele>
        <time>2019-04-21T13:49:46Z</time>
      </trkpt>
      <trkpt lat="43.21731" lon="5.45887">
        <ele>374.57</ele>
        <time>2019-04-21T13:50:06Z</time>
      </trkpt>
      <trkpt lat="43.21725" lon="5.45886">
        <ele>375.53</ele>
        <time>2019-04-21T13:50:11Z</time>
      </trkpt>
      <trkpt lat="43.2172" lon="5.45886">
        <ele>373.61</ele>
        <time>2019-04-21T13:50:16Z</time>
      </trkpt>
      <trkpt lat="43.21705" lon="5.45893">
        <ele>373.13</ele>
        <time>2019-04-21T13:50:36Z</time>
      </trkpt>
      <trkpt lat="43.21697" lon="5.45896">
        <ele>374.09</ele>
        <time>2019-04-21T13:50:58Z</time>
      </trkpt>
      <trkpt lat="43.21695" lon="5.45915">
        <ele>373.61</ele>
        <time>2019-04-21T13:51:15Z</time>
      </trkpt>
      <trkpt lat="43.21692" lon="5.4592">
        <ele>372.65</ele>
        <time>2019-04-21T13:51:32Z</time>
      </trkpt>
      <trkpt lat="43.21689" lon="5.45934">
        <ele>372.17</ele>
        <time>2019-04-21T13:51:51Z</time>
      </trkpt>
      <trkpt lat="43.21689" lon="5.45936">
        <ele>372.65</ele>
        <time>2019-04-21T13:51:53Z</time>
      </trkpt>
      <trkpt lat="43.2169" lon="5.4594">
        <ele>371.69</ele>
        <time>2019-04-21T13:51:56Z</time>
      </trkpt>
      <trkpt lat="43.21688" lon="5.45964">
        <ele>368.32</ele>
        <time>2019-04-21T13:52:09Z</time>
      </trkpt>
      <trkpt lat="43.2169" lon="5.45999">
        <ele>365.44</ele>
        <time>2019-04-21T13:52:30Z</time>
      </trkpt>
      <trkpt lat="43.21707" lon="5.46026">
        <ele>364.48</ele>
        <time>2019-04-21T13:52:51Z</time>
      </trkpt>
      <trkpt lat="43.21708" lon="5.46049">
        <ele>364</ele>
        <time>2019-04-21T13:53:12Z</time>
      </trkpt>
      <trkpt lat="43.2171" lon="5.46046">
        <ele>363.52</ele>
        <time>2019-04-21T13:53:27Z</time>
      </trkpt>
      <trkpt lat="43.2171" lon="5.46047">
        <ele>363.52</ele>
        <time>2019-04-21T13:53:48Z</time>
      </trkpt>
      <trkpt lat="43.21707" lon="5.46047">
        <ele>362.55</ele>
        <time>2019-04-21T13:54:05Z</time>
      </trkpt>
      <trkpt lat="43.21705" lon="5.46047">
        <ele>362.55</ele>
        <time>2019-04-21T13:54:21Z</time>
      </trkpt>
      <trkpt lat="43.217" lon="5.46046">
        <ele>361.59</ele>
        <time>2019-04-21T13:54:38Z</time>
      </trkpt>
      <trkpt lat="43.21699" lon="5.46044">
        <ele>361.11</ele>
        <time>2019-04-21T13:54:55Z</time>
      </trkpt>
      <trkpt lat="43.21694" lon="5.46048">
        <ele>362.55</ele>
        <time>2019-04-21T13:55:03Z</time>
      </trkpt>
      <trkpt lat="43.21674" lon="5.46056">
        <ele>360.63</ele>
        <time>2019-04-21T13:55:24Z</time>
      </trkpt>
      <trkpt lat="43.21666" lon="5.46059">
        <ele>361.11</ele>
        <time>2019-04-21T13:55:39Z</time>
      </trkpt>
      <trkpt lat="43.21656" lon="5.46062">
        <ele>360.15</ele>
        <time>2019-04-21T13:55:57Z</time>
      </trkpt>
      <trkpt lat="43.21649" lon="5.46058">
        <ele>361.11</ele>
        <time>2019-04-21T13:56:16Z</time>
      </trkpt>
      <trkpt lat="43.21631" lon="5.46053">
        <ele>364</ele>
        <time>2019-04-21T13:56:36Z</time>
      </trkpt>
      <trkpt lat="43.21624" lon="5.4605">
        <ele>363.04</ele>
        <time>2019-04-21T13:56:44Z</time>
      </trkpt>
      <trkpt lat="43.21602" lon="5.46065">
        <ele>363.04</ele>
        <time>2019-04-21T13:57:07Z</time>
      </trkpt>
      <trkpt lat="43.21592" lon="5.46065">
        <ele>366.88</ele>
        <time>2019-04-21T13:57:17Z</time>
      </trkpt>
      <trkpt lat="43.21584" lon="5.4606">
        <ele>367.36</ele>
        <time>2019-04-21T13:57:36Z</time>
      </trkpt>
      <trkpt lat="43.21575" lon="5.4606">
        <ele>364</ele>
        <time>2019-04-21T13:58:00Z</time>
      </trkpt>
      <trkpt lat="43.21571" lon="5.46059">
        <ele>364</ele>
        <time>2019-04-21T13:58:04Z</time>
      </trkpt>
      <trkpt lat="43.21545" lon="5.46048">
        <ele>361.59</ele>
        <time>2019-04-21T13:58:26Z</time>
      </trkpt>
      <trkpt lat="43.21536" lon="5.46046">
        <ele>363.04</ele>
        <time>2019-04-21T13:58:37Z</time>
      </trkpt>
      <trkpt lat="43.21535" lon="5.46054">
        <ele>361.59</ele>
        <time>2019-04-21T13:58:41Z</time>
      </trkpt>
      <trkpt lat="43.21531" lon="5.46076">
        <ele>359.19</ele>
        <time>2019-04-21T13:58:58Z</time>
      </trkpt>
      <trkpt lat="43.21531" lon="5.46077">
        <ele>359.19</ele>
        <time>2019-04-21T13:58:59Z</time>
      </trkpt>
      <trkpt lat="43.21528" lon="5.46099">
        <ele>357.27</ele>
        <time>2019-04-21T13:59:15Z</time>
      </trkpt>
      <trkpt lat="43.21533" lon="5.46113">
        <ele>356.79</ele>
        <time>2019-04-21T13:59:24Z</time>
      </trkpt>
      <trkpt lat="43.21534" lon="5.46115">
        <ele>356.79</ele>
        <time>2019-04-21T13:59:25Z</time>
      </trkpt>
      <trkpt lat="43.21535" lon="5.46117">
        <ele>356.79</ele>
        <time>2019-04-21T13:59:26Z</time>
      </trkpt>
      <trkpt lat="43.21529" lon="5.46134">
        <ele>355.83</ele>
        <time>2019-04-21T13:59:37Z</time>
      </trkpt>
      <trkpt lat="43.21528" lon="5.46135">
        <ele>356.79</ele>
        <time>2019-04-21T13:59:38Z</time>
      </trkpt>
      <trkpt lat="43.21527" lon="5.46136">
        <ele>356.79</ele>
        <time>2019-04-21T13:59:39Z</time>
      </trkpt>
      <trkpt lat="43.2152" lon="5.46149">
        <ele>357.27</ele>
        <time>2019-04-21T13:59:48Z</time>
      </trkpt>
      <trkpt lat="43.21518" lon="5.46165">
        <ele>357.75</ele>
        <time>2019-04-21T14:00:01Z</time>
      </trkpt>
      <trkpt lat="43.21517" lon="5.46166">
        <ele>357.75</ele>
        <time>2019-04-21T14:00:02Z</time>
      </trkpt>
      <trkpt lat="43.21516" lon="5.46166">
        <ele>357.75</ele>
        <time>2019-04-21T14:00:03Z</time>
      </trkpt>
      <trkpt lat="43.2151" lon="5.46163">
        <ele>358.23</ele>
        <time>2019-04-21T14:00:17Z</time>
      </trkpt>
      <trkpt lat="43.215" lon="5.46173">
        <ele>358.71</ele>
        <time>2019-04-21T14:00:30Z</time>
      </trkpt>
      <trkpt lat="43.21499" lon="5.46175">
        <ele>359.19</ele>
        <time>2019-04-21T14:00:31Z</time>
      </trkpt>
      <trkpt lat="43.21486" lon="5.46182">
        <ele>358.23</ele>
        <time>2019-04-21T14:00:44Z</time>
      </trkpt>
      <trkpt lat="43.21469" lon="5.46183">
        <ele>357.75</ele>
        <time>2019-04-21T14:00:56Z</time>
      </trkpt>
      <trkpt lat="43.21459" lon="5.46189">
        <ele>358.23</ele>
        <time>2019-04-21T14:01:09Z</time>
      </trkpt>
      <trkpt lat="43.21451" lon="5.4619">
        <ele>358.23</ele>
        <time>2019-04-21T14:01:19Z</time>
      </trkpt>
      <trkpt lat="43.21451" lon="5.46191">
        <ele>358.23</ele>
        <time>2019-04-21T14:01:20Z</time>
      </trkpt>
      <trkpt lat="43.21449" lon="5.46192">
        <ele>357.75</ele>
        <time>2019-04-21T14:01:21Z</time>
      </trkpt>
      <trkpt lat="43.21448" lon="5.46194">
        <ele>357.75</ele>
        <time>2019-04-21T14:01:22Z</time>
      </trkpt>
      <trkpt lat="43.21446" lon="5.46196">
        <ele>357.75</ele>
        <time>2019-04-21T14:01:23Z</time>
      </trkpt>
      <trkpt lat="43.21446" lon="5.46198">
        <ele>357.27</ele>
        <time>2019-04-21T14:01:24Z</time>
      </trkpt>
      <trkpt lat="43.21444" lon="5.46201">
        <ele>357.27</ele>
        <time>2019-04-21T14:01:26Z</time>
      </trkpt>
      <trkpt lat="43.21441" lon="5.46222">
        <ele>355.83</ele>
        <time>2019-04-21T14:01:39Z</time>
      </trkpt>
      <trkpt lat="43.21439" lon="5.46236">
        <ele>355.34</ele>
        <time>2019-04-21T14:01:51Z</time>
      </trkpt>
      <trkpt lat="43.2144" lon="5.46253">
        <ele>358.23</ele>
        <time>2019-04-21T14:02:05Z</time>
      </trkpt>
      <trkpt lat="43.21441" lon="5.46265">
        <ele>358.71</ele>
        <time>2019-04-21T14:02:14Z</time>
      </trkpt>
      <trkpt lat="43.21438" lon="5.46267">
        <ele>357.75</ele>
        <time>2019-04-21T14:02:29Z</time>
      </trkpt>
      <trkpt lat="43.21439" lon="5.46268">
        <ele>359.67</ele>
        <time>2019-04-21T14:02:45Z</time>
      </trkpt>
      <trkpt lat="43.2144" lon="5.4627">
        <ele>360.15</ele>
        <time>2019-04-21T14:02:58Z</time>
      </trkpt>
      <trkpt lat="43.21441" lon="5.4628">
        <ele>360.15</ele>
        <time>2019-04-21T14:03:08Z</time>
      </trkpt>
      <trkpt lat="43.21442" lon="5.4629">
        <ele>361.59</ele>
        <time>2019-04-21T14:03:14Z</time>
      </trkpt>
      <trkpt lat="43.21443" lon="5.46292">
        <ele>362.07</ele>
        <time>2019-04-21T14:03:16Z</time>
      </trkpt>
      <trkpt lat="43.21444" lon="5.46297">
        <ele>363.04</ele>
        <time>2019-04-21T14:03:23Z</time>
      </trkpt>
      <trkpt lat="43.21444" lon="5.46299">
        <ele>363.04</ele>
        <time>2019-04-21T14:03:24Z</time>
      </trkpt>
      <trkpt lat="43.21446" lon="5.46305">
        <ele>363.04</ele>
        <time>2019-04-21T14:03:30Z</time>
      </trkpt>
      <trkpt lat="43.21447" lon="5.46306">
        <ele>363.04</ele>
        <time>2019-04-21T14:03:31Z</time>
      </trkpt>
      <trkpt lat="43.2145" lon="5.46313">
        <ele>363.04</ele>
        <time>2019-04-21T14:03:37Z</time>
      </trkpt>
      <trkpt lat="43.21451" lon="5.46314">
        <ele>363.52</ele>
        <time>2019-04-21T14:03:38Z</time>
      </trkpt>
      <trkpt lat="43.21452" lon="5.46316">
        <ele>363.04</ele>
        <time>2019-04-21T14:03:39Z</time>
      </trkpt>
      <trkpt lat="43.21458" lon="5.46324">
        <ele>363.52</ele>
        <time>2019-04-21T14:03:48Z</time>
      </trkpt>
      <trkpt lat="43.21466" lon="5.46328">
        <ele>364.48</ele>
        <time>2019-04-21T14:03:57Z</time>
      </trkpt>
      <trkpt lat="43.21467" lon="5.46328">
        <ele>364.48</ele>
        <time>2019-04-21T14:03:58Z</time>
      </trkpt>
      <trkpt lat="43.2147" lon="5.46332">
        <ele>364.96</ele>
        <time>2019-04-21T14:04:03Z</time>
      </trkpt>
      <trkpt lat="43.21471" lon="5.46334">
        <ele>365.44</ele>
        <time>2019-04-21T14:04:04Z</time>
      </trkpt>
      <trkpt lat="43.2147" lon="5.46339">
        <ele>365.92</ele>
        <time>2019-04-21T14:04:08Z</time>
      </trkpt>
      <trkpt lat="43.21469" lon="5.4634">
        <ele>365.92</ele>
        <time>2019-04-21T14:04:09Z</time>
      </trkpt>
      <trkpt lat="43.21462" lon="5.4635">
        <ele>367.84</ele>
        <time>2019-04-21T14:04:20Z</time>
      </trkpt>
      <trkpt lat="43.21459" lon="5.46356">
        <ele>367.84</ele>
        <time>2019-04-21T14:04:26Z</time>
      </trkpt>
      <trkpt lat="43.21457" lon="5.46359">
        <ele>368.32</ele>
        <time>2019-04-21T14:04:29Z</time>
      </trkpt>
      <trkpt lat="43.21454" lon="5.46369">
        <ele>369.76</ele>
        <time>2019-04-21T14:04:38Z</time>
      </trkpt>
      <trkpt lat="43.21454" lon="5.4637">
        <ele>369.76</ele>
        <time>2019-04-21T14:04:39Z</time>
      </trkpt>
      <trkpt lat="43.2145" lon="5.46383">
        <ele>372.17</ele>
        <time>2019-04-21T14:04:52Z</time>
      </trkpt>
      <trkpt lat="43.21445" lon="5.46395">
        <ele>371.21</ele>
        <time>2019-04-21T14:05:04Z</time>
      </trkpt>
      <trkpt lat="43.21445" lon="5.46397">
        <ele>371.21</ele>
        <time>2019-04-21T14:05:05Z</time>
      </trkpt>
      <trkpt lat="43.21444" lon="5.46403">
        <ele>371.21</ele>
        <time>2019-04-21T14:05:09Z</time>
      </trkpt>
      <trkpt lat="43.21444" lon="5.46404">
        <ele>371.21</ele>
        <time>2019-04-21T14:05:10Z</time>
      </trkpt>
      <trkpt lat="43.21447" lon="5.46419">
        <ele>372.17</ele>
        <time>2019-04-21T14:05:21Z</time>
      </trkpt>
      <trkpt lat="43.21448" lon="5.4642">
        <ele>372.17</ele>
        <time>2019-04-21T14:05:22Z</time>
      </trkpt>
      <trkpt lat="43.21448" lon="5.46422">
        <ele>372.17</ele>
        <time>2019-04-21T14:05:23Z</time>
      </trkpt>
      <trkpt lat="43.21451" lon="5.46427">
        <ele>373.61</ele>
        <time>2019-04-21T14:05:28Z</time>
      </trkpt>
      <trkpt lat="43.21457" lon="5.46431">
        <ele>375.05</ele>
        <time>2019-04-21T14:05:40Z</time>
      </trkpt>
      <trkpt lat="43.21459" lon="5.46433">
        <ele>375.53</ele>
        <time>2019-04-21T14:05:42Z</time>
      </trkpt>
      <trkpt lat="43.21465" lon="5.4644">
        <ele>376.97</ele>
        <time>2019-04-21T14:05:53Z</time>
      </trkpt>
      <trkpt lat="43.21465" lon="5.46449">
        <ele>377.45</ele>
        <time>2019-04-21T14:06:01Z</time>
      </trkpt>
      <trkpt lat="43.21465" lon="5.46451">
        <ele>376.97</ele>
        <time>2019-04-21T14:06:02Z</time>
      </trkpt>
      <trkpt lat="43.21465" lon="5.46462">
        <ele>379.86</ele>
        <time>2019-04-21T14:06:13Z</time>
      </trkpt>
      <trkpt lat="43.21457" lon="5.46465">
        <ele>381.78</ele>
        <time>2019-04-21T14:06:21Z</time>
      </trkpt>
      <trkpt lat="43.21455" lon="5.4647">
        <ele>384.66</ele>
        <time>2019-04-21T14:06:27Z</time>
      </trkpt>
      <trkpt lat="43.21451" lon="5.46475">
        <ele>381.78</ele>
        <time>2019-04-21T14:06:38Z</time>
      </trkpt>
      <trkpt lat="43.21447" lon="5.46476">
        <ele>382.26</ele>
        <time>2019-04-21T14:07:14Z</time>
      </trkpt>
      <trkpt lat="43.2144" lon="5.46474">
        <ele>381.78</ele>
        <time>2019-04-21T14:07:39Z</time>
      </trkpt>
      <trkpt lat="43.21434" lon="5.46477">
        <ele>384.18</ele>
        <time>2019-04-21T14:07:48Z</time>
      </trkpt>
      <trkpt lat="43.21429" lon="5.46484">
        <ele>386.11</ele>
        <time>2019-04-21T14:08:00Z</time>
      </trkpt>
      <trkpt lat="43.2143" lon="5.46487">
        <ele>385.63</ele>
        <time>2019-04-21T14:08:15Z</time>
      </trkpt>
      <trkpt lat="43.21428" lon="5.4649">
        <ele>387.55</ele>
        <time>2019-04-21T14:08:22Z</time>
      </trkpt>
      <trkpt lat="43.21427" lon="5.46497">
        <ele>390.91</ele>
        <time>2019-04-21T14:08:31Z</time>
      </trkpt>
      <trkpt lat="43.21425" lon="5.46501">
        <ele>393.32</ele>
        <time>2019-04-21T14:08:45Z</time>
      </trkpt>
      <trkpt lat="43.21422" lon="5.4651">
        <ele>395.24</ele>
        <time>2019-04-21T14:08:57Z</time>
      </trkpt>
      <trkpt lat="43.2142" lon="5.46513">
        <ele>398.12</ele>
        <time>2019-04-21T14:09:06Z</time>
      </trkpt>
      <trkpt lat="43.21416" lon="5.46514">
        <ele>399.08</ele>
        <time>2019-04-21T14:09:18Z</time>
      </trkpt>
      <trkpt lat="43.21412" lon="5.46514">
        <ele>400.53</ele>
        <time>2019-04-21T14:09:22Z</time>
      </trkpt>
      <trkpt lat="43.21405" lon="5.46512">
        <ele>399.57</ele>
        <time>2019-04-21T14:09:29Z</time>
      </trkpt>
      <trkpt lat="43.21396" lon="5.46513">
        <ele>401.01</ele>
        <time>2019-04-21T14:09:41Z</time>
      </trkpt>
      <trkpt lat="43.21393" lon="5.46516">
        <ele>402.93</ele>
        <time>2019-04-21T14:09:47Z</time>
      </trkpt>
      <trkpt lat="43.21383" lon="5.46517">
        <ele>406.29</ele>
        <time>2019-04-21T14:09:59Z</time>
      </trkpt>
      <trkpt lat="43.21382" lon="5.46517">
        <ele>406.29</ele>
        <time>2019-04-21T14:10:00Z</time>
      </trkpt>
      <trkpt lat="43.21381" lon="5.4652">
        <ele>403.41</ele>
        <time>2019-04-21T14:10:15Z</time>
      </trkpt>
      <trkpt lat="43.21379" lon="5.46514">
        <ele>404.85</ele>
        <time>2019-04-21T14:10:36Z</time>
      </trkpt>
      <trkpt lat="43.21374" lon="5.46518">
        <ele>407.26</ele>
        <time>2019-04-21T14:10:50Z</time>
      </trkpt>
      <trkpt lat="43.21375" lon="5.46528">
        <ele>410.14</ele>
        <time>2019-04-21T14:11:05Z</time>
      </trkpt>
      <trkpt lat="43.21374" lon="5.4653">
        <ele>411.58</ele>
        <time>2019-04-21T14:11:07Z</time>
      </trkpt>
      <trkpt lat="43.21372" lon="5.46532">
        <ele>413.02</ele>
        <time>2019-04-21T14:11:19Z</time>
      </trkpt>
      <trkpt lat="43.21366" lon="5.46527">
        <ele>413.98</ele>
        <time>2019-04-21T14:11:31Z</time>
      </trkpt>
      <trkpt lat="43.21358" lon="5.46524">
        <ele>417.83</ele>
        <time>2019-04-21T14:11:45Z</time>
      </trkpt>
      <trkpt lat="43.21356" lon="5.46523">
        <ele>417.35</ele>
        <time>2019-04-21T14:11:50Z</time>
      </trkpt>
      <trkpt lat="43.21354" lon="5.46522">
        <ele>418.79</ele>
        <time>2019-04-21T14:11:53Z</time>
      </trkpt>
      <trkpt lat="43.21353" lon="5.46522">
        <ele>415.43</ele>
        <time>2019-04-21T14:12:00Z</time>
      </trkpt>
      <trkpt lat="43.21353" lon="5.46522">
        <ele>415.43</ele>
        <time>2019-04-21T14:12:01Z</time>
      </trkpt>
      <trkpt lat="43.21353" lon="5.46523">
        <ele>417.83</ele>
        <time>2019-04-21T14:12:11Z</time>
      </trkpt>
      <trkpt lat="43.21355" lon="5.46524">
        <ele>419.75</ele>
        <time>2019-04-21T14:12:29Z</time>
      </trkpt>
      <trkpt lat="43.21355" lon="5.46524">
        <ele>416.87</ele>
        <time>2019-04-21T14:12:32Z</time>
      </trkpt>
      <trkpt lat="43.21354" lon="5.46516">
        <ele>413.98</ele>
        <time>2019-04-21T14:12:44Z</time>
      </trkpt>
      <trkpt lat="43.21356" lon="5.46516">
        <ele>418.79</ele>
        <time>2019-04-21T14:12:50Z</time>
      </trkpt>
      <trkpt lat="43.21356" lon="5.46518">
        <ele>418.79</ele>
        <time>2019-04-21T14:12:51Z</time>
      </trkpt>
      <trkpt lat="43.21354" lon="5.46521">
        <ele>415.91</ele>
        <time>2019-04-21T14:12:55Z</time>
      </trkpt>
      <trkpt lat="43.21354" lon="5.46521">
        <ele>415.43</ele>
        <time>2019-04-21T14:12:56Z</time>
      </trkpt>
      <trkpt lat="43.21354" lon="5.46523">
        <ele>421.19</ele>
        <time>2019-04-21T14:13:02Z</time>
      </trkpt>
      <trkpt lat="43.21353" lon="5.46523">
        <ele>417.35</ele>
        <time>2019-04-21T14:13:09Z</time>
      </trkpt>
      <trkpt lat="43.21353" lon="5.46522">
        <ele>417.35</ele>
        <time>2019-04-21T14:13:10Z</time>
      </trkpt>
      <trkpt lat="43.21355" lon="5.46524">
        <ele>417.35</ele>
        <time>2019-04-21T14:13:22Z</time>
      </trkpt>
      <trkpt lat="43.21352" lon="5.46529">
        <ele>415.91</ele>
        <time>2019-04-21T14:13:33Z</time>
      </trkpt>
      <trkpt lat="43.21351" lon="5.46531">
        <ele>415.43</ele>
        <time>2019-04-21T14:13:37Z</time>
      </trkpt>
      <trkpt lat="43.21349" lon="5.46534">
        <ele>416.39</ele>
        <time>2019-04-21T14:13:41Z</time>
      </trkpt>
      <trkpt lat="43.21349" lon="5.46536">
        <ele>417.83</ele>
        <time>2019-04-21T14:13:44Z</time>
      </trkpt>
      <trkpt lat="43.21347" lon="5.46541">
        <ele>417.35</ele>
        <time>2019-04-21T14:13:51Z</time>
      </trkpt>
      <trkpt lat="43.21347" lon="5.46542">
        <ele>416.87</ele>
        <time>2019-04-21T14:13:52Z</time>
      </trkpt>
      <trkpt lat="43.21344" lon="5.46552">
        <ele>420.23</ele>
        <time>2019-04-21T14:14:05Z</time>
      </trkpt>
      <trkpt lat="43.21342" lon="5.46556">
        <ele>418.31</ele>
        <time>2019-04-21T14:14:10Z</time>
      </trkpt>
      <trkpt lat="43.2134" lon="5.46561">
        <ele>421.68</ele>
        <time>2019-04-21T14:14:18Z</time>
      </trkpt>
      <trkpt lat="43.21339" lon="5.46563">
        <ele>423.6</ele>
        <time>2019-04-21T14:14:21Z</time>
      </trkpt>
      <trkpt lat="43.21337" lon="5.46567">
        <ele>424.56</ele>
        <time>2019-04-21T14:14:32Z</time>
      </trkpt>
      <trkpt lat="43.21331" lon="5.46573">
        <ele>423.12</ele>
        <time>2019-04-21T14:14:48Z</time>
      </trkpt>
      <trkpt lat="43.21328" lon="5.46575">
        <ele>423.12</ele>
        <time>2019-04-21T14:14:51Z</time>
      </trkpt>
      <trkpt lat="43.2131" lon="5.46583">
        <ele>423.12</ele>
        <time>2019-04-21T14:15:05Z</time>
      </trkpt>
      <trkpt lat="43.21303" lon="5.46583">
        <ele>425.04</ele>
        <time>2019-04-21T14:15:12Z</time>
      </trkpt>
      <trkpt lat="43.21302" lon="5.46584">
        <ele>424.08</ele>
        <time>2019-04-21T14:15:16Z</time>
      </trkpt>
      <trkpt lat="43.21302" lon="5.46586">
        <ele>425.04</ele>
        <time>2019-04-21T14:15:18Z</time>
      </trkpt>
      <trkpt lat="43.21302" lon="5.46589">
        <ele>426</ele>
        <time>2019-04-21T14:15:23Z</time>
      </trkpt>
      <trkpt lat="43.21301" lon="5.46591">
        <ele>426.96</ele>
        <time>2019-04-21T14:15:24Z</time>
      </trkpt>
      <trkpt lat="43.21301" lon="5.46593">
        <ele>427.92</ele>
        <time>2019-04-21T14:15:36Z</time>
      </trkpt>
      <trkpt lat="43.21303" lon="5.46592">
        <ele>428.4</ele>
        <time>2019-04-21T14:15:50Z</time>
      </trkpt>
      <trkpt lat="43.21301" lon="5.46593">
        <ele>428.4</ele>
        <time>2019-04-21T14:16:12Z</time>
      </trkpt>
      <trkpt lat="43.21301" lon="5.46589">
        <ele>426.96</ele>
        <time>2019-04-21T14:16:43Z</time>
      </trkpt>
      <trkpt lat="43.213" lon="5.46589">
        <ele>428.89</ele>
        <time>2019-04-21T14:16:46Z</time>
      </trkpt>
      <trkpt lat="43.213" lon="5.46589">
        <ele>429.37</ele>
        <time>2019-04-21T14:17:02Z</time>
      </trkpt>
      <trkpt lat="43.21303" lon="5.46592">
        <ele>427.92</ele>
        <time>2019-04-21T14:17:11Z</time>
      </trkpt>
      <trkpt lat="43.21302" lon="5.46591">
        <ele>428.89</ele>
        <time>2019-04-21T14:17:27Z</time>
      </trkpt>
      <trkpt lat="43.21301" lon="5.46591">
        <ele>429.85</ele>
        <time>2019-04-21T14:17:40Z</time>
      </trkpt>
      <trkpt lat="43.21303" lon="5.46598">
        <ele>430.81</ele>
        <time>2019-04-21T14:18:04Z</time>
      </trkpt>
      <trkpt lat="43.21302" lon="5.466">
        <ele>432.25</ele>
        <time>2019-04-21T14:18:06Z</time>
      </trkpt>
      <trkpt lat="43.21302" lon="5.46602">
        <ele>433.69</ele>
        <time>2019-04-21T14:18:07Z</time>
      </trkpt>
      <trkpt lat="43.213" lon="5.46603">
        <ele>436.58</ele>
        <time>2019-04-21T14:18:09Z</time>
      </trkpt>
      <trkpt lat="43.21301" lon="5.46603">
        <ele>435.61</ele>
        <time>2019-04-21T14:18:10Z</time>
      </trkpt>
      <trkpt lat="43.213" lon="5.46604">
        <ele>431.29</ele>
        <time>2019-04-21T14:18:14Z</time>
      </trkpt>
      <trkpt lat="43.213" lon="5.46604">
        <ele>432.25</ele>
        <time>2019-04-21T14:18:15Z</time>
      </trkpt>
      <trkpt lat="43.213" lon="5.46604">
        <ele>435.13</ele>
        <time>2019-04-21T14:18:17Z</time>
      </trkpt>
      <trkpt lat="43.21299" lon="5.46605">
        <ele>432.25</ele>
        <time>2019-04-21T14:18:20Z</time>
      </trkpt>
      <trkpt lat="43.21298" lon="5.46606">
        <ele>433.69</ele>
        <time>2019-04-21T14:18:22Z</time>
      </trkpt>
      <trkpt lat="43.21297" lon="5.46608">
        <ele>430.81</ele>
        <time>2019-04-21T14:18:25Z</time>
      </trkpt>
      <trkpt lat="43.21298" lon="5.46608">
        <ele>430.33</ele>
        <time>2019-04-21T14:18:32Z</time>
      </trkpt>
      <trkpt lat="43.21295" lon="5.46604">
        <ele>429.37</ele>
        <time>2019-04-21T14:18:38Z</time>
      </trkpt>
      <trkpt lat="43.21295" lon="5.46603">
        <ele>431.77</ele>
        <time>2019-04-21T14:18:43Z</time>
      </trkpt>
      <trkpt lat="43.21295" lon="5.46603">
        <ele>435.13</ele>
        <time>2019-04-21T14:18:45Z</time>
      </trkpt>
      <trkpt lat="43.21297" lon="5.46603">
        <ele>434.65</ele>
        <time>2019-04-21T14:18:51Z</time>
      </trkpt>
      <trkpt lat="43.21298" lon="5.46604">
        <ele>431.29</ele>
        <time>2019-04-21T14:18:53Z</time>
      </trkpt>
      <trkpt lat="43.21299" lon="5.46605">
        <ele>431.29</ele>
        <time>2019-04-21T14:18:54Z</time>
      </trkpt>
      <trkpt lat="43.213" lon="5.46606">
        <ele>430.33</ele>
        <time>2019-04-21T14:19:06Z</time>
      </trkpt>
      <trkpt lat="43.213" lon="5.46602">
        <ele>428.4</ele>
        <time>2019-04-21T14:19:17Z</time>
      </trkpt>
      <trkpt lat="43.21297" lon="5.46605">
        <ele>433.21</ele>
        <time>2019-04-21T14:19:23Z</time>
      </trkpt>
      <trkpt lat="43.21297" lon="5.466">
        <ele>434.17</ele>
        <time>2019-04-21T14:19:40Z</time>
      </trkpt>
      <trkpt lat="43.21296" lon="5.46597">
        <ele>432.25</ele>
        <time>2019-04-21T14:19:53Z</time>
      </trkpt>
      <trkpt lat="43.21302" lon="5.46603">
        <ele>431.29</ele>
        <time>2019-04-21T14:20:08Z</time>
      </trkpt>
      <trkpt lat="43.21311" lon="5.46609">
        <ele>431.77</ele>
        <time>2019-04-21T14:20:16Z</time>
      </trkpt>
      <trkpt lat="43.21317" lon="5.46608">
        <ele>434.17</ele>
        <time>2019-04-21T14:20:26Z</time>
      </trkpt>
      <trkpt lat="43.21319" lon="5.46607">
        <ele>432.25</ele>
        <time>2019-04-21T14:20:29Z</time>
      </trkpt>
      <trkpt lat="43.21321" lon="5.46607">
        <ele>431.77</ele>
        <time>2019-04-21T14:20:33Z</time>
      </trkpt>
      <trkpt lat="43.21322" lon="5.46606">
        <ele>432.73</ele>
        <time>2019-04-21T14:20:35Z</time>
      </trkpt>
      <trkpt lat="43.21323" lon="5.46605">
        <ele>432.25</ele>
        <time>2019-04-21T14:20:36Z</time>
      </trkpt>
      <trkpt lat="43.21328" lon="5.46604">
        <ele>433.69</ele>
        <time>2019-04-21T14:20:40Z</time>
      </trkpt>
      <trkpt lat="43.21336" lon="5.46602">
        <ele>434.65</ele>
        <time>2019-04-21T14:20:51Z</time>
      </trkpt>
      <trkpt lat="43.21337" lon="5.46602">
        <ele>435.13</ele>
        <time>2019-04-21T14:20:52Z</time>
      </trkpt>
      <trkpt lat="43.21344" lon="5.46606">
        <ele>435.13</ele>
        <time>2019-04-21T14:21:01Z</time>
      </trkpt>
      <trkpt lat="43.21346" lon="5.46608">
        <ele>436.58</ele>
        <time>2019-04-21T14:21:03Z</time>
      </trkpt>
      <trkpt lat="43.2135" lon="5.46612">
        <ele>435.61</ele>
        <time>2019-04-21T14:21:09Z</time>
      </trkpt>
      <trkpt lat="43.21351" lon="5.46614">
        <ele>435.13</ele>
        <time>2019-04-21T14:21:10Z</time>
      </trkpt>
      <trkpt lat="43.21352" lon="5.46616">
        <ele>435.13</ele>
        <time>2019-04-21T14:21:12Z</time>
      </trkpt>
      <trkpt lat="43.21358" lon="5.46618">
        <ele>437.06</ele>
        <time>2019-04-21T14:21:18Z</time>
      </trkpt>
      <trkpt lat="43.21366" lon="5.46617">
        <ele>439.94</ele>
        <time>2019-04-21T14:21:25Z</time>
      </trkpt>
      <trkpt lat="43.21369" lon="5.46619">
        <ele>436.58</ele>
        <time>2019-04-21T14:21:28Z</time>
      </trkpt>
      <trkpt lat="43.21373" lon="5.46618">
        <ele>435.61</ele>
        <time>2019-04-21T14:21:32Z</time>
      </trkpt>
      <trkpt lat="43.21375" lon="5.46617">
        <ele>436.1</ele>
        <time>2019-04-21T14:21:33Z</time>
      </trkpt>
      <trkpt lat="43.21376" lon="5.46616">
        <ele>436.58</ele>
        <time>2019-04-21T14:21:34Z</time>
      </trkpt>
      <trkpt lat="43.21377" lon="5.46616">
        <ele>436.58</ele>
        <time>2019-04-21T14:21:35Z</time>
      </trkpt>
      <trkpt lat="43.21382" lon="5.46615">
        <ele>438.02</ele>
        <time>2019-04-21T14:21:41Z</time>
      </trkpt>
      <trkpt lat="43.21386" lon="5.46613">
        <ele>438.98</ele>
        <time>2019-04-21T14:21:46Z</time>
      </trkpt>
      <trkpt lat="43.21397" lon="5.46608">
        <ele>438.02</ele>
        <time>2019-04-21T14:21:58Z</time>
      </trkpt>
      <trkpt lat="43.21403" lon="5.46607">
        <ele>437.54</ele>
        <time>2019-04-21T14:22:06Z</time>
      </trkpt>
      <trkpt lat="43.21404" lon="5.46607">
        <ele>437.54</ele>
        <time>2019-04-21T14:22:07Z</time>
      </trkpt>
      <trkpt lat="43.21408" lon="5.46607">
        <ele>438.02</ele>
        <time>2019-04-21T14:22:10Z</time>
      </trkpt>
      <trkpt lat="43.21411" lon="5.46607">
        <ele>435.13</ele>
        <time>2019-04-21T14:22:14Z</time>
      </trkpt>
      <trkpt lat="43.21413" lon="5.46607">
        <ele>435.13</ele>
        <time>2019-04-21T14:22:17Z</time>
      </trkpt>
      <trkpt lat="43.21415" lon="5.46607">
        <ele>438.98</ele>
        <time>2019-04-21T14:22:20Z</time>
      </trkpt>
      <trkpt lat="43.21416" lon="5.46607">
        <ele>438.02</ele>
        <time>2019-04-21T14:22:21Z</time>
      </trkpt>
      <trkpt lat="43.21416" lon="5.4661">
        <ele>438.5</ele>
        <time>2019-04-21T14:22:41Z</time>
      </trkpt>
      <trkpt lat="43.21416" lon="5.46612">
        <ele>435.61</ele>
        <time>2019-04-21T14:22:51Z</time>
      </trkpt>
      <trkpt lat="43.21416" lon="5.46612">
        <ele>436.58</ele>
        <time>2019-04-21T14:22:53Z</time>
      </trkpt>
      <trkpt lat="43.21416" lon="5.46611">
        <ele>437.54</ele>
        <time>2019-04-21T14:23:02Z</time>
      </trkpt>
      <trkpt lat="43.21417" lon="5.4661">
        <ele>440.42</ele>
        <time>2019-04-21T14:23:05Z</time>
      </trkpt>
      <trkpt lat="43.21417" lon="5.4661">
        <ele>435.61</ele>
        <time>2019-04-21T14:23:12Z</time>
      </trkpt>
      <trkpt lat="43.21421" lon="5.46609">
        <ele>436.58</ele>
        <time>2019-04-21T14:23:23Z</time>
      </trkpt>
      <trkpt lat="43.21422" lon="5.46608">
        <ele>437.54</ele>
        <time>2019-04-21T14:23:24Z</time>
      </trkpt>
      <trkpt lat="43.21424" lon="5.46607">
        <ele>438.98</ele>
        <time>2019-04-21T14:23:26Z</time>
      </trkpt>
      <trkpt lat="43.21427" lon="5.46608">
        <ele>437.06</ele>
        <time>2019-04-21T14:23:35Z</time>
      </trkpt>
      <trkpt lat="43.21429" lon="5.46608">
        <ele>437.06</ele>
        <time>2019-04-21T14:23:37Z</time>
      </trkpt>
      <trkpt lat="43.21434" lon="5.46607">
        <ele>437.06</ele>
        <time>2019-04-21T14:23:43Z</time>
      </trkpt>
      <trkpt lat="43.21436" lon="5.46606">
        <ele>437.06</ele>
        <time>2019-04-21T14:23:45Z</time>
      </trkpt>
      <trkpt lat="43.21438" lon="5.46605">
        <ele>436.58</ele>
        <time>2019-04-21T14:23:46Z</time>
      </trkpt>
      <trkpt lat="43.2144" lon="5.46605">
        <ele>438.02</ele>
        <time>2019-04-21T14:23:50Z</time>
      </trkpt>
      <trkpt lat="43.21442" lon="5.46604">
        <ele>439.94</ele>
        <time>2019-04-21T14:23:54Z</time>
      </trkpt>
      <trkpt lat="43.21447" lon="5.46602">
        <ele>442.82</ele>
        <time>2019-04-21T14:23:59Z</time>
      </trkpt>
      <trkpt lat="43.21448" lon="5.46602">
        <ele>442.82</ele>
        <time>2019-04-21T14:24:00Z</time>
      </trkpt>
      <trkpt lat="43.2145" lon="5.46603">
        <ele>442.34</ele>
        <time>2019-04-21T14:24:01Z</time>
      </trkpt>
      <trkpt lat="43.21452" lon="5.46603">
        <ele>442.82</ele>
        <time>2019-04-21T14:24:02Z</time>
      </trkpt>
      <trkpt lat="43.21459" lon="5.46599">
        <ele>444.75</ele>
        <time>2019-04-21T14:24:11Z</time>
      </trkpt>
      <trkpt lat="43.2146" lon="5.46598">
        <ele>445.23</ele>
        <time>2019-04-21T14:24:12Z</time>
      </trkpt>
      <trkpt lat="43.21461" lon="5.46596">
        <ele>448.11</ele>
        <time>2019-04-21T14:24:16Z</time>
      </trkpt>
      <trkpt lat="43.21462" lon="5.46595">
        <ele>447.15</ele>
        <time>2019-04-21T14:24:17Z</time>
      </trkpt>
      <trkpt lat="43.21463" lon="5.46594">
        <ele>447.63</ele>
        <time>2019-04-21T14:24:18Z</time>
      </trkpt>
      <trkpt lat="43.21465" lon="5.46594">
        <ele>446.19</ele>
        <time>2019-04-21T14:24:21Z</time>
      </trkpt>
      <trkpt lat="43.21468" lon="5.46595">
        <ele>446.19</ele>
        <time>2019-04-21T14:24:28Z</time>
      </trkpt>
      <trkpt lat="43.21469" lon="5.46596">
        <ele>446.67</ele>
        <time>2019-04-21T14:24:29Z</time>
      </trkpt>
      <trkpt lat="43.21471" lon="5.46598">
        <ele>446.67</ele>
        <time>2019-04-21T14:24:30Z</time>
      </trkpt>
      <trkpt lat="43.21472" lon="5.46599">
        <ele>446.67</ele>
        <time>2019-04-21T14:24:31Z</time>
      </trkpt>
      <trkpt lat="43.21476" lon="5.46603">
        <ele>446.19</ele>
        <time>2019-04-21T14:24:41Z</time>
      </trkpt>
      <trkpt lat="43.21476" lon="5.46602">
        <ele>449.07</ele>
        <time>2019-04-21T14:24:44Z</time>
      </trkpt>
      <trkpt lat="43.21477" lon="5.46601">
        <ele>449.55</ele>
        <time>2019-04-21T14:24:45Z</time>
      </trkpt>
      <trkpt lat="43.2148" lon="5.46599">
        <ele>444.75</ele>
        <time>2019-04-21T14:24:49Z</time>
      </trkpt>
      <trkpt lat="43.21482" lon="5.46599">
        <ele>443.79</ele>
        <time>2019-04-21T14:24:51Z</time>
      </trkpt>
      <trkpt lat="43.21483" lon="5.46601">
        <ele>444.27</ele>
        <time>2019-04-21T14:24:53Z</time>
      </trkpt>
      <trkpt lat="43.21485" lon="5.46601">
        <ele>442.82</ele>
        <time>2019-04-21T14:24:54Z</time>
      </trkpt>
      <trkpt lat="43.2149" lon="5.46603">
        <ele>441.86</ele>
        <time>2019-04-21T14:25:03Z</time>
      </trkpt>
      <trkpt lat="43.21492" lon="5.466">
        <ele>441.38</ele>
        <time>2019-04-21T14:25:08Z</time>
      </trkpt>
      <trkpt lat="43.21495" lon="5.46596">
        <ele>442.34</ele>
        <time>2019-04-21T14:25:12Z</time>
      </trkpt>
      <trkpt lat="43.215" lon="5.46589">
        <ele>446.19</ele>
        <time>2019-04-21T14:25:21Z</time>
      </trkpt>
      <trkpt lat="43.21503" lon="5.46587">
        <ele>447.63</ele>
        <time>2019-04-21T14:25:24Z</time>
      </trkpt>
      <trkpt lat="43.21512" lon="5.46582">
        <ele>450.03</ele>
        <time>2019-04-21T14:25:41Z</time>
      </trkpt>
      <trkpt lat="43.21515" lon="5.46583">
        <ele>448.59</ele>
        <time>2019-04-21T14:25:43Z</time>
      </trkpt>
      <trkpt lat="43.21522" lon="5.46584">
        <ele>450.52</ele>
        <time>2019-04-21T14:25:52Z</time>
      </trkpt>
      <trkpt lat="43.21523" lon="5.46585">
        <ele>449.55</ele>
        <time>2019-04-21T14:25:53Z</time>
      </trkpt>
      <trkpt lat="43.21527" lon="5.46586">
        <ele>452.92</ele>
        <time>2019-04-21T14:25:56Z</time>
      </trkpt>
      <trkpt lat="43.21532" lon="5.46582">
        <ele>455.8</ele>
        <time>2019-04-21T14:26:05Z</time>
      </trkpt>
      <trkpt lat="43.21535" lon="5.46582">
        <ele>455.32</ele>
        <time>2019-04-21T14:26:09Z</time>
      </trkpt>
      <trkpt lat="43.21539" lon="5.46579">
        <ele>455.8</ele>
        <time>2019-04-21T14:26:16Z</time>
      </trkpt>
      <trkpt lat="43.2154" lon="5.46578">
        <ele>458.69</ele>
        <time>2019-04-21T14:26:17Z</time>
      </trkpt>
      <trkpt lat="43.21541" lon="5.46577">
        <ele>460.61</ele>
        <time>2019-04-21T14:26:18Z</time>
      </trkpt>
      <trkpt lat="43.21543" lon="5.46577">
        <ele>460.61</ele>
        <time>2019-04-21T14:26:19Z</time>
      </trkpt>
      <trkpt lat="43.21545" lon="5.46576">
        <ele>463.01</ele>
        <time>2019-04-21T14:26:24Z</time>
      </trkpt>
      <trkpt lat="43.2155" lon="5.46578">
        <ele>459.17</ele>
        <time>2019-04-21T14:26:31Z</time>
      </trkpt>
      <trkpt lat="43.21551" lon="5.46578">
        <ele>459.65</ele>
        <time>2019-04-21T14:26:38Z</time>
      </trkpt>
      <trkpt lat="43.21552" lon="5.46579">
        <ele>459.65</ele>
        <time>2019-04-21T14:26:39Z</time>
      </trkpt>
      <trkpt lat="43.21553" lon="5.46579">
        <ele>459.17</ele>
        <time>2019-04-21T14:26:41Z</time>
      </trkpt>
      <trkpt lat="43.21559" lon="5.4658">
        <ele>460.61</ele>
        <time>2019-04-21T14:26:51Z</time>
      </trkpt>
      <trkpt lat="43.21561" lon="5.46581">
        <ele>461.09</ele>
        <time>2019-04-21T14:26:53Z</time>
      </trkpt>
      <trkpt lat="43.21567" lon="5.46583">
        <ele>462.05</ele>
        <time>2019-04-21T14:27:03Z</time>
      </trkpt>
      <trkpt lat="43.21568" lon="5.46584">
        <ele>462.05</ele>
        <time>2019-04-21T14:27:04Z</time>
      </trkpt>
      <trkpt lat="43.2157" lon="5.46587">
        <ele>463.97</ele>
        <time>2019-04-21T14:27:10Z</time>
      </trkpt>
      <trkpt lat="43.21572" lon="5.46589">
        <ele>467.34</ele>
        <time>2019-04-21T14:27:19Z</time>
      </trkpt>
      <trkpt lat="43.21577" lon="5.4659">
        <ele>467.82</ele>
        <time>2019-04-21T14:27:29Z</time>
      </trkpt>
      <trkpt lat="43.21578" lon="5.46589">
        <ele>468.3</ele>
        <time>2019-04-21T14:27:30Z</time>
      </trkpt>
      <trkpt lat="43.2158" lon="5.46589">
        <ele>469.26</ele>
        <time>2019-04-21T14:27:34Z</time>
      </trkpt>
      <trkpt lat="43.21582" lon="5.46589">
        <ele>469.74</ele>
        <time>2019-04-21T14:27:35Z</time>
      </trkpt>
      <trkpt lat="43.21583" lon="5.4659">
        <ele>467.82</ele>
        <time>2019-04-21T14:27:38Z</time>
      </trkpt>
      <trkpt lat="43.21585" lon="5.4659">
        <ele>469.74</ele>
        <time>2019-04-21T14:27:42Z</time>
      </trkpt>
      <trkpt lat="43.21586" lon="5.46588">
        <ele>471.18</ele>
        <time>2019-04-21T14:27:47Z</time>
      </trkpt>
      <trkpt lat="43.21587" lon="5.46588">
        <ele>471.66</ele>
        <time>2019-04-21T14:27:48Z</time>
      </trkpt>
      <trkpt lat="43.2159" lon="5.4659">
        <ele>472.63</ele>
        <time>2019-04-21T14:27:53Z</time>
      </trkpt>
      <trkpt lat="43.21592" lon="5.46591">
        <ele>473.11</ele>
        <time>2019-04-21T14:27:54Z</time>
      </trkpt>
      <trkpt lat="43.21593" lon="5.46592">
        <ele>474.55</ele>
        <time>2019-04-21T14:27:57Z</time>
      </trkpt>
      <trkpt lat="43.21598" lon="5.46592">
        <ele>473.59</ele>
        <time>2019-04-21T14:28:06Z</time>
      </trkpt>
      <trkpt lat="43.216" lon="5.46591">
        <ele>474.55</ele>
        <time>2019-04-21T14:28:15Z</time>
      </trkpt>
      <trkpt lat="43.21601" lon="5.46591">
        <ele>474.55</ele>
        <time>2019-04-21T14:28:34Z</time>
      </trkpt>
      <trkpt lat="43.21604" lon="5.46594">
        <ele>474.55</ele>
        <time>2019-04-21T14:29:00Z</time>
      </trkpt>
      <trkpt lat="43.21604" lon="5.46594">
        <ele>475.99</ele>
        <time>2019-04-21T14:29:17Z</time>
      </trkpt>
      <trkpt lat="43.21604" lon="5.46594">
        <ele>474.55</ele>
        <time>2019-04-21T14:29:19Z</time>
      </trkpt>
      <trkpt lat="43.21604" lon="5.46595">
        <ele>475.99</ele>
        <time>2019-04-21T14:29:22Z</time>
      </trkpt>
      <trkpt lat="43.21604" lon="5.46592">
        <ele>475.51</ele>
        <time>2019-04-21T14:29:48Z</time>
      </trkpt>
      <trkpt lat="43.21604" lon="5.46594">
        <ele>475.51</ele>
        <time>2019-04-21T14:29:58Z</time>
      </trkpt>
      <trkpt lat="43.21607" lon="5.46591">
        <ele>475.03</ele>
        <time>2019-04-21T14:30:13Z</time>
      </trkpt>
      <trkpt lat="43.21608" lon="5.46588">
        <ele>475.03</ele>
        <time>2019-04-21T14:30:18Z</time>
      </trkpt>
      <trkpt lat="43.2161" lon="5.46587">
        <ele>475.51</ele>
        <time>2019-04-21T14:30:19Z</time>
      </trkpt>
      <trkpt lat="43.21613" lon="5.46584">
        <ele>476.95</ele>
        <time>2019-04-21T14:30:24Z</time>
      </trkpt>
      <trkpt lat="43.21615" lon="5.46582">
        <ele>477.43</ele>
        <time>2019-04-21T14:30:28Z</time>
      </trkpt>
      <trkpt lat="43.21616" lon="5.46582">
        <ele>478.39</ele>
        <time>2019-04-21T14:30:29Z</time>
      </trkpt>
      <trkpt lat="43.21618" lon="5.46581">
        <ele>478.87</ele>
        <time>2019-04-21T14:30:31Z</time>
      </trkpt>
      <trkpt lat="43.21628" lon="5.4658">
        <ele>479.35</ele>
        <time>2019-04-21T14:30:43Z</time>
      </trkpt>
      <trkpt lat="43.21629" lon="5.4658">
        <ele>479.35</ele>
        <time>2019-04-21T14:30:45Z</time>
      </trkpt>
      <trkpt lat="43.21633" lon="5.46577">
        <ele>479.84</ele>
        <time>2019-04-21T14:30:50Z</time>
      </trkpt>
      <trkpt lat="43.21634" lon="5.46576">
        <ele>480.32</ele>
        <time>2019-04-21T14:30:51Z</time>
      </trkpt>
      <trkpt lat="43.21635" lon="5.46575">
        <ele>480.32</ele>
        <time>2019-04-21T14:30:52Z</time>
      </trkpt>
      <trkpt lat="43.21638" lon="5.4657">
        <ele>482.72</ele>
        <time>2019-04-21T14:30:57Z</time>
      </trkpt>
      <trkpt lat="43.21642" lon="5.46565">
        <ele>484.64</ele>
        <time>2019-04-21T14:31:03Z</time>
      </trkpt>
      <trkpt lat="43.21652" lon="5.46563">
        <ele>483.68</ele>
        <time>2019-04-21T14:31:14Z</time>
      </trkpt>
      <trkpt lat="43.21653" lon="5.4656">
        <ele>484.64</ele>
        <time>2019-04-21T14:31:18Z</time>
      </trkpt>
      <trkpt lat="43.21654" lon="5.46558">
        <ele>484.16</ele>
        <time>2019-04-21T14:31:19Z</time>
      </trkpt>
      <trkpt lat="43.21657" lon="5.46556">
        <ele>485.6</ele>
        <time>2019-04-21T14:31:23Z</time>
      </trkpt>
      <trkpt lat="43.21658" lon="5.46555">
        <ele>485.12</ele>
        <time>2019-04-21T14:31:24Z</time>
      </trkpt>
      <trkpt lat="43.21662" lon="5.46554">
        <ele>486.56</ele>
        <time>2019-04-21T14:31:29Z</time>
      </trkpt>
      <trkpt lat="43.2167" lon="5.46551">
        <ele>486.56</ele>
        <time>2019-04-21T14:31:40Z</time>
      </trkpt>
      <trkpt lat="43.21676" lon="5.46546">
        <ele>488.49</ele>
        <time>2019-04-21T14:31:48Z</time>
      </trkpt>
      <trkpt lat="43.21677" lon="5.46545">
        <ele>488.97</ele>
        <time>2019-04-21T14:31:49Z</time>
      </trkpt>
      <trkpt lat="43.21681" lon="5.46542">
        <ele>491.37</ele>
        <time>2019-04-21T14:31:56Z</time>
      </trkpt>
      <trkpt lat="43.21684" lon="5.46537">
        <ele>493.29</ele>
        <time>2019-04-21T14:32:05Z</time>
      </trkpt>
      <trkpt lat="43.21685" lon="5.46537">
        <ele>493.29</ele>
        <time>2019-04-21T14:32:07Z</time>
      </trkpt>
      <trkpt lat="43.2169" lon="5.46534">
        <ele>493.77</ele>
        <time>2019-04-21T14:32:15Z</time>
      </trkpt>
      <trkpt lat="43.21698" lon="5.46531">
        <ele>495.22</ele>
        <time>2019-04-21T14:32:26Z</time>
      </trkpt>
      <trkpt lat="43.217" lon="5.46531">
        <ele>496.66</ele>
        <time>2019-04-21T14:32:29Z</time>
      </trkpt>
      <trkpt lat="43.21704" lon="5.46529">
        <ele>498.58</ele>
        <time>2019-04-21T14:32:34Z</time>
      </trkpt>
      <trkpt lat="43.21705" lon="5.46528">
        <ele>499.54</ele>
        <time>2019-04-21T14:32:38Z</time>
      </trkpt>
      <trkpt lat="43.2171" lon="5.46528">
        <ele>498.1</ele>
        <time>2019-04-21T14:32:49Z</time>
      </trkpt>
      <trkpt lat="43.21711" lon="5.46528">
        <ele>499.54</ele>
        <time>2019-04-21T14:32:52Z</time>
      </trkpt>
      <trkpt lat="43.21711" lon="5.46528">
        <ele>502.43</ele>
        <time>2019-04-21T14:32:54Z</time>
      </trkpt>
      <trkpt lat="43.21713" lon="5.46526">
        <ele>503.39</ele>
        <time>2019-04-21T14:33:12Z</time>
      </trkpt>
      <trkpt lat="43.21714" lon="5.46525">
        <ele>502.91</ele>
        <time>2019-04-21T14:33:14Z</time>
      </trkpt>
      <trkpt lat="43.21715" lon="5.46525">
        <ele>502.91</ele>
        <time>2019-04-21T14:33:15Z</time>
      </trkpt>
      <trkpt lat="43.21717" lon="5.46524">
        <ele>501.46</ele>
        <time>2019-04-21T14:33:17Z</time>
      </trkpt>
      <trkpt lat="43.21728" lon="5.46519">
        <ele>500.02</ele>
        <time>2019-04-21T14:33:31Z</time>
      </trkpt>
      <trkpt lat="43.21733" lon="5.46515">
        <ele>500.02</ele>
        <time>2019-04-21T14:33:38Z</time>
      </trkpt>
      <trkpt lat="43.21735" lon="5.46514">
        <ele>499.54</ele>
        <time>2019-04-21T14:33:41Z</time>
      </trkpt>
      <trkpt lat="43.21743" lon="5.46511">
        <ele>500.98</ele>
        <time>2019-04-21T14:33:49Z</time>
      </trkpt>
      <trkpt lat="43.21746" lon="5.46509">
        <ele>504.83</ele>
        <time>2019-04-21T14:33:52Z</time>
      </trkpt>
      <trkpt lat="43.21751" lon="5.46508">
        <ele>500.98</ele>
        <time>2019-04-21T14:34:00Z</time>
      </trkpt>
      <trkpt lat="43.21752" lon="5.46508">
        <ele>503.87</ele>
        <time>2019-04-21T14:34:01Z</time>
      </trkpt>
      <trkpt lat="43.21754" lon="5.46508">
        <ele>503.39</ele>
        <time>2019-04-21T14:34:02Z</time>
      </trkpt>
      <trkpt lat="43.21756" lon="5.46508">
        <ele>502.43</ele>
        <time>2019-04-21T14:34:04Z</time>
      </trkpt>
      <trkpt lat="43.2176" lon="5.46506">
        <ele>500.02</ele>
        <time>2019-04-21T14:34:08Z</time>
      </trkpt>
      <trkpt lat="43.21761" lon="5.46506">
        <ele>501.46</ele>
        <time>2019-04-21T14:34:09Z</time>
      </trkpt>
      <trkpt lat="43.21764" lon="5.46504">
        <ele>505.31</ele>
        <time>2019-04-21T14:34:13Z</time>
      </trkpt>
      <trkpt lat="43.21772" lon="5.46501">
        <ele>503.39</ele>
        <time>2019-04-21T14:34:25Z</time>
      </trkpt>
      <trkpt lat="43.21778" lon="5.46496">
        <ele>503.39</ele>
        <time>2019-04-21T14:34:35Z</time>
      </trkpt>
      <trkpt lat="43.21779" lon="5.46495">
        <ele>503.39</ele>
        <time>2019-04-21T14:34:36Z</time>
      </trkpt>
      <trkpt lat="43.21783" lon="5.46494">
        <ele>505.79</ele>
        <time>2019-04-21T14:34:40Z</time>
      </trkpt>
      <trkpt lat="43.21786" lon="5.46493">
        <ele>503.87</ele>
        <time>2019-04-21T14:34:43Z</time>
      </trkpt>
      <trkpt lat="43.21794" lon="5.4649">
        <ele>505.79</ele>
        <time>2019-04-21T14:34:52Z</time>
      </trkpt>
      <trkpt lat="43.21796" lon="5.46489">
        <ele>507.23</ele>
        <time>2019-04-21T14:34:55Z</time>
      </trkpt>
      <trkpt lat="43.21798" lon="5.46488">
        <ele>506.27</ele>
        <time>2019-04-21T14:34:58Z</time>
      </trkpt>
      <trkpt lat="43.21799" lon="5.46487">
        <ele>505.79</ele>
        <time>2019-04-21T14:34:59Z</time>
      </trkpt>
      <trkpt lat="43.21804" lon="5.46483">
        <ele>504.35</ele>
        <time>2019-04-21T14:35:05Z</time>
      </trkpt>
      <trkpt lat="43.21807" lon="5.46479">
        <ele>505.79</ele>
        <time>2019-04-21T14:35:10Z</time>
      </trkpt>
      <trkpt lat="43.21809" lon="5.46473">
        <ele>509.64</ele>
        <time>2019-04-21T14:35:18Z</time>
      </trkpt>
      <trkpt lat="43.21815" lon="5.46468">
        <ele>510.6</ele>
        <time>2019-04-21T14:35:28Z</time>
      </trkpt>
      <trkpt lat="43.21819" lon="5.46465">
        <ele>511.56</ele>
        <time>2019-04-21T14:35:35Z</time>
      </trkpt>
      <trkpt lat="43.2182" lon="5.46465">
        <ele>512.04</ele>
        <time>2019-04-21T14:35:36Z</time>
      </trkpt>
      <trkpt lat="43.21824" lon="5.46466">
        <ele>512.52</ele>
        <time>2019-04-21T14:35:40Z</time>
      </trkpt>
      <trkpt lat="43.21826" lon="5.46466">
        <ele>512.52</ele>
        <time>2019-04-21T14:35:41Z</time>
      </trkpt>
      <trkpt lat="43.21833" lon="5.46468">
        <ele>514.44</ele>
        <time>2019-04-21T14:35:47Z</time>
      </trkpt>
      <trkpt lat="43.21841" lon="5.4647">
        <ele>513</ele>
        <time>2019-04-21T14:36:01Z</time>
      </trkpt>
      <trkpt lat="43.21843" lon="5.46469">
        <ele>516.85</ele>
        <time>2019-04-21T14:36:03Z</time>
      </trkpt>
      <trkpt lat="43.21843" lon="5.46468">
        <ele>516.85</ele>
        <time>2019-04-21T14:36:04Z</time>
      </trkpt>
      <trkpt lat="43.21844" lon="5.46468">
        <ele>514.92</ele>
        <time>2019-04-21T14:36:06Z</time>
      </trkpt>
      <trkpt lat="43.21854" lon="5.46468">
        <ele>514.44</ele>
        <time>2019-04-21T14:36:16Z</time>
      </trkpt>
      <trkpt lat="43.21855" lon="5.46469">
        <ele>514.92</ele>
        <time>2019-04-21T14:36:17Z</time>
      </trkpt>
      <trkpt lat="43.21856" lon="5.46469">
        <ele>515.88</ele>
        <time>2019-04-21T14:36:19Z</time>
      </trkpt>
      <trkpt lat="43.21858" lon="5.46469">
        <ele>513.48</ele>
        <time>2019-04-21T14:36:22Z</time>
      </trkpt>
      <trkpt lat="43.2186" lon="5.4647">
        <ele>513.96</ele>
        <time>2019-04-21T14:36:23Z</time>
      </trkpt>
      <trkpt lat="43.21861" lon="5.4647">
        <ele>513.48</ele>
        <time>2019-04-21T14:36:24Z</time>
      </trkpt>
      <trkpt lat="43.2187" lon="5.46471">
        <ele>515.88</ele>
        <time>2019-04-21T14:36:35Z</time>
      </trkpt>
      <trkpt lat="43.21877" lon="5.46472">
        <ele>516.37</ele>
        <time>2019-04-21T14:36:46Z</time>
      </trkpt>
      <trkpt lat="43.21878" lon="5.46472">
        <ele>516.37</ele>
        <time>2019-04-21T14:36:47Z</time>
      </trkpt>
      <trkpt lat="43.21882" lon="5.46472">
        <ele>517.81</ele>
        <time>2019-04-21T14:36:51Z</time>
      </trkpt>
      <trkpt lat="43.21892" lon="5.46474">
        <ele>518.77</ele>
        <time>2019-04-21T14:37:02Z</time>
      </trkpt>
      <trkpt lat="43.21899" lon="5.46476">
        <ele>519.25</ele>
        <time>2019-04-21T14:37:10Z</time>
      </trkpt>
      <trkpt lat="43.219" lon="5.46477">
        <ele>519.25</ele>
        <time>2019-04-21T14:37:11Z</time>
      </trkpt>
      <trkpt lat="43.21903" lon="5.46479">
        <ele>519.73</ele>
        <time>2019-04-21T14:37:15Z</time>
      </trkpt>
      <trkpt lat="43.21907" lon="5.46481">
        <ele>521.17</ele>
        <time>2019-04-21T14:37:19Z</time>
      </trkpt>
      <trkpt lat="43.21909" lon="5.46482">
        <ele>520.69</ele>
        <time>2019-04-21T14:37:20Z</time>
      </trkpt>
      <trkpt lat="43.21919" lon="5.46483">
        <ele>522.13</ele>
        <time>2019-04-21T14:37:30Z</time>
      </trkpt>
      <trkpt lat="43.21926" lon="5.46479">
        <ele>522.13</ele>
        <time>2019-04-21T14:37:44Z</time>
      </trkpt>
      <trkpt lat="43.21925" lon="5.46481">
        <ele>522.13</ele>
        <time>2019-04-21T14:38:09Z</time>
      </trkpt>
      <trkpt lat="43.21922" lon="5.46482">
        <ele>522.13</ele>
        <time>2019-04-21T14:38:44Z</time>
      </trkpt>
      <trkpt lat="43.21923" lon="5.46482">
        <ele>520.69</ele>
        <time>2019-04-21T14:38:48Z</time>
      </trkpt>
      <trkpt lat="43.21923" lon="5.46484">
        <ele>520.69</ele>
        <time>2019-04-21T14:39:24Z</time>
      </trkpt>
      <trkpt lat="43.21922" lon="5.46482">
        <ele>521.65</ele>
        <time>2019-04-21T14:39:32Z</time>
      </trkpt>
      <trkpt lat="43.21926" lon="5.46479">
        <ele>522.13</ele>
        <time>2019-04-21T14:39:51Z</time>
      </trkpt>
      <trkpt lat="43.21927" lon="5.46483">
        <ele>521.65</ele>
        <time>2019-04-21T14:40:01Z</time>
      </trkpt>
      <trkpt lat="43.21928" lon="5.46483">
        <ele>522.13</ele>
        <time>2019-04-21T14:40:16Z</time>
      </trkpt>
      <trkpt lat="43.21927" lon="5.46484">
        <ele>521.17</ele>
        <time>2019-04-21T14:40:26Z</time>
      </trkpt>
      <trkpt lat="43.21927" lon="5.46484">
        <ele>523.09</ele>
        <time>2019-04-21T14:40:29Z</time>
      </trkpt>
      <trkpt lat="43.21929" lon="5.46483">
        <ele>521.65</ele>
        <time>2019-04-21T14:40:47Z</time>
      </trkpt>
      <trkpt lat="43.21928" lon="5.46481">
        <ele>523.58</ele>
        <time>2019-04-21T14:40:52Z</time>
      </trkpt>
      <trkpt lat="43.21927" lon="5.46479">
        <ele>522.13</ele>
        <time>2019-04-21T14:41:12Z</time>
      </trkpt>
      <trkpt lat="43.21927" lon="5.46482">
        <ele>521.65</ele>
        <time>2019-04-21T14:41:29Z</time>
      </trkpt>
      <trkpt lat="43.21927" lon="5.46483">
        <ele>522.61</ele>
        <time>2019-04-21T14:41:31Z</time>
      </trkpt>
      <trkpt lat="43.21927" lon="5.46481">
        <ele>522.61</ele>
        <time>2019-04-21T14:41:43Z</time>
      </trkpt>
      <trkpt lat="43.21926" lon="5.46481">
        <ele>524.06</ele>
        <time>2019-04-21T14:42:00Z</time>
      </trkpt>
      <trkpt lat="43.21927" lon="5.46483">
        <ele>523.09</ele>
        <time>2019-04-21T14:42:11Z</time>
      </trkpt>
      <trkpt lat="43.21931" lon="5.46484">
        <ele>523.09</ele>
        <time>2019-04-21T14:42:23Z</time>
      </trkpt>
      <trkpt lat="43.21933" lon="5.46485">
        <ele>522.61</ele>
        <time>2019-04-21T14:42:25Z</time>
      </trkpt>
      <trkpt lat="43.21936" lon="5.46484">
        <ele>522.61</ele>
        <time>2019-04-21T14:42:26Z</time>
      </trkpt>
      <trkpt lat="43.21939" lon="5.46483">
        <ele>524.06</ele>
        <time>2019-04-21T14:42:30Z</time>
      </trkpt>
      <trkpt lat="43.2194" lon="5.46484">
        <ele>523.58</ele>
        <time>2019-04-21T14:42:31Z</time>
      </trkpt>
      <trkpt lat="43.21941" lon="5.46485">
        <ele>524.54</ele>
        <time>2019-04-21T14:42:32Z</time>
      </trkpt>
      <trkpt lat="43.21949" lon="5.46486">
        <ele>523.09</ele>
        <time>2019-04-21T14:42:44Z</time>
      </trkpt>
      <trkpt lat="43.21955" lon="5.46486">
        <ele>524.54</ele>
        <time>2019-04-21T14:42:52Z</time>
      </trkpt>
      <trkpt lat="43.21958" lon="5.46487">
        <ele>524.06</ele>
        <time>2019-04-21T14:42:57Z</time>
      </trkpt>
      <trkpt lat="43.21965" lon="5.4649">
        <ele>524.06</ele>
        <time>2019-04-21T14:43:04Z</time>
      </trkpt>
      <trkpt lat="43.21974" lon="5.46488">
        <ele>525.5</ele>
        <time>2019-04-21T14:43:18Z</time>
      </trkpt>
      <trkpt lat="43.21981" lon="5.4649">
        <ele>528.86</ele>
        <time>2019-04-21T14:43:25Z</time>
      </trkpt>
      <trkpt lat="43.21982" lon="5.46489">
        <ele>528.86</ele>
        <time>2019-04-21T14:43:26Z</time>
      </trkpt>
      <trkpt lat="43.2199" lon="5.46489">
        <ele>527.9</ele>
        <time>2019-04-21T14:43:35Z</time>
      </trkpt>
      <trkpt lat="43.21995" lon="5.46489">
        <ele>529.82</ele>
        <time>2019-04-21T14:43:39Z</time>
      </trkpt>
      <trkpt lat="43.22002" lon="5.46482">
        <ele>529.34</ele>
        <time>2019-04-21T14:43:50Z</time>
      </trkpt>
      <trkpt lat="43.22008" lon="5.46477">
        <ele>529.82</ele>
        <time>2019-04-21T14:43:56Z</time>
      </trkpt>
      <trkpt lat="43.22013" lon="5.46474">
        <ele>531.27</ele>
        <time>2019-04-21T14:44:03Z</time>
      </trkpt>
      <trkpt lat="43.2202" lon="5.46471">
        <ele>531.27</ele>
        <time>2019-04-21T14:44:10Z</time>
      </trkpt>
      <trkpt lat="43.22021" lon="5.46471">
        <ele>530.79</ele>
        <time>2019-04-21T14:44:13Z</time>
      </trkpt>
      <trkpt lat="43.22023" lon="5.46471">
        <ele>530.79</ele>
        <time>2019-04-21T14:44:14Z</time>
      </trkpt>
      <trkpt lat="43.22025" lon="5.46472">
        <ele>530.79</ele>
        <time>2019-04-21T14:44:15Z</time>
      </trkpt>
      <trkpt lat="43.22026" lon="5.46472">
        <ele>531.27</ele>
        <time>2019-04-21T14:44:16Z</time>
      </trkpt>
      <trkpt lat="43.22029" lon="5.46471">
        <ele>531.27</ele>
        <time>2019-04-21T14:44:20Z</time>
      </trkpt>
      <trkpt lat="43.22031" lon="5.46471">
        <ele>531.75</ele>
        <time>2019-04-21T14:44:23Z</time>
      </trkpt>
      <trkpt lat="43.22033" lon="5.46472">
        <ele>531.75</ele>
        <time>2019-04-21T14:44:24Z</time>
      </trkpt>
      <trkpt lat="43.22039" lon="5.46473">
        <ele>530.3</ele>
        <time>2019-04-21T14:44:34Z</time>
      </trkpt>
      <trkpt lat="43.22043" lon="5.46477">
        <ele>531.75</ele>
        <time>2019-04-21T14:44:40Z</time>
      </trkpt>
      <trkpt lat="43.22043" lon="5.46477">
        <ele>531.27</ele>
        <time>2019-04-21T14:44:53Z</time>
      </trkpt>
      <trkpt lat="43.22043" lon="5.46478">
        <ele>530.3</ele>
        <time>2019-04-21T14:44:59Z</time>
      </trkpt>
      <trkpt lat="43.22042" lon="5.46479">
        <ele>534.63</ele>
        <time>2019-04-21T14:45:03Z</time>
      </trkpt>
      <trkpt lat="43.22042" lon="5.46479">
        <ele>531.27</ele>
        <time>2019-04-21T14:45:04Z</time>
      </trkpt>
      <trkpt lat="43.22042" lon="5.46481">
        <ele>530.79</ele>
        <time>2019-04-21T14:45:06Z</time>
      </trkpt>
      <trkpt lat="43.22043" lon="5.46484">
        <ele>531.27</ele>
        <time>2019-04-21T14:45:08Z</time>
      </trkpt>
      <trkpt lat="43.22045" lon="5.46492">
        <ele>529.34</ele>
        <time>2019-04-21T14:45:15Z</time>
      </trkpt>
      <trkpt lat="43.22047" lon="5.46502">
        <ele>528.38</ele>
        <time>2019-04-21T14:45:28Z</time>
      </trkpt>
      <trkpt lat="43.22049" lon="5.46501">
        <ele>529.82</ele>
        <time>2019-04-21T14:45:35Z</time>
      </trkpt>
      <trkpt lat="43.2206" lon="5.46495">
        <ele>529.34</ele>
        <time>2019-04-21T14:45:47Z</time>
      </trkpt>
      <trkpt lat="43.22058" lon="5.46488">
        <ele>528.86</ele>
        <time>2019-04-21T14:45:56Z</time>
      </trkpt>
      <trkpt lat="43.22057" lon="5.46481">
        <ele>528.38</ele>
        <time>2019-04-21T14:46:00Z</time>
      </trkpt>
      <trkpt lat="43.22056" lon="5.46477">
        <ele>527.9</ele>
        <time>2019-04-21T14:46:05Z</time>
      </trkpt>
      <trkpt lat="43.22054" lon="5.46473">
        <ele>527.42</ele>
        <time>2019-04-21T14:46:10Z</time>
      </trkpt>
      <trkpt lat="43.22052" lon="5.46471">
        <ele>528.86</ele>
        <time>2019-04-21T14:46:12Z</time>
      </trkpt>
      <trkpt lat="43.22051" lon="5.46465">
        <ele>528.38</ele>
        <time>2019-04-21T14:46:15Z</time>
      </trkpt>
      <trkpt lat="43.22051" lon="5.46452">
        <ele>527.9</ele>
        <time>2019-04-21T14:46:25Z</time>
      </trkpt>
      <trkpt lat="43.22054" lon="5.46451">
        <ele>526.46</ele>
        <time>2019-04-21T14:46:35Z</time>
      </trkpt>
      <trkpt lat="43.22056" lon="5.4645">
        <ele>525.98</ele>
        <time>2019-04-21T14:46:48Z</time>
      </trkpt>
      <trkpt lat="43.22057" lon="5.4645">
        <ele>525.98</ele>
        <time>2019-04-21T14:46:49Z</time>
      </trkpt>
      <trkpt lat="43.22058" lon="5.4645">
        <ele>525.5</ele>
        <time>2019-04-21T14:46:50Z</time>
      </trkpt>
      <trkpt lat="43.22062" lon="5.46449">
        <ele>523.09</ele>
        <time>2019-04-21T14:47:00Z</time>
      </trkpt>
      <trkpt lat="43.22064" lon="5.46449">
        <ele>522.61</ele>
        <time>2019-04-21T14:47:01Z</time>
      </trkpt>
      <trkpt lat="43.22065" lon="5.4645">
        <ele>523.09</ele>
        <time>2019-04-21T14:47:02Z</time>
      </trkpt>
      <trkpt lat="43.22066" lon="5.46451">
        <ele>522.61</ele>
        <time>2019-04-21T14:47:03Z</time>
      </trkpt>
      <trkpt lat="43.22067" lon="5.46451">
        <ele>522.61</ele>
        <time>2019-04-21T14:47:04Z</time>
      </trkpt>
      <trkpt lat="43.2207" lon="5.46453">
        <ele>519.25</ele>
        <time>2019-04-21T14:47:14Z</time>
      </trkpt>
      <trkpt lat="43.22071" lon="5.46453">
        <ele>518.77</ele>
        <time>2019-04-21T14:47:16Z</time>
      </trkpt>
      <trkpt lat="43.22073" lon="5.46453">
        <ele>518.77</ele>
        <time>2019-04-21T14:47:17Z</time>
      </trkpt>
      <trkpt lat="43.22077" lon="5.46454">
        <ele>517.33</ele>
        <time>2019-04-21T14:47:21Z</time>
      </trkpt>
      <trkpt lat="43.22078" lon="5.46454">
        <ele>516.85</ele>
        <time>2019-04-21T14:47:22Z</time>
      </trkpt>
      <trkpt lat="43.2208" lon="5.46454">
        <ele>516.37</ele>
        <time>2019-04-21T14:47:23Z</time>
      </trkpt>
      <trkpt lat="43.22081" lon="5.46456">
        <ele>516.37</ele>
        <time>2019-04-21T14:47:24Z</time>
      </trkpt>
      <trkpt lat="43.22083" lon="5.46458">
        <ele>516.37</ele>
        <time>2019-04-21T14:47:25Z</time>
      </trkpt>
      <trkpt lat="43.22084" lon="5.46459">
        <ele>515.88</ele>
        <time>2019-04-21T14:47:26Z</time>
      </trkpt>
      <trkpt lat="43.22086" lon="5.4646">
        <ele>515.4</ele>
        <time>2019-04-21T14:47:27Z</time>
      </trkpt>
      <trkpt lat="43.22092" lon="5.46459">
        <ele>513</ele>
        <time>2019-04-21T14:47:37Z</time>
      </trkpt>
      <trkpt lat="43.22094" lon="5.4646">
        <ele>513</ele>
        <time>2019-04-21T14:47:38Z</time>
      </trkpt>
      <trkpt lat="43.22095" lon="5.46461">
        <ele>512.52</ele>
        <time>2019-04-21T14:47:39Z</time>
      </trkpt>
      <trkpt lat="43.22096" lon="5.46462">
        <ele>512.52</ele>
        <time>2019-04-21T14:47:40Z</time>
      </trkpt>
      <trkpt lat="43.22097" lon="5.46463">
        <ele>512.52</ele>
        <time>2019-04-21T14:47:41Z</time>
      </trkpt>
      <trkpt lat="43.22098" lon="5.46465">
        <ele>511.56</ele>
        <time>2019-04-21T14:47:42Z</time>
      </trkpt>
      <trkpt lat="43.22099" lon="5.46466">
        <ele>512.04</ele>
        <time>2019-04-21T14:47:43Z</time>
      </trkpt>
      <trkpt lat="43.22101" lon="5.46468">
        <ele>512.04</ele>
        <time>2019-04-21T14:47:44Z</time>
      </trkpt>
      <trkpt lat="43.22102" lon="5.46469">
        <ele>512.04</ele>
        <time>2019-04-21T14:47:45Z</time>
      </trkpt>
      <trkpt lat="43.22109" lon="5.46472">
        <ele>511.56</ele>
        <time>2019-04-21T14:47:52Z</time>
      </trkpt>
      <trkpt lat="43.22111" lon="5.46473">
        <ele>511.08</ele>
        <time>2019-04-21T14:47:54Z</time>
      </trkpt>
      <trkpt lat="43.22117" lon="5.46475">
        <ele>507.71</ele>
        <time>2019-04-21T14:48:05Z</time>
      </trkpt>
      <trkpt lat="43.22124" lon="5.46479">
        <ele>505.79</ele>
        <time>2019-04-21T14:48:17Z</time>
      </trkpt>
      <trkpt lat="43.22129" lon="5.46481">
        <ele>505.31</ele>
        <time>2019-04-21T14:48:19Z</time>
      </trkpt>
      <trkpt lat="43.22141" lon="5.46485">
        <ele>502.43</ele>
        <time>2019-04-21T14:48:30Z</time>
      </trkpt>
      <trkpt lat="43.22142" lon="5.46486">
        <ele>502.43</ele>
        <time>2019-04-21T14:48:31Z</time>
      </trkpt>
      <trkpt lat="43.22144" lon="5.46486">
        <ele>502.43</ele>
        <time>2019-04-21T14:48:32Z</time>
      </trkpt>
      <trkpt lat="43.22145" lon="5.46486">
        <ele>501.95</ele>
        <time>2019-04-21T14:48:33Z</time>
      </trkpt>
      <trkpt lat="43.2216" lon="5.46494">
        <ele>500.5</ele>
        <time>2019-04-21T14:48:45Z</time>
      </trkpt>
      <trkpt lat="43.22162" lon="5.46503">
        <ele>500.02</ele>
        <time>2019-04-21T14:49:00Z</time>
      </trkpt>
      <trkpt lat="43.22173" lon="5.46511">
        <ele>499.54</ele>
        <time>2019-04-21T14:49:17Z</time>
      </trkpt>
      <trkpt lat="43.22186" lon="5.46519">
        <ele>499.06</ele>
        <time>2019-04-21T14:49:28Z</time>
      </trkpt>
      <trkpt lat="43.22194" lon="5.46527">
        <ele>500.5</ele>
        <time>2019-04-21T14:49:38Z</time>
      </trkpt>
      <trkpt lat="43.22198" lon="5.46529">
        <ele>498.58</ele>
        <time>2019-04-21T14:49:47Z</time>
      </trkpt>
      <trkpt lat="43.22204" lon="5.46534">
        <ele>498.58</ele>
        <time>2019-04-21T14:49:52Z</time>
      </trkpt>
      <trkpt lat="43.22205" lon="5.46536">
        <ele>497.14</ele>
        <time>2019-04-21T14:49:53Z</time>
      </trkpt>
      <trkpt lat="43.22207" lon="5.46538">
        <ele>497.62</ele>
        <time>2019-04-21T14:49:54Z</time>
      </trkpt>
      <trkpt lat="43.22221" lon="5.46553">
        <ele>494.74</ele>
        <time>2019-04-21T14:50:06Z</time>
      </trkpt>
      <trkpt lat="43.22231" lon="5.46561">
        <ele>494.26</ele>
        <time>2019-04-21T14:50:18Z</time>
      </trkpt>
      <trkpt lat="43.22237" lon="5.46565">
        <ele>492.33</ele>
        <time>2019-04-21T14:50:25Z</time>
      </trkpt>
      <trkpt lat="43.22238" lon="5.46566">
        <ele>492.33</ele>
        <time>2019-04-21T14:50:26Z</time>
      </trkpt>
      <trkpt lat="43.22239" lon="5.46567">
        <ele>491.85</ele>
        <time>2019-04-21T14:50:27Z</time>
      </trkpt>
      <trkpt lat="43.2224" lon="5.46569">
        <ele>492.33</ele>
        <time>2019-04-21T14:50:28Z</time>
      </trkpt>
      <trkpt lat="43.22241" lon="5.4657">
        <ele>491.85</ele>
        <time>2019-04-21T14:50:29Z</time>
      </trkpt>
      <trkpt lat="43.22242" lon="5.46571">
        <ele>492.33</ele>
        <time>2019-04-21T14:50:30Z</time>
      </trkpt>
      <trkpt lat="43.22243" lon="5.46573">
        <ele>491.85</ele>
        <time>2019-04-21T14:50:31Z</time>
      </trkpt>
      <trkpt lat="43.22244" lon="5.46574">
        <ele>491.85</ele>
        <time>2019-04-21T14:50:32Z</time>
      </trkpt>
      <trkpt lat="43.22245" lon="5.46575">
        <ele>491.37</ele>
        <time>2019-04-21T14:50:33Z</time>
      </trkpt>
      <trkpt lat="43.22255" lon="5.46584">
        <ele>490.89</ele>
        <time>2019-04-21T14:50:42Z</time>
      </trkpt>
      <trkpt lat="43.22261" lon="5.46587">
        <ele>489.45</ele>
        <time>2019-04-21T14:50:47Z</time>
      </trkpt>
      <trkpt lat="43.22266" lon="5.46587">
        <ele>487.05</ele>
        <time>2019-04-21T14:50:58Z</time>
      </trkpt>
      <trkpt lat="43.22269" lon="5.46589">
        <ele>486.08</ele>
        <time>2019-04-21T14:51:11Z</time>
      </trkpt>
      <trkpt lat="43.22271" lon="5.46591">
        <ele>485.6</ele>
        <time>2019-04-21T14:51:15Z</time>
      </trkpt>
      <trkpt lat="43.22278" lon="5.46602">
        <ele>483.68</ele>
        <time>2019-04-21T14:51:30Z</time>
      </trkpt>
      <trkpt lat="43.22283" lon="5.46611">
        <ele>482.72</ele>
        <time>2019-04-21T14:51:43Z</time>
      </trkpt>
      <trkpt lat="43.22284" lon="5.46613">
        <ele>482.72</ele>
        <time>2019-04-21T14:51:44Z</time>
      </trkpt>
      <trkpt lat="43.22285" lon="5.46614">
        <ele>483.2</ele>
        <time>2019-04-21T14:51:45Z</time>
      </trkpt>
      <trkpt lat="43.22289" lon="5.46619">
        <ele>483.2</ele>
        <time>2019-04-21T14:51:48Z</time>
      </trkpt>
      <trkpt lat="43.223" lon="5.46637">
        <ele>482.24</ele>
        <time>2019-04-21T14:51:55Z</time>
      </trkpt>
      <trkpt lat="43.22309" lon="5.46656">
        <ele>479.84</ele>
        <time>2019-04-21T14:52:01Z</time>
      </trkpt>
      <trkpt lat="43.22318" lon="5.46665">
        <ele>478.39</ele>
        <time>2019-04-21T14:52:08Z</time>
      </trkpt>
      <trkpt lat="43.22322" lon="5.46669">
        <ele>475.03</ele>
        <time>2019-04-21T14:52:15Z</time>
      </trkpt>
      <trkpt lat="43.22323" lon="5.46671">
        <ele>475.03</ele>
        <time>2019-04-21T14:52:16Z</time>
      </trkpt>
      <trkpt lat="43.22324" lon="5.46674">
        <ele>474.07</ele>
        <time>2019-04-21T14:52:17Z</time>
      </trkpt>
      <trkpt lat="43.22325" lon="5.46676">
        <ele>473.59</ele>
        <time>2019-04-21T14:52:18Z</time>
      </trkpt>
      <trkpt lat="43.22326" lon="5.46679">
        <ele>473.11</ele>
        <time>2019-04-21T14:52:19Z</time>
      </trkpt>
      <trkpt lat="43.2233" lon="5.46686">
        <ele>474.55</ele>
        <time>2019-04-21T14:52:28Z</time>
      </trkpt>
      <trkpt lat="43.22332" lon="5.46689">
        <ele>472.14</ele>
        <time>2019-04-21T14:52:34Z</time>
      </trkpt>
      <trkpt lat="43.22337" lon="5.46698">
        <ele>472.63</ele>
        <time>2019-04-21T14:52:39Z</time>
      </trkpt>
      <trkpt lat="43.22338" lon="5.46699">
        <ele>471.18</ele>
        <time>2019-04-21T14:52:40Z</time>
      </trkpt>
      <trkpt lat="43.2234" lon="5.467">
        <ele>470.22</ele>
        <time>2019-04-21T14:52:42Z</time>
      </trkpt>
      <trkpt lat="43.22341" lon="5.46703">
        <ele>470.7</ele>
        <time>2019-04-21T14:52:46Z</time>
      </trkpt>
      <trkpt lat="43.22341" lon="5.46705">
        <ele>469.74</ele>
        <time>2019-04-21T14:52:47Z</time>
      </trkpt>
      <trkpt lat="43.22348" lon="5.46723">
        <ele>467.34</ele>
        <time>2019-04-21T14:52:55Z</time>
      </trkpt>
      <trkpt lat="43.22355" lon="5.46734">
        <ele>465.42</ele>
        <time>2019-04-21T14:53:06Z</time>
      </trkpt>
      <trkpt lat="43.22357" lon="5.46739">
        <ele>468.78</ele>
        <time>2019-04-21T14:53:09Z</time>
      </trkpt>
      <trkpt lat="43.22358" lon="5.46741">
        <ele>465.9</ele>
        <time>2019-04-21T14:53:10Z</time>
      </trkpt>
      <trkpt lat="43.22358" lon="5.46743">
        <ele>467.82</ele>
        <time>2019-04-21T14:53:11Z</time>
      </trkpt>
      <trkpt lat="43.22356" lon="5.46751">
        <ele>463.97</ele>
        <time>2019-04-21T14:53:14Z</time>
      </trkpt>
      <trkpt lat="43.22352" lon="5.4676">
        <ele>459.65</ele>
        <time>2019-04-21T14:53:19Z</time>
      </trkpt>
      <trkpt lat="43.22352" lon="5.46761">
        <ele>460.13</ele>
        <time>2019-04-21T14:53:20Z</time>
      </trkpt>
      <trkpt lat="43.22351" lon="5.46763">
        <ele>461.09</ele>
        <time>2019-04-21T14:53:22Z</time>
      </trkpt>
      <trkpt lat="43.22351" lon="5.46763">
        <ele>459.65</ele>
        <time>2019-04-21T14:53:24Z</time>
      </trkpt>
      <trkpt lat="43.22351" lon="5.46766">
        <ele>458.69</ele>
        <time>2019-04-21T14:53:29Z</time>
      </trkpt>
      <trkpt lat="43.22352" lon="5.46771">
        <ele>455.32</ele>
        <time>2019-04-21T14:53:36Z</time>
      </trkpt>
      <trkpt lat="43.22352" lon="5.46771">
        <ele>455.8</ele>
        <time>2019-04-21T14:53:37Z</time>
      </trkpt>
      <trkpt lat="43.22352" lon="5.46778">
        <ele>453.4</ele>
        <time>2019-04-21T14:53:42Z</time>
      </trkpt>
      <trkpt lat="43.22349" lon="5.4679">
        <ele>451.96</ele>
        <time>2019-04-21T14:53:50Z</time>
      </trkpt>
      <trkpt lat="43.22348" lon="5.46792">
        <ele>451.96</ele>
        <time>2019-04-21T14:53:51Z</time>
      </trkpt>
      <trkpt lat="43.22347" lon="5.46794">
        <ele>452.44</ele>
        <time>2019-04-21T14:53:52Z</time>
      </trkpt>
      <trkpt lat="43.22339" lon="5.46809">
        <ele>450.03</ele>
        <time>2019-04-21T14:54:05Z</time>
      </trkpt>
      <trkpt lat="43.22337" lon="5.46813">
        <ele>448.59</ele>
        <time>2019-04-21T14:54:09Z</time>
      </trkpt>
      <trkpt lat="43.22336" lon="5.46813">
        <ele>449.07</ele>
        <time>2019-04-21T14:54:10Z</time>
      </trkpt>
      <trkpt lat="43.22334" lon="5.46813">
        <ele>448.11</ele>
        <time>2019-04-21T14:54:12Z</time>
      </trkpt>
      <trkpt lat="43.22333" lon="5.46814">
        <ele>447.63</ele>
        <time>2019-04-21T14:54:13Z</time>
      </trkpt>
      <trkpt lat="43.22332" lon="5.46814">
        <ele>447.15</ele>
        <time>2019-04-21T14:54:14Z</time>
      </trkpt>
      <trkpt lat="43.22331" lon="5.46814">
        <ele>446.67</ele>
        <time>2019-04-21T14:54:15Z</time>
      </trkpt>
      <trkpt lat="43.22329" lon="5.46814">
        <ele>446.67</ele>
        <time>2019-04-21T14:54:16Z</time>
      </trkpt>
      <trkpt lat="43.22327" lon="5.46814">
        <ele>446.67</ele>
        <time>2019-04-21T14:54:17Z</time>
      </trkpt>
      <trkpt lat="43.2232" lon="5.46814">
        <ele>446.19</ele>
        <time>2019-04-21T14:54:22Z</time>
      </trkpt>
      <trkpt lat="43.22318" lon="5.46817">
        <ele>447.15</ele>
        <time>2019-04-21T14:54:29Z</time>
      </trkpt>
      <trkpt lat="43.22317" lon="5.46817">
        <ele>446.19</ele>
        <time>2019-04-21T14:54:30Z</time>
      </trkpt>
      <trkpt lat="43.22316" lon="5.46818">
        <ele>445.23</ele>
        <time>2019-04-21T14:54:31Z</time>
      </trkpt>
      <trkpt lat="43.22314" lon="5.46819">
        <ele>444.27</ele>
        <time>2019-04-21T14:54:32Z</time>
      </trkpt>
      <trkpt lat="43.22313" lon="5.46819">
        <ele>443.31</ele>
        <time>2019-04-21T14:54:33Z</time>
      </trkpt>
      <trkpt lat="43.22311" lon="5.4682">
        <ele>442.82</ele>
        <time>2019-04-21T14:54:34Z</time>
      </trkpt>
      <trkpt lat="43.2231" lon="5.4682">
        <ele>442.34</ele>
        <time>2019-04-21T14:54:35Z</time>
      </trkpt>
      <trkpt lat="43.22309" lon="5.46821">
        <ele>443.31</ele>
        <time>2019-04-21T14:54:38Z</time>
      </trkpt>
      <trkpt lat="43.22308" lon="5.46821">
        <ele>443.31</ele>
        <time>2019-04-21T14:54:39Z</time>
      </trkpt>
      <trkpt lat="43.22305" lon="5.46819">
        <ele>443.79</ele>
        <time>2019-04-21T14:54:40Z</time>
      </trkpt>
      <trkpt lat="43.22304" lon="5.4682">
        <ele>443.31</ele>
        <time>2019-04-21T14:54:41Z</time>
      </trkpt>
      <trkpt lat="43.22291" lon="5.46821">
        <ele>439.94</ele>
        <time>2019-04-21T14:54:52Z</time>
      </trkpt>
      <trkpt lat="43.22286" lon="5.4682">
        <ele>438.02</ele>
        <time>2019-04-21T14:54:58Z</time>
      </trkpt>
      <trkpt lat="43.22284" lon="5.46821">
        <ele>438.02</ele>
        <time>2019-04-21T14:54:59Z</time>
      </trkpt>
      <trkpt lat="43.2228" lon="5.46819">
        <ele>437.54</ele>
        <time>2019-04-21T14:55:02Z</time>
      </trkpt>
      <trkpt lat="43.22279" lon="5.46819">
        <ele>437.06</ele>
        <time>2019-04-21T14:55:03Z</time>
      </trkpt>
      <trkpt lat="43.22277" lon="5.46819">
        <ele>437.54</ele>
        <time>2019-04-21T14:55:04Z</time>
      </trkpt>
      <trkpt lat="43.22264" lon="5.46817">
        <ele>434.17</ele>
        <time>2019-04-21T14:55:14Z</time>
      </trkpt>
      <trkpt lat="43.22263" lon="5.46817">
        <ele>434.17</ele>
        <time>2019-04-21T14:55:15Z</time>
      </trkpt>
      <trkpt lat="43.22253" lon="5.46816">
        <ele>432.73</ele>
        <time>2019-04-21T14:55:29Z</time>
      </trkpt>
      <trkpt lat="43.22251" lon="5.4682">
        <ele>432.73</ele>
        <time>2019-04-21T14:55:48Z</time>
      </trkpt>
      <trkpt lat="43.22251" lon="5.46818">
        <ele>434.17</ele>
        <time>2019-04-21T14:56:23Z</time>
      </trkpt>
      <trkpt lat="43.22256" lon="5.46816">
        <ele>434.65</ele>
        <time>2019-04-21T14:56:39Z</time>
      </trkpt>
      <trkpt lat="43.22251" lon="5.46817">
        <ele>432.73</ele>
        <time>2019-04-21T14:56:52Z</time>
      </trkpt>
      <trkpt lat="43.22251" lon="5.46819">
        <ele>433.21</ele>
        <time>2019-04-21T14:57:13Z</time>
      </trkpt>
      <trkpt lat="43.22248" lon="5.46818">
        <ele>431.77</ele>
        <time>2019-04-21T14:57:43Z</time>
      </trkpt>
      <trkpt lat="43.22247" lon="5.46818">
        <ele>431.29</ele>
        <time>2019-04-21T14:58:16Z</time>
      </trkpt>
      <trkpt lat="43.22249" lon="5.46817">
        <ele>430.81</ele>
        <time>2019-04-21T14:58:27Z</time>
      </trkpt>
      <trkpt lat="43.2225" lon="5.46819">
        <ele>432.25</ele>
        <time>2019-04-21T14:58:40Z</time>
      </trkpt>
      <trkpt lat="43.22252" lon="5.46817">
        <ele>431.29</ele>
        <time>2019-04-21T14:58:56Z</time>
      </trkpt>
      <trkpt lat="43.2225" lon="5.4682">
        <ele>429.37</ele>
        <time>2019-04-21T14:59:09Z</time>
      </trkpt>
      <trkpt lat="43.22249" lon="5.46821">
        <ele>428.89</ele>
        <time>2019-04-21T14:59:10Z</time>
      </trkpt>
      <trkpt lat="43.22248" lon="5.46822">
        <ele>429.37</ele>
        <time>2019-04-21T14:59:11Z</time>
      </trkpt>
      <trkpt lat="43.22242" lon="5.46831">
        <ele>430.33</ele>
        <time>2019-04-21T14:59:23Z</time>
      </trkpt>
      <trkpt lat="43.22243" lon="5.46833">
        <ele>430.33</ele>
        <time>2019-04-21T14:59:24Z</time>
      </trkpt>
      <trkpt lat="43.22244" lon="5.4684">
        <ele>429.85</ele>
        <time>2019-04-21T14:59:31Z</time>
      </trkpt>
      <trkpt lat="43.22245" lon="5.46842">
        <ele>428.89</ele>
        <time>2019-04-21T14:59:32Z</time>
      </trkpt>
      <trkpt lat="43.2224" lon="5.4685">
        <ele>428.4</ele>
        <time>2019-04-21T14:59:42Z</time>
      </trkpt>
      <trkpt lat="43.22243" lon="5.4689">
        <ele>426</ele>
        <time>2019-04-21T14:59:54Z</time>
      </trkpt>
      <trkpt lat="43.22247" lon="5.46897">
        <ele>424.56</ele>
        <time>2019-04-21T15:00:00Z</time>
      </trkpt>
      <trkpt lat="43.22251" lon="5.469">
        <ele>423.12</ele>
        <time>2019-04-21T15:00:07Z</time>
      </trkpt>
      <trkpt lat="43.22252" lon="5.46903">
        <ele>423.12</ele>
        <time>2019-04-21T15:00:08Z</time>
      </trkpt>
      <trkpt lat="43.22252" lon="5.46905">
        <ele>422.64</ele>
        <time>2019-04-21T15:00:09Z</time>
      </trkpt>
      <trkpt lat="43.22252" lon="5.46907">
        <ele>422.64</ele>
        <time>2019-04-21T15:00:10Z</time>
      </trkpt>
      <trkpt lat="43.22252" lon="5.4691">
        <ele>421.68</ele>
        <time>2019-04-21T15:00:13Z</time>
      </trkpt>
      <trkpt lat="43.22253" lon="5.46911">
        <ele>421.19</ele>
        <time>2019-04-21T15:00:14Z</time>
      </trkpt>
      <trkpt lat="43.22258" lon="5.46918">
        <ele>418.79</ele>
        <time>2019-04-21T15:00:21Z</time>
      </trkpt>
      <trkpt lat="43.22261" lon="5.4692">
        <ele>417.83</ele>
        <time>2019-04-21T15:00:23Z</time>
      </trkpt>
      <trkpt lat="43.22262" lon="5.46922">
        <ele>417.35</ele>
        <time>2019-04-21T15:00:25Z</time>
      </trkpt>
      <trkpt lat="43.22263" lon="5.46924">
        <ele>416.87</ele>
        <time>2019-04-21T15:00:26Z</time>
      </trkpt>
      <trkpt lat="43.22265" lon="5.46926">
        <ele>416.87</ele>
        <time>2019-04-21T15:00:27Z</time>
      </trkpt>
      <trkpt lat="43.2227" lon="5.46925">
        <ele>415.43</ele>
        <time>2019-04-21T15:00:31Z</time>
      </trkpt>
      <trkpt lat="43.22278" lon="5.46921">
        <ele>412.06</ele>
        <time>2019-04-21T15:00:41Z</time>
      </trkpt>
      <trkpt lat="43.22295" lon="5.46926">
        <ele>410.14</ele>
        <time>2019-04-21T15:00:55Z</time>
      </trkpt>
      <trkpt lat="43.22296" lon="5.46928">
        <ele>410.14</ele>
        <time>2019-04-21T15:01:08Z</time>
      </trkpt>
      <trkpt lat="43.223" lon="5.46931">
        <ele>409.66</ele>
        <time>2019-04-21T15:01:14Z</time>
      </trkpt>
      <trkpt lat="43.22304" lon="5.46935">
        <ele>408.7</ele>
        <time>2019-04-21T15:01:21Z</time>
      </trkpt>
      <trkpt lat="43.22306" lon="5.46936">
        <ele>409.18</ele>
        <time>2019-04-21T15:01:22Z</time>
      </trkpt>
      <trkpt lat="43.22308" lon="5.46938">
        <ele>408.7</ele>
        <time>2019-04-21T15:01:23Z</time>
      </trkpt>
      <trkpt lat="43.22312" lon="5.46943">
        <ele>408.7</ele>
        <time>2019-04-21T15:01:31Z</time>
      </trkpt>
      <trkpt lat="43.22313" lon="5.46943">
        <ele>408.22</ele>
        <time>2019-04-21T15:01:32Z</time>
      </trkpt>
      <trkpt lat="43.22315" lon="5.46944">
        <ele>407.74</ele>
        <time>2019-04-21T15:01:33Z</time>
      </trkpt>
      <trkpt lat="43.2233" lon="5.46952">
        <ele>407.74</ele>
        <time>2019-04-21T15:01:42Z</time>
      </trkpt>
      <trkpt lat="43.22333" lon="5.46955">
        <ele>406.77</ele>
        <time>2019-04-21T15:01:49Z</time>
      </trkpt>
      <trkpt lat="43.22334" lon="5.46956">
        <ele>406.29</ele>
        <time>2019-04-21T15:01:50Z</time>
      </trkpt>
      <trkpt lat="43.22337" lon="5.46957">
        <ele>406.77</ele>
        <time>2019-04-21T15:01:51Z</time>
      </trkpt>
      <trkpt lat="43.22339" lon="5.46957">
        <ele>406.29</ele>
        <time>2019-04-21T15:01:52Z</time>
      </trkpt>
      <trkpt lat="43.22341" lon="5.46957">
        <ele>406.29</ele>
        <time>2019-04-21T15:01:56Z</time>
      </trkpt>
      <trkpt lat="43.22342" lon="5.46957">
        <ele>406.29</ele>
        <time>2019-04-21T15:01:57Z</time>
      </trkpt>
      <trkpt lat="43.22344" lon="5.46958">
        <ele>406.77</ele>
        <time>2019-04-21T15:01:58Z</time>
      </trkpt>
      <trkpt lat="43.22345" lon="5.4696">
        <ele>406.29</ele>
        <time>2019-04-21T15:01:59Z</time>
      </trkpt>
      <trkpt lat="43.22347" lon="5.46961">
        <ele>405.81</ele>
        <time>2019-04-21T15:02:00Z</time>
      </trkpt>
      <trkpt lat="43.22348" lon="5.46962">
        <ele>405.33</ele>
        <time>2019-04-21T15:02:01Z</time>
      </trkpt>
      <trkpt lat="43.22354" lon="5.46958">
        <ele>404.37</ele>
        <time>2019-04-21T15:02:10Z</time>
      </trkpt>
      <trkpt lat="43.22356" lon="5.46957">
        <ele>404.37</ele>
        <time>2019-04-21T15:02:11Z</time>
      </trkpt>
      <trkpt lat="43.22358" lon="5.46957">
        <ele>403.89</ele>
        <time>2019-04-21T15:02:12Z</time>
      </trkpt>
      <trkpt lat="43.22362" lon="5.46958">
        <ele>401.97</ele>
        <time>2019-04-21T15:02:20Z</time>
      </trkpt>
      <trkpt lat="43.22365" lon="5.46957">
        <ele>401.49</ele>
        <time>2019-04-21T15:02:24Z</time>
      </trkpt>
      <trkpt lat="43.22367" lon="5.46958">
        <ele>401.49</ele>
        <time>2019-04-21T15:02:25Z</time>
      </trkpt>
      <trkpt lat="43.22368" lon="5.46959">
        <ele>401.01</ele>
        <time>2019-04-21T15:02:26Z</time>
      </trkpt>
      <trkpt lat="43.2237" lon="5.4696">
        <ele>400.53</ele>
        <time>2019-04-21T15:02:27Z</time>
      </trkpt>
      <trkpt lat="43.22372" lon="5.46961">
        <ele>400.53</ele>
        <time>2019-04-21T15:02:28Z</time>
      </trkpt>
      <trkpt lat="43.22374" lon="5.46961">
        <ele>399.57</ele>
        <time>2019-04-21T15:02:30Z</time>
      </trkpt>
      <trkpt lat="43.22384" lon="5.4696">
        <ele>397.16</ele>
        <time>2019-04-21T15:02:41Z</time>
      </trkpt>
      <trkpt lat="43.22384" lon="5.46961">
        <ele>397.16</ele>
        <time>2019-04-21T15:02:42Z</time>
      </trkpt>
      <trkpt lat="43.2239" lon="5.46966">
        <ele>394.76</ele>
        <time>2019-04-21T15:02:53Z</time>
      </trkpt>
      <trkpt lat="43.22396" lon="5.46966">
        <ele>392.84</ele>
        <time>2019-04-21T15:03:04Z</time>
      </trkpt>
      <trkpt lat="43.224" lon="5.4697">
        <ele>389.47</ele>
        <time>2019-04-21T15:03:14Z</time>
      </trkpt>
      <trkpt lat="43.22409" lon="5.46973">
        <ele>388.99</ele>
        <time>2019-04-21T15:03:19Z</time>
      </trkpt>
      <trkpt lat="43.2241" lon="5.46972">
        <ele>388.99</ele>
        <time>2019-04-21T15:03:20Z</time>
      </trkpt>
      <trkpt lat="43.22418" lon="5.46972">
        <ele>388.03</ele>
        <time>2019-04-21T15:03:30Z</time>
      </trkpt>
      <trkpt lat="43.22425" lon="5.46971">
        <ele>386.11</ele>
        <time>2019-04-21T15:03:41Z</time>
      </trkpt>
      <trkpt lat="43.22432" lon="5.46972">
        <ele>384.66</ele>
        <time>2019-04-21T15:03:51Z</time>
      </trkpt>
      <trkpt lat="43.22435" lon="5.46974">
        <ele>385.15</ele>
        <time>2019-04-21T15:03:53Z</time>
      </trkpt>
      <trkpt lat="43.22446" lon="5.4698">
        <ele>384.18</ele>
        <time>2019-04-21T15:04:02Z</time>
      </trkpt>
      <trkpt lat="43.2245" lon="5.46978">
        <ele>384.18</ele>
        <time>2019-04-21T15:04:06Z</time>
      </trkpt>
      <trkpt lat="43.22457" lon="5.46977">
        <ele>382.26</ele>
        <time>2019-04-21T15:04:17Z</time>
      </trkpt>
      <trkpt lat="43.22462" lon="5.46978">
        <ele>380.34</ele>
        <time>2019-04-21T15:04:22Z</time>
      </trkpt>
      <trkpt lat="43.22463" lon="5.46979">
        <ele>380.34</ele>
        <time>2019-04-21T15:04:23Z</time>
      </trkpt>
      <trkpt lat="43.22469" lon="5.46978">
        <ele>379.86</ele>
        <time>2019-04-21T15:04:27Z</time>
      </trkpt>
      <trkpt lat="43.22471" lon="5.46977">
        <ele>379.38</ele>
        <time>2019-04-21T15:04:29Z</time>
      </trkpt>
      <trkpt lat="43.22473" lon="5.46976">
        <ele>378.9</ele>
        <time>2019-04-21T15:04:30Z</time>
      </trkpt>
      <trkpt lat="43.22475" lon="5.46974">
        <ele>378.42</ele>
        <time>2019-04-21T15:04:31Z</time>
      </trkpt>
      <trkpt lat="43.22477" lon="5.46974">
        <ele>378.42</ele>
        <time>2019-04-21T15:04:32Z</time>
      </trkpt>
      <trkpt lat="43.22481" lon="5.46975">
        <ele>377.94</ele>
        <time>2019-04-21T15:04:35Z</time>
      </trkpt>
      <trkpt lat="43.22483" lon="5.46974">
        <ele>377.94</ele>
        <time>2019-04-21T15:04:36Z</time>
      </trkpt>
      <trkpt lat="43.22483" lon="5.46973">
        <ele>377.45</ele>
        <time>2019-04-21T15:04:37Z</time>
      </trkpt>
      <trkpt lat="43.22485" lon="5.46972">
        <ele>376.49</ele>
        <time>2019-04-21T15:04:39Z</time>
      </trkpt>
      <trkpt lat="43.22487" lon="5.46969">
        <ele>376.01</ele>
        <time>2019-04-21T15:04:42Z</time>
      </trkpt>
      <trkpt lat="43.22488" lon="5.46967">
        <ele>376.01</ele>
        <time>2019-04-21T15:04:43Z</time>
      </trkpt>
      <trkpt lat="43.22489" lon="5.46966">
        <ele>376.01</ele>
        <time>2019-04-21T15:04:44Z</time>
      </trkpt>
      <trkpt lat="43.2249" lon="5.46965">
        <ele>375.05</ele>
        <time>2019-04-21T15:04:45Z</time>
      </trkpt>
      <trkpt lat="43.22492" lon="5.46964">
        <ele>375.05</ele>
        <time>2019-04-21T15:04:46Z</time>
      </trkpt>
      <trkpt lat="43.22496" lon="5.46964">
        <ele>375.05</ele>
        <time>2019-04-21T15:04:49Z</time>
      </trkpt>
      <trkpt lat="43.22498" lon="5.46967">
        <ele>374.09</ele>
        <time>2019-04-21T15:04:56Z</time>
      </trkpt>
      <trkpt lat="43.22504" lon="5.46966">
        <ele>372.17</ele>
        <time>2019-04-21T15:05:07Z</time>
      </trkpt>
      <trkpt lat="43.22512" lon="5.46968">
        <ele>371.21</ele>
        <time>2019-04-21T15:05:15Z</time>
      </trkpt>
      <trkpt lat="43.22514" lon="5.46968">
        <ele>371.21</ele>
        <time>2019-04-21T15:05:16Z</time>
      </trkpt>
      <trkpt lat="43.22523" lon="5.4697">
        <ele>368.8</ele>
        <time>2019-04-21T15:05:28Z</time>
      </trkpt>
      <trkpt lat="43.22531" lon="5.46975">
        <ele>365.92</ele>
        <time>2019-04-21T15:05:43Z</time>
      </trkpt>
      <trkpt lat="43.22538" lon="5.46982">
        <ele>364.48</ele>
        <time>2019-04-21T15:05:52Z</time>
      </trkpt>
      <trkpt lat="43.22545" lon="5.46985">
        <ele>362.07</ele>
        <time>2019-04-21T15:06:04Z</time>
      </trkpt>
      <trkpt lat="43.22549" lon="5.46987">
        <ele>361.11</ele>
        <time>2019-04-21T15:06:10Z</time>
      </trkpt>
      <trkpt lat="43.22558" lon="5.46988">
        <ele>359.67</ele>
        <time>2019-04-21T15:06:24Z</time>
      </trkpt>
      <trkpt lat="43.22554" lon="5.47001">
        <ele>360.15</ele>
        <time>2019-04-21T15:06:47Z</time>
      </trkpt>
      <trkpt lat="43.22551" lon="5.47012">
        <ele>361.59</ele>
        <time>2019-04-21T15:07:15Z</time>
      </trkpt>
      <trkpt lat="43.22544" lon="5.47019">
        <ele>361.59</ele>
        <time>2019-04-21T15:07:45Z</time>
      </trkpt>
      <trkpt lat="43.2255" lon="5.47017">
        <ele>362.55</ele>
        <time>2019-04-21T15:08:14Z</time>
      </trkpt>
      <trkpt lat="43.22551" lon="5.47014">
        <ele>363.04</ele>
        <time>2019-04-21T15:08:34Z</time>
      </trkpt>
      <trkpt lat="43.22549" lon="5.47023">
        <ele>364</ele>
        <time>2019-04-21T15:09:04Z</time>
      </trkpt>
      <trkpt lat="43.22544" lon="5.47026">
        <ele>364</ele>
        <time>2019-04-21T15:09:28Z</time>
      </trkpt>
      <trkpt lat="43.22543" lon="5.47029">
        <ele>364.48</ele>
        <time>2019-04-21T15:09:55Z</time>
      </trkpt>
      <trkpt lat="43.22542" lon="5.47034">
        <ele>364.96</ele>
        <time>2019-04-21T15:10:09Z</time>
      </trkpt>
      <trkpt lat="43.22548" lon="5.47032">
        <ele>364.48</ele>
        <time>2019-04-21T15:10:21Z</time>
      </trkpt>
      <trkpt lat="43.22556" lon="5.47025">
        <ele>363.04</ele>
        <time>2019-04-21T15:10:32Z</time>
      </trkpt>
      <trkpt lat="43.22559" lon="5.4701">
        <ele>363.04</ele>
        <time>2019-04-21T15:10:34Z</time>
      </trkpt>
      <trkpt lat="43.22567" lon="5.46997">
        <ele>360.63</ele>
        <time>2019-04-21T15:10:42Z</time>
      </trkpt>
      <trkpt lat="43.2257" lon="5.46998">
        <ele>360.63</ele>
        <time>2019-04-21T15:10:43Z</time>
      </trkpt>
      <trkpt lat="43.22571" lon="5.46998">
        <ele>361.11</ele>
        <time>2019-04-21T15:10:44Z</time>
      </trkpt>
      <trkpt lat="43.22574" lon="5.47001">
        <ele>360.15</ele>
        <time>2019-04-21T15:10:56Z</time>
      </trkpt>
      <trkpt lat="43.2258" lon="5.47">
        <ele>359.19</ele>
        <time>2019-04-21T15:11:04Z</time>
      </trkpt>
      <trkpt lat="43.22582" lon="5.46997">
        <ele>358.71</ele>
        <time>2019-04-21T15:11:06Z</time>
      </trkpt>
      <trkpt lat="43.22582" lon="5.46996">
        <ele>358.71</ele>
        <time>2019-04-21T15:11:07Z</time>
      </trkpt>
      <trkpt lat="43.22583" lon="5.46994">
        <ele>358.71</ele>
        <time>2019-04-21T15:11:08Z</time>
      </trkpt>
      <trkpt lat="43.22586" lon="5.46992">
        <ele>357.27</ele>
        <time>2019-04-21T15:11:13Z</time>
      </trkpt>
      <trkpt lat="43.22587" lon="5.46991">
        <ele>357.27</ele>
        <time>2019-04-21T15:11:14Z</time>
      </trkpt>
      <trkpt lat="43.22589" lon="5.4699">
        <ele>356.79</ele>
        <time>2019-04-21T15:11:15Z</time>
      </trkpt>
      <trkpt lat="43.22591" lon="5.46989">
        <ele>356.31</ele>
        <time>2019-04-21T15:11:16Z</time>
      </trkpt>
      <trkpt lat="43.22593" lon="5.46989">
        <ele>356.31</ele>
        <time>2019-04-21T15:11:17Z</time>
      </trkpt>
      <trkpt lat="43.22596" lon="5.4699">
        <ele>354.38</ele>
        <time>2019-04-21T15:11:20Z</time>
      </trkpt>
      <trkpt lat="43.22598" lon="5.46993">
        <ele>353.9</ele>
        <time>2019-04-21T15:11:27Z</time>
      </trkpt>
      <trkpt lat="43.22601" lon="5.46993">
        <ele>353.9</ele>
        <time>2019-04-21T15:11:29Z</time>
      </trkpt>
      <trkpt lat="43.22603" lon="5.46992">
        <ele>352.94</ele>
        <time>2019-04-21T15:11:31Z</time>
      </trkpt>
      <trkpt lat="43.22605" lon="5.46992">
        <ele>352.94</ele>
        <time>2019-04-21T15:11:32Z</time>
      </trkpt>
      <trkpt lat="43.22606" lon="5.46991">
        <ele>352.46</ele>
        <time>2019-04-21T15:11:33Z</time>
      </trkpt>
      <trkpt lat="43.22608" lon="5.46991">
        <ele>352.46</ele>
        <time>2019-04-21T15:11:34Z</time>
      </trkpt>
      <trkpt lat="43.2261" lon="5.4699">
        <ele>351.98</ele>
        <time>2019-04-21T15:11:35Z</time>
      </trkpt>
      <trkpt lat="43.22611" lon="5.4699">
        <ele>351.5</ele>
        <time>2019-04-21T15:11:36Z</time>
      </trkpt>
      <trkpt lat="43.22614" lon="5.4699">
        <ele>350.54</ele>
        <time>2019-04-21T15:11:37Z</time>
      </trkpt>
      <trkpt lat="43.22615" lon="5.46988">
        <ele>350.54</ele>
        <time>2019-04-21T15:11:38Z</time>
      </trkpt>
      <trkpt lat="43.22617" lon="5.46985">
        <ele>350.06</ele>
        <time>2019-04-21T15:11:39Z</time>
      </trkpt>
      <trkpt lat="43.22622" lon="5.46979">
        <ele>347.65</ele>
        <time>2019-04-21T15:11:48Z</time>
      </trkpt>
      <trkpt lat="43.22625" lon="5.46975">
        <ele>347.65</ele>
        <time>2019-04-21T15:11:53Z</time>
      </trkpt>
      <trkpt lat="43.22626" lon="5.46974">
        <ele>347.65</ele>
        <time>2019-04-21T15:11:54Z</time>
      </trkpt>
      <trkpt lat="43.22628" lon="5.46969">
        <ele>346.69</ele>
        <time>2019-04-21T15:12:01Z</time>
      </trkpt>
      <trkpt lat="43.22628" lon="5.46968">
        <ele>346.21</ele>
        <time>2019-04-21T15:12:02Z</time>
      </trkpt>
      <trkpt lat="43.2263" lon="5.46967">
        <ele>346.21</ele>
        <time>2019-04-21T15:12:03Z</time>
      </trkpt>
      <trkpt lat="43.22637" lon="5.46957">
        <ele>343.33</ele>
        <time>2019-04-21T15:12:10Z</time>
      </trkpt>
      <trkpt lat="43.22638" lon="5.46951">
        <ele>341.41</ele>
        <time>2019-04-21T15:12:13Z</time>
      </trkpt>
      <trkpt lat="43.22638" lon="5.46949">
        <ele>341.41</ele>
        <time>2019-04-21T15:12:14Z</time>
      </trkpt>
      <trkpt lat="43.22638" lon="5.46947">
        <ele>340.92</ele>
        <time>2019-04-21T15:12:15Z</time>
      </trkpt>
      <trkpt lat="43.22639" lon="5.46945">
        <ele>340.44</ele>
        <time>2019-04-21T15:12:16Z</time>
      </trkpt>
      <trkpt lat="43.2264" lon="5.46943">
        <ele>339.96</ele>
        <time>2019-04-21T15:12:17Z</time>
      </trkpt>
      <trkpt lat="43.22641" lon="5.46942">
        <ele>339.96</ele>
        <time>2019-04-21T15:12:18Z</time>
      </trkpt>
      <trkpt lat="43.22641" lon="5.46942">
        <ele>339</ele>
        <time>2019-04-21T15:12:19Z</time>
      </trkpt>
      <trkpt lat="43.2264" lon="5.46937">
        <ele>338.04</ele>
        <time>2019-04-21T15:12:25Z</time>
      </trkpt>
      <trkpt lat="43.2264" lon="5.46935">
        <ele>337.56</ele>
        <time>2019-04-21T15:12:26Z</time>
      </trkpt>
      <trkpt lat="43.22642" lon="5.46929">
        <ele>336.6</ele>
        <time>2019-04-21T15:12:32Z</time>
      </trkpt>
      <trkpt lat="43.22642" lon="5.46927">
        <ele>336.6</ele>
        <time>2019-04-21T15:12:33Z</time>
      </trkpt>
      <trkpt lat="43.22642" lon="5.46914">
        <ele>335.64</ele>
        <time>2019-04-21T15:12:41Z</time>
      </trkpt>
      <trkpt lat="43.22645" lon="5.4691">
        <ele>334.68</ele>
        <time>2019-04-21T15:12:48Z</time>
      </trkpt>
      <trkpt lat="43.22646" lon="5.46908">
        <ele>334.68</ele>
        <time>2019-04-21T15:12:49Z</time>
      </trkpt>
      <trkpt lat="43.22648" lon="5.46906">
        <ele>334.2</ele>
        <time>2019-04-21T15:12:50Z</time>
      </trkpt>
      <trkpt lat="43.22649" lon="5.46905">
        <ele>333.71</ele>
        <time>2019-04-21T15:12:51Z</time>
      </trkpt>
      <trkpt lat="43.22651" lon="5.46904">
        <ele>334.2</ele>
        <time>2019-04-21T15:12:52Z</time>
      </trkpt>
      <trkpt lat="43.22653" lon="5.46902">
        <ele>333.71</ele>
        <time>2019-04-21T15:12:54Z</time>
      </trkpt>
      <trkpt lat="43.22657" lon="5.46896">
        <ele>333.23</ele>
        <time>2019-04-21T15:13:01Z</time>
      </trkpt>
      <trkpt lat="43.22658" lon="5.46895">
        <ele>332.75</ele>
        <time>2019-04-21T15:13:02Z</time>
      </trkpt>
      <trkpt lat="43.22665" lon="5.46889">
        <ele>332.27</ele>
        <time>2019-04-21T15:13:07Z</time>
      </trkpt>
      <trkpt lat="43.2267" lon="5.46884">
        <ele>330.83</ele>
        <time>2019-04-21T15:13:16Z</time>
      </trkpt>
      <trkpt lat="43.22671" lon="5.46884">
        <ele>330.83</ele>
        <time>2019-04-21T15:13:17Z</time>
      </trkpt>
      <trkpt lat="43.22673" lon="5.46883">
        <ele>330.83</ele>
        <time>2019-04-21T15:13:18Z</time>
      </trkpt>
      <trkpt lat="43.22674" lon="5.46883">
        <ele>330.35</ele>
        <time>2019-04-21T15:13:19Z</time>
      </trkpt>
      <trkpt lat="43.22678" lon="5.4688">
        <ele>329.39</ele>
        <time>2019-04-21T15:13:28Z</time>
      </trkpt>
      <trkpt lat="43.22684" lon="5.46878">
        <ele>328.91</ele>
        <time>2019-04-21T15:13:40Z</time>
      </trkpt>
      <trkpt lat="43.22684" lon="5.46874">
        <ele>328.43</ele>
        <time>2019-04-21T15:13:53Z</time>
      </trkpt>
      <trkpt lat="43.22685" lon="5.46875">
        <ele>328.91</ele>
        <time>2019-04-21T15:14:16Z</time>
      </trkpt>
      <trkpt lat="43.22686" lon="5.46881">
        <ele>328.91</ele>
        <time>2019-04-21T15:14:50Z</time>
      </trkpt>
      <trkpt lat="43.22684" lon="5.46874">
        <ele>327.47</ele>
        <time>2019-04-21T15:15:29Z</time>
      </trkpt>
      <trkpt lat="43.22686" lon="5.46877">
        <ele>328.43</ele>
        <time>2019-04-21T15:16:06Z</time>
      </trkpt>
      <trkpt lat="43.22689" lon="5.46872">
        <ele>327.95</ele>
        <time>2019-04-21T15:16:22Z</time>
      </trkpt>
      <trkpt lat="43.2269" lon="5.46871">
        <ele>327.95</ele>
        <time>2019-04-21T15:16:23Z</time>
      </trkpt>
      <trkpt lat="43.22697" lon="5.46865">
        <ele>326.5</ele>
        <time>2019-04-21T15:16:34Z</time>
      </trkpt>
      <trkpt lat="43.22708" lon="5.46855">
        <ele>325.54</ele>
        <time>2019-04-21T15:16:45Z</time>
      </trkpt>
      <trkpt lat="43.22711" lon="5.46854">
        <ele>324.58</ele>
        <time>2019-04-21T15:16:49Z</time>
      </trkpt>
      <trkpt lat="43.22712" lon="5.46853">
        <ele>324.1</ele>
        <time>2019-04-21T15:16:54Z</time>
      </trkpt>
      <trkpt lat="43.22713" lon="5.46851">
        <ele>324.1</ele>
        <time>2019-04-21T15:16:55Z</time>
      </trkpt>
      <trkpt lat="43.22714" lon="5.46849">
        <ele>324.1</ele>
        <time>2019-04-21T15:16:56Z</time>
      </trkpt>
      <trkpt lat="43.22715" lon="5.4684">
        <ele>322.18</ele>
        <time>2019-04-21T15:17:07Z</time>
      </trkpt>
      <trkpt lat="43.22715" lon="5.46837">
        <ele>321.7</ele>
        <time>2019-04-21T15:17:09Z</time>
      </trkpt>
      <trkpt lat="43.22715" lon="5.46826">
        <ele>320.74</ele>
        <time>2019-04-21T15:17:18Z</time>
      </trkpt>
      <trkpt lat="43.22718" lon="5.46821">
        <ele>319.78</ele>
        <time>2019-04-21T15:17:23Z</time>
      </trkpt>
      <trkpt lat="43.22719" lon="5.4681">
        <ele>318.81</ele>
        <time>2019-04-21T15:17:33Z</time>
      </trkpt>
      <trkpt lat="43.2272" lon="5.46801">
        <ele>318.81</ele>
        <time>2019-04-21T15:17:40Z</time>
      </trkpt>
      <trkpt lat="43.22721" lon="5.468">
        <ele>318.81</ele>
        <time>2019-04-21T15:17:41Z</time>
      </trkpt>
      <trkpt lat="43.22729" lon="5.46796">
        <ele>318.33</ele>
        <time>2019-04-21T15:17:52Z</time>
      </trkpt>
      <trkpt lat="43.22736" lon="5.46792">
        <ele>317.85</ele>
        <time>2019-04-21T15:17:58Z</time>
      </trkpt>
      <trkpt lat="43.22745" lon="5.46781">
        <ele>318.33</ele>
        <time>2019-04-21T15:18:09Z</time>
      </trkpt>
      <trkpt lat="43.22749" lon="5.46776">
        <ele>318.33</ele>
        <time>2019-04-21T15:18:15Z</time>
      </trkpt>
      <trkpt lat="43.2275" lon="5.46775">
        <ele>318.33</ele>
        <time>2019-04-21T15:18:16Z</time>
      </trkpt>
      <trkpt lat="43.22759" lon="5.46763">
        <ele>317.85</ele>
        <time>2019-04-21T15:18:28Z</time>
      </trkpt>
      <trkpt lat="43.22767" lon="5.46749">
        <ele>318.33</ele>
        <time>2019-04-21T15:18:42Z</time>
      </trkpt>
      <trkpt lat="43.22768" lon="5.46745">
        <ele>319.3</ele>
        <time>2019-04-21T15:18:47Z</time>
      </trkpt>
      <trkpt lat="43.22769" lon="5.46744">
        <ele>319.78</ele>
        <time>2019-04-21T15:18:48Z</time>
      </trkpt>
      <trkpt lat="43.2277" lon="5.46742">
        <ele>319.78</ele>
        <time>2019-04-21T15:18:49Z</time>
      </trkpt>
      <trkpt lat="43.22773" lon="5.46736">
        <ele>319.78</ele>
        <time>2019-04-21T15:18:57Z</time>
      </trkpt>
      <trkpt lat="43.22775" lon="5.46734">
        <ele>319.78</ele>
        <time>2019-04-21T15:18:58Z</time>
      </trkpt>
      <trkpt lat="43.22776" lon="5.46733">
        <ele>320.26</ele>
        <time>2019-04-21T15:18:59Z</time>
      </trkpt>
      <trkpt lat="43.22777" lon="5.46731">
        <ele>320.26</ele>
        <time>2019-04-21T15:19:00Z</time>
      </trkpt>
      <trkpt lat="43.22779" lon="5.46728">
        <ele>320.26</ele>
        <time>2019-04-21T15:19:01Z</time>
      </trkpt>
      <trkpt lat="43.22781" lon="5.46722">
        <ele>320.74</ele>
        <time>2019-04-21T15:19:06Z</time>
      </trkpt>
      <trkpt lat="43.22781" lon="5.46721">
        <ele>320.74</ele>
        <time>2019-04-21T15:19:07Z</time>
      </trkpt>
      <trkpt lat="43.22782" lon="5.46719">
        <ele>320.74</ele>
        <time>2019-04-21T15:19:08Z</time>
      </trkpt>
      <trkpt lat="43.22784" lon="5.46715">
        <ele>320.74</ele>
        <time>2019-04-21T15:19:12Z</time>
      </trkpt>
      <trkpt lat="43.22785" lon="5.46714">
        <ele>320.74</ele>
        <time>2019-04-21T15:19:13Z</time>
      </trkpt>
      <trkpt lat="43.22786" lon="5.46711">
        <ele>321.22</ele>
        <time>2019-04-21T15:19:14Z</time>
      </trkpt>
      <trkpt lat="43.22788" lon="5.46706">
        <ele>320.74</ele>
        <time>2019-04-21T15:19:19Z</time>
      </trkpt>
      <trkpt lat="43.2279" lon="5.46705">
        <ele>320.74</ele>
        <time>2019-04-21T15:19:20Z</time>
      </trkpt>
      <trkpt lat="43.22792" lon="5.46703">
        <ele>320.26</ele>
        <time>2019-04-21T15:19:21Z</time>
      </trkpt>
      <trkpt lat="43.22793" lon="5.46702">
        <ele>320.74</ele>
        <time>2019-04-21T15:19:22Z</time>
      </trkpt>
      <trkpt lat="43.22794" lon="5.46701">
        <ele>320.74</ele>
        <time>2019-04-21T15:19:23Z</time>
      </trkpt>
      <trkpt lat="43.22799" lon="5.4669">
        <ele>319.3</ele>
        <time>2019-04-21T15:19:33Z</time>
      </trkpt>
      <trkpt lat="43.22801" lon="5.46687">
        <ele>320.26</ele>
        <time>2019-04-21T15:19:37Z</time>
      </trkpt>
      <trkpt lat="43.22801" lon="5.46686">
        <ele>318.81</ele>
        <time>2019-04-21T15:19:38Z</time>
      </trkpt>
      <trkpt lat="43.22808" lon="5.4667">
        <ele>319.3</ele>
        <time>2019-04-21T15:19:50Z</time>
      </trkpt>
      <trkpt lat="43.22813" lon="5.46646">
        <ele>320.26</ele>
        <time>2019-04-21T15:20:05Z</time>
      </trkpt>
      <trkpt lat="43.22815" lon="5.46632">
        <ele>319.3</ele>
        <time>2019-04-21T15:20:17Z</time>
      </trkpt>
      <trkpt lat="43.22814" lon="5.46628">
        <ele>318.81</ele>
        <time>2019-04-21T15:20:31Z</time>
      </trkpt>
      <trkpt lat="43.22812" lon="5.46631">
        <ele>318.81</ele>
        <time>2019-04-21T15:20:46Z</time>
      </trkpt>
      <trkpt lat="43.22815" lon="5.4663">
        <ele>319.3</ele>
        <time>2019-04-21T15:21:11Z</time>
      </trkpt>
      <trkpt lat="43.22815" lon="5.46627">
        <ele>318.81</ele>
        <time>2019-04-21T15:21:36Z</time>
      </trkpt>
      <trkpt lat="43.22815" lon="5.46629">
        <ele>318.81</ele>
        <time>2019-04-21T15:21:47Z</time>
      </trkpt>
      <trkpt lat="43.22814" lon="5.46628">
        <ele>318.33</ele>
        <time>2019-04-21T15:21:48Z</time>
      </trkpt>
      <trkpt lat="43.22814" lon="5.46625">
        <ele>318.33</ele>
        <time>2019-04-21T15:21:49Z</time>
      </trkpt>
      <trkpt lat="43.22813" lon="5.46616">
        <ele>317.85</ele>
        <time>2019-04-21T15:21:56Z</time>
      </trkpt>
      <trkpt lat="43.22813" lon="5.46615">
        <ele>317.85</ele>
        <time>2019-04-21T15:21:57Z</time>
      </trkpt>
      <trkpt lat="43.22814" lon="5.46613">
        <ele>317.37</ele>
        <time>2019-04-21T15:21:58Z</time>
      </trkpt>
      <trkpt lat="43.22814" lon="5.46612">
        <ele>316.89</ele>
        <time>2019-04-21T15:21:59Z</time>
      </trkpt>
      <trkpt lat="43.22821" lon="5.46598">
        <ele>318.81</ele>
        <time>2019-04-21T15:22:10Z</time>
      </trkpt>
      <trkpt lat="43.22822" lon="5.46595">
        <ele>318.33</ele>
        <time>2019-04-21T15:22:13Z</time>
      </trkpt>
      <trkpt lat="43.22823" lon="5.46594">
        <ele>318.33</ele>
        <time>2019-04-21T15:22:14Z</time>
      </trkpt>
      <trkpt lat="43.22824" lon="5.46591">
        <ele>319.3</ele>
        <time>2019-04-21T15:22:18Z</time>
      </trkpt>
      <trkpt lat="43.22824" lon="5.46589">
        <ele>319.3</ele>
        <time>2019-04-21T15:22:19Z</time>
      </trkpt>
      <trkpt lat="43.22825" lon="5.46585">
        <ele>319.3</ele>
        <time>2019-04-21T15:22:23Z</time>
      </trkpt>
      <trkpt lat="43.22827" lon="5.46582">
        <ele>319.78</ele>
        <time>2019-04-21T15:22:27Z</time>
      </trkpt>
      <trkpt lat="43.22829" lon="5.46573">
        <ele>321.22</ele>
        <time>2019-04-21T15:22:36Z</time>
      </trkpt>
      <trkpt lat="43.2283" lon="5.46572">
        <ele>321.7</ele>
        <time>2019-04-21T15:22:37Z</time>
      </trkpt>
      <trkpt lat="43.22831" lon="5.46569">
        <ele>321.7</ele>
        <time>2019-04-21T15:22:41Z</time>
      </trkpt>
      <trkpt lat="43.22832" lon="5.46568">
        <ele>322.66</ele>
        <time>2019-04-21T15:22:42Z</time>
      </trkpt>
      <trkpt lat="43.22836" lon="5.46557">
        <ele>323.62</ele>
        <time>2019-04-21T15:22:52Z</time>
      </trkpt>
      <trkpt lat="43.22839" lon="5.46551">
        <ele>323.62</ele>
        <time>2019-04-21T15:22:57Z</time>
      </trkpt>
      <trkpt lat="43.2284" lon="5.46549">
        <ele>323.62</ele>
        <time>2019-04-21T15:22:58Z</time>
      </trkpt>
      <trkpt lat="43.22843" lon="5.46548">
        <ele>324.58</ele>
        <time>2019-04-21T15:23:02Z</time>
      </trkpt>
      <trkpt lat="43.22844" lon="5.46547">
        <ele>325.06</ele>
        <time>2019-04-21T15:23:03Z</time>
      </trkpt>
      <trkpt lat="43.22845" lon="5.46544">
        <ele>325.54</ele>
        <time>2019-04-21T15:23:07Z</time>
      </trkpt>
      <trkpt lat="43.22846" lon="5.46543">
        <ele>325.54</ele>
        <time>2019-04-21T15:23:08Z</time>
      </trkpt>
      <trkpt lat="43.22846" lon="5.46541">
        <ele>326.02</ele>
        <time>2019-04-21T15:23:11Z</time>
      </trkpt>
      <trkpt lat="43.22847" lon="5.46538">
        <ele>326.99</ele>
        <time>2019-04-21T15:23:20Z</time>
      </trkpt>
      <trkpt lat="43.22847" lon="5.46534">
        <ele>327.95</ele>
        <time>2019-04-21T15:23:30Z</time>
      </trkpt>
      <trkpt lat="43.22851" lon="5.46527">
        <ele>328.43</ele>
        <time>2019-04-21T15:23:38Z</time>
      </trkpt>
      <trkpt lat="43.22855" lon="5.46518">
        <ele>330.83</ele>
        <time>2019-04-21T15:23:48Z</time>
      </trkpt>
      <trkpt lat="43.22856" lon="5.46516">
        <ele>330.83</ele>
        <time>2019-04-21T15:23:51Z</time>
      </trkpt>
      <trkpt lat="43.22859" lon="5.46511">
        <ele>332.27</ele>
        <time>2019-04-21T15:23:58Z</time>
      </trkpt>
      <trkpt lat="43.22862" lon="5.46509">
        <ele>332.27</ele>
        <time>2019-04-21T15:24:04Z</time>
      </trkpt>
      <trkpt lat="43.22863" lon="5.46505">
        <ele>333.71</ele>
        <time>2019-04-21T15:24:08Z</time>
      </trkpt>
      <trkpt lat="43.22865" lon="5.46499">
        <ele>334.68</ele>
        <time>2019-04-21T15:24:14Z</time>
      </trkpt>
      <trkpt lat="43.2287" lon="5.46493">
        <ele>336.12</ele>
        <time>2019-04-21T15:24:24Z</time>
      </trkpt>
      <trkpt lat="43.22871" lon="5.4649">
        <ele>336.12</ele>
        <time>2019-04-21T15:24:27Z</time>
      </trkpt>
      <trkpt lat="43.22872" lon="5.46487">
        <ele>337.08</ele>
        <time>2019-04-21T15:24:31Z</time>
      </trkpt>
      <trkpt lat="43.22875" lon="5.46486">
        <ele>337.56</ele>
        <time>2019-04-21T15:24:43Z</time>
      </trkpt>
      <trkpt lat="43.22877" lon="5.46483">
        <ele>337.56</ele>
        <time>2019-04-21T15:24:49Z</time>
      </trkpt>
      <trkpt lat="43.22881" lon="5.46477">
        <ele>339.48</ele>
        <time>2019-04-21T15:24:59Z</time>
      </trkpt>
      <trkpt lat="43.22881" lon="5.46476">
        <ele>339.48</ele>
        <time>2019-04-21T15:25:00Z</time>
      </trkpt>
      <trkpt lat="43.22884" lon="5.46473">
        <ele>340.44</ele>
        <time>2019-04-21T15:25:07Z</time>
      </trkpt>
      <trkpt lat="43.22886" lon="5.4647">
        <ele>341.41</ele>
        <time>2019-04-21T15:25:10Z</time>
      </trkpt>
      <trkpt lat="43.22892" lon="5.46466">
        <ele>342.37</ele>
        <time>2019-04-21T15:25:20Z</time>
      </trkpt>
      <trkpt lat="43.22897" lon="5.46463">
        <ele>343.81</ele>
        <time>2019-04-21T15:25:26Z</time>
      </trkpt>
      <trkpt lat="43.229" lon="5.46461">
        <ele>344.29</ele>
        <time>2019-04-21T15:25:30Z</time>
      </trkpt>
      <trkpt lat="43.22901" lon="5.4646">
        <ele>344.29</ele>
        <time>2019-04-21T15:25:33Z</time>
      </trkpt>
      <trkpt lat="43.22902" lon="5.46459">
        <ele>344.77</ele>
        <time>2019-04-21T15:25:34Z</time>
      </trkpt>
      <trkpt lat="43.22905" lon="5.46458">
        <ele>345.25</ele>
        <time>2019-04-21T15:25:37Z</time>
      </trkpt>
      <trkpt lat="43.22909" lon="5.46455">
        <ele>345.73</ele>
        <time>2019-04-21T15:25:47Z</time>
      </trkpt>
      <trkpt lat="43.22912" lon="5.46452">
        <ele>345.73</ele>
        <time>2019-04-21T15:25:52Z</time>
      </trkpt>
      <trkpt lat="43.22918" lon="5.46448">
        <ele>346.69</ele>
        <time>2019-04-21T15:26:00Z</time>
      </trkpt>
      <trkpt lat="43.22925" lon="5.46441">
        <ele>348.62</ele>
        <time>2019-04-21T15:26:11Z</time>
      </trkpt>
      <trkpt lat="43.22926" lon="5.46439">
        <ele>349.1</ele>
        <time>2019-04-21T15:26:14Z</time>
      </trkpt>
      <trkpt lat="43.22934" lon="5.46432">
        <ele>350.06</ele>
        <time>2019-04-21T15:26:26Z</time>
      </trkpt>
      <trkpt lat="43.2294" lon="5.46429">
        <ele>351.02</ele>
        <time>2019-04-21T15:26:33Z</time>
      </trkpt>
      <trkpt lat="43.22942" lon="5.46428">
        <ele>351.98</ele>
        <time>2019-04-21T15:26:36Z</time>
      </trkpt>
      <trkpt lat="43.22945" lon="5.46427">
        <ele>351.98</ele>
        <time>2019-04-21T15:26:40Z</time>
      </trkpt>
      <trkpt lat="43.22947" lon="5.46426">
        <ele>352.46</ele>
        <time>2019-04-21T15:26:43Z</time>
      </trkpt>
      <trkpt lat="43.2295" lon="5.46423">
        <ele>353.42</ele>
        <time>2019-04-21T15:26:47Z</time>
      </trkpt>
      <trkpt lat="43.22951" lon="5.46422">
        <ele>353.42</ele>
        <time>2019-04-21T15:26:48Z</time>
      </trkpt>
      <trkpt lat="43.22955" lon="5.4642">
        <ele>354.38</ele>
        <time>2019-04-21T15:26:54Z</time>
      </trkpt>
      <trkpt lat="43.22959" lon="5.46417">
        <ele>354.38</ele>
        <time>2019-04-21T15:26:58Z</time>
      </trkpt>
      <trkpt lat="43.2296" lon="5.46416">
        <ele>353.9</ele>
        <time>2019-04-21T15:26:59Z</time>
      </trkpt>
      <trkpt lat="43.22964" lon="5.46413">
        <ele>354.86</ele>
        <time>2019-04-21T15:27:03Z</time>
      </trkpt>
      <trkpt lat="43.22968" lon="5.46406">
        <ele>355.83</ele>
        <time>2019-04-21T15:27:13Z</time>
      </trkpt>
      <trkpt lat="43.22973" lon="5.464">
        <ele>357.27</ele>
        <time>2019-04-21T15:27:22Z</time>
      </trkpt>
      <trkpt lat="43.22974" lon="5.464">
        <ele>357.75</ele>
        <time>2019-04-21T15:27:23Z</time>
      </trkpt>
      <trkpt lat="43.22975" lon="5.46398">
        <ele>358.23</ele>
        <time>2019-04-21T15:27:35Z</time>
      </trkpt>
      <trkpt lat="43.2298" lon="5.46388">
        <ele>359.67</ele>
        <time>2019-04-21T15:27:46Z</time>
      </trkpt>
      <trkpt lat="43.22981" lon="5.46387">
        <ele>359.19</ele>
        <time>2019-04-21T15:27:47Z</time>
      </trkpt>
      <trkpt lat="43.22983" lon="5.46384">
        <ele>360.15</ele>
        <time>2019-04-21T15:27:51Z</time>
      </trkpt>
      <trkpt lat="43.22992" lon="5.46372">
        <ele>362.07</ele>
        <time>2019-04-21T15:28:03Z</time>
      </trkpt>
      <trkpt lat="43.22999" lon="5.46365">
        <ele>363.04</ele>
        <time>2019-04-21T15:28:16Z</time>
      </trkpt>
      <trkpt lat="43.23003" lon="5.46358">
        <ele>362.55</ele>
        <time>2019-04-21T15:28:28Z</time>
      </trkpt>
      <trkpt lat="43.23004" lon="5.46351">
        <ele>364</ele>
        <time>2019-04-21T15:28:34Z</time>
      </trkpt>
      <trkpt lat="43.23011" lon="5.4633">
        <ele>366.4</ele>
        <time>2019-04-21T15:28:55Z</time>
      </trkpt>
      <trkpt lat="43.23015" lon="5.46319">
        <ele>367.84</ele>
        <time>2019-04-21T15:29:07Z</time>
      </trkpt>
      <trkpt lat="43.23018" lon="5.46309">
        <ele>368.8</ele>
        <time>2019-04-21T15:29:18Z</time>
      </trkpt>
      <trkpt lat="43.23022" lon="5.46296">
        <ele>370.24</ele>
        <time>2019-04-21T15:29:35Z</time>
      </trkpt>
      <trkpt lat="43.23026" lon="5.46295">
        <ele>370.24</ele>
        <time>2019-04-21T15:29:54Z</time>
      </trkpt>
      <trkpt lat="43.2303" lon="5.4629">
        <ele>369.76</ele>
        <time>2019-04-21T15:30:00Z</time>
      </trkpt>
      <trkpt lat="43.23049" lon="5.46274">
        <ele>368.8</ele>
        <time>2019-04-21T15:30:20Z</time>
      </trkpt>
      <trkpt lat="43.2305" lon="5.46274">
        <ele>368.32</ele>
        <time>2019-04-21T15:30:21Z</time>
      </trkpt>
      <trkpt lat="43.23051" lon="5.46274">
        <ele>367.84</ele>
        <time>2019-04-21T15:30:22Z</time>
      </trkpt>
      <trkpt lat="43.23052" lon="5.46274">
        <ele>367.84</ele>
        <time>2019-04-21T15:30:23Z</time>
      </trkpt>
      <trkpt lat="43.23053" lon="5.46274">
        <ele>367.84</ele>
        <time>2019-04-21T15:30:24Z</time>
      </trkpt>
      <trkpt lat="43.23066" lon="5.46265">
        <ele>367.36</ele>
        <time>2019-04-21T15:30:35Z</time>
      </trkpt>
      <trkpt lat="43.23081" lon="5.46254">
        <ele>367.84</ele>
        <time>2019-04-21T15:30:50Z</time>
      </trkpt>
      <trkpt lat="43.23084" lon="5.46251">
        <ele>367.36</ele>
        <time>2019-04-21T15:30:59Z</time>
      </trkpt>
      <trkpt lat="43.23092" lon="5.46248">
        <ele>366.88</ele>
        <time>2019-04-21T15:31:10Z</time>
      </trkpt>
      <trkpt lat="43.23105" lon="5.46241">
        <ele>366.88</ele>
        <time>2019-04-21T15:31:19Z</time>
      </trkpt>
      <trkpt lat="43.23116" lon="5.46233">
        <ele>367.36</ele>
        <time>2019-04-21T15:31:29Z</time>
      </trkpt>
      <trkpt lat="43.23118" lon="5.46232">
        <ele>366.88</ele>
        <time>2019-04-21T15:31:34Z</time>
      </trkpt>
      <trkpt lat="43.23123" lon="5.46229">
        <ele>365.92</ele>
        <time>2019-04-21T15:31:41Z</time>
      </trkpt>
      <trkpt lat="43.23124" lon="5.46228">
        <ele>366.4</ele>
        <time>2019-04-21T15:31:42Z</time>
      </trkpt>
      <trkpt lat="43.23125" lon="5.46227">
        <ele>365.92</ele>
        <time>2019-04-21T15:31:43Z</time>
      </trkpt>
      <trkpt lat="43.23127" lon="5.46225">
        <ele>366.4</ele>
        <time>2019-04-21T15:31:44Z</time>
      </trkpt>
      <trkpt lat="43.23129" lon="5.46224">
        <ele>366.4</ele>
        <time>2019-04-21T15:31:45Z</time>
      </trkpt>
      <trkpt lat="43.23132" lon="5.46222">
        <ele>364.96</ele>
        <time>2019-04-21T15:31:48Z</time>
      </trkpt>
      <trkpt lat="43.23132" lon="5.4622">
        <ele>364.96</ele>
        <time>2019-04-21T15:31:49Z</time>
      </trkpt>
      <trkpt lat="43.23132" lon="5.46217">
        <ele>364</ele>
        <time>2019-04-21T15:31:55Z</time>
      </trkpt>
      <trkpt lat="43.2313" lon="5.46215">
        <ele>364</ele>
        <time>2019-04-21T15:31:56Z</time>
      </trkpt>
      <trkpt lat="43.23128" lon="5.4621">
        <ele>363.04</ele>
        <time>2019-04-21T15:32:04Z</time>
      </trkpt>
      <trkpt lat="43.2313" lon="5.46206">
        <ele>364</ele>
        <time>2019-04-21T15:32:16Z</time>
      </trkpt>
      <trkpt lat="43.2313" lon="5.46207">
        <ele>364</ele>
        <time>2019-04-21T15:32:22Z</time>
      </trkpt>
      <trkpt lat="43.2313" lon="5.46209">
        <ele>364</ele>
        <time>2019-04-21T15:32:23Z</time>
      </trkpt>
      <trkpt lat="43.2313" lon="5.46211">
        <ele>364</ele>
        <time>2019-04-21T15:32:27Z</time>
      </trkpt>
      <trkpt lat="43.23131" lon="5.46212">
        <ele>364</ele>
        <time>2019-04-21T15:32:28Z</time>
      </trkpt>
      <trkpt lat="43.23133" lon="5.46214">
        <ele>364</ele>
        <time>2019-04-21T15:32:29Z</time>
      </trkpt>
      <trkpt lat="43.23134" lon="5.46215">
        <ele>364</ele>
        <time>2019-04-21T15:32:30Z</time>
      </trkpt>
      <trkpt lat="43.23135" lon="5.46213">
        <ele>362.55</ele>
        <time>2019-04-21T15:32:39Z</time>
      </trkpt>
      <trkpt lat="43.23134" lon="5.46211">
        <ele>362.55</ele>
        <time>2019-04-21T15:32:40Z</time>
      </trkpt>
      <trkpt lat="43.23125" lon="5.46196">
        <ele>362.07</ele>
        <time>2019-04-21T15:32:52Z</time>
      </trkpt>
      <trkpt lat="43.23126" lon="5.46195">
        <ele>359.67</ele>
        <time>2019-04-21T15:32:55Z</time>
      </trkpt>
      <trkpt lat="43.23127" lon="5.46195">
        <ele>359.67</ele>
        <time>2019-04-21T15:32:57Z</time>
      </trkpt>
      <trkpt lat="43.23128" lon="5.46195">
        <ele>359.19</ele>
        <time>2019-04-21T15:32:58Z</time>
      </trkpt>
      <trkpt lat="43.23129" lon="5.46195">
        <ele>359.19</ele>
        <time>2019-04-21T15:32:59Z</time>
      </trkpt>
      <trkpt lat="43.23135" lon="5.46193">
        <ele>359.19</ele>
        <time>2019-04-21T15:33:09Z</time>
      </trkpt>
      <trkpt lat="43.23135" lon="5.46192">
        <ele>357.75</ele>
        <time>2019-04-21T15:33:12Z</time>
      </trkpt>
      <trkpt lat="43.23135" lon="5.46189">
        <ele>357.75</ele>
        <time>2019-04-21T15:33:26Z</time>
      </trkpt>
      <trkpt lat="43.23134" lon="5.46186">
        <ele>357.27</ele>
        <time>2019-04-21T15:33:28Z</time>
      </trkpt>
      <trkpt lat="43.23127" lon="5.46172">
        <ele>357.27</ele>
        <time>2019-04-21T15:33:37Z</time>
      </trkpt>
      <trkpt lat="43.23126" lon="5.4617">
        <ele>356.79</ele>
        <time>2019-04-21T15:33:38Z</time>
      </trkpt>
      <trkpt lat="43.23124" lon="5.46169">
        <ele>356.79</ele>
        <time>2019-04-21T15:33:39Z</time>
      </trkpt>
      <trkpt lat="43.23119" lon="5.46164">
        <ele>354.86</ele>
        <time>2019-04-21T15:33:50Z</time>
      </trkpt>
      <trkpt lat="43.23116" lon="5.46162">
        <ele>354.86</ele>
        <time>2019-04-21T15:33:54Z</time>
      </trkpt>
      <trkpt lat="43.23116" lon="5.46161">
        <ele>355.83</ele>
        <time>2019-04-21T15:33:55Z</time>
      </trkpt>
      <trkpt lat="43.23114" lon="5.46159">
        <ele>355.83</ele>
        <time>2019-04-21T15:33:56Z</time>
      </trkpt>
      <trkpt lat="43.23097" lon="5.46137">
        <ele>354.38</ele>
        <time>2019-04-21T15:34:10Z</time>
      </trkpt>
      <trkpt lat="43.23099" lon="5.46131">
        <ele>351.98</ele>
        <time>2019-04-21T15:34:21Z</time>
      </trkpt>
      <trkpt lat="43.231" lon="5.46132">
        <ele>352.46</ele>
        <time>2019-04-21T15:34:22Z</time>
      </trkpt>
      <trkpt lat="43.23112" lon="5.46141">
        <ele>351.98</ele>
        <time>2019-04-21T15:34:30Z</time>
      </trkpt>
      <trkpt lat="43.23113" lon="5.46141">
        <ele>352.46</ele>
        <time>2019-04-21T15:34:31Z</time>
      </trkpt>
      <trkpt lat="43.23121" lon="5.46142">
        <ele>351.02</ele>
        <time>2019-04-21T15:34:44Z</time>
      </trkpt>
      <trkpt lat="43.23126" lon="5.46143">
        <ele>350.06</ele>
        <time>2019-04-21T15:34:49Z</time>
      </trkpt>
      <trkpt lat="43.2314" lon="5.46155">
        <ele>349.1</ele>
        <time>2019-04-21T15:34:58Z</time>
      </trkpt>
      <trkpt lat="43.23146" lon="5.46158">
        <ele>347.65</ele>
        <time>2019-04-21T15:35:04Z</time>
      </trkpt>
      <trkpt lat="43.23148" lon="5.46158">
        <ele>346.69</ele>
        <time>2019-04-21T15:35:05Z</time>
      </trkpt>
      <trkpt lat="43.2315" lon="5.4616">
        <ele>346.69</ele>
        <time>2019-04-21T15:35:06Z</time>
      </trkpt>
      <trkpt lat="43.23152" lon="5.46164">
        <ele>346.21</ele>
        <time>2019-04-21T15:35:07Z</time>
      </trkpt>
      <trkpt lat="43.23153" lon="5.46166">
        <ele>346.69</ele>
        <time>2019-04-21T15:35:08Z</time>
      </trkpt>
      <trkpt lat="43.23155" lon="5.46169">
        <ele>346.69</ele>
        <time>2019-04-21T15:35:09Z</time>
      </trkpt>
      <trkpt lat="43.23157" lon="5.46171">
        <ele>346.21</ele>
        <time>2019-04-21T15:35:11Z</time>
      </trkpt>
      <trkpt lat="43.23158" lon="5.46172">
        <ele>346.21</ele>
        <time>2019-04-21T15:35:12Z</time>
      </trkpt>
      <trkpt lat="43.23159" lon="5.46173">
        <ele>345.73</ele>
        <time>2019-04-21T15:35:13Z</time>
      </trkpt>
      <trkpt lat="43.2316" lon="5.46175">
        <ele>346.21</ele>
        <time>2019-04-21T15:35:14Z</time>
      </trkpt>
      <trkpt lat="43.23161" lon="5.46177">
        <ele>346.21</ele>
        <time>2019-04-21T15:35:15Z</time>
      </trkpt>
      <trkpt lat="43.23163" lon="5.46179">
        <ele>346.21</ele>
        <time>2019-04-21T15:35:16Z</time>
      </trkpt>
      <trkpt lat="43.23164" lon="5.46181">
        <ele>346.21</ele>
        <time>2019-04-21T15:35:17Z</time>
      </trkpt>
      <trkpt lat="43.23166" lon="5.46183">
        <ele>345.73</ele>
        <time>2019-04-21T15:35:18Z</time>
      </trkpt>
      <trkpt lat="43.23174" lon="5.46188">
        <ele>344.29</ele>
        <time>2019-04-21T15:35:27Z</time>
      </trkpt>
      <trkpt lat="43.23175" lon="5.4619">
        <ele>343.33</ele>
        <time>2019-04-21T15:35:29Z</time>
      </trkpt>
      <trkpt lat="43.23181" lon="5.46196">
        <ele>343.81</ele>
        <time>2019-04-21T15:35:38Z</time>
      </trkpt>
      <trkpt lat="43.23182" lon="5.46198">
        <ele>343.33</ele>
        <time>2019-04-21T15:35:40Z</time>
      </trkpt>
      <trkpt lat="43.23183" lon="5.46201">
        <ele>343.81</ele>
        <time>2019-04-21T15:35:41Z</time>
      </trkpt>
      <trkpt lat="43.23184" lon="5.46203">
        <ele>343.81</ele>
        <time>2019-04-21T15:35:42Z</time>
      </trkpt>
      <trkpt lat="43.23185" lon="5.46206">
        <ele>343.33</ele>
        <time>2019-04-21T15:35:43Z</time>
      </trkpt>
      <trkpt lat="43.23187" lon="5.46204">
        <ele>341.41</ele>
        <time>2019-04-21T15:35:50Z</time>
      </trkpt>
      <trkpt lat="43.23186" lon="5.462">
        <ele>340.44</ele>
        <time>2019-04-21T15:35:55Z</time>
      </trkpt>
      <trkpt lat="43.23185" lon="5.46199">
        <ele>339.96</ele>
        <time>2019-04-21T15:35:56Z</time>
      </trkpt>
      <trkpt lat="43.23184" lon="5.46196">
        <ele>339.96</ele>
        <time>2019-04-21T15:36:01Z</time>
      </trkpt>
      <trkpt lat="43.23181" lon="5.46189">
        <ele>340.44</ele>
        <time>2019-04-21T15:36:09Z</time>
      </trkpt>
      <trkpt lat="43.23181" lon="5.46186">
        <ele>340.44</ele>
        <time>2019-04-21T15:36:10Z</time>
      </trkpt>
      <trkpt lat="43.23179" lon="5.46179">
        <ele>338.52</ele>
        <time>2019-04-21T15:36:18Z</time>
      </trkpt>
      <trkpt lat="43.23178" lon="5.46177">
        <ele>337.56</ele>
        <time>2019-04-21T15:36:23Z</time>
      </trkpt>
      <trkpt lat="43.23179" lon="5.46175">
        <ele>337.56</ele>
        <time>2019-04-21T15:36:25Z</time>
      </trkpt>
      <trkpt lat="43.23181" lon="5.46178">
        <ele>336.6</ele>
        <time>2019-04-21T15:36:32Z</time>
      </trkpt>
      <trkpt lat="43.23182" lon="5.4618">
        <ele>336.6</ele>
        <time>2019-04-21T15:36:33Z</time>
      </trkpt>
      <trkpt lat="43.23183" lon="5.46182">
        <ele>336.6</ele>
        <time>2019-04-21T15:36:34Z</time>
      </trkpt>
      <trkpt lat="43.23184" lon="5.46184">
        <ele>336.6</ele>
        <time>2019-04-21T15:36:35Z</time>
      </trkpt>
      <trkpt lat="43.23186" lon="5.46185">
        <ele>336.12</ele>
        <time>2019-04-21T15:36:36Z</time>
      </trkpt>
      <trkpt lat="43.23187" lon="5.46188">
        <ele>336.12</ele>
        <time>2019-04-21T15:36:37Z</time>
      </trkpt>
      <trkpt lat="43.23188" lon="5.4619">
        <ele>335.64</ele>
        <time>2019-04-21T15:36:38Z</time>
      </trkpt>
      <trkpt lat="43.2319" lon="5.46192">
        <ele>335.64</ele>
        <time>2019-04-21T15:36:39Z</time>
      </trkpt>
      <trkpt lat="43.23192" lon="5.46194">
        <ele>335.64</ele>
        <time>2019-04-21T15:36:40Z</time>
      </trkpt>
      <trkpt lat="43.23194" lon="5.46195">
        <ele>335.64</ele>
        <time>2019-04-21T15:36:41Z</time>
      </trkpt>
      <trkpt lat="43.23205" lon="5.462">
        <ele>334.68</ele>
        <time>2019-04-21T15:36:55Z</time>
      </trkpt>
      <trkpt lat="43.23205" lon="5.46199">
        <ele>333.71</ele>
        <time>2019-04-21T15:36:56Z</time>
      </trkpt>
      <trkpt lat="43.232" lon="5.46191">
        <ele>333.23</ele>
        <time>2019-04-21T15:37:02Z</time>
      </trkpt>
      <trkpt lat="43.23199" lon="5.46188">
        <ele>332.75</ele>
        <time>2019-04-21T15:37:04Z</time>
      </trkpt>
      <trkpt lat="43.23199" lon="5.46186">
        <ele>332.75</ele>
        <time>2019-04-21T15:37:05Z</time>
      </trkpt>
      <trkpt lat="43.23198" lon="5.46185">
        <ele>332.27</ele>
        <time>2019-04-21T15:37:06Z</time>
      </trkpt>
      <trkpt lat="43.23197" lon="5.46183">
        <ele>332.75</ele>
        <time>2019-04-21T15:37:08Z</time>
      </trkpt>
      <trkpt lat="43.23193" lon="5.46177">
        <ele>331.79</ele>
        <time>2019-04-21T15:37:16Z</time>
      </trkpt>
      <trkpt lat="43.23192" lon="5.46175">
        <ele>331.79</ele>
        <time>2019-04-21T15:37:17Z</time>
      </trkpt>
      <trkpt lat="43.23187" lon="5.46169">
        <ele>330.83</ele>
        <time>2019-04-21T15:37:24Z</time>
      </trkpt>
      <trkpt lat="43.23187" lon="5.46167">
        <ele>330.35</ele>
        <time>2019-04-21T15:37:25Z</time>
      </trkpt>
      <trkpt lat="43.23186" lon="5.46165">
        <ele>330.35</ele>
        <time>2019-04-21T15:37:26Z</time>
      </trkpt>
      <trkpt lat="43.23185" lon="5.46163">
        <ele>330.35</ele>
        <time>2019-04-21T15:37:27Z</time>
      </trkpt>
      <trkpt lat="43.23184" lon="5.46161">
        <ele>329.87</ele>
        <time>2019-04-21T15:37:28Z</time>
      </trkpt>
      <trkpt lat="43.23183" lon="5.46159">
        <ele>329.39</ele>
        <time>2019-04-21T15:37:29Z</time>
      </trkpt>
      <trkpt lat="43.23179" lon="5.46155">
        <ele>329.39</ele>
        <time>2019-04-21T15:37:37Z</time>
      </trkpt>
      <trkpt lat="43.23178" lon="5.46153">
        <ele>329.39</ele>
        <time>2019-04-21T15:37:38Z</time>
      </trkpt>
      <trkpt lat="43.23178" lon="5.46151">
        <ele>329.39</ele>
        <time>2019-04-21T15:37:39Z</time>
      </trkpt>
      <trkpt lat="43.23178" lon="5.4615">
        <ele>329.39</ele>
        <time>2019-04-21T15:37:40Z</time>
      </trkpt>
      <trkpt lat="43.23176" lon="5.46148">
        <ele>329.39</ele>
        <time>2019-04-21T15:37:41Z</time>
      </trkpt>
      <trkpt lat="43.23175" lon="5.46148">
        <ele>329.39</ele>
        <time>2019-04-21T15:37:42Z</time>
      </trkpt>
      <trkpt lat="43.23176" lon="5.46145">
        <ele>327.47</ele>
        <time>2019-04-21T15:37:50Z</time>
      </trkpt>
      <trkpt lat="43.23181" lon="5.46146">
        <ele>327.95</ele>
        <time>2019-04-21T15:37:57Z</time>
      </trkpt>
      <trkpt lat="43.23182" lon="5.46147">
        <ele>326.5</ele>
        <time>2019-04-21T15:37:58Z</time>
      </trkpt>
      <trkpt lat="43.23183" lon="5.46147">
        <ele>326.5</ele>
        <time>2019-04-21T15:37:59Z</time>
      </trkpt>
      <trkpt lat="43.23184" lon="5.4615">
        <ele>326.99</ele>
        <time>2019-04-21T15:38:10Z</time>
      </trkpt>
      <trkpt lat="43.23185" lon="5.46152">
        <ele>326.99</ele>
        <time>2019-04-21T15:38:22Z</time>
      </trkpt>
      <trkpt lat="43.23186" lon="5.46152">
        <ele>326.99</ele>
        <time>2019-04-21T15:38:23Z</time>
      </trkpt>
      <trkpt lat="43.23187" lon="5.46153">
        <ele>326.99</ele>
        <time>2019-04-21T15:38:24Z</time>
      </trkpt>
      <trkpt lat="43.23187" lon="5.46154">
        <ele>326.99</ele>
        <time>2019-04-21T15:38:25Z</time>
      </trkpt>
      <trkpt lat="43.23188" lon="5.46155">
        <ele>326.99</ele>
        <time>2019-04-21T15:38:26Z</time>
      </trkpt>
      <trkpt lat="43.23189" lon="5.46156">
        <ele>326.99</ele>
        <time>2019-04-21T15:38:27Z</time>
      </trkpt>
      <trkpt lat="43.2319" lon="5.46157">
        <ele>326.99</ele>
        <time>2019-04-21T15:38:28Z</time>
      </trkpt>
      <trkpt lat="43.23191" lon="5.46157">
        <ele>326.5</ele>
        <time>2019-04-21T15:38:30Z</time>
      </trkpt>
      <trkpt lat="43.23192" lon="5.46155">
        <ele>326.02</ele>
        <time>2019-04-21T15:38:31Z</time>
      </trkpt>
      <trkpt lat="43.23192" lon="5.46153">
        <ele>326.02</ele>
        <time>2019-04-21T15:38:32Z</time>
      </trkpt>
      <trkpt lat="43.23191" lon="5.46151">
        <ele>326.02</ele>
        <time>2019-04-21T15:38:33Z</time>
      </trkpt>
      <trkpt lat="43.23191" lon="5.46149">
        <ele>326.5</ele>
        <time>2019-04-21T15:38:34Z</time>
      </trkpt>
      <trkpt lat="43.2319" lon="5.46147">
        <ele>326.02</ele>
        <time>2019-04-21T15:38:35Z</time>
      </trkpt>
      <trkpt lat="43.23189" lon="5.46146">
        <ele>326.02</ele>
        <time>2019-04-21T15:38:36Z</time>
      </trkpt>
      <trkpt lat="43.23186" lon="5.46142">
        <ele>325.06</ele>
        <time>2019-04-21T15:38:40Z</time>
      </trkpt>
      <trkpt lat="43.23185" lon="5.46141">
        <ele>324.58</ele>
        <time>2019-04-21T15:38:41Z</time>
      </trkpt>
      <trkpt lat="43.23183" lon="5.46139">
        <ele>324.58</ele>
        <time>2019-04-21T15:38:43Z</time>
      </trkpt>
      <trkpt lat="43.23181" lon="5.46138">
        <ele>324.58</ele>
        <time>2019-04-21T15:38:45Z</time>
      </trkpt>
      <trkpt lat="43.2318" lon="5.46137">
        <ele>324.1</ele>
        <time>2019-04-21T15:38:46Z</time>
      </trkpt>
      <trkpt lat="43.23177" lon="5.46133">
        <ele>323.62</ele>
        <time>2019-04-21T15:38:52Z</time>
      </trkpt>
      <trkpt lat="43.23175" lon="5.46131">
        <ele>323.62</ele>
        <time>2019-04-21T15:38:53Z</time>
      </trkpt>
      <trkpt lat="43.23174" lon="5.4613">
        <ele>323.14</ele>
        <time>2019-04-21T15:38:54Z</time>
      </trkpt>
      <trkpt lat="43.23164" lon="5.46127">
        <ele>322.18</ele>
        <time>2019-04-21T15:39:03Z</time>
      </trkpt>
      <trkpt lat="43.23163" lon="5.46127">
        <ele>322.66</ele>
        <time>2019-04-21T15:39:04Z</time>
      </trkpt>
      <trkpt lat="43.23161" lon="5.46126">
        <ele>322.66</ele>
        <time>2019-04-21T15:39:05Z</time>
      </trkpt>
      <trkpt lat="43.23151" lon="5.46121">
        <ele>322.66</ele>
        <time>2019-04-21T15:39:15Z</time>
      </trkpt>
      <trkpt lat="43.23149" lon="5.4612">
        <ele>323.14</ele>
        <time>2019-04-21T15:39:16Z</time>
      </trkpt>
      <trkpt lat="43.23148" lon="5.46119">
        <ele>323.14</ele>
        <time>2019-04-21T15:39:17Z</time>
      </trkpt>
      <trkpt lat="43.23146" lon="5.46117">
        <ele>322.66</ele>
        <time>2019-04-21T15:39:18Z</time>
      </trkpt>
      <trkpt lat="43.23145" lon="5.46116">
        <ele>322.66</ele>
        <time>2019-04-21T15:39:19Z</time>
      </trkpt>
      <trkpt lat="43.23143" lon="5.46116">
        <ele>322.66</ele>
        <time>2019-04-21T15:39:20Z</time>
      </trkpt>
      <trkpt lat="43.2314" lon="5.46115">
        <ele>321.7</ele>
        <time>2019-04-21T15:39:26Z</time>
      </trkpt>
      <trkpt lat="43.23138" lon="5.46114">
        <ele>321.22</ele>
        <time>2019-04-21T15:39:27Z</time>
      </trkpt>
      <trkpt lat="43.23137" lon="5.46113">
        <ele>321.22</ele>
        <time>2019-04-21T15:39:28Z</time>
      </trkpt>
      <trkpt lat="43.23126" lon="5.46105">
        <ele>321.22</ele>
        <time>2019-04-21T15:39:40Z</time>
      </trkpt>
      <trkpt lat="43.23108" lon="5.46093">
        <ele>320.74</ele>
        <time>2019-04-21T15:39:55Z</time>
      </trkpt>
      <trkpt lat="43.23096" lon="5.46079">
        <ele>320.74</ele>
        <time>2019-04-21T15:40:09Z</time>
      </trkpt>
      <trkpt lat="43.23099" lon="5.46076">
        <ele>320.74</ele>
        <time>2019-04-21T15:40:22Z</time>
      </trkpt>
      <trkpt lat="43.23097" lon="5.46065">
        <ele>321.22</ele>
        <time>2019-04-21T15:40:41Z</time>
      </trkpt>
      <trkpt lat="43.23098" lon="5.46066">
        <ele>321.22</ele>
        <time>2019-04-21T15:41:03Z</time>
      </trkpt>
      <trkpt lat="43.23098" lon="5.46072">
        <ele>322.18</ele>
        <time>2019-04-21T15:41:19Z</time>
      </trkpt>
      <trkpt lat="43.23098" lon="5.46073">
        <ele>320.74</ele>
        <time>2019-04-21T15:41:33Z</time>
      </trkpt>
      <trkpt lat="43.23096" lon="5.46074">
        <ele>320.26</ele>
        <time>2019-04-21T15:41:38Z</time>
      </trkpt>
      <trkpt lat="43.23095" lon="5.46074">
        <ele>321.7</ele>
        <time>2019-04-21T15:41:41Z</time>
      </trkpt>
      <trkpt lat="43.23091" lon="5.46072">
        <ele>320.26</ele>
        <time>2019-04-21T15:41:52Z</time>
      </trkpt>
      <trkpt lat="43.23089" lon="5.46072">
        <ele>320.74</ele>
        <time>2019-04-21T15:41:56Z</time>
      </trkpt>
      <trkpt lat="43.23085" lon="5.4607">
        <ele>321.22</ele>
        <time>2019-04-21T15:42:02Z</time>
      </trkpt>
      <trkpt lat="43.23075" lon="5.46055">
        <ele>320.26</ele>
        <time>2019-04-21T15:42:18Z</time>
      </trkpt>
      <trkpt lat="43.23074" lon="5.46046">
        <ele>319.78</ele>
        <time>2019-04-21T15:42:25Z</time>
      </trkpt>
      <trkpt lat="43.23071" lon="5.46028">
        <ele>319.78</ele>
        <time>2019-04-21T15:42:37Z</time>
      </trkpt>
      <trkpt lat="43.2307" lon="5.46027">
        <ele>319.78</ele>
        <time>2019-04-21T15:42:38Z</time>
      </trkpt>
      <trkpt lat="43.23063" lon="5.46006">
        <ele>319.3</ele>
        <time>2019-04-21T15:42:52Z</time>
      </trkpt>
      <trkpt lat="43.23058" lon="5.45999">
        <ele>318.33</ele>
        <time>2019-04-21T15:42:57Z</time>
      </trkpt>
      <trkpt lat="43.23049" lon="5.45984">
        <ele>318.33</ele>
        <time>2019-04-21T15:43:05Z</time>
      </trkpt>
      <trkpt lat="43.23043" lon="5.45967">
        <ele>319.3</ele>
        <time>2019-04-21T15:43:18Z</time>
      </trkpt>
      <trkpt lat="43.23035" lon="5.45947">
        <ele>318.81</ele>
        <time>2019-04-21T15:43:33Z</time>
      </trkpt>
      <trkpt lat="43.2303" lon="5.45934">
        <ele>317.85</ele>
        <time>2019-04-21T15:43:43Z</time>
      </trkpt>
      <trkpt lat="43.23026" lon="5.45915">
        <ele>318.33</ele>
        <time>2019-04-21T15:43:58Z</time>
      </trkpt>
      <trkpt lat="43.23028" lon="5.45912">
        <ele>318.33</ele>
        <time>2019-04-21T15:44:00Z</time>
      </trkpt>
      <trkpt lat="43.23046" lon="5.45893">
        <ele>316.89</ele>
        <time>2019-04-21T15:44:14Z</time>
      </trkpt>
      <trkpt lat="43.23057" lon="5.45874">
        <ele>316.89</ele>
        <time>2019-04-21T15:44:27Z</time>
      </trkpt>
      <trkpt lat="43.23057" lon="5.45851">
        <ele>315.93</ele>
        <time>2019-04-21T15:44:42Z</time>
      </trkpt>
      <trkpt lat="43.23056" lon="5.45843">
        <ele>317.37</ele>
        <time>2019-04-21T15:44:45Z</time>
      </trkpt>
      <trkpt lat="43.23054" lon="5.45828">
        <ele>316.89</ele>
        <time>2019-04-21T15:44:55Z</time>
      </trkpt>
      <trkpt lat="43.23051" lon="5.45822">
        <ele>316.41</ele>
        <time>2019-04-21T15:45:02Z</time>
      </trkpt>
      <trkpt lat="43.2305" lon="5.4582">
        <ele>316.89</ele>
        <time>2019-04-21T15:45:03Z</time>
      </trkpt>
      <trkpt lat="43.23049" lon="5.45818">
        <ele>317.37</ele>
        <time>2019-04-21T15:45:04Z</time>
      </trkpt>
      <trkpt lat="43.23043" lon="5.45801">
        <ele>315.45</ele>
        <time>2019-04-21T15:45:16Z</time>
      </trkpt>
      <trkpt lat="43.23042" lon="5.458">
        <ele>315.45</ele>
        <time>2019-04-21T15:45:19Z</time>
      </trkpt>
      <trkpt lat="43.23041" lon="5.458">
        <ele>315.45</ele>
        <time>2019-04-21T15:45:20Z</time>
      </trkpt>
      <trkpt lat="43.2304" lon="5.45799">
        <ele>315.93</ele>
        <time>2019-04-21T15:45:21Z</time>
      </trkpt>
      <trkpt lat="43.23039" lon="5.45798">
        <ele>315.45</ele>
        <time>2019-04-21T15:45:22Z</time>
      </trkpt>
      <trkpt lat="43.23038" lon="5.45796">
        <ele>315.93</ele>
        <time>2019-04-21T15:45:23Z</time>
      </trkpt>
      <trkpt lat="43.23031" lon="5.45785">
        <ele>318.33</ele>
        <time>2019-04-21T15:45:34Z</time>
      </trkpt>
      <trkpt lat="43.2303" lon="5.45783">
        <ele>318.33</ele>
        <time>2019-04-21T15:45:35Z</time>
      </trkpt>
      <trkpt lat="43.23026" lon="5.45778">
        <ele>318.33</ele>
        <time>2019-04-21T15:45:41Z</time>
      </trkpt>
      <trkpt lat="43.23025" lon="5.45776">
        <ele>318.33</ele>
        <time>2019-04-21T15:45:42Z</time>
      </trkpt>
      <trkpt lat="43.23024" lon="5.45774">
        <ele>318.81</ele>
        <time>2019-04-21T15:45:43Z</time>
      </trkpt>
      <trkpt lat="43.23023" lon="5.45773">
        <ele>318.81</ele>
        <time>2019-04-21T15:45:44Z</time>
      </trkpt>
      <trkpt lat="43.23022" lon="5.45772">
        <ele>318.81</ele>
        <time>2019-04-21T15:45:45Z</time>
      </trkpt>
      <trkpt lat="43.23009" lon="5.45757">
        <ele>318.81</ele>
        <time>2019-04-21T15:45:59Z</time>
      </trkpt>
      <trkpt lat="43.23004" lon="5.45753">
        <ele>320.26</ele>
        <time>2019-04-21T15:46:06Z</time>
      </trkpt>
      <trkpt lat="43.23003" lon="5.45752">
        <ele>320.26</ele>
        <time>2019-04-21T15:46:07Z</time>
      </trkpt>
      <trkpt lat="43.23002" lon="5.45751">
        <ele>320.26</ele>
        <time>2019-04-21T15:46:08Z</time>
      </trkpt>
      <trkpt lat="43.22992" lon="5.45737">
        <ele>320.26</ele>
        <time>2019-04-21T15:46:19Z</time>
      </trkpt>
      <trkpt lat="43.22982" lon="5.45722">
        <ele>320.74</ele>
        <time>2019-04-21T15:46:30Z</time>
      </trkpt>
      <trkpt lat="43.2298" lon="5.45716">
        <ele>321.7</ele>
        <time>2019-04-21T15:46:37Z</time>
      </trkpt>
      <trkpt lat="43.2298" lon="5.45714">
        <ele>321.7</ele>
        <time>2019-04-21T15:46:38Z</time>
      </trkpt>
      <trkpt lat="43.22981" lon="5.45697">
        <ele>321.7</ele>
        <time>2019-04-21T15:46:49Z</time>
      </trkpt>
      <trkpt lat="43.22986" lon="5.45688">
        <ele>320.74</ele>
        <time>2019-04-21T15:46:58Z</time>
      </trkpt>
      <trkpt lat="43.22987" lon="5.45686">
        <ele>320.74</ele>
        <time>2019-04-21T15:46:59Z</time>
      </trkpt>
      <trkpt lat="43.22991" lon="5.45675">
        <ele>321.22</ele>
        <time>2019-04-21T15:47:09Z</time>
      </trkpt>
      <trkpt lat="43.22991" lon="5.45672">
        <ele>321.22</ele>
        <time>2019-04-21T15:47:10Z</time>
      </trkpt>
      <trkpt lat="43.22994" lon="5.45667">
        <ele>323.14</ele>
        <time>2019-04-21T15:47:14Z</time>
      </trkpt>
      <trkpt lat="43.22994" lon="5.45665">
        <ele>323.14</ele>
        <time>2019-04-21T15:47:15Z</time>
      </trkpt>
      <trkpt lat="43.22994" lon="5.45663">
        <ele>324.1</ele>
        <time>2019-04-21T15:47:16Z</time>
      </trkpt>
      <trkpt lat="43.22997" lon="5.45654">
        <ele>326.02</ele>
        <time>2019-04-21T15:47:23Z</time>
      </trkpt>
      <trkpt lat="43.23002" lon="5.45643">
        <ele>328.43</ele>
        <time>2019-04-21T15:47:34Z</time>
      </trkpt>
      <trkpt lat="43.23003" lon="5.45641">
        <ele>328.43</ele>
        <time>2019-04-21T15:47:35Z</time>
      </trkpt>
      <trkpt lat="43.23006" lon="5.45637">
        <ele>328.43</ele>
        <time>2019-04-21T15:47:39Z</time>
      </trkpt>
      <trkpt lat="43.23006" lon="5.45635">
        <ele>328.43</ele>
        <time>2019-04-21T15:47:40Z</time>
      </trkpt>
      <trkpt lat="43.23007" lon="5.45633">
        <ele>328.43</ele>
        <time>2019-04-21T15:47:41Z</time>
      </trkpt>
      <trkpt lat="43.23016" lon="5.45613">
        <ele>329.39</ele>
        <time>2019-04-21T15:47:52Z</time>
      </trkpt>
      <trkpt lat="43.23019" lon="5.45598">
        <ele>330.83</ele>
        <time>2019-04-21T15:48:04Z</time>
      </trkpt>
      <trkpt lat="43.23023" lon="5.45589">
        <ele>332.27</ele>
        <time>2019-04-21T15:48:14Z</time>
      </trkpt>
      <trkpt lat="43.23023" lon="5.45588">
        <ele>332.75</ele>
        <time>2019-04-21T15:48:15Z</time>
      </trkpt>
      <trkpt lat="43.23023" lon="5.45586">
        <ele>332.75</ele>
        <time>2019-04-21T15:48:16Z</time>
      </trkpt>
      <trkpt lat="43.23015" lon="5.45575">
        <ele>333.71</ele>
        <time>2019-04-21T15:48:26Z</time>
      </trkpt>
      <trkpt lat="43.23015" lon="5.45574">
        <ele>333.71</ele>
        <time>2019-04-21T15:48:38Z</time>
      </trkpt>
      <trkpt lat="43.23015" lon="5.45576">
        <ele>332.75</ele>
        <time>2019-04-21T15:48:56Z</time>
      </trkpt>
      <trkpt lat="43.23014" lon="5.45573">
        <ele>333.71</ele>
        <time>2019-04-21T15:49:19Z</time>
      </trkpt>
      <trkpt lat="43.23015" lon="5.45575">
        <ele>333.71</ele>
        <time>2019-04-21T15:49:33Z</time>
      </trkpt>
      <trkpt lat="43.23016" lon="5.45575">
        <ele>333.71</ele>
        <time>2019-04-21T15:49:34Z</time>
      </trkpt>
      <trkpt lat="43.23014" lon="5.45575">
        <ele>335.16</ele>
        <time>2019-04-21T15:49:40Z</time>
      </trkpt>
      <trkpt lat="43.23016" lon="5.45576">
        <ele>333.71</ele>
        <time>2019-04-21T15:50:14Z</time>
      </trkpt>
      <trkpt lat="43.23012" lon="5.45578">
        <ele>333.71</ele>
        <time>2019-04-21T15:50:34Z</time>
      </trkpt>
      <trkpt lat="43.2301" lon="5.45579">
        <ele>333.71</ele>
        <time>2019-04-21T15:50:37Z</time>
      </trkpt>
      <trkpt lat="43.23009" lon="5.45579">
        <ele>334.2</ele>
        <time>2019-04-21T15:50:39Z</time>
      </trkpt>
      <trkpt lat="43.23007" lon="5.45578">
        <ele>334.2</ele>
        <time>2019-04-21T15:50:40Z</time>
      </trkpt>
      <trkpt lat="43.23005" lon="5.45576">
        <ele>334.2</ele>
        <time>2019-04-21T15:50:41Z</time>
      </trkpt>
      <trkpt lat="43.23004" lon="5.45574">
        <ele>334.2</ele>
        <time>2019-04-21T15:50:42Z</time>
      </trkpt>
      <trkpt lat="43.23003" lon="5.45572">
        <ele>333.71</ele>
        <time>2019-04-21T15:50:43Z</time>
      </trkpt>
      <trkpt lat="43.23003" lon="5.45571">
        <ele>332.75</ele>
        <time>2019-04-21T15:50:44Z</time>
      </trkpt>
      <trkpt lat="43.23003" lon="5.45569">
        <ele>331.79</ele>
        <time>2019-04-21T15:50:46Z</time>
      </trkpt>
      <trkpt lat="43.23001" lon="5.45569">
        <ele>332.75</ele>
        <time>2019-04-21T15:50:48Z</time>
      </trkpt>
      <trkpt lat="43.22996" lon="5.45568">
        <ele>330.83</ele>
        <time>2019-04-21T15:50:55Z</time>
      </trkpt>
      <trkpt lat="43.22992" lon="5.45566">
        <ele>329.87</ele>
        <time>2019-04-21T15:51:06Z</time>
      </trkpt>
      <trkpt lat="43.22987" lon="5.45565">
        <ele>328.91</ele>
        <time>2019-04-21T15:51:13Z</time>
      </trkpt>
      <trkpt lat="43.22986" lon="5.45565">
        <ele>328.91</ele>
        <time>2019-04-21T15:51:14Z</time>
      </trkpt>
      <trkpt lat="43.22985" lon="5.45564">
        <ele>329.87</ele>
        <time>2019-04-21T15:51:15Z</time>
      </trkpt>
      <trkpt lat="43.22984" lon="5.45563">
        <ele>329.87</ele>
        <time>2019-04-21T15:51:16Z</time>
      </trkpt>
      <trkpt lat="43.22982" lon="5.45562">
        <ele>329.87</ele>
        <time>2019-04-21T15:51:17Z</time>
      </trkpt>
      <trkpt lat="43.22982" lon="5.45561">
        <ele>329.39</ele>
        <time>2019-04-21T15:51:18Z</time>
      </trkpt>
      <trkpt lat="43.22982" lon="5.45556">
        <ele>328.91</ele>
        <time>2019-04-21T15:51:30Z</time>
      </trkpt>
      <trkpt lat="43.22981" lon="5.45557">
        <ele>328.43</ele>
        <time>2019-04-21T15:51:41Z</time>
      </trkpt>
      <trkpt lat="43.22978" lon="5.45556">
        <ele>327.95</ele>
        <time>2019-04-21T15:52:05Z</time>
      </trkpt>
      <trkpt lat="43.22976" lon="5.45555">
        <ele>327.47</ele>
        <time>2019-04-21T15:52:06Z</time>
      </trkpt>
      <trkpt lat="43.22972" lon="5.45553">
        <ele>326.99</ele>
        <time>2019-04-21T15:52:08Z</time>
      </trkpt>
      <trkpt lat="43.22962" lon="5.45543">
        <ele>326.02</ele>
        <time>2019-04-21T15:52:18Z</time>
      </trkpt>
      <trkpt lat="43.22962" lon="5.45542">
        <ele>325.54</ele>
        <time>2019-04-21T15:52:19Z</time>
      </trkpt>
      <trkpt lat="43.22961" lon="5.45541">
        <ele>325.54</ele>
        <time>2019-04-21T15:52:20Z</time>
      </trkpt>
      <trkpt lat="43.2296" lon="5.45539">
        <ele>325.06</ele>
        <time>2019-04-21T15:52:21Z</time>
      </trkpt>
      <trkpt lat="43.22958" lon="5.45536">
        <ele>326.5</ele>
        <time>2019-04-21T15:52:26Z</time>
      </trkpt>
      <trkpt lat="43.22957" lon="5.45534">
        <ele>326.5</ele>
        <time>2019-04-21T15:52:27Z</time>
      </trkpt>
      <trkpt lat="43.22954" lon="5.45521">
        <ele>325.06</ele>
        <time>2019-04-21T15:52:37Z</time>
      </trkpt>
      <trkpt lat="43.2295" lon="5.45505">
        <ele>323.62</ele>
        <time>2019-04-21T15:52:47Z</time>
      </trkpt>
      <trkpt lat="43.22946" lon="5.45492">
        <ele>322.18</ele>
        <time>2019-04-21T15:52:58Z</time>
      </trkpt>
      <trkpt lat="43.22944" lon="5.45485">
        <ele>321.22</ele>
        <time>2019-04-21T15:53:01Z</time>
      </trkpt>
      <trkpt lat="43.22943" lon="5.45484">
        <ele>321.22</ele>
        <time>2019-04-21T15:53:02Z</time>
      </trkpt>
      <trkpt lat="43.22942" lon="5.45483">
        <ele>321.22</ele>
        <time>2019-04-21T15:53:03Z</time>
      </trkpt>
      <trkpt lat="43.22936" lon="5.45476">
        <ele>319.78</ele>
        <time>2019-04-21T15:53:11Z</time>
      </trkpt>
      <trkpt lat="43.22935" lon="5.45475">
        <ele>319.3</ele>
        <time>2019-04-21T15:53:12Z</time>
      </trkpt>
      <trkpt lat="43.22934" lon="5.45474">
        <ele>319.3</ele>
        <time>2019-04-21T15:53:13Z</time>
      </trkpt>
      <trkpt lat="43.22932" lon="5.45473">
        <ele>319.3</ele>
        <time>2019-04-21T15:53:14Z</time>
      </trkpt>
      <trkpt lat="43.22931" lon="5.45472">
        <ele>319.3</ele>
        <time>2019-04-21T15:53:15Z</time>
      </trkpt>
      <trkpt lat="43.22931" lon="5.45469">
        <ele>319.3</ele>
        <time>2019-04-21T15:53:16Z</time>
      </trkpt>
      <trkpt lat="43.2293" lon="5.45466">
        <ele>319.3</ele>
        <time>2019-04-21T15:53:17Z</time>
      </trkpt>
      <trkpt lat="43.22924" lon="5.45449">
        <ele>316.89</ele>
        <time>2019-04-21T15:53:29Z</time>
      </trkpt>
      <trkpt lat="43.22918" lon="5.45442">
        <ele>314.97</ele>
        <time>2019-04-21T15:53:40Z</time>
      </trkpt>
      <trkpt lat="43.22913" lon="5.45437">
        <ele>314.01</ele>
        <time>2019-04-21T15:53:44Z</time>
      </trkpt>
      <trkpt lat="43.22901" lon="5.4542">
        <ele>314.49</ele>
        <time>2019-04-21T15:53:54Z</time>
      </trkpt>
      <trkpt lat="43.22898" lon="5.4542">
        <ele>313.53</ele>
        <time>2019-04-21T15:53:58Z</time>
      </trkpt>
      <trkpt lat="43.22897" lon="5.4542">
        <ele>314.01</ele>
        <time>2019-04-21T15:53:59Z</time>
      </trkpt>
      <trkpt lat="43.22896" lon="5.45418">
        <ele>314.01</ele>
        <time>2019-04-21T15:54:00Z</time>
      </trkpt>
      <trkpt lat="43.22895" lon="5.45417">
        <ele>314.01</ele>
        <time>2019-04-21T15:54:01Z</time>
      </trkpt>
      <trkpt lat="43.22894" lon="5.45415">
        <ele>313.53</ele>
        <time>2019-04-21T15:54:02Z</time>
      </trkpt>
      <trkpt lat="43.22893" lon="5.45414">
        <ele>314.01</ele>
        <time>2019-04-21T15:54:03Z</time>
      </trkpt>
      <trkpt lat="43.22891" lon="5.45412">
        <ele>314.01</ele>
        <time>2019-04-21T15:54:04Z</time>
      </trkpt>
      <trkpt lat="43.22889" lon="5.45411">
        <ele>314.01</ele>
        <time>2019-04-21T15:54:05Z</time>
      </trkpt>
      <trkpt lat="43.22888" lon="5.4541">
        <ele>313.53</ele>
        <time>2019-04-21T15:54:06Z</time>
      </trkpt>
      <trkpt lat="43.22886" lon="5.45409">
        <ele>313.05</ele>
        <time>2019-04-21T15:54:07Z</time>
      </trkpt>
      <trkpt lat="43.22886" lon="5.45408">
        <ele>313.05</ele>
        <time>2019-04-21T15:54:08Z</time>
      </trkpt>
      <trkpt lat="43.22883" lon="5.45404">
        <ele>312.09</ele>
        <time>2019-04-21T15:54:13Z</time>
      </trkpt>
      <trkpt lat="43.22872" lon="5.45396">
        <ele>311.12</ele>
        <time>2019-04-21T15:54:24Z</time>
      </trkpt>
      <trkpt lat="43.22869" lon="5.45394">
        <ele>310.16</ele>
        <time>2019-04-21T15:54:28Z</time>
      </trkpt>
      <trkpt lat="43.22868" lon="5.45393">
        <ele>311.12</ele>
        <time>2019-04-21T15:54:29Z</time>
      </trkpt>
      <trkpt lat="43.22858" lon="5.45382">
        <ele>309.68</ele>
        <time>2019-04-21T15:54:37Z</time>
      </trkpt>
      <trkpt lat="43.22853" lon="5.4538">
        <ele>308.72</ele>
        <time>2019-04-21T15:54:43Z</time>
      </trkpt>
      <trkpt lat="43.22846" lon="5.45372">
        <ele>308.24</ele>
        <time>2019-04-21T15:54:49Z</time>
      </trkpt>
      <trkpt lat="43.22844" lon="5.45371">
        <ele>308.24</ele>
        <time>2019-04-21T15:54:50Z</time>
      </trkpt>
      <trkpt lat="43.22833" lon="5.45365">
        <ele>307.28</ele>
        <time>2019-04-21T15:55:02Z</time>
      </trkpt>
      <trkpt lat="43.22817" lon="5.45358">
        <ele>306.8</ele>
        <time>2019-04-21T15:55:15Z</time>
      </trkpt>
      <trkpt lat="43.22804" lon="5.45356">
        <ele>305.36</ele>
        <time>2019-04-21T15:55:26Z</time>
      </trkpt>
      <trkpt lat="43.22803" lon="5.45356">
        <ele>304.88</ele>
        <time>2019-04-21T15:55:27Z</time>
      </trkpt>
      <trkpt lat="43.228" lon="5.45356">
        <ele>304.88</ele>
        <time>2019-04-21T15:55:29Z</time>
      </trkpt>
      <trkpt lat="43.22799" lon="5.45355">
        <ele>304.39</ele>
        <time>2019-04-21T15:55:30Z</time>
      </trkpt>
      <trkpt lat="43.22787" lon="5.45348">
        <ele>303.43</ele>
        <time>2019-04-21T15:55:40Z</time>
      </trkpt>
      <trkpt lat="43.22786" lon="5.45348">
        <ele>303.43</ele>
        <time>2019-04-21T15:55:41Z</time>
      </trkpt>
      <trkpt lat="43.22771" lon="5.4534">
        <ele>302.47</ele>
        <time>2019-04-21T15:55:52Z</time>
      </trkpt>
      <trkpt lat="43.22766" lon="5.45333">
        <ele>301.99</ele>
        <time>2019-04-21T15:55:58Z</time>
      </trkpt>
      <trkpt lat="43.22765" lon="5.45332">
        <ele>301.99</ele>
        <time>2019-04-21T15:56:00Z</time>
      </trkpt>
      <trkpt lat="43.22764" lon="5.45328">
        <ele>301.03</ele>
        <time>2019-04-21T15:56:04Z</time>
      </trkpt>
      <trkpt lat="43.2276" lon="5.45303">
        <ele>300.07</ele>
        <time>2019-04-21T15:56:15Z</time>
      </trkpt>
      <trkpt lat="43.22755" lon="5.45287">
        <ele>298.15</ele>
        <time>2019-04-21T15:56:27Z</time>
      </trkpt>
      <trkpt lat="43.22752" lon="5.45281">
        <ele>297.67</ele>
        <time>2019-04-21T15:56:32Z</time>
      </trkpt>
      <trkpt lat="43.22744" lon="5.45259">
        <ele>294.78</ele>
        <time>2019-04-21T15:56:43Z</time>
      </trkpt>
      <trkpt lat="43.2274" lon="5.45256">
        <ele>293.82</ele>
        <time>2019-04-21T15:56:49Z</time>
      </trkpt>
      <trkpt lat="43.22736" lon="5.45253">
        <ele>293.34</ele>
        <time>2019-04-21T15:56:53Z</time>
      </trkpt>
      <trkpt lat="43.22735" lon="5.45252">
        <ele>293.34</ele>
        <time>2019-04-21T15:56:54Z</time>
      </trkpt>
      <trkpt lat="43.22735" lon="5.45251">
        <ele>293.34</ele>
        <time>2019-04-21T15:56:55Z</time>
      </trkpt>
      <trkpt lat="43.22733" lon="5.4525">
        <ele>292.86</ele>
        <time>2019-04-21T15:56:56Z</time>
      </trkpt>
      <trkpt lat="43.22732" lon="5.45249">
        <ele>292.86</ele>
        <time>2019-04-21T15:56:57Z</time>
      </trkpt>
      <trkpt lat="43.22729" lon="5.45245">
        <ele>292.86</ele>
        <time>2019-04-21T15:57:03Z</time>
      </trkpt>
      <trkpt lat="43.22729" lon="5.45244">
        <ele>292.38</ele>
        <time>2019-04-21T15:57:04Z</time>
      </trkpt>
      <trkpt lat="43.22722" lon="5.45236">
        <ele>292.38</ele>
        <time>2019-04-21T15:57:10Z</time>
      </trkpt>
      <trkpt lat="43.2272" lon="5.45235">
        <ele>291.9</ele>
        <time>2019-04-21T15:57:11Z</time>
      </trkpt>
      <trkpt lat="43.22711" lon="5.45228">
        <ele>291.42</ele>
        <time>2019-04-21T15:57:21Z</time>
      </trkpt>
      <trkpt lat="43.22709" lon="5.45228">
        <ele>291.42</ele>
        <time>2019-04-21T15:57:22Z</time>
      </trkpt>
      <trkpt lat="43.22707" lon="5.45225">
        <ele>290.94</ele>
        <time>2019-04-21T15:57:24Z</time>
      </trkpt>
      <trkpt lat="43.22706" lon="5.45224">
        <ele>290.94</ele>
        <time>2019-04-21T15:57:25Z</time>
      </trkpt>
      <trkpt lat="43.22706" lon="5.45221">
        <ele>290.46</ele>
        <time>2019-04-21T15:57:26Z</time>
      </trkpt>
      <trkpt lat="43.22705" lon="5.45219">
        <ele>290.94</ele>
        <time>2019-04-21T15:57:27Z</time>
      </trkpt>
      <trkpt lat="43.22704" lon="5.45218">
        <ele>290.46</ele>
        <time>2019-04-21T15:57:28Z</time>
      </trkpt>
      <trkpt lat="43.22703" lon="5.45216">
        <ele>290.94</ele>
        <time>2019-04-21T15:57:29Z</time>
      </trkpt>
      <trkpt lat="43.22702" lon="5.45215">
        <ele>290.46</ele>
        <time>2019-04-21T15:57:30Z</time>
      </trkpt>
      <trkpt lat="43.22701" lon="5.45213">
        <ele>290.94</ele>
        <time>2019-04-21T15:57:31Z</time>
      </trkpt>
      <trkpt lat="43.22697" lon="5.45206">
        <ele>290.94</ele>
        <time>2019-04-21T15:57:39Z</time>
      </trkpt>
      <trkpt lat="43.22696" lon="5.45204">
        <ele>290.46</ele>
        <time>2019-04-21T15:57:40Z</time>
      </trkpt>
      <trkpt lat="43.22696" lon="5.45186">
        <ele>289.97</ele>
        <time>2019-04-21T15:57:50Z</time>
      </trkpt>
      <trkpt lat="43.22698" lon="5.45168">
        <ele>289.49</ele>
        <time>2019-04-21T15:57:59Z</time>
      </trkpt>
      <trkpt lat="43.22695" lon="5.45164">
        <ele>289.01</ele>
        <time>2019-04-21T15:58:05Z</time>
      </trkpt>
      <trkpt lat="43.22694" lon="5.45161">
        <ele>289.01</ele>
        <time>2019-04-21T15:58:06Z</time>
      </trkpt>
      <trkpt lat="43.22694" lon="5.45159">
        <ele>289.01</ele>
        <time>2019-04-21T15:58:07Z</time>
      </trkpt>
      <trkpt lat="43.22694" lon="5.45156">
        <ele>288.53</ele>
        <time>2019-04-21T15:58:08Z</time>
      </trkpt>
      <trkpt lat="43.22691" lon="5.45143">
        <ele>287.57</ele>
        <time>2019-04-21T15:58:18Z</time>
      </trkpt>
      <trkpt lat="43.22692" lon="5.45144">
        <ele>287.57</ele>
        <time>2019-04-21T15:58:29Z</time>
      </trkpt>
      <trkpt lat="43.22691" lon="5.45144">
        <ele>286.61</ele>
        <time>2019-04-21T15:59:04Z</time>
      </trkpt>
      <trkpt lat="43.22691" lon="5.45141">
        <ele>286.13</ele>
        <time>2019-04-21T15:59:45Z</time>
      </trkpt>
      <trkpt lat="43.22689" lon="5.45144">
        <ele>286.61</ele>
        <time>2019-04-21T16:00:25Z</time>
      </trkpt>
      <trkpt lat="43.2269" lon="5.45134">
        <ele>286.61</ele>
        <time>2019-04-21T16:00:34Z</time>
      </trkpt>
      <trkpt lat="43.22686" lon="5.45108">
        <ele>284.21</ele>
        <time>2019-04-21T16:00:51Z</time>
      </trkpt>
      <trkpt lat="43.2269" lon="5.45102">
        <ele>284.21</ele>
        <time>2019-04-21T16:01:03Z</time>
      </trkpt>
      <trkpt lat="43.22687" lon="5.45099">
        <ele>283.25</ele>
        <time>2019-04-21T16:01:11Z</time>
      </trkpt>
      <trkpt lat="43.22682" lon="5.45094">
        <ele>283.25</ele>
        <time>2019-04-21T16:01:18Z</time>
      </trkpt>
      <trkpt lat="43.22674" lon="5.45083">
        <ele>282.77</ele>
        <time>2019-04-21T16:01:30Z</time>
      </trkpt>
      <trkpt lat="43.22671" lon="5.45082">
        <ele>282.28</ele>
        <time>2019-04-21T16:01:32Z</time>
      </trkpt>
      <trkpt lat="43.22669" lon="5.4508">
        <ele>282.77</ele>
        <time>2019-04-21T16:01:34Z</time>
      </trkpt>
      <trkpt lat="43.22667" lon="5.45079">
        <ele>283.25</ele>
        <time>2019-04-21T16:01:35Z</time>
      </trkpt>
      <trkpt lat="43.22665" lon="5.45077">
        <ele>281.8</ele>
        <time>2019-04-21T16:01:36Z</time>
      </trkpt>
      <trkpt lat="43.22663" lon="5.45076">
        <ele>282.28</ele>
        <time>2019-04-21T16:01:37Z</time>
      </trkpt>
      <trkpt lat="43.22662" lon="5.45075">
        <ele>282.77</ele>
        <time>2019-04-21T16:01:38Z</time>
      </trkpt>
      <trkpt lat="43.22658" lon="5.45071">
        <ele>282.77</ele>
        <time>2019-04-21T16:01:47Z</time>
      </trkpt>
      <trkpt lat="43.22657" lon="5.45071">
        <ele>282.28</ele>
        <time>2019-04-21T16:01:48Z</time>
      </trkpt>
      <trkpt lat="43.22653" lon="5.45068">
        <ele>281.8</ele>
        <time>2019-04-21T16:01:52Z</time>
      </trkpt>
      <trkpt lat="43.22652" lon="5.45067">
        <ele>281.8</ele>
        <time>2019-04-21T16:01:53Z</time>
      </trkpt>
      <trkpt lat="43.22651" lon="5.45066">
        <ele>281.8</ele>
        <time>2019-04-21T16:01:54Z</time>
      </trkpt>
      <trkpt lat="43.22648" lon="5.45062">
        <ele>281.32</ele>
        <time>2019-04-21T16:02:03Z</time>
      </trkpt>
      <trkpt lat="43.22641" lon="5.45058">
        <ele>281.32</ele>
        <time>2019-04-21T16:02:12Z</time>
      </trkpt>
      <trkpt lat="43.2264" lon="5.45058">
        <ele>280.84</ele>
        <time>2019-04-21T16:02:13Z</time>
      </trkpt>
      <trkpt lat="43.22639" lon="5.45057">
        <ele>281.8</ele>
        <time>2019-04-21T16:02:14Z</time>
      </trkpt>
      <trkpt lat="43.22635" lon="5.45052">
        <ele>281.32</ele>
        <time>2019-04-21T16:02:18Z</time>
      </trkpt>
      <trkpt lat="43.22634" lon="5.45051">
        <ele>281.8</ele>
        <time>2019-04-21T16:02:19Z</time>
      </trkpt>
      <trkpt lat="43.22634" lon="5.45049">
        <ele>281.8</ele>
        <time>2019-04-21T16:02:20Z</time>
      </trkpt>
      <trkpt lat="43.22633" lon="5.45048">
        <ele>280.84</ele>
        <time>2019-04-21T16:02:21Z</time>
      </trkpt>
      <trkpt lat="43.22632" lon="5.45046">
        <ele>281.32</ele>
        <time>2019-04-21T16:02:22Z</time>
      </trkpt>
      <trkpt lat="43.22631" lon="5.45045">
        <ele>281.32</ele>
        <time>2019-04-21T16:02:23Z</time>
      </trkpt>
      <trkpt lat="43.22621" lon="5.45034">
        <ele>281.32</ele>
        <time>2019-04-21T16:02:32Z</time>
      </trkpt>
      <trkpt lat="43.22619" lon="5.45031">
        <ele>280.84</ele>
        <time>2019-04-21T16:02:37Z</time>
      </trkpt>
      <trkpt lat="43.22618" lon="5.4503">
        <ele>280.84</ele>
        <time>2019-04-21T16:02:38Z</time>
      </trkpt>
      <trkpt lat="43.22606" lon="5.45012">
        <ele>280.84</ele>
        <time>2019-04-21T16:02:51Z</time>
      </trkpt>
      <trkpt lat="43.22598" lon="5.44998">
        <ele>280.36</ele>
        <time>2019-04-21T16:03:03Z</time>
      </trkpt>
      <trkpt lat="43.2259" lon="5.44984">
        <ele>280.36</ele>
        <time>2019-04-21T16:03:14Z</time>
      </trkpt>
      <trkpt lat="43.22582" lon="5.44969">
        <ele>280.36</ele>
        <time>2019-04-21T16:03:25Z</time>
      </trkpt>
      <trkpt lat="43.2257" lon="5.44953">
        <ele>279.88</ele>
        <time>2019-04-21T16:03:39Z</time>
      </trkpt>
      <trkpt lat="43.22569" lon="5.44948">
        <ele>280.36</ele>
        <time>2019-04-21T16:03:51Z</time>
      </trkpt>
      <trkpt lat="43.22564" lon="5.44945">
        <ele>280.36</ele>
        <time>2019-04-21T16:04:02Z</time>
      </trkpt>
      <trkpt lat="43.2256" lon="5.44945">
        <ele>280.36</ele>
        <time>2019-04-21T16:04:05Z</time>
      </trkpt>
      <trkpt lat="43.22559" lon="5.44945">
        <ele>280.84</ele>
        <time>2019-04-21T16:04:06Z</time>
      </trkpt>
      <trkpt lat="43.22557" lon="5.44945">
        <ele>280.84</ele>
        <time>2019-04-21T16:04:07Z</time>
      </trkpt>
      <trkpt lat="43.22554" lon="5.44946">
        <ele>280.36</ele>
        <time>2019-04-21T16:04:12Z</time>
      </trkpt>
      <trkpt lat="43.22553" lon="5.44946">
        <ele>280.36</ele>
        <time>2019-04-21T16:04:13Z</time>
      </trkpt>
      <trkpt lat="43.22551" lon="5.44946">
        <ele>279.88</ele>
        <time>2019-04-21T16:04:14Z</time>
      </trkpt>
      <trkpt lat="43.22549" lon="5.44946">
        <ele>279.88</ele>
        <time>2019-04-21T16:04:15Z</time>
      </trkpt>
      <trkpt lat="43.22546" lon="5.44945">
        <ele>279.4</ele>
        <time>2019-04-21T16:04:16Z</time>
      </trkpt>
      <trkpt lat="43.22544" lon="5.44945">
        <ele>278.92</ele>
        <time>2019-04-21T16:04:17Z</time>
      </trkpt>
      <trkpt lat="43.22542" lon="5.44946">
        <ele>278.44</ele>
        <time>2019-04-21T16:04:18Z</time>
      </trkpt>
      <trkpt lat="43.22541" lon="5.44946">
        <ele>278.44</ele>
        <time>2019-04-21T16:04:19Z</time>
      </trkpt>
      <trkpt lat="43.22539" lon="5.44947">
        <ele>278.92</ele>
        <time>2019-04-21T16:04:20Z</time>
      </trkpt>
      <trkpt lat="43.22538" lon="5.44948">
        <ele>278.44</ele>
        <time>2019-04-21T16:04:21Z</time>
      </trkpt>
      <trkpt lat="43.22529" lon="5.44953">
        <ele>277.48</ele>
        <time>2019-04-21T16:04:32Z</time>
      </trkpt>
      <trkpt lat="43.2252" lon="5.44955">
        <ele>277.48</ele>
        <time>2019-04-21T16:04:40Z</time>
      </trkpt>
      <trkpt lat="43.22519" lon="5.44955">
        <ele>277.48</ele>
        <time>2019-04-21T16:04:41Z</time>
      </trkpt>
      <trkpt lat="43.22517" lon="5.44955">
        <ele>277</ele>
        <time>2019-04-21T16:04:42Z</time>
      </trkpt>
      <trkpt lat="43.22515" lon="5.44954">
        <ele>277</ele>
        <time>2019-04-21T16:04:43Z</time>
      </trkpt>
      <trkpt lat="43.22512" lon="5.44954">
        <ele>277</ele>
        <time>2019-04-21T16:04:44Z</time>
      </trkpt>
      <trkpt lat="43.2251" lon="5.44954">
        <ele>277</ele>
        <time>2019-04-21T16:04:45Z</time>
      </trkpt>
      <trkpt lat="43.22501" lon="5.44957">
        <ele>277</ele>
        <time>2019-04-21T16:04:54Z</time>
      </trkpt>
      <trkpt lat="43.22491" lon="5.44959">
        <ele>276.04</ele>
        <time>2019-04-21T16:05:03Z</time>
      </trkpt>
      <trkpt lat="43.22489" lon="5.4496">
        <ele>276.04</ele>
        <time>2019-04-21T16:05:04Z</time>
      </trkpt>
      <trkpt lat="43.22487" lon="5.4496">
        <ele>276.52</ele>
        <time>2019-04-21T16:05:05Z</time>
      </trkpt>
      <trkpt lat="43.22485" lon="5.4496">
        <ele>276.04</ele>
        <time>2019-04-21T16:05:06Z</time>
      </trkpt>
      <trkpt lat="43.22484" lon="5.4496">
        <ele>276.04</ele>
        <time>2019-04-21T16:05:07Z</time>
      </trkpt>
      <trkpt lat="43.2247" lon="5.44961">
        <ele>276.04</ele>
        <time>2019-04-21T16:05:17Z</time>
      </trkpt>
      <trkpt lat="43.22466" lon="5.44961">
        <ele>275.56</ele>
        <time>2019-04-21T16:05:23Z</time>
      </trkpt>
      <trkpt lat="43.22464" lon="5.44961">
        <ele>275.56</ele>
        <time>2019-04-21T16:05:24Z</time>
      </trkpt>
      <trkpt lat="43.22456" lon="5.44959">
        <ele>275.56</ele>
        <time>2019-04-21T16:05:32Z</time>
      </trkpt>
      <trkpt lat="43.22454" lon="5.44959">
        <ele>275.56</ele>
        <time>2019-04-21T16:05:33Z</time>
      </trkpt>
      <trkpt lat="43.22442" lon="5.44961">
        <ele>275.56</ele>
        <time>2019-04-21T16:05:42Z</time>
      </trkpt>
      <trkpt lat="43.22441" lon="5.44962">
        <ele>275.56</ele>
        <time>2019-04-21T16:05:43Z</time>
      </trkpt>
      <trkpt lat="43.22439" lon="5.44962">
        <ele>275.07</ele>
        <time>2019-04-21T16:05:44Z</time>
      </trkpt>
      <trkpt lat="43.22438" lon="5.44962">
        <ele>275.07</ele>
        <time>2019-04-21T16:05:45Z</time>
      </trkpt>
      <trkpt lat="43.22435" lon="5.44962">
        <ele>274.59</ele>
        <time>2019-04-21T16:05:46Z</time>
      </trkpt>
      <trkpt lat="43.22425" lon="5.44964">
        <ele>274.11</ele>
        <time>2019-04-21T16:05:56Z</time>
      </trkpt>
      <trkpt lat="43.22424" lon="5.44964">
        <ele>273.63</ele>
        <time>2019-04-21T16:05:57Z</time>
      </trkpt>
      <trkpt lat="43.22422" lon="5.44964">
        <ele>273.63</ele>
        <time>2019-04-21T16:05:58Z</time>
      </trkpt>
      <trkpt lat="43.22421" lon="5.44964">
        <ele>273.63</ele>
        <time>2019-04-21T16:05:59Z</time>
      </trkpt>
      <trkpt lat="43.22416" lon="5.44962">
        <ele>273.63</ele>
        <time>2019-04-21T16:06:02Z</time>
      </trkpt>
      <trkpt lat="43.22414" lon="5.4496">
        <ele>273.63</ele>
        <time>2019-04-21T16:06:03Z</time>
      </trkpt>
      <trkpt lat="43.22408" lon="5.44953">
        <ele>273.15</ele>
        <time>2019-04-21T16:06:11Z</time>
      </trkpt>
      <trkpt lat="43.22405" lon="5.44951">
        <ele>272.67</ele>
        <time>2019-04-21T16:06:14Z</time>
      </trkpt>
      <trkpt lat="43.22404" lon="5.44949">
        <ele>272.67</ele>
        <time>2019-04-21T16:06:15Z</time>
      </trkpt>
      <trkpt lat="43.22403" lon="5.44947">
        <ele>271.71</ele>
        <time>2019-04-21T16:06:16Z</time>
      </trkpt>
      <trkpt lat="43.22402" lon="5.44945">
        <ele>272.19</ele>
        <time>2019-04-21T16:06:17Z</time>
      </trkpt>
      <trkpt lat="43.22401" lon="5.44943">
        <ele>272.19</ele>
        <time>2019-04-21T16:06:18Z</time>
      </trkpt>
      <trkpt lat="43.224" lon="5.4494">
        <ele>271.71</ele>
        <time>2019-04-21T16:06:19Z</time>
      </trkpt>
      <trkpt lat="43.22399" lon="5.44938">
        <ele>272.19</ele>
        <time>2019-04-21T16:06:20Z</time>
      </trkpt>
      <trkpt lat="43.22398" lon="5.44937">
        <ele>271.71</ele>
        <time>2019-04-21T16:06:21Z</time>
      </trkpt>
      <trkpt lat="43.22395" lon="5.44933">
        <ele>271.23</ele>
        <time>2019-04-21T16:06:27Z</time>
      </trkpt>
      <trkpt lat="43.22394" lon="5.44932">
        <ele>270.75</ele>
        <time>2019-04-21T16:06:28Z</time>
      </trkpt>
      <trkpt lat="43.22393" lon="5.4493">
        <ele>270.27</ele>
        <time>2019-04-21T16:06:29Z</time>
      </trkpt>
      <trkpt lat="43.22392" lon="5.44928">
        <ele>270.27</ele>
        <time>2019-04-21T16:06:30Z</time>
      </trkpt>
      <trkpt lat="43.22391" lon="5.44925">
        <ele>270.27</ele>
        <time>2019-04-21T16:06:31Z</time>
      </trkpt>
      <trkpt lat="43.22383" lon="5.44908">
        <ele>269.31</ele>
        <time>2019-04-21T16:06:43Z</time>
      </trkpt>
      <trkpt lat="43.22371" lon="5.44886">
        <ele>268.35</ele>
        <time>2019-04-21T16:06:53Z</time>
      </trkpt>
      <trkpt lat="43.22368" lon="5.44882">
        <ele>267.38</ele>
        <time>2019-04-21T16:06:59Z</time>
      </trkpt>
      <trkpt lat="43.22367" lon="5.44882">
        <ele>267.38</ele>
        <time>2019-04-21T16:07:00Z</time>
      </trkpt>
      <trkpt lat="43.22365" lon="5.44881">
        <ele>267.86</ele>
        <time>2019-04-21T16:07:01Z</time>
      </trkpt>
      <trkpt lat="43.22364" lon="5.4488">
        <ele>267.38</ele>
        <time>2019-04-21T16:07:02Z</time>
      </trkpt>
      <trkpt lat="43.22363" lon="5.44879">
        <ele>266.9</ele>
        <time>2019-04-21T16:07:03Z</time>
      </trkpt>
      <trkpt lat="43.22362" lon="5.44877">
        <ele>266.9</ele>
        <time>2019-04-21T16:07:04Z</time>
      </trkpt>
      <trkpt lat="43.22361" lon="5.44876">
        <ele>266.9</ele>
        <time>2019-04-21T16:07:05Z</time>
      </trkpt>
      <trkpt lat="43.22361" lon="5.44874">
        <ele>266.9</ele>
        <time>2019-04-21T16:07:06Z</time>
      </trkpt>
      <trkpt lat="43.2236" lon="5.44872">
        <ele>266.9</ele>
        <time>2019-04-21T16:07:07Z</time>
      </trkpt>
      <trkpt lat="43.22358" lon="5.4487">
        <ele>265.94</ele>
        <time>2019-04-21T16:07:08Z</time>
      </trkpt>
      <trkpt lat="43.22357" lon="5.44868">
        <ele>265.94</ele>
        <time>2019-04-21T16:07:09Z</time>
      </trkpt>
      <trkpt lat="43.22357" lon="5.44866">
        <ele>266.42</ele>
        <time>2019-04-21T16:07:10Z</time>
      </trkpt>
      <trkpt lat="43.22356" lon="5.44865">
        <ele>265.46</ele>
        <time>2019-04-21T16:07:11Z</time>
      </trkpt>
      <trkpt lat="43.22355" lon="5.44863">
        <ele>265.94</ele>
        <time>2019-04-21T16:07:12Z</time>
      </trkpt>
      <trkpt lat="43.22351" lon="5.44853">
        <ele>264.5</ele>
        <time>2019-04-21T16:07:18Z</time>
      </trkpt>
      <trkpt lat="43.22351" lon="5.44852">
        <ele>262.1</ele>
        <time>2019-04-21T16:07:27Z</time>
      </trkpt>
      <trkpt lat="43.22348" lon="5.44842">
        <ele>260.65</ele>
        <time>2019-04-21T16:07:39Z</time>
      </trkpt>
      <trkpt lat="43.22334" lon="5.44837">
        <ele>258.73</ele>
        <time>2019-04-21T16:07:48Z</time>
      </trkpt>
      <trkpt lat="43.22332" lon="5.44839">
        <ele>259.21</ele>
        <time>2019-04-21T16:07:52Z</time>
      </trkpt>
      <trkpt lat="43.22329" lon="5.44838">
        <ele>258.25</ele>
        <time>2019-04-21T16:07:55Z</time>
      </trkpt>
      <trkpt lat="43.22322" lon="5.44833">
        <ele>258.25</ele>
        <time>2019-04-21T16:08:02Z</time>
      </trkpt>
      <trkpt lat="43.22321" lon="5.44833">
        <ele>257.77</ele>
        <time>2019-04-21T16:08:03Z</time>
      </trkpt>
      <trkpt lat="43.22319" lon="5.44833">
        <ele>257.77</ele>
        <time>2019-04-21T16:08:04Z</time>
      </trkpt>
      <trkpt lat="43.22317" lon="5.44833">
        <ele>257.77</ele>
        <time>2019-04-21T16:08:05Z</time>
      </trkpt>
      <trkpt lat="43.22315" lon="5.44832">
        <ele>257.77</ele>
        <time>2019-04-21T16:08:06Z</time>
      </trkpt>
      <trkpt lat="43.22308" lon="5.44832">
        <ele>257.29</ele>
        <time>2019-04-21T16:08:15Z</time>
      </trkpt>
      <trkpt lat="43.22289" lon="5.44822">
        <ele>256.81</ele>
        <time>2019-04-21T16:08:25Z</time>
      </trkpt>
      <trkpt lat="43.2228" lon="5.44809">
        <ele>257.77</ele>
        <time>2019-04-21T16:08:35Z</time>
      </trkpt>
      <trkpt lat="43.2228" lon="5.44809">
        <ele>256.81</ele>
        <time>2019-04-21T16:08:36Z</time>
      </trkpt>
      <trkpt lat="43.22279" lon="5.44806">
        <ele>256.33</ele>
        <time>2019-04-21T16:08:39Z</time>
      </trkpt>
      <trkpt lat="43.22279" lon="5.44806">
        <ele>255.85</ele>
        <time>2019-04-21T16:08:41Z</time>
      </trkpt>
      <trkpt lat="43.22278" lon="5.44805">
        <ele>256.81</ele>
        <time>2019-04-21T16:08:42Z</time>
      </trkpt>
      <trkpt lat="43.22278" lon="5.44804">
        <ele>257.29</ele>
        <time>2019-04-21T16:08:44Z</time>
      </trkpt>
      <trkpt lat="43.2227" lon="5.44788">
        <ele>256.81</ele>
        <time>2019-04-21T16:08:56Z</time>
      </trkpt>
      <trkpt lat="43.22261" lon="5.44777">
        <ele>254.41</ele>
        <time>2019-04-21T16:09:09Z</time>
      </trkpt>
      <trkpt lat="43.22248" lon="5.44766">
        <ele>255.37</ele>
        <time>2019-04-21T16:09:23Z</time>
      </trkpt>
      <trkpt lat="43.2224" lon="5.44767">
        <ele>254.89</ele>
        <time>2019-04-21T16:09:40Z</time>
      </trkpt>
      <trkpt lat="43.2224" lon="5.4477">
        <ele>254.89</ele>
        <time>2019-04-21T16:09:51Z</time>
      </trkpt>
      <trkpt lat="43.22239" lon="5.44771">
        <ele>254.89</ele>
        <time>2019-04-21T16:10:11Z</time>
      </trkpt>
      <trkpt lat="43.22235" lon="5.4477">
        <ele>254.89</ele>
        <time>2019-04-21T16:10:15Z</time>
      </trkpt>
      <trkpt lat="43.22234" lon="5.44771">
        <ele>253.93</ele>
        <time>2019-04-21T16:10:16Z</time>
      </trkpt>
      <trkpt lat="43.22233" lon="5.4477">
        <ele>254.41</ele>
        <time>2019-04-21T16:10:17Z</time>
      </trkpt>
      <trkpt lat="43.22231" lon="5.4477">
        <ele>254.41</ele>
        <time>2019-04-21T16:10:18Z</time>
      </trkpt>
      <trkpt lat="43.22229" lon="5.4477">
        <ele>254.89</ele>
        <time>2019-04-21T16:10:21Z</time>
      </trkpt>
      <trkpt lat="43.22228" lon="5.44769">
        <ele>254.41</ele>
        <time>2019-04-21T16:10:22Z</time>
      </trkpt>
      <trkpt lat="43.22215" lon="5.4476">
        <ele>253.93</ele>
        <time>2019-04-21T16:10:35Z</time>
      </trkpt>
      <trkpt lat="43.22208" lon="5.44758">
        <ele>253.44</ele>
        <time>2019-04-21T16:10:43Z</time>
      </trkpt>
      <trkpt lat="43.22207" lon="5.44759">
        <ele>253.44</ele>
        <time>2019-04-21T16:10:44Z</time>
      </trkpt>
      <trkpt lat="43.22206" lon="5.44758">
        <ele>254.41</ele>
        <time>2019-04-21T16:10:45Z</time>
      </trkpt>
      <trkpt lat="43.22205" lon="5.44758">
        <ele>250.56</ele>
        <time>2019-04-21T16:10:46Z</time>
      </trkpt>
      <trkpt lat="43.22202" lon="5.44757">
        <ele>254.89</ele>
        <time>2019-04-21T16:10:48Z</time>
      </trkpt>
      <trkpt lat="43.22201" lon="5.44756">
        <ele>253.93</ele>
        <time>2019-04-21T16:10:49Z</time>
      </trkpt>
      <trkpt lat="43.22191" lon="5.44748">
        <ele>253.93</ele>
        <time>2019-04-21T16:11:01Z</time>
      </trkpt>
      <trkpt lat="43.22193" lon="5.44748">
        <ele>253.44</ele>
        <time>2019-04-21T16:11:15Z</time>
      </trkpt>
      <trkpt lat="43.22191" lon="5.44746">
        <ele>253.44</ele>
        <time>2019-04-21T16:11:26Z</time>
      </trkpt>
      <trkpt lat="43.2219" lon="5.44747">
        <ele>252.96</ele>
        <time>2019-04-21T16:11:46Z</time>
      </trkpt>
      <trkpt lat="43.22193" lon="5.44748">
        <ele>253.44</ele>
        <time>2019-04-21T16:12:13Z</time>
      </trkpt>
      <trkpt lat="43.22192" lon="5.44748">
        <ele>253.93</ele>
        <time>2019-04-21T16:12:27Z</time>
      </trkpt>
      <trkpt lat="43.22192" lon="5.44747">
        <ele>253.44</ele>
        <time>2019-04-21T16:13:02Z</time>
      </trkpt>
      <trkpt lat="43.22193" lon="5.44747">
        <ele>252.48</ele>
        <time>2019-04-21T16:13:22Z</time>
      </trkpt>
      <trkpt lat="43.22192" lon="5.44745">
        <ele>253.44</ele>
        <time>2019-04-21T16:13:42Z</time>
      </trkpt>
      <trkpt lat="43.22191" lon="5.44745">
        <ele>252.96</ele>
        <time>2019-04-21T16:13:55Z</time>
      </trkpt>
      <trkpt lat="43.22187" lon="5.44743">
        <ele>252.96</ele>
        <time>2019-04-21T16:13:59Z</time>
      </trkpt>
      <trkpt lat="43.22186" lon="5.44742">
        <ele>252.96</ele>
        <time>2019-04-21T16:14:00Z</time>
      </trkpt>
      <trkpt lat="43.22185" lon="5.44741">
        <ele>253.44</ele>
        <time>2019-04-21T16:14:01Z</time>
      </trkpt>
      <trkpt lat="43.22167" lon="5.44722">
        <ele>251.52</ele>
        <time>2019-04-21T16:14:19Z</time>
      </trkpt>
      <trkpt lat="43.22162" lon="5.44715">
        <ele>251.04</ele>
        <time>2019-04-21T16:14:28Z</time>
      </trkpt>
      <trkpt lat="43.22168" lon="5.44717">
        <ele>251.04</ele>
        <time>2019-04-21T16:14:32Z</time>
      </trkpt>
      <trkpt lat="43.22173" lon="5.44712">
        <ele>250.56</ele>
        <time>2019-04-21T16:14:41Z</time>
      </trkpt>
      <trkpt lat="43.22171" lon="5.44716">
        <ele>251.52</ele>
        <time>2019-04-21T16:14:46Z</time>
      </trkpt>
      <trkpt lat="43.22167" lon="5.44711">
        <ele>252.48</ele>
        <time>2019-04-21T16:14:49Z</time>
      </trkpt>
      <trkpt lat="43.22165" lon="5.4471">
        <ele>253.44</ele>
        <time>2019-04-21T16:14:50Z</time>
      </trkpt>
      <trkpt lat="43.22163" lon="5.44709">
        <ele>253.44</ele>
        <time>2019-04-21T16:14:51Z</time>
      </trkpt>
      <trkpt lat="43.22159" lon="5.44709">
        <ele>251.04</ele>
        <time>2019-04-21T16:14:55Z</time>
      </trkpt>
      <trkpt lat="43.2215" lon="5.44694">
        <ele>252</ele>
        <time>2019-04-21T16:15:06Z</time>
      </trkpt>
      <trkpt lat="43.22143" lon="5.44687">
        <ele>252.96</ele>
        <time>2019-04-21T16:15:12Z</time>
      </trkpt>
      <trkpt lat="43.22142" lon="5.44681">
        <ele>254.41</ele>
        <time>2019-04-21T16:15:17Z</time>
      </trkpt>
      <trkpt lat="43.22138" lon="5.44675">
        <ele>254.89</ele>
        <time>2019-04-21T16:15:24Z</time>
      </trkpt>
      <trkpt lat="43.22137" lon="5.44668">
        <ele>255.85</ele>
        <time>2019-04-21T16:15:30Z</time>
      </trkpt>
      <trkpt lat="43.22136" lon="5.44663">
        <ele>257.77</ele>
        <time>2019-04-21T16:15:35Z</time>
      </trkpt>
      <trkpt lat="43.22135" lon="5.44658">
        <ele>258.25</ele>
        <time>2019-04-21T16:15:39Z</time>
      </trkpt>
      <trkpt lat="43.22132" lon="5.44654">
        <ele>257.77</ele>
        <time>2019-04-21T16:15:42Z</time>
      </trkpt>
      <trkpt lat="43.22127" lon="5.44638">
        <ele>259.69</ele>
        <time>2019-04-21T16:15:52Z</time>
      </trkpt>
      <trkpt lat="43.22121" lon="5.44618">
        <ele>259.69</ele>
        <time>2019-04-21T16:16:04Z</time>
      </trkpt>
      <trkpt lat="43.22112" lon="5.44611">
        <ele>259.69</ele>
        <time>2019-04-21T16:16:13Z</time>
      </trkpt>
      <trkpt lat="43.2211" lon="5.44611">
        <ele>258.73</ele>
        <time>2019-04-21T16:16:16Z</time>
      </trkpt>
      <trkpt lat="43.22103" lon="5.44601">
        <ele>255.37</ele>
        <time>2019-04-21T16:16:26Z</time>
      </trkpt>
      <trkpt lat="43.22103" lon="5.446">
        <ele>255.85</ele>
        <time>2019-04-21T16:16:27Z</time>
      </trkpt>
      <trkpt lat="43.22101" lon="5.44589">
        <ele>254.41</ele>
        <time>2019-04-21T16:16:33Z</time>
      </trkpt>
      <trkpt lat="43.22097" lon="5.44578">
        <ele>251.52</ele>
        <time>2019-04-21T16:16:43Z</time>
      </trkpt>
      <trkpt lat="43.22103" lon="5.4457">
        <ele>249.6</ele>
        <time>2019-04-21T16:16:56Z</time>
      </trkpt>
      <trkpt lat="43.22103" lon="5.44558">
        <ele>249.12</ele>
        <time>2019-04-21T16:17:07Z</time>
      </trkpt>
      <trkpt lat="43.22107" lon="5.44547">
        <ele>247.2</ele>
        <time>2019-04-21T16:17:20Z</time>
      </trkpt>
      <trkpt lat="43.22108" lon="5.44537">
        <ele>244.31</ele>
        <time>2019-04-21T16:17:32Z</time>
      </trkpt>
      <trkpt lat="43.22107" lon="5.44532">
        <ele>244.31</ele>
        <time>2019-04-21T16:17:35Z</time>
      </trkpt>
      <trkpt lat="43.22109" lon="5.44526">
        <ele>243.35</ele>
        <time>2019-04-21T16:17:38Z</time>
      </trkpt>
      <trkpt lat="43.2211" lon="5.44518">
        <ele>241.43</ele>
        <time>2019-04-21T16:17:43Z</time>
      </trkpt>
      <trkpt lat="43.22118" lon="5.44508">
        <ele>239.99</ele>
        <time>2019-04-21T16:17:55Z</time>
      </trkpt>
      <trkpt lat="43.22114" lon="5.44499">
        <ele>238.06</ele>
        <time>2019-04-21T16:18:16Z</time>
      </trkpt>
      <trkpt lat="43.22112" lon="5.44487">
        <ele>238.06</ele>
        <time>2019-04-21T16:18:37Z</time>
      </trkpt>
      <trkpt lat="43.22112" lon="5.44486">
        <ele>237.1</ele>
        <time>2019-04-21T16:18:38Z</time>
      </trkpt>
      <trkpt lat="43.22113" lon="5.44482">
        <ele>236.62</ele>
        <time>2019-04-21T16:18:41Z</time>
      </trkpt>
      <trkpt lat="43.22113" lon="5.44472">
        <ele>233.74</ele>
        <time>2019-04-21T16:18:51Z</time>
      </trkpt>
      <trkpt lat="43.22111" lon="5.44462">
        <ele>230.85</ele>
        <time>2019-04-21T16:19:00Z</time>
      </trkpt>
      <trkpt lat="43.22109" lon="5.4445">
        <ele>229.89</ele>
        <time>2019-04-21T16:19:19Z</time>
      </trkpt>
      <trkpt lat="43.22108" lon="5.44447">
        <ele>230.37</ele>
        <time>2019-04-21T16:19:34Z</time>
      </trkpt>
      <trkpt lat="43.22103" lon="5.44443">
        <ele>229.41</ele>
        <time>2019-04-21T16:19:39Z</time>
      </trkpt>
      <trkpt lat="43.22101" lon="5.44427">
        <ele>227.01</ele>
        <time>2019-04-21T16:19:53Z</time>
      </trkpt>
      <trkpt lat="43.22103" lon="5.44407">
        <ele>225.57</ele>
        <time>2019-04-21T16:20:06Z</time>
      </trkpt>
      <trkpt lat="43.22105" lon="5.444">
        <ele>224.12</ele>
        <time>2019-04-21T16:20:13Z</time>
      </trkpt>
      <trkpt lat="43.22111" lon="5.44383">
        <ele>222.2</ele>
        <time>2019-04-21T16:20:25Z</time>
      </trkpt>
      <trkpt lat="43.22113" lon="5.44368">
        <ele>219.8</ele>
        <time>2019-04-21T16:20:37Z</time>
      </trkpt>
      <trkpt lat="43.2211" lon="5.44359">
        <ele>220.76</ele>
        <time>2019-04-21T16:20:54Z</time>
      </trkpt>
      <trkpt lat="43.2211" lon="5.44363">
        <ele>219.8</ele>
        <time>2019-04-21T16:21:10Z</time>
      </trkpt>
      <trkpt lat="43.22116" lon="5.44365">
        <ele>219.8</ele>
        <time>2019-04-21T16:21:30Z</time>
      </trkpt>
      <trkpt lat="43.22118" lon="5.44372">
        <ele>218.84</ele>
        <time>2019-04-21T16:21:57Z</time>
      </trkpt>
      <trkpt lat="43.22114" lon="5.44352">
        <ele>216.91</ele>
        <time>2019-04-21T16:22:21Z</time>
      </trkpt>
      <trkpt lat="43.22117" lon="5.44329">
        <ele>215.47</ele>
        <time>2019-04-21T16:22:34Z</time>
      </trkpt>
      <trkpt lat="43.22131" lon="5.44306">
        <ele>214.99</ele>
        <time>2019-04-21T16:22:49Z</time>
      </trkpt>
      <trkpt lat="43.22143" lon="5.44288">
        <ele>214.03</ele>
        <time>2019-04-21T16:23:04Z</time>
      </trkpt>
      <trkpt lat="43.22156" lon="5.44275">
        <ele>213.55</ele>
        <time>2019-04-21T16:23:17Z</time>
      </trkpt>
      <trkpt lat="43.22157" lon="5.44273">
        <ele>213.07</ele>
        <time>2019-04-21T16:23:18Z</time>
      </trkpt>
      <trkpt lat="43.22158" lon="5.44272">
        <ele>213.55</ele>
        <time>2019-04-21T16:23:19Z</time>
      </trkpt>
      <trkpt lat="43.22172" lon="5.4426">
        <ele>214.99</ele>
        <time>2019-04-21T16:23:31Z</time>
      </trkpt>
      <trkpt lat="43.22185" lon="5.44247">
        <ele>213.55</ele>
        <time>2019-04-21T16:23:44Z</time>
      </trkpt>
      <trkpt lat="43.22192" lon="5.44242">
        <ele>212.59</ele>
        <time>2019-04-21T16:23:51Z</time>
      </trkpt>
      <trkpt lat="43.22193" lon="5.44241">
        <ele>212.59</ele>
        <time>2019-04-21T16:23:52Z</time>
      </trkpt>
      <trkpt lat="43.22203" lon="5.44232">
        <ele>212.11</ele>
        <time>2019-04-21T16:24:02Z</time>
      </trkpt>
      <trkpt lat="43.22205" lon="5.44231">
        <ele>212.59</ele>
        <time>2019-04-21T16:24:03Z</time>
      </trkpt>
      <trkpt lat="43.22207" lon="5.4423">
        <ele>212.11</ele>
        <time>2019-04-21T16:24:04Z</time>
      </trkpt>
      <trkpt lat="43.22222" lon="5.44222">
        <ele>212.59</ele>
        <time>2019-04-21T16:24:16Z</time>
      </trkpt>
      <trkpt lat="43.22245" lon="5.44209">
        <ele>211.15</ele>
        <time>2019-04-21T16:24:33Z</time>
      </trkpt>
      <trkpt lat="43.22255" lon="5.44205">
        <ele>210.67</ele>
        <time>2019-04-21T16:24:44Z</time>
      </trkpt>
      <trkpt lat="43.22259" lon="5.44204">
        <ele>210.67</ele>
        <time>2019-04-21T16:24:47Z</time>
      </trkpt>
      <trkpt lat="43.2226" lon="5.44203">
        <ele>210.67</ele>
        <time>2019-04-21T16:24:48Z</time>
      </trkpt>
      <trkpt lat="43.22262" lon="5.44202">
        <ele>210.67</ele>
        <time>2019-04-21T16:24:49Z</time>
      </trkpt>
      <trkpt lat="43.22264" lon="5.442">
        <ele>211.15</ele>
        <time>2019-04-21T16:24:50Z</time>
      </trkpt>
      <trkpt lat="43.22276" lon="5.44197">
        <ele>213.07</ele>
        <time>2019-04-21T16:25:00Z</time>
      </trkpt>
      <trkpt lat="43.22283" lon="5.44191">
        <ele>213.07</ele>
        <time>2019-04-21T16:25:09Z</time>
      </trkpt>
      <trkpt lat="43.22284" lon="5.4419">
        <ele>212.59</ele>
        <time>2019-04-21T16:25:10Z</time>
      </trkpt>
      <trkpt lat="43.2229" lon="5.44184">
        <ele>213.07</ele>
        <time>2019-04-21T16:25:17Z</time>
      </trkpt>
      <trkpt lat="43.22292" lon="5.44183">
        <ele>213.07</ele>
        <time>2019-04-21T16:25:18Z</time>
      </trkpt>
      <trkpt lat="43.22293" lon="5.44182">
        <ele>213.55</ele>
        <time>2019-04-21T16:25:19Z</time>
      </trkpt>
      <trkpt lat="43.22295" lon="5.44181">
        <ele>213.07</ele>
        <time>2019-04-21T16:25:20Z</time>
      </trkpt>
      <trkpt lat="43.22297" lon="5.44181">
        <ele>213.07</ele>
        <time>2019-04-21T16:25:21Z</time>
      </trkpt>
      <trkpt lat="43.22309" lon="5.44172">
        <ele>213.07</ele>
        <time>2019-04-21T16:25:33Z</time>
      </trkpt>
      <trkpt lat="43.22315" lon="5.4417">
        <ele>212.59</ele>
        <time>2019-04-21T16:25:39Z</time>
      </trkpt>
      <trkpt lat="43.22317" lon="5.44169">
        <ele>213.07</ele>
        <time>2019-04-21T16:25:40Z</time>
      </trkpt>
      <trkpt lat="43.22334" lon="5.44159">
        <ele>212.59</ele>
        <time>2019-04-21T16:25:53Z</time>
      </trkpt>
      <trkpt lat="43.22346" lon="5.44149">
        <ele>212.59</ele>
        <time>2019-04-21T16:26:05Z</time>
      </trkpt>
      <trkpt lat="43.22354" lon="5.44136">
        <ele>211.63</ele>
        <time>2019-04-21T16:26:18Z</time>
      </trkpt>
      <trkpt lat="43.22364" lon="5.44127">
        <ele>211.63</ele>
        <time>2019-04-21T16:26:27Z</time>
      </trkpt>
      <trkpt lat="43.22365" lon="5.44127">
        <ele>211.63</ele>
        <time>2019-04-21T16:26:28Z</time>
      </trkpt>
      <trkpt lat="43.22367" lon="5.44127">
        <ele>211.63</ele>
        <time>2019-04-21T16:26:29Z</time>
      </trkpt>
      <trkpt lat="43.22368" lon="5.44126">
        <ele>212.11</ele>
        <time>2019-04-21T16:26:30Z</time>
      </trkpt>
      <trkpt lat="43.22381" lon="5.44113">
        <ele>211.63</ele>
        <time>2019-04-21T16:26:43Z</time>
      </trkpt>
      <trkpt lat="43.22389" lon="5.44106">
        <ele>212.11</ele>
        <time>2019-04-21T16:26:54Z</time>
      </trkpt>
      <trkpt lat="43.2239" lon="5.44105">
        <ele>211.63</ele>
        <time>2019-04-21T16:26:55Z</time>
      </trkpt>
      <trkpt lat="43.22393" lon="5.44102">
        <ele>211.15</ele>
        <time>2019-04-21T16:26:57Z</time>
      </trkpt>
      <trkpt lat="43.22403" lon="5.44095">
        <ele>210.67</ele>
        <time>2019-04-21T16:27:06Z</time>
      </trkpt>
      <trkpt lat="43.22413" lon="5.44085">
        <ele>209.7</ele>
        <time>2019-04-21T16:27:16Z</time>
      </trkpt>
      <trkpt lat="43.22426" lon="5.44074">
        <ele>208.74</ele>
        <time>2019-04-21T16:27:32Z</time>
      </trkpt>
      <trkpt lat="43.22428" lon="5.44073">
        <ele>208.26</ele>
        <time>2019-04-21T16:27:33Z</time>
      </trkpt>
      <trkpt lat="43.2243" lon="5.44071">
        <ele>208.26</ele>
        <time>2019-04-21T16:27:34Z</time>
      </trkpt>
      <trkpt lat="43.22435" lon="5.44064">
        <ele>207.78</ele>
        <time>2019-04-21T16:27:41Z</time>
      </trkpt>
      <trkpt lat="43.22436" lon="5.44061">
        <ele>208.26</ele>
        <time>2019-04-21T16:27:42Z</time>
      </trkpt>
      <trkpt lat="43.22438" lon="5.44048">
        <ele>207.3</ele>
        <time>2019-04-21T16:27:51Z</time>
      </trkpt>
      <trkpt lat="43.2244" lon="5.44042">
        <ele>206.82</ele>
        <time>2019-04-21T16:28:05Z</time>
      </trkpt>
      <trkpt lat="43.22444" lon="5.44032">
        <ele>205.86</ele>
        <time>2019-04-21T16:28:26Z</time>
      </trkpt>
      <trkpt lat="43.22449" lon="5.44021">
        <ele>202.49</ele>
        <time>2019-04-21T16:28:37Z</time>
      </trkpt>
      <trkpt lat="43.22453" lon="5.44012">
        <ele>199.13</ele>
        <time>2019-04-21T16:28:51Z</time>
      </trkpt>
      <trkpt lat="43.2246" lon="5.44005">
        <ele>198.17</ele>
        <time>2019-04-21T16:28:58Z</time>
      </trkpt>
      <trkpt lat="43.22473" lon="5.43995">
        <ele>195.28</ele>
        <time>2019-04-21T16:29:12Z</time>
      </trkpt>
      <trkpt lat="43.22476" lon="5.43991">
        <ele>194.8</ele>
        <time>2019-04-21T16:29:17Z</time>
      </trkpt>
      <trkpt lat="43.22483" lon="5.43987">
        <ele>193.36</ele>
        <time>2019-04-21T16:29:29Z</time>
      </trkpt>
      <trkpt lat="43.22488" lon="5.43981">
        <ele>190.96</ele>
        <time>2019-04-21T16:29:39Z</time>
      </trkpt>
      <trkpt lat="43.2249" lon="5.43977">
        <ele>190</ele>
        <time>2019-04-21T16:29:41Z</time>
      </trkpt>
      <trkpt lat="43.2249" lon="5.43975">
        <ele>190</ele>
        <time>2019-04-21T16:29:42Z</time>
      </trkpt>
      <trkpt lat="43.22491" lon="5.43974">
        <ele>189.52</ele>
        <time>2019-04-21T16:29:43Z</time>
      </trkpt>
      <trkpt lat="43.22504" lon="5.43971">
        <ele>187.11</ele>
        <time>2019-04-21T16:29:56Z</time>
      </trkpt>
      <trkpt lat="43.22508" lon="5.43968">
        <ele>186.63</ele>
        <time>2019-04-21T16:29:58Z</time>
      </trkpt>
      <trkpt lat="43.22521" lon="5.43962">
        <ele>184.71</ele>
        <time>2019-04-21T16:30:10Z</time>
      </trkpt>
      <trkpt lat="43.22524" lon="5.43958">
        <ele>183.27</ele>
        <time>2019-04-21T16:30:14Z</time>
      </trkpt>
      <trkpt lat="43.22526" lon="5.43957">
        <ele>183.27</ele>
        <time>2019-04-21T16:30:15Z</time>
      </trkpt>
      <trkpt lat="43.22527" lon="5.43956">
        <ele>182.79</ele>
        <time>2019-04-21T16:30:16Z</time>
      </trkpt>
      <trkpt lat="43.22546" lon="5.43946">
        <ele>182.79</ele>
        <time>2019-04-21T16:30:25Z</time>
      </trkpt>
      <trkpt lat="43.2255" lon="5.43943">
        <ele>181.35</ele>
        <time>2019-04-21T16:30:28Z</time>
      </trkpt>
      <trkpt lat="43.22555" lon="5.43941">
        <ele>180.38</ele>
        <time>2019-04-21T16:30:33Z</time>
      </trkpt>
      <trkpt lat="43.22556" lon="5.4394">
        <ele>179.42</ele>
        <time>2019-04-21T16:30:34Z</time>
      </trkpt>
      <trkpt lat="43.22557" lon="5.43938">
        <ele>178.94</ele>
        <time>2019-04-21T16:30:35Z</time>
      </trkpt>
      <trkpt lat="43.22558" lon="5.43936">
        <ele>178.94</ele>
        <time>2019-04-21T16:30:36Z</time>
      </trkpt>
      <trkpt lat="43.22559" lon="5.43935">
        <ele>178.94</ele>
        <time>2019-04-21T16:30:37Z</time>
      </trkpt>
      <trkpt lat="43.22572" lon="5.43924">
        <ele>176.06</ele>
        <time>2019-04-21T16:30:49Z</time>
      </trkpt>
      <trkpt lat="43.22572" lon="5.43923">
        <ele>175.58</ele>
        <time>2019-04-21T16:30:50Z</time>
      </trkpt>
      <trkpt lat="43.22573" lon="5.43922">
        <ele>176.54</ele>
        <time>2019-04-21T16:30:51Z</time>
      </trkpt>
      <trkpt lat="43.22576" lon="5.43919">
        <ele>173.17</ele>
        <time>2019-04-21T16:30:59Z</time>
      </trkpt>
      <trkpt lat="43.2258" lon="5.43916">
        <ele>171.25</ele>
        <time>2019-04-21T16:31:06Z</time>
      </trkpt>
      <trkpt lat="43.22583" lon="5.43913">
        <ele>171.25</ele>
        <time>2019-04-21T16:31:08Z</time>
      </trkpt>
      <trkpt lat="43.22584" lon="5.43911">
        <ele>172.21</ele>
        <time>2019-04-21T16:31:09Z</time>
      </trkpt>
      <trkpt lat="43.22596" lon="5.43894">
        <ele>169.81</ele>
        <time>2019-04-21T16:31:22Z</time>
      </trkpt>
      <trkpt lat="43.22598" lon="5.43892">
        <ele>169.33</ele>
        <time>2019-04-21T16:31:25Z</time>
      </trkpt>
      <trkpt lat="43.22605" lon="5.43885">
        <ele>169.33</ele>
        <time>2019-04-21T16:31:33Z</time>
      </trkpt>
      <trkpt lat="43.22623" lon="5.43879">
        <ele>167.41</ele>
        <time>2019-04-21T16:31:50Z</time>
      </trkpt>
      <trkpt lat="43.22632" lon="5.43876">
        <ele>165.48</ele>
        <time>2019-04-21T16:32:00Z</time>
      </trkpt>
      <trkpt lat="43.22637" lon="5.43882">
        <ele>164.52</ele>
        <time>2019-04-21T16:32:05Z</time>
      </trkpt>
      <trkpt lat="43.22643" lon="5.43886">
        <ele>165.48</ele>
        <time>2019-04-21T16:32:11Z</time>
      </trkpt>
      <trkpt lat="43.22647" lon="5.43887">
        <ele>164.52</ele>
        <time>2019-04-21T16:32:15Z</time>
      </trkpt>
      <trkpt lat="43.22648" lon="5.43888">
        <ele>164.52</ele>
        <time>2019-04-21T16:32:16Z</time>
      </trkpt>
      <trkpt lat="43.22649" lon="5.43889">
        <ele>165</ele>
        <time>2019-04-21T16:32:17Z</time>
      </trkpt>
      <trkpt lat="43.2265" lon="5.43889">
        <ele>165</ele>
        <time>2019-04-21T16:32:18Z</time>
      </trkpt>
      <trkpt lat="43.22656" lon="5.43896">
        <ele>165</ele>
        <time>2019-04-21T16:32:28Z</time>
      </trkpt>
      <trkpt lat="43.22665" lon="5.439">
        <ele>165.48</ele>
        <time>2019-04-21T16:32:40Z</time>
      </trkpt>
      <trkpt lat="43.22664" lon="5.43895">
        <ele>165.96</ele>
        <time>2019-04-21T16:32:55Z</time>
      </trkpt>
      <trkpt lat="43.22664" lon="5.43897">
        <ele>165</ele>
        <time>2019-04-21T16:33:05Z</time>
      </trkpt>
      <trkpt lat="43.22665" lon="5.43904">
        <ele>165</ele>
        <time>2019-04-21T16:33:12Z</time>
      </trkpt>
      <trkpt lat="43.22676" lon="5.43922">
        <ele>165</ele>
        <time>2019-04-21T16:33:24Z</time>
      </trkpt>
      <trkpt lat="43.22678" lon="5.43925">
        <ele>164.52</ele>
        <time>2019-04-21T16:33:29Z</time>
      </trkpt>
      <trkpt lat="43.2268" lon="5.43927">
        <ele>164.52</ele>
        <time>2019-04-21T16:33:30Z</time>
      </trkpt>
      <trkpt lat="43.22687" lon="5.43937">
        <ele>164.52</ele>
        <time>2019-04-21T16:33:37Z</time>
      </trkpt>
      <trkpt lat="43.22689" lon="5.4394">
        <ele>165</ele>
        <time>2019-04-21T16:33:38Z</time>
      </trkpt>
      <trkpt lat="43.2269" lon="5.43942">
        <ele>164.52</ele>
        <time>2019-04-21T16:33:39Z</time>
      </trkpt>
      <trkpt lat="43.22691" lon="5.43945">
        <ele>164.52</ele>
        <time>2019-04-21T16:33:40Z</time>
      </trkpt>
      <trkpt lat="43.22692" lon="5.43946">
        <ele>164.52</ele>
        <time>2019-04-21T16:33:41Z</time>
      </trkpt>
      <trkpt lat="43.22695" lon="5.4395">
        <ele>164.52</ele>
        <time>2019-04-21T16:33:46Z</time>
      </trkpt>
      <trkpt lat="43.22695" lon="5.43951">
        <ele>165</ele>
        <time>2019-04-21T16:33:47Z</time>
      </trkpt>
      <trkpt lat="43.22696" lon="5.43954">
        <ele>165</ele>
        <time>2019-04-21T16:33:48Z</time>
      </trkpt>
      <trkpt lat="43.22697" lon="5.43956">
        <ele>165</ele>
        <time>2019-04-21T16:33:49Z</time>
      </trkpt>
      <trkpt lat="43.22699" lon="5.43958">
        <ele>165.48</ele>
        <time>2019-04-21T16:33:50Z</time>
      </trkpt>
      <trkpt lat="43.22699" lon="5.4396">
        <ele>165</ele>
        <time>2019-04-21T16:33:51Z</time>
      </trkpt>
      <trkpt lat="43.22705" lon="5.43972">
        <ele>165.96</ele>
        <time>2019-04-21T16:34:01Z</time>
      </trkpt>
      <trkpt lat="43.22707" lon="5.43973">
        <ele>165</ele>
        <time>2019-04-21T16:34:04Z</time>
      </trkpt>
      <trkpt lat="43.22708" lon="5.43974">
        <ele>164.04</ele>
        <time>2019-04-21T16:34:05Z</time>
      </trkpt>
      <trkpt lat="43.22711" lon="5.43979">
        <ele>165</ele>
        <time>2019-04-21T16:34:18Z</time>
      </trkpt>
      <trkpt lat="43.22714" lon="5.43983">
        <ele>165.48</ele>
        <time>2019-04-21T16:34:32Z</time>
      </trkpt>
      <trkpt lat="43.22718" lon="5.43986">
        <ele>165.48</ele>
        <time>2019-04-21T16:34:38Z</time>
      </trkpt>
      <trkpt lat="43.22719" lon="5.43987">
        <ele>165.96</ele>
        <time>2019-04-21T16:34:40Z</time>
      </trkpt>
      <trkpt lat="43.2272" lon="5.43989">
        <ele>165</ele>
        <time>2019-04-21T16:34:41Z</time>
      </trkpt>
      <trkpt lat="43.22722" lon="5.4399">
        <ele>164.52</ele>
        <time>2019-04-21T16:34:42Z</time>
      </trkpt>
      <trkpt lat="43.22723" lon="5.43991">
        <ele>164.52</ele>
        <time>2019-04-21T16:34:43Z</time>
      </trkpt>
      <trkpt lat="43.22724" lon="5.43992">
        <ele>164.52</ele>
        <time>2019-04-21T16:34:44Z</time>
      </trkpt>
      <trkpt lat="43.22732" lon="5.43996">
        <ele>162.6</ele>
        <time>2019-04-21T16:34:55Z</time>
      </trkpt>
      <trkpt lat="43.22734" lon="5.43997">
        <ele>162.6</ele>
        <time>2019-04-21T16:34:56Z</time>
      </trkpt>
      <trkpt lat="43.2274" lon="5.43998">
        <ele>163.08</ele>
        <time>2019-04-21T16:35:02Z</time>
      </trkpt>
      <trkpt lat="43.22742" lon="5.43998">
        <ele>163.56</ele>
        <time>2019-04-21T16:35:04Z</time>
      </trkpt>
      <trkpt lat="43.22745" lon="5.43998">
        <ele>164.04</ele>
        <time>2019-04-21T16:35:06Z</time>
      </trkpt>
      <trkpt lat="43.22747" lon="5.43996">
        <ele>164.52</ele>
        <time>2019-04-21T16:35:07Z</time>
      </trkpt>
      <trkpt lat="43.22749" lon="5.43996">
        <ele>164.52</ele>
        <time>2019-04-21T16:35:08Z</time>
      </trkpt>
      <trkpt lat="43.22764" lon="5.43995">
        <ele>163.56</ele>
        <time>2019-04-21T16:35:19Z</time>
      </trkpt>
      <trkpt lat="43.22781" lon="5.4399">
        <ele>163.08</ele>
        <time>2019-04-21T16:35:32Z</time>
      </trkpt>
      <trkpt lat="43.22781" lon="5.43988">
        <ele>163.56</ele>
        <time>2019-04-21T16:35:34Z</time>
      </trkpt>
      <trkpt lat="43.22782" lon="5.43986">
        <ele>163.56</ele>
        <time>2019-04-21T16:35:35Z</time>
      </trkpt>
      <trkpt lat="43.22792" lon="5.43981">
        <ele>163.08</ele>
        <time>2019-04-21T16:35:45Z</time>
      </trkpt>
      <trkpt lat="43.22802" lon="5.43975">
        <ele>163.56</ele>
        <time>2019-04-21T16:35:55Z</time>
      </trkpt>
      <trkpt lat="43.22806" lon="5.43976">
        <ele>163.08</ele>
        <time>2019-04-21T16:35:59Z</time>
      </trkpt>
      <trkpt lat="43.22808" lon="5.43977">
        <ele>163.08</ele>
        <time>2019-04-21T16:36:00Z</time>
      </trkpt>
      <trkpt lat="43.22823" lon="5.43977">
        <ele>163.08</ele>
        <time>2019-04-21T16:36:11Z</time>
      </trkpt>
      <trkpt lat="43.22834" lon="5.43972">
        <ele>161.64</ele>
        <time>2019-04-21T16:36:22Z</time>
      </trkpt>
      <trkpt lat="43.22846" lon="5.43969">
        <ele>161.16</ele>
        <time>2019-04-21T16:36:32Z</time>
      </trkpt>
      <trkpt lat="43.22861" lon="5.43964">
        <ele>160.68</ele>
        <time>2019-04-21T16:36:43Z</time>
      </trkpt>
      <trkpt lat="43.22862" lon="5.43962">
        <ele>159.24</ele>
        <time>2019-04-21T16:36:46Z</time>
      </trkpt>
      <trkpt lat="43.22867" lon="5.4396">
        <ele>159.72</ele>
        <time>2019-04-21T16:36:52Z</time>
      </trkpt>
      <trkpt lat="43.2288" lon="5.43953">
        <ele>158.27</ele>
        <time>2019-04-21T16:37:02Z</time>
      </trkpt>
      <trkpt lat="43.22895" lon="5.43948">
        <ele>158.27</ele>
        <time>2019-04-21T16:37:11Z</time>
      </trkpt>
      <trkpt lat="43.22905" lon="5.43943">
        <ele>157.79</ele>
        <time>2019-04-21T16:37:21Z</time>
      </trkpt>
      <trkpt lat="43.22923" lon="5.43946">
        <ele>156.83</ele>
        <time>2019-04-21T16:37:32Z</time>
      </trkpt>
      <trkpt lat="43.22937" lon="5.43939">
        <ele>157.31</ele>
        <time>2019-04-21T16:37:41Z</time>
      </trkpt>
      <trkpt lat="43.22945" lon="5.43934">
        <ele>156.83</ele>
        <time>2019-04-21T16:37:52Z</time>
      </trkpt>
      <trkpt lat="43.22959" lon="5.43923">
        <ele>155.39</ele>
        <time>2019-04-21T16:38:05Z</time>
      </trkpt>
      <trkpt lat="43.22975" lon="5.43912">
        <ele>154.91</ele>
        <time>2019-04-21T16:38:17Z</time>
      </trkpt>
      <trkpt lat="43.22979" lon="5.43912">
        <ele>154.91</ele>
        <time>2019-04-21T16:38:20Z</time>
      </trkpt>
      <trkpt lat="43.2298" lon="5.4391">
        <ele>154.91</ele>
        <time>2019-04-21T16:38:21Z</time>
      </trkpt>
      <trkpt lat="43.2299" lon="5.43899">
        <ele>154.43</ele>
        <time>2019-04-21T16:38:28Z</time>
      </trkpt>
      <trkpt lat="43.23" lon="5.43893">
        <ele>153.47</ele>
        <time>2019-04-21T16:38:39Z</time>
      </trkpt>
      <trkpt lat="43.23002" lon="5.43892">
        <ele>153.47</ele>
        <time>2019-04-21T16:38:40Z</time>
      </trkpt>
      <trkpt lat="43.23017" lon="5.43877">
        <ele>150.58</ele>
        <time>2019-04-21T16:38:51Z</time>
      </trkpt>
      <trkpt lat="43.23017" lon="5.43877">
        <ele>150.1</ele>
        <time>2019-04-21T16:38:52Z</time>
      </trkpt>
      <trkpt lat="43.2302" lon="5.43877">
        <ele>150.1</ele>
        <time>2019-04-21T16:38:57Z</time>
      </trkpt>
      <trkpt lat="43.23021" lon="5.43876">
        <ele>150.58</ele>
        <time>2019-04-21T16:38:58Z</time>
      </trkpt>
      <trkpt lat="43.23041" lon="5.43869">
        <ele>149.62</ele>
        <time>2019-04-21T16:39:10Z</time>
      </trkpt>
      <trkpt lat="43.23057" lon="5.43864">
        <ele>147.7</ele>
        <time>2019-04-21T16:39:20Z</time>
      </trkpt>
      <trkpt lat="43.23066" lon="5.43857">
        <ele>145.78</ele>
        <time>2019-04-21T16:39:31Z</time>
      </trkpt>
      <trkpt lat="43.23077" lon="5.43834">
        <ele>145.78</ele>
        <time>2019-04-21T16:39:43Z</time>
      </trkpt>
      <trkpt lat="43.23077" lon="5.43827">
        <ele>145.3</ele>
        <time>2019-04-21T16:39:50Z</time>
      </trkpt>
      <trkpt lat="43.23077" lon="5.43825">
        <ele>144.82</ele>
        <time>2019-04-21T16:39:51Z</time>
      </trkpt>
      <trkpt lat="43.23077" lon="5.43822">
        <ele>145.3</ele>
        <time>2019-04-21T16:39:52Z</time>
      </trkpt>
      <trkpt lat="43.23076" lon="5.43819">
        <ele>144.34</ele>
        <time>2019-04-21T16:39:53Z</time>
      </trkpt>
      <trkpt lat="43.23076" lon="5.43817">
        <ele>144.82</ele>
        <time>2019-04-21T16:39:54Z</time>
      </trkpt>
      <trkpt lat="43.23076" lon="5.43815">
        <ele>144.34</ele>
        <time>2019-04-21T16:39:55Z</time>
      </trkpt>
      <trkpt lat="43.23077" lon="5.43814">
        <ele>144.34</ele>
        <time>2019-04-21T16:39:56Z</time>
      </trkpt>
      <trkpt lat="43.23078" lon="5.43806">
        <ele>143.37</ele>
        <time>2019-04-21T16:40:07Z</time>
      </trkpt>
      <trkpt lat="43.23078" lon="5.43801">
        <ele>142.89</ele>
        <time>2019-04-21T16:40:09Z</time>
      </trkpt>
      <trkpt lat="43.23078" lon="5.43798">
        <ele>142.89</ele>
        <time>2019-04-21T16:40:10Z</time>
      </trkpt>
      <trkpt lat="43.23077" lon="5.43796">
        <ele>143.37</ele>
        <time>2019-04-21T16:40:11Z</time>
      </trkpt>
      <trkpt lat="43.23076" lon="5.43794">
        <ele>142.89</ele>
        <time>2019-04-21T16:40:12Z</time>
      </trkpt>
      <trkpt lat="43.23076" lon="5.4379">
        <ele>142.89</ele>
        <time>2019-04-21T16:40:18Z</time>
      </trkpt>
      <trkpt lat="43.23076" lon="5.43788">
        <ele>143.37</ele>
        <time>2019-04-21T16:40:19Z</time>
      </trkpt>
      <trkpt lat="43.23072" lon="5.43771">
        <ele>143.85</ele>
        <time>2019-04-21T16:40:30Z</time>
      </trkpt>
      <trkpt lat="43.23068" lon="5.43763">
        <ele>143.85</ele>
        <time>2019-04-21T16:40:38Z</time>
      </trkpt>
      <trkpt lat="43.23066" lon="5.43753">
        <ele>144.34</ele>
        <time>2019-04-21T16:40:46Z</time>
      </trkpt>
      <trkpt lat="43.23065" lon="5.43751">
        <ele>144.34</ele>
        <time>2019-04-21T16:40:47Z</time>
      </trkpt>
      <trkpt lat="43.23065" lon="5.43749">
        <ele>144.34</ele>
        <time>2019-04-21T16:40:48Z</time>
      </trkpt>
      <trkpt lat="43.23065" lon="5.43747">
        <ele>144.34</ele>
        <time>2019-04-21T16:40:49Z</time>
      </trkpt>
      <trkpt lat="43.23059" lon="5.43732">
        <ele>144.82</ele>
        <time>2019-04-21T16:41:00Z</time>
      </trkpt>
      <trkpt lat="43.23057" lon="5.43725">
        <ele>146.74</ele>
        <time>2019-04-21T16:41:05Z</time>
      </trkpt>
      <trkpt lat="43.23056" lon="5.43717">
        <ele>147.7</ele>
        <time>2019-04-21T16:41:10Z</time>
      </trkpt>
      <trkpt lat="43.23053" lon="5.43709">
        <ele>147.22</ele>
        <time>2019-04-21T16:41:14Z</time>
      </trkpt>
      <trkpt lat="43.23054" lon="5.43707">
        <ele>147.7</ele>
        <time>2019-04-21T16:41:15Z</time>
      </trkpt>
      <trkpt lat="43.23065" lon="5.43695">
        <ele>148.18</ele>
        <time>2019-04-21T16:41:26Z</time>
      </trkpt>
      <trkpt lat="43.2307" lon="5.43687">
        <ele>147.7</ele>
        <time>2019-04-21T16:41:34Z</time>
      </trkpt>
      <trkpt lat="43.23071" lon="5.43685">
        <ele>147.22</ele>
        <time>2019-04-21T16:41:35Z</time>
      </trkpt>
      <trkpt lat="43.23081" lon="5.43673">
        <ele>146.26</ele>
        <time>2019-04-21T16:41:46Z</time>
      </trkpt>
      <trkpt lat="43.23084" lon="5.43673">
        <ele>146.26</ele>
        <time>2019-04-21T16:41:48Z</time>
      </trkpt>
      <trkpt lat="43.23085" lon="5.43672">
        <ele>145.78</ele>
        <time>2019-04-21T16:41:49Z</time>
      </trkpt>
      <trkpt lat="43.231" lon="5.43669">
        <ele>144.82</ele>
        <time>2019-04-21T16:42:00Z</time>
      </trkpt>
      <trkpt lat="43.23102" lon="5.43668">
        <ele>144.34</ele>
        <time>2019-04-21T16:42:11Z</time>
      </trkpt>
      <trkpt lat="43.23104" lon="5.43665">
        <ele>144.34</ele>
        <time>2019-04-21T16:42:16Z</time>
      </trkpt>
      <trkpt lat="43.23105" lon="5.43664">
        <ele>144.34</ele>
        <time>2019-04-21T16:42:17Z</time>
      </trkpt>
      <trkpt lat="43.23107" lon="5.43665">
        <ele>144.34</ele>
        <time>2019-04-21T16:42:18Z</time>
      </trkpt>
      <trkpt lat="43.23108" lon="5.43665">
        <ele>144.82</ele>
        <time>2019-04-21T16:42:19Z</time>
      </trkpt>
      <trkpt lat="43.2311" lon="5.43665">
        <ele>145.3</ele>
        <time>2019-04-21T16:42:20Z</time>
      </trkpt>
      <trkpt lat="43.23112" lon="5.43666">
        <ele>145.3</ele>
        <time>2019-04-21T16:42:24Z</time>
      </trkpt>
      <trkpt lat="43.23117" lon="5.43669">
        <ele>145.78</ele>
        <time>2019-04-21T16:42:39Z</time>
      </trkpt>
      <trkpt lat="43.2312" lon="5.43674">
        <ele>145.3</ele>
        <time>2019-04-21T16:42:51Z</time>
      </trkpt>
    </trkseg>
  </trk>
</gpx>